<?xml version="1.0" encoding="UTF-8" standalone="no" ?>
<gpx xmlns="http://www.topografix.com/GPX/1/1" xmlns:xsi="http://www.w3.org/2001/XMLSchema-instance" xsi:schemaLocation="http://www.topografix.com/GPX/1/1 http://www.topografix.com/GPX/1/1/gpx.xsd" version="1.1" creator="VisuGPX - https://www.visugpx.com">
  <metadata>
    <name>Champagnat Cyclisme sur route</name>
  </metadata>
  <trk>
    <name><![CDATA[Champagnat Cyclisme sur route_1]]></name>
    <trkseg>
      <trkpt lat="46.48724" lon="5.38201">
        <ele>293.4</ele>
        <time>2022-07-16T04:38:48Z</time>
      </trkpt>
      <trkpt lat="46.48746" lon="5.38226">
        <ele>291</ele>
        <time>2022-07-16T04:38:50Z</time>
      </trkpt>
      <trkpt lat="46.48766" lon="5.3825">
        <ele>288.4</ele>
        <time>2022-07-16T04:38:52Z</time>
      </trkpt>
      <trkpt lat="46.48776" lon="5.38262">
        <ele>287.2</ele>
        <time>2022-07-16T04:38:53Z</time>
      </trkpt>
      <trkpt lat="46.48787" lon="5.38272">
        <ele>285.4</ele>
        <time>2022-07-16T04:38:54Z</time>
      </trkpt>
      <trkpt lat="46.48799" lon="5.38281">
        <ele>284.2</ele>
        <time>2022-07-16T04:38:55Z</time>
      </trkpt>
      <trkpt lat="46.48811" lon="5.38289">
        <ele>283.6</ele>
        <time>2022-07-16T04:38:56Z</time>
      </trkpt>
      <trkpt lat="46.48823" lon="5.38297">
        <ele>282.6</ele>
        <time>2022-07-16T04:38:57Z</time>
      </trkpt>
      <trkpt lat="46.48857" lon="5.38326">
        <ele>281.4</ele>
        <time>2022-07-16T04:39:00Z</time>
      </trkpt>
      <trkpt lat="46.4887" lon="5.38335">
        <ele>280</ele>
        <time>2022-07-16T04:39:01Z</time>
      </trkpt>
      <trkpt lat="46.48882" lon="5.38342">
        <ele>278.6</ele>
        <time>2022-07-16T04:39:02Z</time>
      </trkpt>
      <trkpt lat="46.48907" lon="5.38356">
        <ele>276.8</ele>
        <time>2022-07-16T04:39:04Z</time>
      </trkpt>
      <trkpt lat="46.48919" lon="5.38365">
        <ele>276</ele>
        <time>2022-07-16T04:39:05Z</time>
      </trkpt>
      <trkpt lat="46.48931" lon="5.38376">
        <ele>274.8</ele>
        <time>2022-07-16T04:39:06Z</time>
      </trkpt>
      <trkpt lat="46.4894" lon="5.3839">
        <ele>274.4</ele>
        <time>2022-07-16T04:39:07Z</time>
      </trkpt>
      <trkpt lat="46.48946" lon="5.38405">
        <ele>273</ele>
        <time>2022-07-16T04:39:08Z</time>
      </trkpt>
      <trkpt lat="46.4895" lon="5.38421">
        <ele>271.6</ele>
        <time>2022-07-16T04:39:09Z</time>
      </trkpt>
      <trkpt lat="46.48958" lon="5.38452">
        <ele>270.4</ele>
        <time>2022-07-16T04:39:11Z</time>
      </trkpt>
      <trkpt lat="46.48971" lon="5.38476">
        <ele>269.8</ele>
        <time>2022-07-16T04:39:13Z</time>
      </trkpt>
      <trkpt lat="46.4898" lon="5.38484">
        <ele>269.8</ele>
        <time>2022-07-16T04:39:14Z</time>
      </trkpt>
      <trkpt lat="46.4899" lon="5.3849">
        <ele>269.6</ele>
        <time>2022-07-16T04:39:15Z</time>
      </trkpt>
      <trkpt lat="46.4902" lon="5.38503">
        <ele>269.4</ele>
        <time>2022-07-16T04:39:18Z</time>
      </trkpt>
      <trkpt lat="46.4905" lon="5.38513">
        <ele>269.4</ele>
        <time>2022-07-16T04:39:21Z</time>
      </trkpt>
      <trkpt lat="46.4907" lon="5.38517">
        <ele>269</ele>
        <time>2022-07-16T04:39:23Z</time>
      </trkpt>
      <trkpt lat="46.49098" lon="5.3852">
        <ele>268.2</ele>
        <time>2022-07-16T04:39:26Z</time>
      </trkpt>
      <trkpt lat="46.49115" lon="5.38522">
        <ele>268</ele>
        <time>2022-07-16T04:39:28Z</time>
      </trkpt>
      <trkpt lat="46.49131" lon="5.38526">
        <ele>267.8</ele>
        <time>2022-07-16T04:39:30Z</time>
      </trkpt>
      <trkpt lat="46.49138" lon="5.38529">
        <ele>267.8</ele>
        <time>2022-07-16T04:39:31Z</time>
      </trkpt>
      <trkpt lat="46.49151" lon="5.38535">
        <ele>267.8</ele>
        <time>2022-07-16T04:39:33Z</time>
      </trkpt>
      <trkpt lat="46.49157" lon="5.38537">
        <ele>267.8</ele>
        <time>2022-07-16T04:39:34Z</time>
      </trkpt>
      <trkpt lat="46.49167" lon="5.38538">
        <ele>268</ele>
        <time>2022-07-16T04:39:36Z</time>
      </trkpt>
      <trkpt lat="46.49175" lon="5.38546">
        <ele>268.4</ele>
        <time>2022-07-16T04:39:38Z</time>
      </trkpt>
      <trkpt lat="46.49177" lon="5.38553">
        <ele>268.6</ele>
        <time>2022-07-16T04:39:39Z</time>
      </trkpt>
      <trkpt lat="46.49186" lon="5.38578">
        <ele>269.4</ele>
        <time>2022-07-16T04:39:43Z</time>
      </trkpt>
      <trkpt lat="46.49194" lon="5.38597">
        <ele>270.4</ele>
        <time>2022-07-16T04:39:46Z</time>
      </trkpt>
      <trkpt lat="46.49196" lon="5.38602">
        <ele>270.6</ele>
        <time>2022-07-16T04:39:47Z</time>
      </trkpt>
      <trkpt lat="46.49205" lon="5.38617">
        <ele>271.6</ele>
        <time>2022-07-16T04:39:50Z</time>
      </trkpt>
      <trkpt lat="46.49206" lon="5.38623">
        <ele>271.8</ele>
        <time>2022-07-16T04:39:51Z</time>
      </trkpt>
      <trkpt lat="46.49207" lon="5.38629">
        <ele>272.4</ele>
        <time>2022-07-16T04:39:52Z</time>
      </trkpt>
      <trkpt lat="46.49207" lon="5.38642">
        <ele>273</ele>
        <time>2022-07-16T04:39:54Z</time>
      </trkpt>
      <trkpt lat="46.49209" lon="5.38664">
        <ele>273.6</ele>
        <time>2022-07-16T04:39:57Z</time>
      </trkpt>
      <trkpt lat="46.49213" lon="5.38678">
        <ele>274</ele>
        <time>2022-07-16T04:39:59Z</time>
      </trkpt>
      <trkpt lat="46.49215" lon="5.38685">
        <ele>274</ele>
        <time>2022-07-16T04:40:00Z</time>
      </trkpt>
      <trkpt lat="46.49222" lon="5.38695">
        <ele>274.2</ele>
        <time>2022-07-16T04:40:02Z</time>
      </trkpt>
      <trkpt lat="46.49235" lon="5.38706">
        <ele>274.6</ele>
        <time>2022-07-16T04:40:05Z</time>
      </trkpt>
      <trkpt lat="46.49246" lon="5.38711">
        <ele>274.6</ele>
        <time>2022-07-16T04:40:07Z</time>
      </trkpt>
      <trkpt lat="46.49262" lon="5.3872">
        <ele>274.8</ele>
        <time>2022-07-16T04:40:10Z</time>
      </trkpt>
      <trkpt lat="46.49272" lon="5.38726">
        <ele>275.2</ele>
        <time>2022-07-16T04:40:12Z</time>
      </trkpt>
      <trkpt lat="46.49276" lon="5.38728">
        <ele>275.2</ele>
        <time>2022-07-16T04:40:13Z</time>
      </trkpt>
      <trkpt lat="46.49281" lon="5.3873">
        <ele>275.4</ele>
        <time>2022-07-16T04:40:14Z</time>
      </trkpt>
      <trkpt lat="46.49284" lon="5.38732">
        <ele>275.4</ele>
        <time>2022-07-16T04:40:15Z</time>
      </trkpt>
      <trkpt lat="46.49297" lon="5.38737">
        <ele>275.8</ele>
        <time>2022-07-16T04:40:18Z</time>
      </trkpt>
      <trkpt lat="46.49307" lon="5.38739">
        <ele>276.2</ele>
        <time>2022-07-16T04:40:20Z</time>
      </trkpt>
      <trkpt lat="46.49342" lon="5.38747">
        <ele>277.4</ele>
        <time>2022-07-16T04:40:27Z</time>
      </trkpt>
      <trkpt lat="46.49373" lon="5.38759">
        <ele>278.4</ele>
        <time>2022-07-16T04:40:34Z</time>
      </trkpt>
      <trkpt lat="46.49416" lon="5.3877">
        <ele>279.2</ele>
        <time>2022-07-16T04:40:43Z</time>
      </trkpt>
      <trkpt lat="46.49429" lon="5.38773">
        <ele>279.4</ele>
        <time>2022-07-16T04:40:46Z</time>
      </trkpt>
      <trkpt lat="46.49453" lon="5.38777">
        <ele>280</ele>
        <time>2022-07-16T04:40:51Z</time>
      </trkpt>
      <trkpt lat="46.49486" lon="5.38783">
        <ele>280.4</ele>
        <time>2022-07-16T04:40:57Z</time>
      </trkpt>
      <trkpt lat="46.49526" lon="5.38789">
        <ele>279.6</ele>
        <time>2022-07-16T04:41:04Z</time>
      </trkpt>
      <trkpt lat="46.49537" lon="5.38792">
        <ele>279.4</ele>
        <time>2022-07-16T04:41:06Z</time>
      </trkpt>
      <trkpt lat="46.49555" lon="5.38797">
        <ele>279.2</ele>
        <time>2022-07-16T04:41:09Z</time>
      </trkpt>
      <trkpt lat="46.4958" lon="5.38803">
        <ele>278.8</ele>
        <time>2022-07-16T04:41:13Z</time>
      </trkpt>
      <trkpt lat="46.49586" lon="5.38802">
        <ele>278.8</ele>
        <time>2022-07-16T04:41:14Z</time>
      </trkpt>
      <trkpt lat="46.49593" lon="5.38802">
        <ele>278.8</ele>
        <time>2022-07-16T04:41:15Z</time>
      </trkpt>
      <trkpt lat="46.496" lon="5.38801">
        <ele>278.8</ele>
        <time>2022-07-16T04:41:16Z</time>
      </trkpt>
      <trkpt lat="46.49627" lon="5.38794">
        <ele>278.4</ele>
        <time>2022-07-16T04:41:20Z</time>
      </trkpt>
      <trkpt lat="46.49682" lon="5.38784">
        <ele>277.4</ele>
        <time>2022-07-16T04:41:28Z</time>
      </trkpt>
      <trkpt lat="46.49737" lon="5.38774">
        <ele>276.4</ele>
        <time>2022-07-16T04:41:36Z</time>
      </trkpt>
      <trkpt lat="46.49794" lon="5.38762">
        <ele>276.6</ele>
        <time>2022-07-16T04:41:45Z</time>
      </trkpt>
      <trkpt lat="46.49835" lon="5.38754">
        <ele>277.2</ele>
        <time>2022-07-16T04:41:52Z</time>
      </trkpt>
      <trkpt lat="46.49881" lon="5.38743">
        <ele>278.2</ele>
        <time>2022-07-16T04:42:00Z</time>
      </trkpt>
      <trkpt lat="46.49918" lon="5.38736">
        <ele>279</ele>
        <time>2022-07-16T04:42:06Z</time>
      </trkpt>
      <trkpt lat="46.49925" lon="5.38735">
        <ele>279</ele>
        <time>2022-07-16T04:42:07Z</time>
      </trkpt>
      <trkpt lat="46.49975" lon="5.38725">
        <ele>279</ele>
        <time>2022-07-16T04:42:14Z</time>
      </trkpt>
      <trkpt lat="46.50023" lon="5.38715">
        <ele>277.2</ele>
        <time>2022-07-16T04:42:20Z</time>
      </trkpt>
      <trkpt lat="46.50032" lon="5.38714">
        <ele>277</ele>
        <time>2022-07-16T04:42:21Z</time>
      </trkpt>
      <trkpt lat="46.50065" lon="5.38708">
        <ele>276</ele>
        <time>2022-07-16T04:42:25Z</time>
      </trkpt>
      <trkpt lat="46.50106" lon="5.38702">
        <ele>275.2</ele>
        <time>2022-07-16T04:42:30Z</time>
      </trkpt>
      <trkpt lat="46.5012" lon="5.38705">
        <ele>275</ele>
        <time>2022-07-16T04:42:32Z</time>
      </trkpt>
      <trkpt lat="46.50132" lon="5.3871">
        <ele>275</ele>
        <time>2022-07-16T04:42:34Z</time>
      </trkpt>
      <trkpt lat="46.50144" lon="5.3871">
        <ele>275</ele>
        <time>2022-07-16T04:42:36Z</time>
      </trkpt>
      <trkpt lat="46.50149" lon="5.38705">
        <ele>275.4</ele>
        <time>2022-07-16T04:42:37Z</time>
      </trkpt>
      <trkpt lat="46.50153" lon="5.38698">
        <ele>275.8</ele>
        <time>2022-07-16T04:42:38Z</time>
      </trkpt>
      <trkpt lat="46.50154" lon="5.38689">
        <ele>275.8</ele>
        <time>2022-07-16T04:42:39Z</time>
      </trkpt>
      <trkpt lat="46.50152" lon="5.3868">
        <ele>276</ele>
        <time>2022-07-16T04:42:40Z</time>
      </trkpt>
      <trkpt lat="46.50145" lon="5.38661">
        <ele>276</ele>
        <time>2022-07-16T04:42:42Z</time>
      </trkpt>
      <trkpt lat="46.50144" lon="5.38638">
        <ele>276</ele>
        <time>2022-07-16T04:42:44Z</time>
      </trkpt>
      <trkpt lat="46.50146" lon="5.38626">
        <ele>276</ele>
        <time>2022-07-16T04:42:45Z</time>
      </trkpt>
      <trkpt lat="46.50149" lon="5.38614">
        <ele>275.8</ele>
        <time>2022-07-16T04:42:46Z</time>
      </trkpt>
      <trkpt lat="46.50157" lon="5.38589">
        <ele>274.8</ele>
        <time>2022-07-16T04:42:48Z</time>
      </trkpt>
      <trkpt lat="46.5016" lon="5.38576">
        <ele>274.6</ele>
        <time>2022-07-16T04:42:49Z</time>
      </trkpt>
      <trkpt lat="46.50164" lon="5.38564">
        <ele>273.8</ele>
        <time>2022-07-16T04:42:50Z</time>
      </trkpt>
      <trkpt lat="46.50171" lon="5.38538">
        <ele>272.6</ele>
        <time>2022-07-16T04:42:52Z</time>
      </trkpt>
      <trkpt lat="46.50183" lon="5.38499">
        <ele>271.4</ele>
        <time>2022-07-16T04:42:55Z</time>
      </trkpt>
      <trkpt lat="46.50195" lon="5.38459">
        <ele>270.4</ele>
        <time>2022-07-16T04:42:58Z</time>
      </trkpt>
      <trkpt lat="46.50199" lon="5.38446">
        <ele>269.8</ele>
        <time>2022-07-16T04:42:59Z</time>
      </trkpt>
      <trkpt lat="46.50207" lon="5.38423">
        <ele>268.6</ele>
        <time>2022-07-16T04:43:01Z</time>
      </trkpt>
      <trkpt lat="46.50213" lon="5.38403">
        <ele>267.6</ele>
        <time>2022-07-16T04:43:03Z</time>
      </trkpt>
      <trkpt lat="46.50216" lon="5.38394">
        <ele>266.8</ele>
        <time>2022-07-16T04:43:04Z</time>
      </trkpt>
      <trkpt lat="46.5022" lon="5.38388">
        <ele>266.4</ele>
        <time>2022-07-16T04:43:05Z</time>
      </trkpt>
      <trkpt lat="46.50224" lon="5.38386">
        <ele>266</ele>
        <time>2022-07-16T04:43:06Z</time>
      </trkpt>
      <trkpt lat="46.50234" lon="5.38392">
        <ele>265.2</ele>
        <time>2022-07-16T04:43:08Z</time>
      </trkpt>
      <trkpt lat="46.50239" lon="5.38398">
        <ele>265</ele>
        <time>2022-07-16T04:43:09Z</time>
      </trkpt>
      <trkpt lat="46.50256" lon="5.38417">
        <ele>264.2</ele>
        <time>2022-07-16T04:43:12Z</time>
      </trkpt>
      <trkpt lat="46.50263" lon="5.38423">
        <ele>263.8</ele>
        <time>2022-07-16T04:43:13Z</time>
      </trkpt>
      <trkpt lat="46.50269" lon="5.38429">
        <ele>263.4</ele>
        <time>2022-07-16T04:43:14Z</time>
      </trkpt>
      <trkpt lat="46.50301" lon="5.38465">
        <ele>263.2</ele>
        <time>2022-07-16T04:43:20Z</time>
      </trkpt>
      <trkpt lat="46.50305" lon="5.38471">
        <ele>263.2</ele>
        <time>2022-07-16T04:43:21Z</time>
      </trkpt>
      <trkpt lat="46.50317" lon="5.38489">
        <ele>264.2</ele>
        <time>2022-07-16T04:43:24Z</time>
      </trkpt>
      <trkpt lat="46.50321" lon="5.38494">
        <ele>264.4</ele>
        <time>2022-07-16T04:43:25Z</time>
      </trkpt>
      <trkpt lat="46.50325" lon="5.385">
        <ele>265</ele>
        <time>2022-07-16T04:43:26Z</time>
      </trkpt>
      <trkpt lat="46.50334" lon="5.38511">
        <ele>265.6</ele>
        <time>2022-07-16T04:43:28Z</time>
      </trkpt>
      <trkpt lat="46.50338" lon="5.38517">
        <ele>266</ele>
        <time>2022-07-16T04:43:29Z</time>
      </trkpt>
      <trkpt lat="46.50347" lon="5.38527">
        <ele>266.4</ele>
        <time>2022-07-16T04:43:31Z</time>
      </trkpt>
      <trkpt lat="46.50357" lon="5.38536">
        <ele>266.8</ele>
        <time>2022-07-16T04:43:33Z</time>
      </trkpt>
      <trkpt lat="46.50362" lon="5.3854">
        <ele>267</ele>
        <time>2022-07-16T04:43:34Z</time>
      </trkpt>
      <trkpt lat="46.50401" lon="5.38569">
        <ele>267.8</ele>
        <time>2022-07-16T04:43:41Z</time>
      </trkpt>
      <trkpt lat="46.50433" lon="5.38596">
        <ele>267.4</ele>
        <time>2022-07-16T04:43:46Z</time>
      </trkpt>
      <trkpt lat="46.50466" lon="5.38622">
        <ele>266</ele>
        <time>2022-07-16T04:43:50Z</time>
      </trkpt>
      <trkpt lat="46.50476" lon="5.38628">
        <ele>265.6</ele>
        <time>2022-07-16T04:43:51Z</time>
      </trkpt>
      <trkpt lat="46.50487" lon="5.38633">
        <ele>264.8</ele>
        <time>2022-07-16T04:43:52Z</time>
      </trkpt>
      <trkpt lat="46.5051" lon="5.38642">
        <ele>263</ele>
        <time>2022-07-16T04:43:54Z</time>
      </trkpt>
      <trkpt lat="46.50534" lon="5.38649">
        <ele>260.4</ele>
        <time>2022-07-16T04:43:56Z</time>
      </trkpt>
      <trkpt lat="46.50546" lon="5.38652">
        <ele>259</ele>
        <time>2022-07-16T04:43:57Z</time>
      </trkpt>
      <trkpt lat="46.5057" lon="5.38658">
        <ele>256.8</ele>
        <time>2022-07-16T04:43:59Z</time>
      </trkpt>
      <trkpt lat="46.50594" lon="5.38663">
        <ele>255.2</ele>
        <time>2022-07-16T04:44:01Z</time>
      </trkpt>
      <trkpt lat="46.50617" lon="5.38668">
        <ele>253.6</ele>
        <time>2022-07-16T04:44:03Z</time>
      </trkpt>
      <trkpt lat="46.50648" lon="5.38678">
        <ele>252.2</ele>
        <time>2022-07-16T04:44:06Z</time>
      </trkpt>
      <trkpt lat="46.50666" lon="5.38685">
        <ele>252</ele>
        <time>2022-07-16T04:44:08Z</time>
      </trkpt>
      <trkpt lat="46.50697" lon="5.38699">
        <ele>252</ele>
        <time>2022-07-16T04:44:12Z</time>
      </trkpt>
      <trkpt lat="46.50717" lon="5.38708">
        <ele>254</ele>
        <time>2022-07-16T04:44:15Z</time>
      </trkpt>
      <trkpt lat="46.5073" lon="5.38712">
        <ele>255.2</ele>
        <time>2022-07-16T04:44:17Z</time>
      </trkpt>
      <trkpt lat="46.50743" lon="5.38716">
        <ele>256.2</ele>
        <time>2022-07-16T04:44:19Z</time>
      </trkpt>
      <trkpt lat="46.5075" lon="5.38717">
        <ele>256.6</ele>
        <time>2022-07-16T04:44:20Z</time>
      </trkpt>
      <trkpt lat="46.50779" lon="5.38722">
        <ele>257.8</ele>
        <time>2022-07-16T04:44:24Z</time>
      </trkpt>
      <trkpt lat="46.50795" lon="5.38725">
        <ele>257.8</ele>
        <time>2022-07-16T04:44:26Z</time>
      </trkpt>
      <trkpt lat="46.50838" lon="5.38734">
        <ele>256.6</ele>
        <time>2022-07-16T04:44:31Z</time>
      </trkpt>
      <trkpt lat="46.50862" lon="5.3874">
        <ele>255.6</ele>
        <time>2022-07-16T04:44:34Z</time>
      </trkpt>
      <trkpt lat="46.5087" lon="5.38742">
        <ele>255.6</ele>
        <time>2022-07-16T04:44:35Z</time>
      </trkpt>
      <trkpt lat="46.50929" lon="5.38755">
        <ele>255.6</ele>
        <time>2022-07-16T04:44:43Z</time>
      </trkpt>
      <trkpt lat="46.50985" lon="5.38767">
        <ele>256.2</ele>
        <time>2022-07-16T04:44:51Z</time>
      </trkpt>
      <trkpt lat="46.50992" lon="5.38768">
        <ele>256.2</ele>
        <time>2022-07-16T04:44:52Z</time>
      </trkpt>
      <trkpt lat="46.51027" lon="5.38775">
        <ele>256.6</ele>
        <time>2022-07-16T04:44:57Z</time>
      </trkpt>
      <trkpt lat="46.51057" lon="5.38782">
        <ele>257.2</ele>
        <time>2022-07-16T04:45:02Z</time>
      </trkpt>
      <trkpt lat="46.51074" lon="5.38786">
        <ele>258</ele>
        <time>2022-07-16T04:45:05Z</time>
      </trkpt>
      <trkpt lat="46.51102" lon="5.38791">
        <ele>259</ele>
        <time>2022-07-16T04:45:10Z</time>
      </trkpt>
      <trkpt lat="46.51108" lon="5.38791">
        <ele>259.2</ele>
        <time>2022-07-16T04:45:11Z</time>
      </trkpt>
      <trkpt lat="46.51133" lon="5.38793">
        <ele>260</ele>
        <time>2022-07-16T04:45:16Z</time>
      </trkpt>
      <trkpt lat="46.51148" lon="5.38794">
        <ele>261</ele>
        <time>2022-07-16T04:45:19Z</time>
      </trkpt>
      <trkpt lat="46.51152" lon="5.38794">
        <ele>261</ele>
        <time>2022-07-16T04:45:20Z</time>
      </trkpt>
      <trkpt lat="46.51176" lon="5.38795">
        <ele>262.2</ele>
        <time>2022-07-16T04:45:25Z</time>
      </trkpt>
      <trkpt lat="46.51192" lon="5.38796">
        <ele>263.2</ele>
        <time>2022-07-16T04:45:28Z</time>
      </trkpt>
      <trkpt lat="46.51198" lon="5.38796">
        <ele>263.4</ele>
        <time>2022-07-16T04:45:29Z</time>
      </trkpt>
      <trkpt lat="46.51203" lon="5.38797">
        <ele>263.6</ele>
        <time>2022-07-16T04:45:30Z</time>
      </trkpt>
      <trkpt lat="46.51225" lon="5.38799">
        <ele>264</ele>
        <time>2022-07-16T04:45:34Z</time>
      </trkpt>
      <trkpt lat="46.51248" lon="5.38801">
        <ele>264.4</ele>
        <time>2022-07-16T04:45:38Z</time>
      </trkpt>
      <trkpt lat="46.51286" lon="5.38804">
        <ele>264.2</ele>
        <time>2022-07-16T04:45:44Z</time>
      </trkpt>
      <trkpt lat="46.51313" lon="5.38805">
        <ele>263.4</ele>
        <time>2022-07-16T04:45:48Z</time>
      </trkpt>
      <trkpt lat="46.51333" lon="5.38806">
        <ele>262.8</ele>
        <time>2022-07-16T04:45:51Z</time>
      </trkpt>
      <trkpt lat="46.51368" lon="5.38809">
        <ele>262.2</ele>
        <time>2022-07-16T04:45:56Z</time>
      </trkpt>
      <trkpt lat="46.51399" lon="5.38812">
        <ele>261.6</ele>
        <time>2022-07-16T04:46:00Z</time>
      </trkpt>
      <trkpt lat="46.51416" lon="5.38812">
        <ele>261.2</ele>
        <time>2022-07-16T04:46:02Z</time>
      </trkpt>
      <trkpt lat="46.51435" lon="5.38806">
        <ele>260.4</ele>
        <time>2022-07-16T04:46:04Z</time>
      </trkpt>
      <trkpt lat="46.51445" lon="5.38804">
        <ele>260</ele>
        <time>2022-07-16T04:46:05Z</time>
      </trkpt>
      <trkpt lat="46.51467" lon="5.38801">
        <ele>259</ele>
        <time>2022-07-16T04:46:07Z</time>
      </trkpt>
      <trkpt lat="46.51478" lon="5.38801">
        <ele>258</ele>
        <time>2022-07-16T04:46:08Z</time>
      </trkpt>
      <trkpt lat="46.51499" lon="5.38802">
        <ele>255.6</ele>
        <time>2022-07-16T04:46:10Z</time>
      </trkpt>
      <trkpt lat="46.51518" lon="5.38803">
        <ele>254</ele>
        <time>2022-07-16T04:46:12Z</time>
      </trkpt>
      <trkpt lat="46.51527" lon="5.38804">
        <ele>253.4</ele>
        <time>2022-07-16T04:46:13Z</time>
      </trkpt>
      <trkpt lat="46.51558" lon="5.38804">
        <ele>253.2</ele>
        <time>2022-07-16T04:46:17Z</time>
      </trkpt>
      <trkpt lat="46.51565" lon="5.38805">
        <ele>253.2</ele>
        <time>2022-07-16T04:46:18Z</time>
      </trkpt>
      <trkpt lat="46.51596" lon="5.38798">
        <ele>255.2</ele>
        <time>2022-07-16T04:46:23Z</time>
      </trkpt>
      <trkpt lat="46.51607" lon="5.38795">
        <ele>256.2</ele>
        <time>2022-07-16T04:46:25Z</time>
      </trkpt>
      <trkpt lat="46.51623" lon="5.38792">
        <ele>257.4</ele>
        <time>2022-07-16T04:46:28Z</time>
      </trkpt>
      <trkpt lat="46.51634" lon="5.38789">
        <ele>258</ele>
        <time>2022-07-16T04:46:30Z</time>
      </trkpt>
      <trkpt lat="46.51644" lon="5.38786">
        <ele>258.4</ele>
        <time>2022-07-16T04:46:32Z</time>
      </trkpt>
      <trkpt lat="46.51663" lon="5.38782">
        <ele>259.6</ele>
        <time>2022-07-16T04:46:36Z</time>
      </trkpt>
      <trkpt lat="46.51672" lon="5.38782">
        <ele>260.2</ele>
        <time>2022-07-16T04:46:38Z</time>
      </trkpt>
      <trkpt lat="46.5168" lon="5.38781">
        <ele>260.8</ele>
        <time>2022-07-16T04:46:40Z</time>
      </trkpt>
      <trkpt lat="46.5169" lon="5.38784">
        <ele>261.4</ele>
        <time>2022-07-16T04:46:43Z</time>
      </trkpt>
      <trkpt lat="46.51694" lon="5.38799">
        <ele>261.6</ele>
        <time>2022-07-16T04:46:46Z</time>
      </trkpt>
      <trkpt lat="46.51696" lon="5.38809">
        <ele>261.8</ele>
        <time>2022-07-16T04:46:48Z</time>
      </trkpt>
      <trkpt lat="46.51699" lon="5.38813">
        <ele>261.8</ele>
        <time>2022-07-16T04:46:49Z</time>
      </trkpt>
      <trkpt lat="46.51705" lon="5.38818">
        <ele>262</ele>
        <time>2022-07-16T04:46:51Z</time>
      </trkpt>
      <trkpt lat="46.51713" lon="5.38819">
        <ele>262.4</ele>
        <time>2022-07-16T04:46:53Z</time>
      </trkpt>
      <trkpt lat="46.51738" lon="5.38821">
        <ele>262.6</ele>
        <time>2022-07-16T04:46:58Z</time>
      </trkpt>
      <trkpt lat="46.51778" lon="5.38822">
        <ele>262.2</ele>
        <time>2022-07-16T04:47:04Z</time>
      </trkpt>
      <trkpt lat="46.5181" lon="5.38822">
        <ele>260.4</ele>
        <time>2022-07-16T04:47:08Z</time>
      </trkpt>
      <trkpt lat="46.51836" lon="5.38821">
        <ele>259.4</ele>
        <time>2022-07-16T04:47:11Z</time>
      </trkpt>
      <trkpt lat="46.51855" lon="5.38821">
        <ele>258.6</ele>
        <time>2022-07-16T04:47:13Z</time>
      </trkpt>
      <trkpt lat="46.51865" lon="5.3882">
        <ele>258</ele>
        <time>2022-07-16T04:47:14Z</time>
      </trkpt>
      <trkpt lat="46.51885" lon="5.38821">
        <ele>257</ele>
        <time>2022-07-16T04:47:16Z</time>
      </trkpt>
      <trkpt lat="46.51907" lon="5.38822">
        <ele>256</ele>
        <time>2022-07-16T04:47:18Z</time>
      </trkpt>
      <trkpt lat="46.51919" lon="5.38822">
        <ele>254.8</ele>
        <time>2022-07-16T04:47:19Z</time>
      </trkpt>
      <trkpt lat="46.51939" lon="5.38823">
        <ele>253.6</ele>
        <time>2022-07-16T04:47:21Z</time>
      </trkpt>
      <trkpt lat="46.51961" lon="5.38824">
        <ele>252</ele>
        <time>2022-07-16T04:47:23Z</time>
      </trkpt>
      <trkpt lat="46.51972" lon="5.38824">
        <ele>250.8</ele>
        <time>2022-07-16T04:47:24Z</time>
      </trkpt>
      <trkpt lat="46.51995" lon="5.38825">
        <ele>249.8</ele>
        <time>2022-07-16T04:47:26Z</time>
      </trkpt>
      <trkpt lat="46.52007" lon="5.38826">
        <ele>249.4</ele>
        <time>2022-07-16T04:47:27Z</time>
      </trkpt>
      <trkpt lat="46.52018" lon="5.38828">
        <ele>248.4</ele>
        <time>2022-07-16T04:47:28Z</time>
      </trkpt>
      <trkpt lat="46.52053" lon="5.38834">
        <ele>246.8</ele>
        <time>2022-07-16T04:47:31Z</time>
      </trkpt>
      <trkpt lat="46.52079" lon="5.38837">
        <ele>244.6</ele>
        <time>2022-07-16T04:47:33Z</time>
      </trkpt>
      <trkpt lat="46.521" lon="5.38838">
        <ele>243.2</ele>
        <time>2022-07-16T04:47:35Z</time>
      </trkpt>
      <trkpt lat="46.52132" lon="5.38841">
        <ele>242.2</ele>
        <time>2022-07-16T04:47:38Z</time>
      </trkpt>
      <trkpt lat="46.52164" lon="5.38844">
        <ele>241.4</ele>
        <time>2022-07-16T04:47:41Z</time>
      </trkpt>
      <trkpt lat="46.52193" lon="5.38852">
        <ele>241</ele>
        <time>2022-07-16T04:47:44Z</time>
      </trkpt>
      <trkpt lat="46.52213" lon="5.3886">
        <ele>240.8</ele>
        <time>2022-07-16T04:47:46Z</time>
      </trkpt>
      <trkpt lat="46.52229" lon="5.38868">
        <ele>240.8</ele>
        <time>2022-07-16T04:47:48Z</time>
      </trkpt>
      <trkpt lat="46.52263" lon="5.38884">
        <ele>240.8</ele>
        <time>2022-07-16T04:47:52Z</time>
      </trkpt>
      <trkpt lat="46.52303" lon="5.38903">
        <ele>240.6</ele>
        <time>2022-07-16T04:47:57Z</time>
      </trkpt>
      <trkpt lat="46.5236" lon="5.38931">
        <ele>240.2</ele>
        <time>2022-07-16T04:48:04Z</time>
      </trkpt>
      <trkpt lat="46.52402" lon="5.38948">
        <ele>240</ele>
        <time>2022-07-16T04:48:09Z</time>
      </trkpt>
      <trkpt lat="46.52436" lon="5.38963">
        <ele>239.2</ele>
        <time>2022-07-16T04:48:13Z</time>
      </trkpt>
      <trkpt lat="46.52455" lon="5.3897">
        <ele>239</ele>
        <time>2022-07-16T04:48:15Z</time>
      </trkpt>
      <trkpt lat="46.52488" lon="5.38985">
        <ele>237.8</ele>
        <time>2022-07-16T04:48:19Z</time>
      </trkpt>
      <trkpt lat="46.52539" lon="5.39016">
        <ele>236.8</ele>
        <time>2022-07-16T04:48:25Z</time>
      </trkpt>
      <trkpt lat="46.52547" lon="5.39023">
        <ele>236.2</ele>
        <time>2022-07-16T04:48:26Z</time>
      </trkpt>
      <trkpt lat="46.52564" lon="5.39036">
        <ele>235.4</ele>
        <time>2022-07-16T04:48:28Z</time>
      </trkpt>
      <trkpt lat="46.52597" lon="5.39065">
        <ele>233.8</ele>
        <time>2022-07-16T04:48:32Z</time>
      </trkpt>
      <trkpt lat="46.52615" lon="5.3908">
        <ele>233.4</ele>
        <time>2022-07-16T04:48:34Z</time>
      </trkpt>
      <trkpt lat="46.52623" lon="5.39088">
        <ele>232.8</ele>
        <time>2022-07-16T04:48:35Z</time>
      </trkpt>
      <trkpt lat="46.5265" lon="5.39111">
        <ele>231.8</ele>
        <time>2022-07-16T04:48:38Z</time>
      </trkpt>
      <trkpt lat="46.52668" lon="5.39126">
        <ele>230.6</ele>
        <time>2022-07-16T04:48:40Z</time>
      </trkpt>
      <trkpt lat="46.52686" lon="5.39139">
        <ele>229.8</ele>
        <time>2022-07-16T04:48:42Z</time>
      </trkpt>
      <trkpt lat="46.52696" lon="5.39144">
        <ele>229.4</ele>
        <time>2022-07-16T04:48:43Z</time>
      </trkpt>
      <trkpt lat="46.52726" lon="5.3916">
        <ele>228</ele>
        <time>2022-07-16T04:48:46Z</time>
      </trkpt>
      <trkpt lat="46.52747" lon="5.39168">
        <ele>227.2</ele>
        <time>2022-07-16T04:48:48Z</time>
      </trkpt>
      <trkpt lat="46.52757" lon="5.39171">
        <ele>226.6</ele>
        <time>2022-07-16T04:48:49Z</time>
      </trkpt>
      <trkpt lat="46.52789" lon="5.39175">
        <ele>225.8</ele>
        <time>2022-07-16T04:48:52Z</time>
      </trkpt>
      <trkpt lat="46.52799" lon="5.39174">
        <ele>225.6</ele>
        <time>2022-07-16T04:48:53Z</time>
      </trkpt>
      <trkpt lat="46.52826" lon="5.39167">
        <ele>225</ele>
        <time>2022-07-16T04:48:56Z</time>
      </trkpt>
      <trkpt lat="46.52863" lon="5.39154">
        <ele>225.4</ele>
        <time>2022-07-16T04:49:01Z</time>
      </trkpt>
      <trkpt lat="46.52889" lon="5.39145">
        <ele>226.6</ele>
        <time>2022-07-16T04:49:05Z</time>
      </trkpt>
      <trkpt lat="46.52894" lon="5.39143">
        <ele>227</ele>
        <time>2022-07-16T04:49:06Z</time>
      </trkpt>
      <trkpt lat="46.52903" lon="5.3914">
        <ele>227.6</ele>
        <time>2022-07-16T04:49:08Z</time>
      </trkpt>
      <trkpt lat="46.52907" lon="5.39141">
        <ele>228.2</ele>
        <time>2022-07-16T04:49:09Z</time>
      </trkpt>
      <trkpt lat="46.5291" lon="5.39145">
        <ele>228.4</ele>
        <time>2022-07-16T04:49:10Z</time>
      </trkpt>
      <trkpt lat="46.5291" lon="5.39158">
        <ele>229.4</ele>
        <time>2022-07-16T04:49:12Z</time>
      </trkpt>
      <trkpt lat="46.52905" lon="5.39194">
        <ele>229.6</ele>
        <time>2022-07-16T04:49:16Z</time>
      </trkpt>
      <trkpt lat="46.52899" lon="5.39255">
        <ele>229</ele>
        <time>2022-07-16T04:49:22Z</time>
      </trkpt>
      <trkpt lat="46.5289" lon="5.39334">
        <ele>228.6</ele>
        <time>2022-07-16T04:49:30Z</time>
      </trkpt>
      <trkpt lat="46.52888" lon="5.39353">
        <ele>228.6</ele>
        <time>2022-07-16T04:49:32Z</time>
      </trkpt>
      <trkpt lat="46.5288" lon="5.39415">
        <ele>229.6</ele>
        <time>2022-07-16T04:49:39Z</time>
      </trkpt>
      <trkpt lat="46.52872" lon="5.39456">
        <ele>230.6</ele>
        <time>2022-07-16T04:49:44Z</time>
      </trkpt>
      <trkpt lat="46.52867" lon="5.39482">
        <ele>231.2</ele>
        <time>2022-07-16T04:49:47Z</time>
      </trkpt>
      <trkpt lat="46.52856" lon="5.39556">
        <ele>231</ele>
        <time>2022-07-16T04:49:55Z</time>
      </trkpt>
      <trkpt lat="46.52848" lon="5.39626">
        <ele>229.8</ele>
        <time>2022-07-16T04:50:02Z</time>
      </trkpt>
      <trkpt lat="46.52848" lon="5.39648">
        <ele>229.6</ele>
        <time>2022-07-16T04:50:04Z</time>
      </trkpt>
      <trkpt lat="46.52852" lon="5.3967">
        <ele>229.2</ele>
        <time>2022-07-16T04:50:06Z</time>
      </trkpt>
      <trkpt lat="46.52873" lon="5.3972">
        <ele>228</ele>
        <time>2022-07-16T04:50:11Z</time>
      </trkpt>
      <trkpt lat="46.52906" lon="5.3978">
        <ele>227.4</ele>
        <time>2022-07-16T04:50:18Z</time>
      </trkpt>
      <trkpt lat="46.52926" lon="5.39812">
        <ele>227</ele>
        <time>2022-07-16T04:50:22Z</time>
      </trkpt>
      <trkpt lat="46.52941" lon="5.39835">
        <ele>227</ele>
        <time>2022-07-16T04:50:25Z</time>
      </trkpt>
      <trkpt lat="46.52945" lon="5.39844">
        <ele>227</ele>
        <time>2022-07-16T04:50:26Z</time>
      </trkpt>
      <trkpt lat="46.52948" lon="5.39853">
        <ele>227.2</ele>
        <time>2022-07-16T04:50:27Z</time>
      </trkpt>
      <trkpt lat="46.52951" lon="5.39873">
        <ele>227.2</ele>
        <time>2022-07-16T04:50:29Z</time>
      </trkpt>
      <trkpt lat="46.52952" lon="5.39883">
        <ele>227.2</ele>
        <time>2022-07-16T04:50:30Z</time>
      </trkpt>
      <trkpt lat="46.52952" lon="5.39893">
        <ele>227.2</ele>
        <time>2022-07-16T04:50:31Z</time>
      </trkpt>
      <trkpt lat="46.52948" lon="5.39924">
        <ele>227.2</ele>
        <time>2022-07-16T04:50:34Z</time>
      </trkpt>
      <trkpt lat="46.52936" lon="5.39972">
        <ele>227</ele>
        <time>2022-07-16T04:50:39Z</time>
      </trkpt>
      <trkpt lat="46.5293" lon="5.40001">
        <ele>226.8</ele>
        <time>2022-07-16T04:50:42Z</time>
      </trkpt>
      <trkpt lat="46.52931" lon="5.4002">
        <ele>227</ele>
        <time>2022-07-16T04:50:44Z</time>
      </trkpt>
      <trkpt lat="46.52939" lon="5.40036">
        <ele>227</ele>
        <time>2022-07-16T04:50:46Z</time>
      </trkpt>
      <trkpt lat="46.52944" lon="5.40043">
        <ele>227</ele>
        <time>2022-07-16T04:50:47Z</time>
      </trkpt>
      <trkpt lat="46.52948" lon="5.40051">
        <ele>227</ele>
        <time>2022-07-16T04:50:48Z</time>
      </trkpt>
      <trkpt lat="46.52958" lon="5.40077">
        <ele>227.2</ele>
        <time>2022-07-16T04:50:51Z</time>
      </trkpt>
      <trkpt lat="46.52961" lon="5.40096">
        <ele>227.4</ele>
        <time>2022-07-16T04:50:53Z</time>
      </trkpt>
      <trkpt lat="46.52962" lon="5.40115">
        <ele>227.6</ele>
        <time>2022-07-16T04:50:55Z</time>
      </trkpt>
      <trkpt lat="46.52959" lon="5.40178">
        <ele>228.2</ele>
        <time>2022-07-16T04:51:02Z</time>
      </trkpt>
      <trkpt lat="46.52948" lon="5.40259">
        <ele>228.4</ele>
        <time>2022-07-16T04:51:11Z</time>
      </trkpt>
      <trkpt lat="46.52944" lon="5.40309">
        <ele>228.6</ele>
        <time>2022-07-16T04:51:17Z</time>
      </trkpt>
      <trkpt lat="46.52943" lon="5.40317">
        <ele>229</ele>
        <time>2022-07-16T04:51:18Z</time>
      </trkpt>
      <trkpt lat="46.52941" lon="5.40333">
        <ele>229.2</ele>
        <time>2022-07-16T04:51:20Z</time>
      </trkpt>
      <trkpt lat="46.52937" lon="5.40347">
        <ele>229.6</ele>
        <time>2022-07-16T04:51:22Z</time>
      </trkpt>
      <trkpt lat="46.52933" lon="5.40377">
        <ele>230</ele>
        <time>2022-07-16T04:51:26Z</time>
      </trkpt>
      <trkpt lat="46.52932" lon="5.40385">
        <ele>230.2</ele>
        <time>2022-07-16T04:51:27Z</time>
      </trkpt>
      <trkpt lat="46.52932" lon="5.40402">
        <ele>230.6</ele>
        <time>2022-07-16T04:51:29Z</time>
      </trkpt>
      <trkpt lat="46.52934" lon="5.40427">
        <ele>231</ele>
        <time>2022-07-16T04:51:32Z</time>
      </trkpt>
      <trkpt lat="46.5294" lon="5.40466">
        <ele>231.6</ele>
        <time>2022-07-16T04:51:37Z</time>
      </trkpt>
      <trkpt lat="46.52943" lon="5.4048">
        <ele>232</ele>
        <time>2022-07-16T04:51:39Z</time>
      </trkpt>
      <trkpt lat="46.52944" lon="5.40488">
        <ele>232</ele>
        <time>2022-07-16T04:51:40Z</time>
      </trkpt>
      <trkpt lat="46.52952" lon="5.40535">
        <ele>233</ele>
        <time>2022-07-16T04:51:46Z</time>
      </trkpt>
      <trkpt lat="46.52959" lon="5.40572">
        <ele>233.8</ele>
        <time>2022-07-16T04:51:51Z</time>
      </trkpt>
      <trkpt lat="46.5296" lon="5.4058">
        <ele>234.2</ele>
        <time>2022-07-16T04:51:52Z</time>
      </trkpt>
      <trkpt lat="46.52962" lon="5.40595">
        <ele>234.2</ele>
        <time>2022-07-16T04:51:54Z</time>
      </trkpt>
      <trkpt lat="46.52961" lon="5.40611">
        <ele>234.6</ele>
        <time>2022-07-16T04:51:56Z</time>
      </trkpt>
      <trkpt lat="46.52959" lon="5.40619">
        <ele>234.6</ele>
        <time>2022-07-16T04:51:57Z</time>
      </trkpt>
      <trkpt lat="46.52949" lon="5.40652">
        <ele>234.4</ele>
        <time>2022-07-16T04:52:01Z</time>
      </trkpt>
      <trkpt lat="46.52928" lon="5.40701">
        <ele>233.6</ele>
        <time>2022-07-16T04:52:07Z</time>
      </trkpt>
      <trkpt lat="46.52901" lon="5.40772">
        <ele>233</ele>
        <time>2022-07-16T04:52:15Z</time>
      </trkpt>
      <trkpt lat="46.52896" lon="5.4078">
        <ele>232.8</ele>
        <time>2022-07-16T04:52:16Z</time>
      </trkpt>
      <trkpt lat="46.52882" lon="5.40801">
        <ele>232.6</ele>
        <time>2022-07-16T04:52:19Z</time>
      </trkpt>
      <trkpt lat="46.52876" lon="5.40805">
        <ele>232.6</ele>
        <time>2022-07-16T04:52:20Z</time>
      </trkpt>
      <trkpt lat="46.52865" lon="5.40812">
        <ele>232.6</ele>
        <time>2022-07-16T04:52:22Z</time>
      </trkpt>
      <trkpt lat="46.52853" lon="5.40815">
        <ele>232.8</ele>
        <time>2022-07-16T04:52:24Z</time>
      </trkpt>
      <trkpt lat="46.52836" lon="5.4082">
        <ele>233</ele>
        <time>2022-07-16T04:52:27Z</time>
      </trkpt>
      <trkpt lat="46.52831" lon="5.40822">
        <ele>233</ele>
        <time>2022-07-16T04:52:28Z</time>
      </trkpt>
      <trkpt lat="46.5282" lon="5.40828">
        <ele>233.2</ele>
        <time>2022-07-16T04:52:30Z</time>
      </trkpt>
      <trkpt lat="46.52811" lon="5.40837">
        <ele>233.8</ele>
        <time>2022-07-16T04:52:32Z</time>
      </trkpt>
      <trkpt lat="46.52808" lon="5.40843">
        <ele>234</ele>
        <time>2022-07-16T04:52:33Z</time>
      </trkpt>
      <trkpt lat="46.52805" lon="5.4085">
        <ele>234.2</ele>
        <time>2022-07-16T04:52:34Z</time>
      </trkpt>
      <trkpt lat="46.52787" lon="5.40894">
        <ele>234.6</ele>
        <time>2022-07-16T04:52:40Z</time>
      </trkpt>
      <trkpt lat="46.52775" lon="5.40925">
        <ele>234.4</ele>
        <time>2022-07-16T04:52:44Z</time>
      </trkpt>
      <trkpt lat="46.52771" lon="5.40942">
        <ele>234.6</ele>
        <time>2022-07-16T04:52:46Z</time>
      </trkpt>
      <trkpt lat="46.52769" lon="5.40951">
        <ele>234.6</ele>
        <time>2022-07-16T04:52:47Z</time>
      </trkpt>
      <trkpt lat="46.52767" lon="5.40987">
        <ele>234.8</ele>
        <time>2022-07-16T04:52:51Z</time>
      </trkpt>
      <trkpt lat="46.52766" lon="5.41005">
        <ele>234.8</ele>
        <time>2022-07-16T04:52:53Z</time>
      </trkpt>
      <trkpt lat="46.52771" lon="5.41041">
        <ele>234.8</ele>
        <time>2022-07-16T04:52:57Z</time>
      </trkpt>
      <trkpt lat="46.52772" lon="5.41049">
        <ele>235</ele>
        <time>2022-07-16T04:52:58Z</time>
      </trkpt>
      <trkpt lat="46.52774" lon="5.41083">
        <ele>235.2</ele>
        <time>2022-07-16T04:53:02Z</time>
      </trkpt>
      <trkpt lat="46.52774" lon="5.41092">
        <ele>234.8</ele>
        <time>2022-07-16T04:53:03Z</time>
      </trkpt>
      <trkpt lat="46.52771" lon="5.41126">
        <ele>234.8</ele>
        <time>2022-07-16T04:53:07Z</time>
      </trkpt>
      <trkpt lat="46.52771" lon="5.41134">
        <ele>235</ele>
        <time>2022-07-16T04:53:08Z</time>
      </trkpt>
      <trkpt lat="46.52772" lon="5.4115">
        <ele>235</ele>
        <time>2022-07-16T04:53:10Z</time>
      </trkpt>
      <trkpt lat="46.52775" lon="5.41165">
        <ele>235.2</ele>
        <time>2022-07-16T04:53:12Z</time>
      </trkpt>
      <trkpt lat="46.52775" lon="5.41174">
        <ele>235.6</ele>
        <time>2022-07-16T04:53:13Z</time>
      </trkpt>
      <trkpt lat="46.52777" lon="5.41198">
        <ele>235.8</ele>
        <time>2022-07-16T04:53:16Z</time>
      </trkpt>
      <trkpt lat="46.52778" lon="5.41215">
        <ele>235.8</ele>
        <time>2022-07-16T04:53:18Z</time>
      </trkpt>
      <trkpt lat="46.52776" lon="5.41282">
        <ele>236.2</ele>
        <time>2022-07-16T04:53:26Z</time>
      </trkpt>
      <trkpt lat="46.52775" lon="5.41299">
        <ele>236.4</ele>
        <time>2022-07-16T04:53:28Z</time>
      </trkpt>
      <trkpt lat="46.52772" lon="5.41315">
        <ele>236.8</ele>
        <time>2022-07-16T04:53:30Z</time>
      </trkpt>
      <trkpt lat="46.52765" lon="5.41338">
        <ele>237</ele>
        <time>2022-07-16T04:53:33Z</time>
      </trkpt>
      <trkpt lat="46.52762" lon="5.41345">
        <ele>237.2</ele>
        <time>2022-07-16T04:53:34Z</time>
      </trkpt>
      <trkpt lat="46.52761" lon="5.41353">
        <ele>237.2</ele>
        <time>2022-07-16T04:53:35Z</time>
      </trkpt>
      <trkpt lat="46.52759" lon="5.41368">
        <ele>237.4</ele>
        <time>2022-07-16T04:53:37Z</time>
      </trkpt>
      <trkpt lat="46.5276" lon="5.41425">
        <ele>237.6</ele>
        <time>2022-07-16T04:53:44Z</time>
      </trkpt>
      <trkpt lat="46.52761" lon="5.41441">
        <ele>237.8</ele>
        <time>2022-07-16T04:53:46Z</time>
      </trkpt>
      <trkpt lat="46.52762" lon="5.41466">
        <ele>238.2</ele>
        <time>2022-07-16T04:53:49Z</time>
      </trkpt>
      <trkpt lat="46.52763" lon="5.41474">
        <ele>238.4</ele>
        <time>2022-07-16T04:53:50Z</time>
      </trkpt>
      <trkpt lat="46.52765" lon="5.41505">
        <ele>238.6</ele>
        <time>2022-07-16T04:53:54Z</time>
      </trkpt>
      <trkpt lat="46.52765" lon="5.41521">
        <ele>238.6</ele>
        <time>2022-07-16T04:53:56Z</time>
      </trkpt>
      <trkpt lat="46.52769" lon="5.41554">
        <ele>238.6</ele>
        <time>2022-07-16T04:54:00Z</time>
      </trkpt>
      <trkpt lat="46.52771" lon="5.41561">
        <ele>238.8</ele>
        <time>2022-07-16T04:54:01Z</time>
      </trkpt>
      <trkpt lat="46.52773" lon="5.41568">
        <ele>238.8</ele>
        <time>2022-07-16T04:54:02Z</time>
      </trkpt>
      <trkpt lat="46.5278" lon="5.41597">
        <ele>238.8</ele>
        <time>2022-07-16T04:54:06Z</time>
      </trkpt>
      <trkpt lat="46.52782" lon="5.41613">
        <ele>239</ele>
        <time>2022-07-16T04:54:08Z</time>
      </trkpt>
      <trkpt lat="46.52781" lon="5.4163">
        <ele>239.2</ele>
        <time>2022-07-16T04:54:10Z</time>
      </trkpt>
      <trkpt lat="46.5278" lon="5.41638">
        <ele>239.2</ele>
        <time>2022-07-16T04:54:11Z</time>
      </trkpt>
      <trkpt lat="46.52775" lon="5.41661">
        <ele>239.6</ele>
        <time>2022-07-16T04:54:14Z</time>
      </trkpt>
      <trkpt lat="46.52772" lon="5.41668">
        <ele>239.6</ele>
        <time>2022-07-16T04:54:15Z</time>
      </trkpt>
      <trkpt lat="46.52769" lon="5.41675">
        <ele>239.6</ele>
        <time>2022-07-16T04:54:16Z</time>
      </trkpt>
      <trkpt lat="46.52765" lon="5.41689">
        <ele>239.6</ele>
        <time>2022-07-16T04:54:18Z</time>
      </trkpt>
      <trkpt lat="46.52765" lon="5.41705">
        <ele>239.8</ele>
        <time>2022-07-16T04:54:20Z</time>
      </trkpt>
      <trkpt lat="46.52766" lon="5.4172">
        <ele>240.2</ele>
        <time>2022-07-16T04:54:22Z</time>
      </trkpt>
      <trkpt lat="46.52765" lon="5.41733">
        <ele>240.4</ele>
        <time>2022-07-16T04:54:24Z</time>
      </trkpt>
      <trkpt lat="46.52759" lon="5.41747">
        <ele>240.6</ele>
        <time>2022-07-16T04:54:26Z</time>
      </trkpt>
      <trkpt lat="46.5275" lon="5.41753">
        <ele>240.8</ele>
        <time>2022-07-16T04:54:28Z</time>
      </trkpt>
      <trkpt lat="46.52745" lon="5.41755">
        <ele>241.2</ele>
        <time>2022-07-16T04:54:29Z</time>
      </trkpt>
      <trkpt lat="46.52737" lon="5.41761">
        <ele>241.8</ele>
        <time>2022-07-16T04:54:31Z</time>
      </trkpt>
      <trkpt lat="46.52731" lon="5.41767">
        <ele>242.2</ele>
        <time>2022-07-16T04:54:33Z</time>
      </trkpt>
      <trkpt lat="46.52722" lon="5.41779">
        <ele>242.8</ele>
        <time>2022-07-16T04:54:36Z</time>
      </trkpt>
      <trkpt lat="46.52719" lon="5.41791">
        <ele>243.8</ele>
        <time>2022-07-16T04:54:38Z</time>
      </trkpt>
      <trkpt lat="46.52718" lon="5.41814">
        <ele>245.2</ele>
        <time>2022-07-16T04:54:42Z</time>
      </trkpt>
      <trkpt lat="46.52718" lon="5.41819">
        <ele>245.4</ele>
        <time>2022-07-16T04:54:43Z</time>
      </trkpt>
      <trkpt lat="46.52721" lon="5.4184">
        <ele>246.4</ele>
        <time>2022-07-16T04:54:47Z</time>
      </trkpt>
      <trkpt lat="46.52721" lon="5.41844">
        <ele>246.6</ele>
        <time>2022-07-16T04:54:48Z</time>
      </trkpt>
      <trkpt lat="46.52722" lon="5.41859">
        <ele>247.8</ele>
        <time>2022-07-16T04:54:51Z</time>
      </trkpt>
      <trkpt lat="46.52726" lon="5.4188">
        <ele>248.8</ele>
        <time>2022-07-16T04:54:55Z</time>
      </trkpt>
      <trkpt lat="46.52726" lon="5.41884">
        <ele>249</ele>
        <time>2022-07-16T04:54:56Z</time>
      </trkpt>
      <trkpt lat="46.52726" lon="5.41915">
        <ele>249.8</ele>
        <time>2022-07-16T04:55:01Z</time>
      </trkpt>
      <trkpt lat="46.52726" lon="5.4192">
        <ele>249.8</ele>
        <time>2022-07-16T04:55:02Z</time>
      </trkpt>
      <trkpt lat="46.52723" lon="5.41957">
        <ele>250.2</ele>
        <time>2022-07-16T04:55:07Z</time>
      </trkpt>
      <trkpt lat="46.5272" lon="5.41978">
        <ele>250.4</ele>
        <time>2022-07-16T04:55:10Z</time>
      </trkpt>
      <trkpt lat="46.52721" lon="5.41991">
        <ele>250.4</ele>
        <time>2022-07-16T04:55:12Z</time>
      </trkpt>
      <trkpt lat="46.52726" lon="5.42022">
        <ele>250.2</ele>
        <time>2022-07-16T04:55:16Z</time>
      </trkpt>
      <trkpt lat="46.52733" lon="5.42039">
        <ele>250.2</ele>
        <time>2022-07-16T04:55:18Z</time>
      </trkpt>
      <trkpt lat="46.52753" lon="5.42071">
        <ele>249</ele>
        <time>2022-07-16T04:55:22Z</time>
      </trkpt>
      <trkpt lat="46.5276" lon="5.4208">
        <ele>248.6</ele>
        <time>2022-07-16T04:55:23Z</time>
      </trkpt>
      <trkpt lat="46.52771" lon="5.42097">
        <ele>247.6</ele>
        <time>2022-07-16T04:55:25Z</time>
      </trkpt>
      <trkpt lat="46.52783" lon="5.42111">
        <ele>247</ele>
        <time>2022-07-16T04:55:27Z</time>
      </trkpt>
      <trkpt lat="46.52795" lon="5.42121">
        <ele>246.6</ele>
        <time>2022-07-16T04:55:29Z</time>
      </trkpt>
      <trkpt lat="46.528" lon="5.42124">
        <ele>246.4</ele>
        <time>2022-07-16T04:55:30Z</time>
      </trkpt>
      <trkpt lat="46.52804" lon="5.42126">
        <ele>246.4</ele>
        <time>2022-07-16T04:55:31Z</time>
      </trkpt>
      <trkpt lat="46.52812" lon="5.4213">
        <ele>246.4</ele>
        <time>2022-07-16T04:55:33Z</time>
      </trkpt>
      <trkpt lat="46.52815" lon="5.4213">
        <ele>246.4</ele>
        <time>2022-07-16T04:55:34Z</time>
      </trkpt>
      <trkpt lat="46.52819" lon="5.42128">
        <ele>246.6</ele>
        <time>2022-07-16T04:55:35Z</time>
      </trkpt>
      <trkpt lat="46.52826" lon="5.42118">
        <ele>246.8</ele>
        <time>2022-07-16T04:55:37Z</time>
      </trkpt>
      <trkpt lat="46.52828" lon="5.42112">
        <ele>246.8</ele>
        <time>2022-07-16T04:55:38Z</time>
      </trkpt>
      <trkpt lat="46.52836" lon="5.42089">
        <ele>247.2</ele>
        <time>2022-07-16T04:55:41Z</time>
      </trkpt>
      <trkpt lat="46.52839" lon="5.42081">
        <ele>247.2</ele>
        <time>2022-07-16T04:55:42Z</time>
      </trkpt>
      <trkpt lat="46.52843" lon="5.42071">
        <ele>247.6</ele>
        <time>2022-07-16T04:55:44Z</time>
      </trkpt>
      <trkpt lat="46.52845" lon="5.42065">
        <ele>247.6</ele>
        <time>2022-07-16T04:55:45Z</time>
      </trkpt>
      <trkpt lat="46.52846" lon="5.42058">
        <ele>247.8</ele>
        <time>2022-07-16T04:55:46Z</time>
      </trkpt>
      <trkpt lat="46.52844" lon="5.42039">
        <ele>247.8</ele>
        <time>2022-07-16T04:55:49Z</time>
      </trkpt>
      <trkpt lat="46.52841" lon="5.42014">
        <ele>249</ele>
        <time>2022-07-16T04:55:53Z</time>
      </trkpt>
      <trkpt lat="46.52837" lon="5.41991">
        <ele>250</ele>
        <time>2022-07-16T04:55:57Z</time>
      </trkpt>
      <trkpt lat="46.52836" lon="5.41984">
        <ele>250.2</ele>
        <time>2022-07-16T04:55:58Z</time>
      </trkpt>
      <trkpt lat="46.52831" lon="5.4196">
        <ele>250.8</ele>
        <time>2022-07-16T04:56:02Z</time>
      </trkpt>
      <trkpt lat="46.52833" lon="5.41947">
        <ele>251.2</ele>
        <time>2022-07-16T04:56:04Z</time>
      </trkpt>
      <trkpt lat="46.52834" lon="5.41935">
        <ele>251.6</ele>
        <time>2022-07-16T04:56:06Z</time>
      </trkpt>
      <trkpt lat="46.52836" lon="5.41917">
        <ele>252</ele>
        <time>2022-07-16T04:56:09Z</time>
      </trkpt>
      <trkpt lat="46.52839" lon="5.41901">
        <ele>252</ele>
        <time>2022-07-16T04:56:12Z</time>
      </trkpt>
      <trkpt lat="46.5284" lon="5.41888">
        <ele>252.4</ele>
        <time>2022-07-16T04:56:14Z</time>
      </trkpt>
      <trkpt lat="46.52843" lon="5.41854">
        <ele>253.2</ele>
        <time>2022-07-16T04:56:20Z</time>
      </trkpt>
      <trkpt lat="46.52843" lon="5.41848">
        <ele>253.6</ele>
        <time>2022-07-16T04:56:21Z</time>
      </trkpt>
      <trkpt lat="46.52846" lon="5.41805">
        <ele>254.8</ele>
        <time>2022-07-16T04:56:28Z</time>
      </trkpt>
      <trkpt lat="46.52847" lon="5.41788">
        <ele>255.2</ele>
        <time>2022-07-16T04:56:31Z</time>
      </trkpt>
      <trkpt lat="46.52851" lon="5.41763">
        <ele>255.8</ele>
        <time>2022-07-16T04:56:35Z</time>
      </trkpt>
      <trkpt lat="46.52852" lon="5.41757">
        <ele>256</ele>
        <time>2022-07-16T04:56:36Z</time>
      </trkpt>
      <trkpt lat="46.52859" lon="5.41735">
        <ele>257</ele>
        <time>2022-07-16T04:56:40Z</time>
      </trkpt>
      <trkpt lat="46.52867" lon="5.41715">
        <ele>257.8</ele>
        <time>2022-07-16T04:56:44Z</time>
      </trkpt>
      <trkpt lat="46.52872" lon="5.41705">
        <ele>258</ele>
        <time>2022-07-16T04:56:46Z</time>
      </trkpt>
      <trkpt lat="46.52888" lon="5.41666">
        <ele>259</ele>
        <time>2022-07-16T04:56:53Z</time>
      </trkpt>
      <trkpt lat="46.52891" lon="5.41658">
        <ele>259.2</ele>
        <time>2022-07-16T04:56:55Z</time>
      </trkpt>
      <trkpt lat="46.529" lon="5.41635">
        <ele>260.2</ele>
        <time>2022-07-16T04:57:00Z</time>
      </trkpt>
      <trkpt lat="46.52911" lon="5.41604">
        <ele>261.2</ele>
        <time>2022-07-16T04:57:06Z</time>
      </trkpt>
      <trkpt lat="46.52919" lon="5.41582">
        <ele>262</ele>
        <time>2022-07-16T04:57:10Z</time>
      </trkpt>
      <trkpt lat="46.52923" lon="5.4157">
        <ele>262.4</ele>
        <time>2022-07-16T04:57:12Z</time>
      </trkpt>
      <trkpt lat="46.52926" lon="5.41566">
        <ele>262.4</ele>
        <time>2022-07-16T04:57:13Z</time>
      </trkpt>
      <trkpt lat="46.52931" lon="5.41557">
        <ele>262.6</ele>
        <time>2022-07-16T04:57:15Z</time>
      </trkpt>
      <trkpt lat="46.52935" lon="5.41553">
        <ele>262.6</ele>
        <time>2022-07-16T04:57:16Z</time>
      </trkpt>
      <trkpt lat="46.52951" lon="5.41534">
        <ele>263.6</ele>
        <time>2022-07-16T04:57:21Z</time>
      </trkpt>
      <trkpt lat="46.52961" lon="5.41525">
        <ele>264</ele>
        <time>2022-07-16T04:57:24Z</time>
      </trkpt>
      <trkpt lat="46.52971" lon="5.41517">
        <ele>264.6</ele>
        <time>2022-07-16T04:57:27Z</time>
      </trkpt>
      <trkpt lat="46.52988" lon="5.41502">
        <ele>265.6</ele>
        <time>2022-07-16T04:57:32Z</time>
      </trkpt>
      <trkpt lat="46.52995" lon="5.41496">
        <ele>265.8</ele>
        <time>2022-07-16T04:57:34Z</time>
      </trkpt>
      <trkpt lat="46.53012" lon="5.41483">
        <ele>266.4</ele>
        <time>2022-07-16T04:57:39Z</time>
      </trkpt>
      <trkpt lat="46.53026" lon="5.41472">
        <ele>266.8</ele>
        <time>2022-07-16T04:57:43Z</time>
      </trkpt>
      <trkpt lat="46.53045" lon="5.41462">
        <ele>267.4</ele>
        <time>2022-07-16T04:57:48Z</time>
      </trkpt>
      <trkpt lat="46.53065" lon="5.4146">
        <ele>268</ele>
        <time>2022-07-16T04:57:53Z</time>
      </trkpt>
      <trkpt lat="46.53072" lon="5.41459">
        <ele>268.4</ele>
        <time>2022-07-16T04:57:55Z</time>
      </trkpt>
      <trkpt lat="46.5309" lon="5.41451">
        <ele>269.2</ele>
        <time>2022-07-16T04:58:00Z</time>
      </trkpt>
      <trkpt lat="46.53095" lon="5.41446">
        <ele>269.6</ele>
        <time>2022-07-16T04:58:02Z</time>
      </trkpt>
      <trkpt lat="46.53097" lon="5.41444">
        <ele>269.8</ele>
        <time>2022-07-16T04:58:03Z</time>
      </trkpt>
      <trkpt lat="46.53102" lon="5.41437">
        <ele>270.4</ele>
        <time>2022-07-16T04:58:05Z</time>
      </trkpt>
      <trkpt lat="46.53105" lon="5.41433">
        <ele>270.6</ele>
        <time>2022-07-16T04:58:06Z</time>
      </trkpt>
      <trkpt lat="46.53122" lon="5.41413">
        <ele>271.6</ele>
        <time>2022-07-16T04:58:11Z</time>
      </trkpt>
      <trkpt lat="46.53128" lon="5.41403">
        <ele>271.8</ele>
        <time>2022-07-16T04:58:13Z</time>
      </trkpt>
      <trkpt lat="46.5313" lon="5.41399">
        <ele>272.2</ele>
        <time>2022-07-16T04:58:14Z</time>
      </trkpt>
      <trkpt lat="46.53134" lon="5.41387">
        <ele>272.6</ele>
        <time>2022-07-16T04:58:16Z</time>
      </trkpt>
      <trkpt lat="46.53134" lon="5.41381">
        <ele>272.6</ele>
        <time>2022-07-16T04:58:17Z</time>
      </trkpt>
      <trkpt lat="46.53134" lon="5.41369">
        <ele>273</ele>
        <time>2022-07-16T04:58:19Z</time>
      </trkpt>
      <trkpt lat="46.5313" lon="5.41351">
        <ele>273.8</ele>
        <time>2022-07-16T04:58:22Z</time>
      </trkpt>
      <trkpt lat="46.53129" lon="5.41346">
        <ele>274</ele>
        <time>2022-07-16T04:58:23Z</time>
      </trkpt>
      <trkpt lat="46.53127" lon="5.41335">
        <ele>274.4</ele>
        <time>2022-07-16T04:58:25Z</time>
      </trkpt>
      <trkpt lat="46.53127" lon="5.4133">
        <ele>274.6</ele>
        <time>2022-07-16T04:58:26Z</time>
      </trkpt>
      <trkpt lat="46.53127" lon="5.41324">
        <ele>274.8</ele>
        <time>2022-07-16T04:58:27Z</time>
      </trkpt>
      <trkpt lat="46.53129" lon="5.41309">
        <ele>275.4</ele>
        <time>2022-07-16T04:58:30Z</time>
      </trkpt>
      <trkpt lat="46.53139" lon="5.41292">
        <ele>276</ele>
        <time>2022-07-16T04:58:34Z</time>
      </trkpt>
      <trkpt lat="46.53141" lon="5.41289">
        <ele>276.2</ele>
        <time>2022-07-16T04:58:35Z</time>
      </trkpt>
      <trkpt lat="46.53162" lon="5.4127">
        <ele>277.2</ele>
        <time>2022-07-16T04:58:41Z</time>
      </trkpt>
      <trkpt lat="46.53169" lon="5.41264">
        <ele>277.4</ele>
        <time>2022-07-16T04:58:43Z</time>
      </trkpt>
      <trkpt lat="46.53186" lon="5.41249">
        <ele>278.4</ele>
        <time>2022-07-16T04:58:48Z</time>
      </trkpt>
      <trkpt lat="46.53191" lon="5.4124">
        <ele>278.8</ele>
        <time>2022-07-16T04:58:50Z</time>
      </trkpt>
      <trkpt lat="46.53191" lon="5.41224">
        <ele>279.4</ele>
        <time>2022-07-16T04:58:53Z</time>
      </trkpt>
      <trkpt lat="46.5319" lon="5.41219">
        <ele>279.6</ele>
        <time>2022-07-16T04:58:54Z</time>
      </trkpt>
      <trkpt lat="46.53175" lon="5.41201">
        <ele>280.6</ele>
        <time>2022-07-16T04:58:59Z</time>
      </trkpt>
      <trkpt lat="46.53151" lon="5.41182">
        <ele>281.8</ele>
        <time>2022-07-16T04:59:06Z</time>
      </trkpt>
      <trkpt lat="46.53143" lon="5.41177">
        <ele>282.4</ele>
        <time>2022-07-16T04:59:08Z</time>
      </trkpt>
      <trkpt lat="46.53132" lon="5.41171">
        <ele>283.2</ele>
        <time>2022-07-16T04:59:11Z</time>
      </trkpt>
      <trkpt lat="46.53106" lon="5.4116">
        <ele>283.6</ele>
        <time>2022-07-16T04:59:18Z</time>
      </trkpt>
      <trkpt lat="46.53098" lon="5.41157">
        <ele>284.2</ele>
        <time>2022-07-16T04:59:20Z</time>
      </trkpt>
      <trkpt lat="46.5308" lon="5.41152">
        <ele>285.4</ele>
        <time>2022-07-16T04:59:25Z</time>
      </trkpt>
      <trkpt lat="46.53062" lon="5.41145">
        <ele>286.2</ele>
        <time>2022-07-16T04:59:30Z</time>
      </trkpt>
      <trkpt lat="46.53059" lon="5.41142">
        <ele>286.4</ele>
        <time>2022-07-16T04:59:31Z</time>
      </trkpt>
      <trkpt lat="46.53054" lon="5.41128">
        <ele>286.8</ele>
        <time>2022-07-16T04:59:34Z</time>
      </trkpt>
      <trkpt lat="46.53055" lon="5.41113">
        <ele>287.4</ele>
        <time>2022-07-16T04:59:37Z</time>
      </trkpt>
      <trkpt lat="46.53057" lon="5.4111">
        <ele>287.4</ele>
        <time>2022-07-16T04:59:38Z</time>
      </trkpt>
      <trkpt lat="46.53064" lon="5.41107">
        <ele>287.8</ele>
        <time>2022-07-16T04:59:40Z</time>
      </trkpt>
      <trkpt lat="46.53074" lon="5.41107">
        <ele>288.8</ele>
        <time>2022-07-16T04:59:43Z</time>
      </trkpt>
      <trkpt lat="46.53078" lon="5.41109">
        <ele>288.8</ele>
        <time>2022-07-16T04:59:44Z</time>
      </trkpt>
      <trkpt lat="46.53101" lon="5.41119">
        <ele>289.8</ele>
        <time>2022-07-16T04:59:50Z</time>
      </trkpt>
      <trkpt lat="46.53104" lon="5.41121">
        <ele>290</ele>
        <time>2022-07-16T04:59:51Z</time>
      </trkpt>
      <trkpt lat="46.53127" lon="5.41133">
        <ele>291.4</ele>
        <time>2022-07-16T04:59:57Z</time>
      </trkpt>
      <trkpt lat="46.53138" lon="5.41138">
        <ele>292</ele>
        <time>2022-07-16T05:00:00Z</time>
      </trkpt>
      <trkpt lat="46.53154" lon="5.41142">
        <ele>292.4</ele>
        <time>2022-07-16T05:00:04Z</time>
      </trkpt>
      <trkpt lat="46.5317" lon="5.41141">
        <ele>292.6</ele>
        <time>2022-07-16T05:00:08Z</time>
      </trkpt>
      <trkpt lat="46.53201" lon="5.41133">
        <ele>293.4</ele>
        <time>2022-07-16T05:00:15Z</time>
      </trkpt>
      <trkpt lat="46.53206" lon="5.41132">
        <ele>293.6</ele>
        <time>2022-07-16T05:00:16Z</time>
      </trkpt>
      <trkpt lat="46.53227" lon="5.41133">
        <ele>294</ele>
        <time>2022-07-16T05:00:21Z</time>
      </trkpt>
      <trkpt lat="46.53251" lon="5.41142">
        <ele>294.6</ele>
        <time>2022-07-16T05:00:27Z</time>
      </trkpt>
      <trkpt lat="46.53259" lon="5.41145">
        <ele>295</ele>
        <time>2022-07-16T05:00:29Z</time>
      </trkpt>
      <trkpt lat="46.53265" lon="5.41151">
        <ele>295</ele>
        <time>2022-07-16T05:00:31Z</time>
      </trkpt>
      <trkpt lat="46.53267" lon="5.41156">
        <ele>295.2</ele>
        <time>2022-07-16T05:00:32Z</time>
      </trkpt>
      <trkpt lat="46.53272" lon="5.41178">
        <ele>296</ele>
        <time>2022-07-16T05:00:36Z</time>
      </trkpt>
      <trkpt lat="46.53273" lon="5.41184">
        <ele>296.2</ele>
        <time>2022-07-16T05:00:37Z</time>
      </trkpt>
      <trkpt lat="46.53274" lon="5.41201">
        <ele>297</ele>
        <time>2022-07-16T05:00:40Z</time>
      </trkpt>
      <trkpt lat="46.53275" lon="5.41244">
        <ele>298</ele>
        <time>2022-07-16T05:00:47Z</time>
      </trkpt>
      <trkpt lat="46.53275" lon="5.41255">
        <ele>298.2</ele>
        <time>2022-07-16T05:00:49Z</time>
      </trkpt>
      <trkpt lat="46.53276" lon="5.41296">
        <ele>299.2</ele>
        <time>2022-07-16T05:00:56Z</time>
      </trkpt>
      <trkpt lat="46.53277" lon="5.41301">
        <ele>299.4</ele>
        <time>2022-07-16T05:00:57Z</time>
      </trkpt>
      <trkpt lat="46.53279" lon="5.41332">
        <ele>300.2</ele>
        <time>2022-07-16T05:01:03Z</time>
      </trkpt>
      <trkpt lat="46.5328" lon="5.41338">
        <ele>300.4</ele>
        <time>2022-07-16T05:01:05Z</time>
      </trkpt>
      <trkpt lat="46.5328" lon="5.41339">
        <ele>300.6</ele>
        <time>2022-07-16T05:01:06Z</time>
      </trkpt>
      <trkpt lat="46.5328" lon="5.4134">
        <ele>300.6</ele>
        <time>2022-07-16T05:01:07Z</time>
      </trkpt>
      <trkpt lat="46.5328" lon="5.4134">
        <ele>301.2</ele>
        <time>2022-07-16T05:01:11Z</time>
      </trkpt>
      <trkpt lat="46.53279" lon="5.41345">
        <ele>301.4</ele>
        <time>2022-07-16T05:02:27Z</time>
      </trkpt>
      <trkpt lat="46.53279" lon="5.41354">
        <ele>301.4</ele>
        <time>2022-07-16T05:02:29Z</time>
      </trkpt>
      <trkpt lat="46.53281" lon="5.41373">
        <ele>301.4</ele>
        <time>2022-07-16T05:02:32Z</time>
      </trkpt>
      <trkpt lat="46.53281" lon="5.41381">
        <ele>301.2</ele>
        <time>2022-07-16T05:02:33Z</time>
      </trkpt>
      <trkpt lat="46.53281" lon="5.41387">
        <ele>301.4</ele>
        <time>2022-07-16T05:02:34Z</time>
      </trkpt>
      <trkpt lat="46.5328" lon="5.41434">
        <ele>302.2</ele>
        <time>2022-07-16T05:02:41Z</time>
      </trkpt>
      <trkpt lat="46.53279" lon="5.4144">
        <ele>302.2</ele>
        <time>2022-07-16T05:02:42Z</time>
      </trkpt>
      <trkpt lat="46.53271" lon="5.41464">
        <ele>302.8</ele>
        <time>2022-07-16T05:02:46Z</time>
      </trkpt>
      <trkpt lat="46.53263" lon="5.41481">
        <ele>303.2</ele>
        <time>2022-07-16T05:02:49Z</time>
      </trkpt>
      <trkpt lat="46.5325" lon="5.41505">
        <ele>304</ele>
        <time>2022-07-16T05:02:54Z</time>
      </trkpt>
      <trkpt lat="46.53243" lon="5.41519">
        <ele>304</ele>
        <time>2022-07-16T05:02:57Z</time>
      </trkpt>
      <trkpt lat="46.53234" lon="5.41531">
        <ele>304.8</ele>
        <time>2022-07-16T05:03:00Z</time>
      </trkpt>
      <trkpt lat="46.53231" lon="5.41535">
        <ele>304.8</ele>
        <time>2022-07-16T05:03:01Z</time>
      </trkpt>
      <trkpt lat="46.53222" lon="5.41543">
        <ele>305.4</ele>
        <time>2022-07-16T05:03:03Z</time>
      </trkpt>
      <trkpt lat="46.53216" lon="5.41549">
        <ele>306</ele>
        <time>2022-07-16T05:03:05Z</time>
      </trkpt>
      <trkpt lat="46.53212" lon="5.41552">
        <ele>306</ele>
        <time>2022-07-16T05:03:06Z</time>
      </trkpt>
      <trkpt lat="46.53208" lon="5.41555">
        <ele>306.2</ele>
        <time>2022-07-16T05:03:07Z</time>
      </trkpt>
      <trkpt lat="46.53204" lon="5.41557">
        <ele>306.2</ele>
        <time>2022-07-16T05:03:08Z</time>
      </trkpt>
      <trkpt lat="46.53192" lon="5.41564">
        <ele>306.4</ele>
        <time>2022-07-16T05:03:11Z</time>
      </trkpt>
      <trkpt lat="46.53188" lon="5.41566">
        <ele>306.6</ele>
        <time>2022-07-16T05:03:12Z</time>
      </trkpt>
      <trkpt lat="46.53185" lon="5.41568">
        <ele>306.8</ele>
        <time>2022-07-16T05:03:13Z</time>
      </trkpt>
      <trkpt lat="46.53182" lon="5.4157">
        <ele>307.2</ele>
        <time>2022-07-16T05:03:14Z</time>
      </trkpt>
      <trkpt lat="46.53168" lon="5.41579">
        <ele>307.8</ele>
        <time>2022-07-16T05:03:18Z</time>
      </trkpt>
      <trkpt lat="46.53164" lon="5.41581">
        <ele>308.2</ele>
        <time>2022-07-16T05:03:19Z</time>
      </trkpt>
      <trkpt lat="46.5315" lon="5.41591">
        <ele>309.4</ele>
        <time>2022-07-16T05:03:23Z</time>
      </trkpt>
      <trkpt lat="46.53138" lon="5.41599">
        <ele>310</ele>
        <time>2022-07-16T05:03:26Z</time>
      </trkpt>
      <trkpt lat="46.53127" lon="5.41606">
        <ele>310.4</ele>
        <time>2022-07-16T05:03:29Z</time>
      </trkpt>
      <trkpt lat="46.53123" lon="5.41608">
        <ele>310.6</ele>
        <time>2022-07-16T05:03:30Z</time>
      </trkpt>
      <trkpt lat="46.53119" lon="5.4161">
        <ele>310.8</ele>
        <time>2022-07-16T05:03:31Z</time>
      </trkpt>
      <trkpt lat="46.53101" lon="5.41622">
        <ele>311.6</ele>
        <time>2022-07-16T05:03:36Z</time>
      </trkpt>
      <trkpt lat="46.53098" lon="5.41625">
        <ele>311.8</ele>
        <time>2022-07-16T05:03:37Z</time>
      </trkpt>
      <trkpt lat="46.53078" lon="5.41637">
        <ele>312.4</ele>
        <time>2022-07-16T05:03:42Z</time>
      </trkpt>
      <trkpt lat="46.53068" lon="5.41644">
        <ele>313</ele>
        <time>2022-07-16T05:03:45Z</time>
      </trkpt>
      <trkpt lat="46.53057" lon="5.41649">
        <ele>313.8</ele>
        <time>2022-07-16T05:03:48Z</time>
      </trkpt>
      <trkpt lat="46.53054" lon="5.41651">
        <ele>314.2</ele>
        <time>2022-07-16T05:03:49Z</time>
      </trkpt>
      <trkpt lat="46.53038" lon="5.4166">
        <ele>315</ele>
        <time>2022-07-16T05:03:53Z</time>
      </trkpt>
      <trkpt lat="46.53028" lon="5.41669">
        <ele>315.2</ele>
        <time>2022-07-16T05:03:56Z</time>
      </trkpt>
      <trkpt lat="46.5302" lon="5.4168">
        <ele>315.4</ele>
        <time>2022-07-16T05:03:59Z</time>
      </trkpt>
      <trkpt lat="46.53009" lon="5.4171">
        <ele>316.4</ele>
        <time>2022-07-16T05:04:05Z</time>
      </trkpt>
      <trkpt lat="46.53004" lon="5.41725">
        <ele>317</ele>
        <time>2022-07-16T05:04:08Z</time>
      </trkpt>
      <trkpt lat="46.53001" lon="5.41736">
        <ele>317.4</ele>
        <time>2022-07-16T05:04:10Z</time>
      </trkpt>
      <trkpt lat="46.53001" lon="5.41757">
        <ele>318.2</ele>
        <time>2022-07-16T05:04:14Z</time>
      </trkpt>
      <trkpt lat="46.53002" lon="5.41768">
        <ele>318.6</ele>
        <time>2022-07-16T05:04:16Z</time>
      </trkpt>
      <trkpt lat="46.53005" lon="5.41789">
        <ele>319.8</ele>
        <time>2022-07-16T05:04:20Z</time>
      </trkpt>
      <trkpt lat="46.5301" lon="5.41806">
        <ele>320.4</ele>
        <time>2022-07-16T05:04:23Z</time>
      </trkpt>
      <trkpt lat="46.53017" lon="5.41833">
        <ele>321</ele>
        <time>2022-07-16T05:04:28Z</time>
      </trkpt>
      <trkpt lat="46.53021" lon="5.41853">
        <ele>321.4</ele>
        <time>2022-07-16T05:04:32Z</time>
      </trkpt>
      <trkpt lat="46.53021" lon="5.41875">
        <ele>322.2</ele>
        <time>2022-07-16T05:04:36Z</time>
      </trkpt>
      <trkpt lat="46.5302" lon="5.41887">
        <ele>322.6</ele>
        <time>2022-07-16T05:04:38Z</time>
      </trkpt>
      <trkpt lat="46.53018" lon="5.41919">
        <ele>323.4</ele>
        <time>2022-07-16T05:04:44Z</time>
      </trkpt>
      <trkpt lat="46.53017" lon="5.41931">
        <ele>323.8</ele>
        <time>2022-07-16T05:04:46Z</time>
      </trkpt>
      <trkpt lat="46.53015" lon="5.41961">
        <ele>324.4</ele>
        <time>2022-07-16T05:04:51Z</time>
      </trkpt>
      <trkpt lat="46.53014" lon="5.41972">
        <ele>324.8</ele>
        <time>2022-07-16T05:04:53Z</time>
      </trkpt>
      <trkpt lat="46.53012" lon="5.41992">
        <ele>325.2</ele>
        <time>2022-07-16T05:04:56Z</time>
      </trkpt>
      <trkpt lat="46.53012" lon="5.41998">
        <ele>325.6</ele>
        <time>2022-07-16T05:04:57Z</time>
      </trkpt>
      <trkpt lat="46.53012" lon="5.42005">
        <ele>325.6</ele>
        <time>2022-07-16T05:04:58Z</time>
      </trkpt>
      <trkpt lat="46.53013" lon="5.42011">
        <ele>325.6</ele>
        <time>2022-07-16T05:04:59Z</time>
      </trkpt>
      <trkpt lat="46.53015" lon="5.42016">
        <ele>325.6</ele>
        <time>2022-07-16T05:05:00Z</time>
      </trkpt>
      <trkpt lat="46.5302" lon="5.42024">
        <ele>325.8</ele>
        <time>2022-07-16T05:05:02Z</time>
      </trkpt>
      <trkpt lat="46.53024" lon="5.42026">
        <ele>326</ele>
        <time>2022-07-16T05:05:03Z</time>
      </trkpt>
      <trkpt lat="46.53028" lon="5.42026">
        <ele>326.2</ele>
        <time>2022-07-16T05:05:04Z</time>
      </trkpt>
      <trkpt lat="46.53037" lon="5.42025">
        <ele>326.6</ele>
        <time>2022-07-16T05:05:06Z</time>
      </trkpt>
      <trkpt lat="46.53044" lon="5.42022">
        <ele>326.8</ele>
        <time>2022-07-16T05:05:08Z</time>
      </trkpt>
      <trkpt lat="46.53052" lon="5.42021">
        <ele>327.2</ele>
        <time>2022-07-16T05:05:10Z</time>
      </trkpt>
      <trkpt lat="46.53065" lon="5.42023">
        <ele>327.8</ele>
        <time>2022-07-16T05:05:13Z</time>
      </trkpt>
      <trkpt lat="46.53072" lon="5.42028">
        <ele>328.2</ele>
        <time>2022-07-16T05:05:15Z</time>
      </trkpt>
      <trkpt lat="46.5308" lon="5.42034">
        <ele>328.4</ele>
        <time>2022-07-16T05:05:17Z</time>
      </trkpt>
      <trkpt lat="46.53083" lon="5.42038">
        <ele>328.6</ele>
        <time>2022-07-16T05:05:18Z</time>
      </trkpt>
      <trkpt lat="46.53085" lon="5.42042">
        <ele>328.6</ele>
        <time>2022-07-16T05:05:19Z</time>
      </trkpt>
      <trkpt lat="46.53087" lon="5.42047">
        <ele>328.8</ele>
        <time>2022-07-16T05:05:20Z</time>
      </trkpt>
      <trkpt lat="46.53088" lon="5.42053">
        <ele>328.8</ele>
        <time>2022-07-16T05:05:21Z</time>
      </trkpt>
      <trkpt lat="46.53088" lon="5.42057">
        <ele>329</ele>
        <time>2022-07-16T05:05:22Z</time>
      </trkpt>
      <trkpt lat="46.53087" lon="5.42062">
        <ele>329</ele>
        <time>2022-07-16T05:05:23Z</time>
      </trkpt>
      <trkpt lat="46.53083" lon="5.42077">
        <ele>329.4</ele>
        <time>2022-07-16T05:05:26Z</time>
      </trkpt>
      <trkpt lat="46.53078" lon="5.42089">
        <ele>329.8</ele>
        <time>2022-07-16T05:05:28Z</time>
      </trkpt>
      <trkpt lat="46.53076" lon="5.42103">
        <ele>330.6</ele>
        <time>2022-07-16T05:05:30Z</time>
      </trkpt>
      <trkpt lat="46.53076" lon="5.42116">
        <ele>331</ele>
        <time>2022-07-16T05:05:32Z</time>
      </trkpt>
      <trkpt lat="46.53083" lon="5.42138">
        <ele>331.6</ele>
        <time>2022-07-16T05:05:36Z</time>
      </trkpt>
      <trkpt lat="46.53088" lon="5.42145">
        <ele>332</ele>
        <time>2022-07-16T05:05:38Z</time>
      </trkpt>
      <trkpt lat="46.53099" lon="5.42163">
        <ele>332.8</ele>
        <time>2022-07-16T05:05:42Z</time>
      </trkpt>
      <trkpt lat="46.531" lon="5.42175">
        <ele>333.2</ele>
        <time>2022-07-16T05:05:44Z</time>
      </trkpt>
      <trkpt lat="46.53101" lon="5.42183">
        <ele>333.8</ele>
        <time>2022-07-16T05:05:46Z</time>
      </trkpt>
      <trkpt lat="46.53102" lon="5.42205">
        <ele>334.6</ele>
        <time>2022-07-16T05:05:50Z</time>
      </trkpt>
      <trkpt lat="46.53102" lon="5.4221">
        <ele>334.8</ele>
        <time>2022-07-16T05:05:51Z</time>
      </trkpt>
      <trkpt lat="46.53103" lon="5.42228">
        <ele>335.6</ele>
        <time>2022-07-16T05:05:54Z</time>
      </trkpt>
      <trkpt lat="46.53103" lon="5.4225">
        <ele>336</ele>
        <time>2022-07-16T05:05:58Z</time>
      </trkpt>
      <trkpt lat="46.53104" lon="5.42278">
        <ele>336.6</ele>
        <time>2022-07-16T05:06:03Z</time>
      </trkpt>
      <trkpt lat="46.53105" lon="5.4229">
        <ele>337</ele>
        <time>2022-07-16T05:06:05Z</time>
      </trkpt>
      <trkpt lat="46.53107" lon="5.42312">
        <ele>337.6</ele>
        <time>2022-07-16T05:06:09Z</time>
      </trkpt>
      <trkpt lat="46.5311" lon="5.42328">
        <ele>338.4</ele>
        <time>2022-07-16T05:06:12Z</time>
      </trkpt>
      <trkpt lat="46.53118" lon="5.42342">
        <ele>338.8</ele>
        <time>2022-07-16T05:06:15Z</time>
      </trkpt>
      <trkpt lat="46.53122" lon="5.42351">
        <ele>339</ele>
        <time>2022-07-16T05:06:17Z</time>
      </trkpt>
      <trkpt lat="46.5314" lon="5.42375">
        <ele>340</ele>
        <time>2022-07-16T05:06:23Z</time>
      </trkpt>
      <trkpt lat="46.53144" lon="5.42379">
        <ele>340.2</ele>
        <time>2022-07-16T05:06:24Z</time>
      </trkpt>
      <trkpt lat="46.53163" lon="5.42392">
        <ele>340.8</ele>
        <time>2022-07-16T05:06:29Z</time>
      </trkpt>
      <trkpt lat="46.53174" lon="5.42397">
        <ele>341</ele>
        <time>2022-07-16T05:06:32Z</time>
      </trkpt>
      <trkpt lat="46.53181" lon="5.42401">
        <ele>341.2</ele>
        <time>2022-07-16T05:06:35Z</time>
      </trkpt>
      <trkpt lat="46.53191" lon="5.42404">
        <ele>342</ele>
        <time>2022-07-16T05:06:38Z</time>
      </trkpt>
      <trkpt lat="46.53208" lon="5.42411">
        <ele>342.8</ele>
        <time>2022-07-16T05:06:42Z</time>
      </trkpt>
      <trkpt lat="46.53212" lon="5.42414">
        <ele>343</ele>
        <time>2022-07-16T05:06:43Z</time>
      </trkpt>
      <trkpt lat="46.53229" lon="5.4243">
        <ele>344.2</ele>
        <time>2022-07-16T05:06:48Z</time>
      </trkpt>
      <trkpt lat="46.53238" lon="5.42453">
        <ele>345</ele>
        <time>2022-07-16T05:06:53Z</time>
      </trkpt>
      <trkpt lat="46.53241" lon="5.42459">
        <ele>345.2</ele>
        <time>2022-07-16T05:06:54Z</time>
      </trkpt>
      <trkpt lat="46.53243" lon="5.42481">
        <ele>346</ele>
        <time>2022-07-16T05:06:58Z</time>
      </trkpt>
      <trkpt lat="46.53243" lon="5.42486">
        <ele>346.2</ele>
        <time>2022-07-16T05:06:59Z</time>
      </trkpt>
      <trkpt lat="46.53245" lon="5.42494">
        <ele>346.6</ele>
        <time>2022-07-16T05:07:01Z</time>
      </trkpt>
      <trkpt lat="46.53247" lon="5.42495">
        <ele>346.8</ele>
        <time>2022-07-16T05:07:03Z</time>
      </trkpt>
      <trkpt lat="46.53252" lon="5.42491">
        <ele>347</ele>
        <time>2022-07-16T05:07:05Z</time>
      </trkpt>
      <trkpt lat="46.53254" lon="5.42487">
        <ele>347.2</ele>
        <time>2022-07-16T05:07:06Z</time>
      </trkpt>
      <trkpt lat="46.53255" lon="5.42483">
        <ele>347.4</ele>
        <time>2022-07-16T05:07:07Z</time>
      </trkpt>
      <trkpt lat="46.53257" lon="5.4248">
        <ele>347.8</ele>
        <time>2022-07-16T05:07:08Z</time>
      </trkpt>
      <trkpt lat="46.53262" lon="5.42474">
        <ele>348.4</ele>
        <time>2022-07-16T05:07:10Z</time>
      </trkpt>
      <trkpt lat="46.53265" lon="5.4247">
        <ele>348.8</ele>
        <time>2022-07-16T05:07:11Z</time>
      </trkpt>
      <trkpt lat="46.53264" lon="5.42467">
        <ele>349.4</ele>
        <time>2022-07-16T05:07:13Z</time>
      </trkpt>
      <trkpt lat="46.53262" lon="5.42463">
        <ele>349.6</ele>
        <time>2022-07-16T05:07:14Z</time>
      </trkpt>
      <trkpt lat="46.53256" lon="5.42451">
        <ele>350</ele>
        <time>2022-07-16T05:07:16Z</time>
      </trkpt>
      <trkpt lat="46.53245" lon="5.42433">
        <ele>350.4</ele>
        <time>2022-07-16T05:07:19Z</time>
      </trkpt>
      <trkpt lat="46.5323" lon="5.42415">
        <ele>351</ele>
        <time>2022-07-16T05:07:23Z</time>
      </trkpt>
      <trkpt lat="46.53222" lon="5.42406">
        <ele>351.4</ele>
        <time>2022-07-16T05:07:25Z</time>
      </trkpt>
      <trkpt lat="46.53219" lon="5.42404">
        <ele>351.4</ele>
        <time>2022-07-16T05:07:26Z</time>
      </trkpt>
      <trkpt lat="46.53215" lon="5.424">
        <ele>351.6</ele>
        <time>2022-07-16T05:07:27Z</time>
      </trkpt>
      <trkpt lat="46.53196" lon="5.42385">
        <ele>352.4</ele>
        <time>2022-07-16T05:07:32Z</time>
      </trkpt>
      <trkpt lat="46.53177" lon="5.42369">
        <ele>353.6</ele>
        <time>2022-07-16T05:07:37Z</time>
      </trkpt>
      <trkpt lat="46.53173" lon="5.42365">
        <ele>353.8</ele>
        <time>2022-07-16T05:07:38Z</time>
      </trkpt>
      <trkpt lat="46.53157" lon="5.42336">
        <ele>354.6</ele>
        <time>2022-07-16T05:07:45Z</time>
      </trkpt>
      <trkpt lat="46.53147" lon="5.42303">
        <ele>355.2</ele>
        <time>2022-07-16T05:07:51Z</time>
      </trkpt>
      <trkpt lat="46.53145" lon="5.42287">
        <ele>355.6</ele>
        <time>2022-07-16T05:07:54Z</time>
      </trkpt>
      <trkpt lat="46.53145" lon="5.42266">
        <ele>356.6</ele>
        <time>2022-07-16T05:07:58Z</time>
      </trkpt>
      <trkpt lat="46.53145" lon="5.4226">
        <ele>357</ele>
        <time>2022-07-16T05:07:59Z</time>
      </trkpt>
      <trkpt lat="46.53147" lon="5.42232">
        <ele>357.4</ele>
        <time>2022-07-16T05:08:04Z</time>
      </trkpt>
      <trkpt lat="46.53149" lon="5.42211">
        <ele>358</ele>
        <time>2022-07-16T05:08:08Z</time>
      </trkpt>
      <trkpt lat="46.53151" lon="5.42194">
        <ele>358.2</ele>
        <time>2022-07-16T05:08:11Z</time>
      </trkpt>
      <trkpt lat="46.53155" lon="5.42159">
        <ele>359.4</ele>
        <time>2022-07-16T05:08:17Z</time>
      </trkpt>
      <trkpt lat="46.53156" lon="5.42153">
        <ele>359.4</ele>
        <time>2022-07-16T05:08:18Z</time>
      </trkpt>
      <trkpt lat="46.53152" lon="5.42125">
        <ele>360</ele>
        <time>2022-07-16T05:08:23Z</time>
      </trkpt>
      <trkpt lat="46.53149" lon="5.42115">
        <ele>360.4</ele>
        <time>2022-07-16T05:08:25Z</time>
      </trkpt>
      <trkpt lat="46.53146" lon="5.42097">
        <ele>360.8</ele>
        <time>2022-07-16T05:08:28Z</time>
      </trkpt>
      <trkpt lat="46.53146" lon="5.42071">
        <ele>361.8</ele>
        <time>2022-07-16T05:08:33Z</time>
      </trkpt>
      <trkpt lat="46.53155" lon="5.42039">
        <ele>362.6</ele>
        <time>2022-07-16T05:08:39Z</time>
      </trkpt>
      <trkpt lat="46.53157" lon="5.42034">
        <ele>362.8</ele>
        <time>2022-07-16T05:08:40Z</time>
      </trkpt>
      <trkpt lat="46.53166" lon="5.42012">
        <ele>363.2</ele>
        <time>2022-07-16T05:08:44Z</time>
      </trkpt>
      <trkpt lat="46.53169" lon="5.42007">
        <ele>363.4</ele>
        <time>2022-07-16T05:08:45Z</time>
      </trkpt>
      <trkpt lat="46.53175" lon="5.41997">
        <ele>363.6</ele>
        <time>2022-07-16T05:08:47Z</time>
      </trkpt>
      <trkpt lat="46.53177" lon="5.41989">
        <ele>363.8</ele>
        <time>2022-07-16T05:08:49Z</time>
      </trkpt>
      <trkpt lat="46.5318" lon="5.41979">
        <ele>364</ele>
        <time>2022-07-16T05:08:51Z</time>
      </trkpt>
      <trkpt lat="46.53185" lon="5.41962">
        <ele>364.2</ele>
        <time>2022-07-16T05:08:54Z</time>
      </trkpt>
      <trkpt lat="46.53189" lon="5.41945">
        <ele>364.2</ele>
        <time>2022-07-16T05:08:57Z</time>
      </trkpt>
      <trkpt lat="46.53191" lon="5.4194">
        <ele>364.4</ele>
        <time>2022-07-16T05:08:58Z</time>
      </trkpt>
      <trkpt lat="46.532" lon="5.41911">
        <ele>364.6</ele>
        <time>2022-07-16T05:09:03Z</time>
      </trkpt>
      <trkpt lat="46.53201" lon="5.41895">
        <ele>365.2</ele>
        <time>2022-07-16T05:09:05Z</time>
      </trkpt>
      <trkpt lat="46.53207" lon="5.41876">
        <ele>365.4</ele>
        <time>2022-07-16T05:09:08Z</time>
      </trkpt>
      <trkpt lat="46.53201" lon="5.41854">
        <ele>365.6</ele>
        <time>2022-07-16T05:09:12Z</time>
      </trkpt>
      <trkpt lat="46.53191" lon="5.41831">
        <ele>366.2</ele>
        <time>2022-07-16T05:09:16Z</time>
      </trkpt>
      <trkpt lat="46.53186" lon="5.41819">
        <ele>366.2</ele>
        <time>2022-07-16T05:09:18Z</time>
      </trkpt>
      <trkpt lat="46.53184" lon="5.41813">
        <ele>366.4</ele>
        <time>2022-07-16T05:09:19Z</time>
      </trkpt>
      <trkpt lat="46.53183" lon="5.41802">
        <ele>366.6</ele>
        <time>2022-07-16T05:09:21Z</time>
      </trkpt>
      <trkpt lat="46.53184" lon="5.41796">
        <ele>366.8</ele>
        <time>2022-07-16T05:09:22Z</time>
      </trkpt>
      <trkpt lat="46.53186" lon="5.41791">
        <ele>366.8</ele>
        <time>2022-07-16T05:09:23Z</time>
      </trkpt>
      <trkpt lat="46.53194" lon="5.41778">
        <ele>367.2</ele>
        <time>2022-07-16T05:09:26Z</time>
      </trkpt>
      <trkpt lat="46.53201" lon="5.41771">
        <ele>367.4</ele>
        <time>2022-07-16T05:09:28Z</time>
      </trkpt>
      <trkpt lat="46.53208" lon="5.4177">
        <ele>367.8</ele>
        <time>2022-07-16T05:09:30Z</time>
      </trkpt>
      <trkpt lat="46.53217" lon="5.41775">
        <ele>368.4</ele>
        <time>2022-07-16T05:09:33Z</time>
      </trkpt>
      <trkpt lat="46.5322" lon="5.41779">
        <ele>368.4</ele>
        <time>2022-07-16T05:09:34Z</time>
      </trkpt>
      <trkpt lat="46.53227" lon="5.41798">
        <ele>369.8</ele>
        <time>2022-07-16T05:09:38Z</time>
      </trkpt>
      <trkpt lat="46.53229" lon="5.41809">
        <ele>370.4</ele>
        <time>2022-07-16T05:09:40Z</time>
      </trkpt>
      <trkpt lat="46.53231" lon="5.41824">
        <ele>370.8</ele>
        <time>2022-07-16T05:09:43Z</time>
      </trkpt>
      <trkpt lat="46.53234" lon="5.4184">
        <ele>371.6</ele>
        <time>2022-07-16T05:09:46Z</time>
      </trkpt>
      <trkpt lat="46.53234" lon="5.41851">
        <ele>372.2</ele>
        <time>2022-07-16T05:09:48Z</time>
      </trkpt>
      <trkpt lat="46.53235" lon="5.41866">
        <ele>373</ele>
        <time>2022-07-16T05:09:51Z</time>
      </trkpt>
      <trkpt lat="46.53234" lon="5.41871">
        <ele>373.2</ele>
        <time>2022-07-16T05:09:52Z</time>
      </trkpt>
      <trkpt lat="46.53231" lon="5.41895">
        <ele>374.2</ele>
        <time>2022-07-16T05:09:57Z</time>
      </trkpt>
      <trkpt lat="46.53228" lon="5.4191">
        <ele>375</ele>
        <time>2022-07-16T05:10:00Z</time>
      </trkpt>
      <trkpt lat="46.53227" lon="5.41914">
        <ele>375.6</ele>
        <time>2022-07-16T05:10:01Z</time>
      </trkpt>
      <trkpt lat="46.53222" lon="5.41941">
        <ele>376.8</ele>
        <time>2022-07-16T05:10:07Z</time>
      </trkpt>
      <trkpt lat="46.5322" lon="5.41951">
        <ele>377.4</ele>
        <time>2022-07-16T05:10:09Z</time>
      </trkpt>
      <trkpt lat="46.53215" lon="5.41967">
        <ele>377.8</ele>
        <time>2022-07-16T05:10:13Z</time>
      </trkpt>
      <trkpt lat="46.53211" lon="5.4198">
        <ele>378.4</ele>
        <time>2022-07-16T05:10:16Z</time>
      </trkpt>
      <trkpt lat="46.53209" lon="5.41988">
        <ele>379</ele>
        <time>2022-07-16T05:10:18Z</time>
      </trkpt>
      <trkpt lat="46.53205" lon="5.42003">
        <ele>380</ele>
        <time>2022-07-16T05:10:22Z</time>
      </trkpt>
      <trkpt lat="46.53203" lon="5.42007">
        <ele>380.6</ele>
        <time>2022-07-16T05:10:23Z</time>
      </trkpt>
      <trkpt lat="46.53201" lon="5.42014">
        <ele>381.2</ele>
        <time>2022-07-16T05:10:25Z</time>
      </trkpt>
      <trkpt lat="46.53199" lon="5.42026">
        <ele>382.2</ele>
        <time>2022-07-16T05:10:28Z</time>
      </trkpt>
      <trkpt lat="46.53197" lon="5.42038">
        <ele>382.6</ele>
        <time>2022-07-16T05:10:31Z</time>
      </trkpt>
      <trkpt lat="46.53196" lon="5.42047">
        <ele>383.4</ele>
        <time>2022-07-16T05:10:33Z</time>
      </trkpt>
      <trkpt lat="46.532" lon="5.42062">
        <ele>384.4</ele>
        <time>2022-07-16T05:10:37Z</time>
      </trkpt>
      <trkpt lat="46.53203" lon="5.42076">
        <ele>385.4</ele>
        <time>2022-07-16T05:10:40Z</time>
      </trkpt>
      <trkpt lat="46.53208" lon="5.42095">
        <ele>386.6</ele>
        <time>2022-07-16T05:10:44Z</time>
      </trkpt>
      <trkpt lat="46.5322" lon="5.42128">
        <ele>387.6</ele>
        <time>2022-07-16T05:10:51Z</time>
      </trkpt>
      <trkpt lat="46.53221" lon="5.42133">
        <ele>387.6</ele>
        <time>2022-07-16T05:10:52Z</time>
      </trkpt>
      <trkpt lat="46.53224" lon="5.42157">
        <ele>388.6</ele>
        <time>2022-07-16T05:10:57Z</time>
      </trkpt>
      <trkpt lat="46.53224" lon="5.42166">
        <ele>389</ele>
        <time>2022-07-16T05:10:59Z</time>
      </trkpt>
      <trkpt lat="46.53226" lon="5.4218">
        <ele>389.6</ele>
        <time>2022-07-16T05:11:02Z</time>
      </trkpt>
      <trkpt lat="46.5323" lon="5.42198">
        <ele>390.6</ele>
        <time>2022-07-16T05:11:06Z</time>
      </trkpt>
      <trkpt lat="46.53232" lon="5.42202">
        <ele>390.8</ele>
        <time>2022-07-16T05:11:07Z</time>
      </trkpt>
      <trkpt lat="46.53242" lon="5.4222">
        <ele>392</ele>
        <time>2022-07-16T05:11:12Z</time>
      </trkpt>
      <trkpt lat="46.53244" lon="5.42223">
        <ele>392.2</ele>
        <time>2022-07-16T05:11:13Z</time>
      </trkpt>
      <trkpt lat="46.53254" lon="5.42242">
        <ele>393</ele>
        <time>2022-07-16T05:11:18Z</time>
      </trkpt>
      <trkpt lat="46.53256" lon="5.42246">
        <ele>393.2</ele>
        <time>2022-07-16T05:11:19Z</time>
      </trkpt>
      <trkpt lat="46.53261" lon="5.42266">
        <ele>393.8</ele>
        <time>2022-07-16T05:11:23Z</time>
      </trkpt>
      <trkpt lat="46.53263" lon="5.42282">
        <ele>394.2</ele>
        <time>2022-07-16T05:11:26Z</time>
      </trkpt>
      <trkpt lat="46.53264" lon="5.42288">
        <ele>394.2</ele>
        <time>2022-07-16T05:11:27Z</time>
      </trkpt>
      <trkpt lat="46.53274" lon="5.42314">
        <ele>395.2</ele>
        <time>2022-07-16T05:11:32Z</time>
      </trkpt>
      <trkpt lat="46.53276" lon="5.4232">
        <ele>395.4</ele>
        <time>2022-07-16T05:11:33Z</time>
      </trkpt>
      <trkpt lat="46.5328" lon="5.4233">
        <ele>396</ele>
        <time>2022-07-16T05:11:35Z</time>
      </trkpt>
      <trkpt lat="46.53285" lon="5.4234">
        <ele>396.2</ele>
        <time>2022-07-16T05:11:37Z</time>
      </trkpt>
      <trkpt lat="46.53295" lon="5.4237">
        <ele>397.2</ele>
        <time>2022-07-16T05:11:43Z</time>
      </trkpt>
      <trkpt lat="46.53298" lon="5.42375">
        <ele>397.2</ele>
        <time>2022-07-16T05:11:44Z</time>
      </trkpt>
      <trkpt lat="46.53316" lon="5.42425">
        <ele>398.2</ele>
        <time>2022-07-16T05:11:54Z</time>
      </trkpt>
      <trkpt lat="46.53317" lon="5.4243">
        <ele>398.4</ele>
        <time>2022-07-16T05:11:55Z</time>
      </trkpt>
      <trkpt lat="46.53327" lon="5.42459">
        <ele>399.4</ele>
        <time>2022-07-16T05:12:01Z</time>
      </trkpt>
      <trkpt lat="46.53329" lon="5.42463">
        <ele>399.6</ele>
        <time>2022-07-16T05:12:02Z</time>
      </trkpt>
      <trkpt lat="46.53335" lon="5.42483">
        <ele>400.6</ele>
        <time>2022-07-16T05:12:06Z</time>
      </trkpt>
      <trkpt lat="46.53344" lon="5.42511">
        <ele>401.6</ele>
        <time>2022-07-16T05:12:12Z</time>
      </trkpt>
      <trkpt lat="46.53346" lon="5.42515">
        <ele>401.8</ele>
        <time>2022-07-16T05:12:13Z</time>
      </trkpt>
      <trkpt lat="46.53357" lon="5.42542">
        <ele>402.8</ele>
        <time>2022-07-16T05:12:19Z</time>
      </trkpt>
      <trkpt lat="46.53365" lon="5.42558">
        <ele>403.8</ele>
        <time>2022-07-16T05:12:23Z</time>
      </trkpt>
      <trkpt lat="46.53367" lon="5.42562">
        <ele>404</ele>
        <time>2022-07-16T05:12:24Z</time>
      </trkpt>
      <trkpt lat="46.53384" lon="5.42593">
        <ele>405</ele>
        <time>2022-07-16T05:12:32Z</time>
      </trkpt>
      <trkpt lat="46.53389" lon="5.426">
        <ele>405.6</ele>
        <time>2022-07-16T05:12:34Z</time>
      </trkpt>
      <trkpt lat="46.53397" lon="5.42611">
        <ele>406.2</ele>
        <time>2022-07-16T05:12:37Z</time>
      </trkpt>
      <trkpt lat="46.53406" lon="5.42626">
        <ele>406.8</ele>
        <time>2022-07-16T05:12:41Z</time>
      </trkpt>
      <trkpt lat="46.53413" lon="5.4264">
        <ele>407.2</ele>
        <time>2022-07-16T05:12:44Z</time>
      </trkpt>
      <trkpt lat="46.53422" lon="5.4266">
        <ele>408.2</ele>
        <time>2022-07-16T05:12:48Z</time>
      </trkpt>
      <trkpt lat="46.53426" lon="5.4267">
        <ele>408.4</ele>
        <time>2022-07-16T05:12:50Z</time>
      </trkpt>
      <trkpt lat="46.53433" lon="5.42701">
        <ele>409.2</ele>
        <time>2022-07-16T05:12:56Z</time>
      </trkpt>
      <trkpt lat="46.53435" lon="5.42713">
        <ele>409.4</ele>
        <time>2022-07-16T05:12:58Z</time>
      </trkpt>
      <trkpt lat="46.53441" lon="5.42739">
        <ele>410</ele>
        <time>2022-07-16T05:13:03Z</time>
      </trkpt>
      <trkpt lat="46.53446" lon="5.42747">
        <ele>410.4</ele>
        <time>2022-07-16T05:13:05Z</time>
      </trkpt>
      <trkpt lat="46.53449" lon="5.42749">
        <ele>410.6</ele>
        <time>2022-07-16T05:13:06Z</time>
      </trkpt>
      <trkpt lat="46.53465" lon="5.42756">
        <ele>411.2</ele>
        <time>2022-07-16T05:13:11Z</time>
      </trkpt>
      <trkpt lat="46.53471" lon="5.4276">
        <ele>411.6</ele>
        <time>2022-07-16T05:13:13Z</time>
      </trkpt>
      <trkpt lat="46.53486" lon="5.42769">
        <ele>412.6</ele>
        <time>2022-07-16T05:13:17Z</time>
      </trkpt>
      <trkpt lat="46.5349" lon="5.42773">
        <ele>413</ele>
        <time>2022-07-16T05:13:18Z</time>
      </trkpt>
      <trkpt lat="46.53499" lon="5.4278">
        <ele>413.2</ele>
        <time>2022-07-16T05:13:20Z</time>
      </trkpt>
      <trkpt lat="46.53507" lon="5.42791">
        <ele>413.2</ele>
        <time>2022-07-16T05:13:22Z</time>
      </trkpt>
      <trkpt lat="46.53541" lon="5.4284">
        <ele>412.8</ele>
        <time>2022-07-16T05:13:29Z</time>
      </trkpt>
      <trkpt lat="46.53555" lon="5.42863">
        <ele>411.6</ele>
        <time>2022-07-16T05:13:32Z</time>
      </trkpt>
      <trkpt lat="46.53575" lon="5.42897">
        <ele>411</ele>
        <time>2022-07-16T05:13:36Z</time>
      </trkpt>
      <trkpt lat="46.53597" lon="5.42944">
        <ele>410</ele>
        <time>2022-07-16T05:13:41Z</time>
      </trkpt>
      <trkpt lat="46.5361" lon="5.42972">
        <ele>409.4</ele>
        <time>2022-07-16T05:13:44Z</time>
      </trkpt>
      <trkpt lat="46.53615" lon="5.42982">
        <ele>409</ele>
        <time>2022-07-16T05:13:45Z</time>
      </trkpt>
      <trkpt lat="46.53648" lon="5.43043">
        <ele>408</ele>
        <time>2022-07-16T05:13:52Z</time>
      </trkpt>
      <trkpt lat="46.53653" lon="5.43052">
        <ele>408</ele>
        <time>2022-07-16T05:13:53Z</time>
      </trkpt>
      <trkpt lat="46.53658" lon="5.43061">
        <ele>408</ele>
        <time>2022-07-16T05:13:54Z</time>
      </trkpt>
      <trkpt lat="46.53684" lon="5.43114">
        <ele>407.4</ele>
        <time>2022-07-16T05:14:00Z</time>
      </trkpt>
      <trkpt lat="46.53693" lon="5.43131">
        <ele>406.8</ele>
        <time>2022-07-16T05:14:02Z</time>
      </trkpt>
      <trkpt lat="46.53713" lon="5.43168">
        <ele>406.2</ele>
        <time>2022-07-16T05:14:06Z</time>
      </trkpt>
      <trkpt lat="46.53717" lon="5.43178">
        <ele>406</ele>
        <time>2022-07-16T05:14:07Z</time>
      </trkpt>
      <trkpt lat="46.53719" lon="5.4319">
        <ele>405.8</ele>
        <time>2022-07-16T05:14:08Z</time>
      </trkpt>
      <trkpt lat="46.53719" lon="5.43213">
        <ele>405.4</ele>
        <time>2022-07-16T05:14:10Z</time>
      </trkpt>
      <trkpt lat="46.53719" lon="5.43238">
        <ele>404.8</ele>
        <time>2022-07-16T05:14:12Z</time>
      </trkpt>
      <trkpt lat="46.53722" lon="5.4325">
        <ele>404.4</ele>
        <time>2022-07-16T05:14:13Z</time>
      </trkpt>
      <trkpt lat="46.53726" lon="5.43262">
        <ele>404.2</ele>
        <time>2022-07-16T05:14:14Z</time>
      </trkpt>
      <trkpt lat="46.53732" lon="5.43273">
        <ele>403.2</ele>
        <time>2022-07-16T05:14:15Z</time>
      </trkpt>
      <trkpt lat="46.53738" lon="5.43283">
        <ele>403</ele>
        <time>2022-07-16T05:14:16Z</time>
      </trkpt>
      <trkpt lat="46.5375" lon="5.43304">
        <ele>402</ele>
        <time>2022-07-16T05:14:18Z</time>
      </trkpt>
      <trkpt lat="46.53763" lon="5.43325">
        <ele>400.4</ele>
        <time>2022-07-16T05:14:20Z</time>
      </trkpt>
      <trkpt lat="46.53788" lon="5.43367">
        <ele>399.2</ele>
        <time>2022-07-16T05:14:24Z</time>
      </trkpt>
      <trkpt lat="46.53814" lon="5.43419">
        <ele>398.2</ele>
        <time>2022-07-16T05:14:29Z</time>
      </trkpt>
      <trkpt lat="46.53818" lon="5.4343">
        <ele>398.2</ele>
        <time>2022-07-16T05:14:30Z</time>
      </trkpt>
      <trkpt lat="46.53821" lon="5.43442">
        <ele>398</ele>
        <time>2022-07-16T05:14:31Z</time>
      </trkpt>
      <trkpt lat="46.5383" lon="5.43476">
        <ele>397.8</ele>
        <time>2022-07-16T05:14:34Z</time>
      </trkpt>
      <trkpt lat="46.53855" lon="5.43543">
        <ele>396.8</ele>
        <time>2022-07-16T05:14:40Z</time>
      </trkpt>
      <trkpt lat="46.53871" lon="5.43575">
        <ele>395.4</ele>
        <time>2022-07-16T05:14:43Z</time>
      </trkpt>
      <trkpt lat="46.53895" lon="5.43615">
        <ele>394.4</ele>
        <time>2022-07-16T05:14:47Z</time>
      </trkpt>
      <trkpt lat="46.53901" lon="5.43625">
        <ele>394.2</ele>
        <time>2022-07-16T05:14:48Z</time>
      </trkpt>
      <trkpt lat="46.53935" lon="5.43678">
        <ele>393.2</ele>
        <time>2022-07-16T05:14:54Z</time>
      </trkpt>
      <trkpt lat="46.53967" lon="5.43722">
        <ele>393.4</ele>
        <time>2022-07-16T05:15:00Z</time>
      </trkpt>
      <trkpt lat="46.54006" lon="5.43789">
        <ele>393.8</ele>
        <time>2022-07-16T05:15:08Z</time>
      </trkpt>
      <trkpt lat="46.54025" lon="5.4382">
        <ele>394.2</ele>
        <time>2022-07-16T05:15:12Z</time>
      </trkpt>
      <trkpt lat="46.54043" lon="5.43849">
        <ele>394.8</ele>
        <time>2022-07-16T05:15:16Z</time>
      </trkpt>
      <trkpt lat="46.54055" lon="5.43869">
        <ele>395.6</ele>
        <time>2022-07-16T05:15:19Z</time>
      </trkpt>
      <trkpt lat="46.54075" lon="5.43903">
        <ele>396.6</ele>
        <time>2022-07-16T05:15:24Z</time>
      </trkpt>
      <trkpt lat="46.54079" lon="5.43911">
        <ele>396.6</ele>
        <time>2022-07-16T05:15:25Z</time>
      </trkpt>
      <trkpt lat="46.54116" lon="5.43976">
        <ele>396.8</ele>
        <time>2022-07-16T05:15:34Z</time>
      </trkpt>
      <trkpt lat="46.54151" lon="5.44027">
        <ele>397.2</ele>
        <time>2022-07-16T05:15:42Z</time>
      </trkpt>
      <trkpt lat="46.54176" lon="5.44064">
        <ele>397.2</ele>
        <time>2022-07-16T05:15:48Z</time>
      </trkpt>
      <trkpt lat="46.54194" lon="5.44088">
        <ele>397.4</ele>
        <time>2022-07-16T05:15:52Z</time>
      </trkpt>
      <trkpt lat="46.54207" lon="5.4411">
        <ele>397.6</ele>
        <time>2022-07-16T05:15:55Z</time>
      </trkpt>
      <trkpt lat="46.5423" lon="5.44165">
        <ele>397</ele>
        <time>2022-07-16T05:16:01Z</time>
      </trkpt>
      <trkpt lat="46.54239" lon="5.44218">
        <ele>396.4</ele>
        <time>2022-07-16T05:16:06Z</time>
      </trkpt>
      <trkpt lat="46.54252" lon="5.44252">
        <ele>396</ele>
        <time>2022-07-16T05:16:10Z</time>
      </trkpt>
      <trkpt lat="46.54259" lon="5.44267">
        <ele>396.2</ele>
        <time>2022-07-16T05:16:12Z</time>
      </trkpt>
      <trkpt lat="46.54275" lon="5.44296">
        <ele>396.6</ele>
        <time>2022-07-16T05:16:16Z</time>
      </trkpt>
      <trkpt lat="46.54303" lon="5.44344">
        <ele>397.4</ele>
        <time>2022-07-16T05:16:23Z</time>
      </trkpt>
      <trkpt lat="46.54307" lon="5.44351">
        <ele>397.4</ele>
        <time>2022-07-16T05:16:24Z</time>
      </trkpt>
      <trkpt lat="46.54338" lon="5.44395">
        <ele>398</ele>
        <time>2022-07-16T05:16:31Z</time>
      </trkpt>
      <trkpt lat="46.54355" lon="5.44423">
        <ele>397.8</ele>
        <time>2022-07-16T05:16:35Z</time>
      </trkpt>
      <trkpt lat="46.5436" lon="5.44439">
        <ele>397.8</ele>
        <time>2022-07-16T05:16:37Z</time>
      </trkpt>
      <trkpt lat="46.54373" lon="5.44487">
        <ele>397.6</ele>
        <time>2022-07-16T05:16:43Z</time>
      </trkpt>
      <trkpt lat="46.54375" lon="5.44494">
        <ele>397.6</ele>
        <time>2022-07-16T05:16:44Z</time>
      </trkpt>
      <trkpt lat="46.54388" lon="5.44517">
        <ele>397.8</ele>
        <time>2022-07-16T05:16:48Z</time>
      </trkpt>
      <trkpt lat="46.54391" lon="5.44522">
        <ele>398</ele>
        <time>2022-07-16T05:16:49Z</time>
      </trkpt>
      <trkpt lat="46.54397" lon="5.44533">
        <ele>398.6</ele>
        <time>2022-07-16T05:16:51Z</time>
      </trkpt>
      <trkpt lat="46.54404" lon="5.44544">
        <ele>399.2</ele>
        <time>2022-07-16T05:16:53Z</time>
      </trkpt>
      <trkpt lat="46.54407" lon="5.44549">
        <ele>399.6</ele>
        <time>2022-07-16T05:16:54Z</time>
      </trkpt>
      <trkpt lat="46.54418" lon="5.44573">
        <ele>400.8</ele>
        <time>2022-07-16T05:16:58Z</time>
      </trkpt>
      <trkpt lat="46.54424" lon="5.44585">
        <ele>401</ele>
        <time>2022-07-16T05:17:00Z</time>
      </trkpt>
      <trkpt lat="46.54451" lon="5.44646">
        <ele>401.8</ele>
        <time>2022-07-16T05:17:09Z</time>
      </trkpt>
      <trkpt lat="46.54453" lon="5.44654">
        <ele>401.8</ele>
        <time>2022-07-16T05:17:10Z</time>
      </trkpt>
      <trkpt lat="46.54473" lon="5.44721">
        <ele>402.4</ele>
        <time>2022-07-16T05:17:19Z</time>
      </trkpt>
      <trkpt lat="46.54491" lon="5.44771">
        <ele>402.6</ele>
        <time>2022-07-16T05:17:26Z</time>
      </trkpt>
      <trkpt lat="46.54495" lon="5.44777">
        <ele>402.6</ele>
        <time>2022-07-16T05:17:27Z</time>
      </trkpt>
      <trkpt lat="46.54512" lon="5.44804">
        <ele>403</ele>
        <time>2022-07-16T05:17:32Z</time>
      </trkpt>
      <trkpt lat="46.54515" lon="5.44809">
        <ele>403.2</ele>
        <time>2022-07-16T05:17:33Z</time>
      </trkpt>
      <trkpt lat="46.54526" lon="5.44826">
        <ele>403.6</ele>
        <time>2022-07-16T05:17:36Z</time>
      </trkpt>
      <trkpt lat="46.54537" lon="5.44847">
        <ele>404</ele>
        <time>2022-07-16T05:17:39Z</time>
      </trkpt>
      <trkpt lat="46.54564" lon="5.44897">
        <ele>404.2</ele>
        <time>2022-07-16T05:17:46Z</time>
      </trkpt>
      <trkpt lat="46.54572" lon="5.44911">
        <ele>404</ele>
        <time>2022-07-16T05:17:48Z</time>
      </trkpt>
      <trkpt lat="46.54591" lon="5.44943">
        <ele>403</ele>
        <time>2022-07-16T05:17:52Z</time>
      </trkpt>
      <trkpt lat="46.54606" lon="5.44965">
        <ele>402.6</ele>
        <time>2022-07-16T05:17:55Z</time>
      </trkpt>
      <trkpt lat="46.5462" lon="5.44985">
        <ele>402.2</ele>
        <time>2022-07-16T05:17:58Z</time>
      </trkpt>
      <trkpt lat="46.54645" lon="5.45017">
        <ele>402.4</ele>
        <time>2022-07-16T05:18:04Z</time>
      </trkpt>
      <trkpt lat="46.54666" lon="5.45049">
        <ele>403.8</ele>
        <time>2022-07-16T05:18:10Z</time>
      </trkpt>
      <trkpt lat="46.5467" lon="5.45054">
        <ele>404.4</ele>
        <time>2022-07-16T05:18:11Z</time>
      </trkpt>
      <trkpt lat="46.54673" lon="5.4506">
        <ele>404.8</ele>
        <time>2022-07-16T05:18:12Z</time>
      </trkpt>
      <trkpt lat="46.54688" lon="5.45082">
        <ele>405.6</ele>
        <time>2022-07-16T05:18:16Z</time>
      </trkpt>
      <trkpt lat="46.54697" lon="5.45093">
        <ele>405.6</ele>
        <time>2022-07-16T05:18:18Z</time>
      </trkpt>
      <trkpt lat="46.54717" lon="5.45113">
        <ele>405.8</ele>
        <time>2022-07-16T05:18:22Z</time>
      </trkpt>
      <trkpt lat="46.54735" lon="5.4513">
        <ele>406</ele>
        <time>2022-07-16T05:18:26Z</time>
      </trkpt>
      <trkpt lat="46.54756" lon="5.45149">
        <ele>407</ele>
        <time>2022-07-16T05:18:31Z</time>
      </trkpt>
      <trkpt lat="46.54768" lon="5.4516">
        <ele>407.8</ele>
        <time>2022-07-16T05:18:34Z</time>
      </trkpt>
      <trkpt lat="46.54772" lon="5.45163">
        <ele>408</ele>
        <time>2022-07-16T05:18:35Z</time>
      </trkpt>
      <trkpt lat="46.54776" lon="5.45167">
        <ele>408.2</ele>
        <time>2022-07-16T05:18:36Z</time>
      </trkpt>
      <trkpt lat="46.54793" lon="5.45183">
        <ele>409.2</ele>
        <time>2022-07-16T05:18:40Z</time>
      </trkpt>
      <trkpt lat="46.54812" lon="5.45201">
        <ele>409.4</ele>
        <time>2022-07-16T05:18:44Z</time>
      </trkpt>
      <trkpt lat="46.54827" lon="5.45215">
        <ele>409.6</ele>
        <time>2022-07-16T05:18:47Z</time>
      </trkpt>
      <trkpt lat="46.5486" lon="5.45245">
        <ele>409.8</ele>
        <time>2022-07-16T05:18:54Z</time>
      </trkpt>
      <trkpt lat="46.5487" lon="5.4525">
        <ele>409.8</ele>
        <time>2022-07-16T05:18:56Z</time>
      </trkpt>
      <trkpt lat="46.54894" lon="5.45258">
        <ele>410.4</ele>
        <time>2022-07-16T05:19:01Z</time>
      </trkpt>
      <trkpt lat="46.54899" lon="5.45261">
        <ele>410.8</ele>
        <time>2022-07-16T05:19:02Z</time>
      </trkpt>
      <trkpt lat="46.54904" lon="5.45264">
        <ele>410.8</ele>
        <time>2022-07-16T05:19:03Z</time>
      </trkpt>
      <trkpt lat="46.54927" lon="5.45291">
        <ele>411.4</ele>
        <time>2022-07-16T05:19:09Z</time>
      </trkpt>
      <trkpt lat="46.5494" lon="5.45306">
        <ele>411.8</ele>
        <time>2022-07-16T05:19:12Z</time>
      </trkpt>
      <trkpt lat="46.54967" lon="5.45337">
        <ele>412</ele>
        <time>2022-07-16T05:19:18Z</time>
      </trkpt>
      <trkpt lat="46.54994" lon="5.4537">
        <ele>412</ele>
        <time>2022-07-16T05:19:24Z</time>
      </trkpt>
      <trkpt lat="46.55002" lon="5.45384">
        <ele>412</ele>
        <time>2022-07-16T05:19:26Z</time>
      </trkpt>
      <trkpt lat="46.55029" lon="5.45433">
        <ele>412.8</ele>
        <time>2022-07-16T05:19:34Z</time>
      </trkpt>
      <trkpt lat="46.55032" lon="5.45439">
        <ele>413</ele>
        <time>2022-07-16T05:19:35Z</time>
      </trkpt>
      <trkpt lat="46.55037" lon="5.45453">
        <ele>413.2</ele>
        <time>2022-07-16T05:19:37Z</time>
      </trkpt>
      <trkpt lat="46.55042" lon="5.45476">
        <ele>413.4</ele>
        <time>2022-07-16T05:19:40Z</time>
      </trkpt>
      <trkpt lat="46.55043" lon="5.45483">
        <ele>413.6</ele>
        <time>2022-07-16T05:19:41Z</time>
      </trkpt>
      <trkpt lat="46.55047" lon="5.45498">
        <ele>413.6</ele>
        <time>2022-07-16T05:19:43Z</time>
      </trkpt>
      <trkpt lat="46.55059" lon="5.45539">
        <ele>413</ele>
        <time>2022-07-16T05:19:48Z</time>
      </trkpt>
      <trkpt lat="46.55075" lon="5.45582">
        <ele>413.4</ele>
        <time>2022-07-16T05:19:54Z</time>
      </trkpt>
      <trkpt lat="46.55081" lon="5.45594">
        <ele>413.6</ele>
        <time>2022-07-16T05:19:56Z</time>
      </trkpt>
      <trkpt lat="46.55085" lon="5.45599">
        <ele>414</ele>
        <time>2022-07-16T05:19:57Z</time>
      </trkpt>
      <trkpt lat="46.55106" lon="5.45636">
        <ele>415</ele>
        <time>2022-07-16T05:20:03Z</time>
      </trkpt>
      <trkpt lat="46.55128" lon="5.45698">
        <ele>415</ele>
        <time>2022-07-16T05:20:12Z</time>
      </trkpt>
      <trkpt lat="46.55135" lon="5.45725">
        <ele>416.2</ele>
        <time>2022-07-16T05:20:16Z</time>
      </trkpt>
      <trkpt lat="46.55135" lon="5.45733">
        <ele>416.4</ele>
        <time>2022-07-16T05:20:17Z</time>
      </trkpt>
      <trkpt lat="46.55137" lon="5.45767">
        <ele>417.2</ele>
        <time>2022-07-16T05:20:22Z</time>
      </trkpt>
      <trkpt lat="46.55139" lon="5.45779">
        <ele>417.8</ele>
        <time>2022-07-16T05:20:24Z</time>
      </trkpt>
      <trkpt lat="46.55144" lon="5.45796">
        <ele>418.2</ele>
        <time>2022-07-16T05:20:27Z</time>
      </trkpt>
      <trkpt lat="46.55149" lon="5.45812">
        <ele>418.8</ele>
        <time>2022-07-16T05:20:30Z</time>
      </trkpt>
      <trkpt lat="46.55158" lon="5.45833">
        <ele>419.2</ele>
        <time>2022-07-16T05:20:35Z</time>
      </trkpt>
      <trkpt lat="46.55161" lon="5.45837">
        <ele>419.4</ele>
        <time>2022-07-16T05:20:36Z</time>
      </trkpt>
      <trkpt lat="46.55175" lon="5.45847">
        <ele>420.2</ele>
        <time>2022-07-16T05:20:40Z</time>
      </trkpt>
      <trkpt lat="46.55177" lon="5.45849">
        <ele>420.6</ele>
        <time>2022-07-16T05:20:41Z</time>
      </trkpt>
      <trkpt lat="46.55184" lon="5.45856">
        <ele>421.8</ele>
        <time>2022-07-16T05:20:44Z</time>
      </trkpt>
      <trkpt lat="46.55185" lon="5.45859">
        <ele>422.2</ele>
        <time>2022-07-16T05:20:45Z</time>
      </trkpt>
      <trkpt lat="46.55188" lon="5.45867">
        <ele>422.8</ele>
        <time>2022-07-16T05:20:47Z</time>
      </trkpt>
      <trkpt lat="46.55187" lon="5.4587">
        <ele>423.2</ele>
        <time>2022-07-16T05:20:48Z</time>
      </trkpt>
      <trkpt lat="46.55185" lon="5.45873">
        <ele>423.4</ele>
        <time>2022-07-16T05:20:49Z</time>
      </trkpt>
      <trkpt lat="46.55178" lon="5.45874">
        <ele>424</ele>
        <time>2022-07-16T05:20:52Z</time>
      </trkpt>
      <trkpt lat="46.55175" lon="5.45874">
        <ele>424.2</ele>
        <time>2022-07-16T05:20:53Z</time>
      </trkpt>
      <trkpt lat="46.55162" lon="5.45875">
        <ele>425.4</ele>
        <time>2022-07-16T05:20:57Z</time>
      </trkpt>
      <trkpt lat="46.55158" lon="5.45877">
        <ele>425.6</ele>
        <time>2022-07-16T05:20:58Z</time>
      </trkpt>
      <trkpt lat="46.55152" lon="5.45886">
        <ele>426.6</ele>
        <time>2022-07-16T05:21:01Z</time>
      </trkpt>
      <trkpt lat="46.55149" lon="5.45895">
        <ele>427</ele>
        <time>2022-07-16T05:21:03Z</time>
      </trkpt>
      <trkpt lat="46.55141" lon="5.45913">
        <ele>427.8</ele>
        <time>2022-07-16T05:21:08Z</time>
      </trkpt>
      <trkpt lat="46.55139" lon="5.45917">
        <ele>427.8</ele>
        <time>2022-07-16T05:21:09Z</time>
      </trkpt>
      <trkpt lat="46.55137" lon="5.45925">
        <ele>428.8</ele>
        <time>2022-07-16T05:21:11Z</time>
      </trkpt>
      <trkpt lat="46.5513" lon="5.45942">
        <ele>429.8</ele>
        <time>2022-07-16T05:21:16Z</time>
      </trkpt>
      <trkpt lat="46.55128" lon="5.45945">
        <ele>430.2</ele>
        <time>2022-07-16T05:21:17Z</time>
      </trkpt>
      <trkpt lat="46.55124" lon="5.45949">
        <ele>430.6</ele>
        <time>2022-07-16T05:21:19Z</time>
      </trkpt>
      <trkpt lat="46.55122" lon="5.45951">
        <ele>430.8</ele>
        <time>2022-07-16T05:21:20Z</time>
      </trkpt>
      <trkpt lat="46.55119" lon="5.45956">
        <ele>431.6</ele>
        <time>2022-07-16T05:21:22Z</time>
      </trkpt>
      <trkpt lat="46.5511" lon="5.45968">
        <ele>432.2</ele>
        <time>2022-07-16T05:21:26Z</time>
      </trkpt>
      <trkpt lat="46.55102" lon="5.45975">
        <ele>432.6</ele>
        <time>2022-07-16T05:21:28Z</time>
      </trkpt>
      <trkpt lat="46.55093" lon="5.45983">
        <ele>433.2</ele>
        <time>2022-07-16T05:21:31Z</time>
      </trkpt>
      <trkpt lat="46.5508" lon="5.45993">
        <ele>433.8</ele>
        <time>2022-07-16T05:21:35Z</time>
      </trkpt>
      <trkpt lat="46.55068" lon="5.46011">
        <ele>434.8</ele>
        <time>2022-07-16T05:21:40Z</time>
      </trkpt>
      <trkpt lat="46.55065" lon="5.46014">
        <ele>435.4</ele>
        <time>2022-07-16T05:21:41Z</time>
      </trkpt>
      <trkpt lat="46.55063" lon="5.46022">
        <ele>435.8</ele>
        <time>2022-07-16T05:21:43Z</time>
      </trkpt>
      <trkpt lat="46.55061" lon="5.46038">
        <ele>436.2</ele>
        <time>2022-07-16T05:21:46Z</time>
      </trkpt>
      <trkpt lat="46.55058" lon="5.46065">
        <ele>436.8</ele>
        <time>2022-07-16T05:21:51Z</time>
      </trkpt>
      <trkpt lat="46.55047" lon="5.46109">
        <ele>437.6</ele>
        <time>2022-07-16T05:22:00Z</time>
      </trkpt>
      <trkpt lat="46.55028" lon="5.46146">
        <ele>438.8</ele>
        <time>2022-07-16T05:22:09Z</time>
      </trkpt>
      <trkpt lat="46.55008" lon="5.46175">
        <ele>440</ele>
        <time>2022-07-16T05:22:17Z</time>
      </trkpt>
      <trkpt lat="46.55005" lon="5.46178">
        <ele>440.2</ele>
        <time>2022-07-16T05:22:18Z</time>
      </trkpt>
      <trkpt lat="46.54997" lon="5.46195">
        <ele>441</ele>
        <time>2022-07-16T05:22:22Z</time>
      </trkpt>
      <trkpt lat="46.54989" lon="5.46215">
        <ele>441.4</ele>
        <time>2022-07-16T05:22:26Z</time>
      </trkpt>
      <trkpt lat="46.54991" lon="5.46237">
        <ele>441.8</ele>
        <time>2022-07-16T05:22:30Z</time>
      </trkpt>
      <trkpt lat="46.55002" lon="5.46247">
        <ele>442.2</ele>
        <time>2022-07-16T05:22:34Z</time>
      </trkpt>
      <trkpt lat="46.55013" lon="5.46255">
        <ele>443.6</ele>
        <time>2022-07-16T05:22:38Z</time>
      </trkpt>
      <trkpt lat="46.55021" lon="5.4626">
        <ele>444.4</ele>
        <time>2022-07-16T05:22:41Z</time>
      </trkpt>
      <trkpt lat="46.55023" lon="5.46262">
        <ele>444.8</ele>
        <time>2022-07-16T05:22:42Z</time>
      </trkpt>
      <trkpt lat="46.55031" lon="5.46266">
        <ele>446.2</ele>
        <time>2022-07-16T05:22:45Z</time>
      </trkpt>
      <trkpt lat="46.55041" lon="5.46272">
        <ele>447.4</ele>
        <time>2022-07-16T05:22:49Z</time>
      </trkpt>
      <trkpt lat="46.5505" lon="5.46278">
        <ele>448.4</ele>
        <time>2022-07-16T05:22:53Z</time>
      </trkpt>
      <trkpt lat="46.55058" lon="5.46282">
        <ele>449.4</ele>
        <time>2022-07-16T05:22:56Z</time>
      </trkpt>
      <trkpt lat="46.5506" lon="5.46283">
        <ele>449.6</ele>
        <time>2022-07-16T05:22:57Z</time>
      </trkpt>
      <trkpt lat="46.55067" lon="5.46288">
        <ele>450.4</ele>
        <time>2022-07-16T05:23:00Z</time>
      </trkpt>
      <trkpt lat="46.55072" lon="5.46292">
        <ele>451.2</ele>
        <time>2022-07-16T05:23:02Z</time>
      </trkpt>
      <trkpt lat="46.55075" lon="5.46294">
        <ele>451.6</ele>
        <time>2022-07-16T05:23:03Z</time>
      </trkpt>
      <trkpt lat="46.55086" lon="5.46302">
        <ele>452.8</ele>
        <time>2022-07-16T05:23:07Z</time>
      </trkpt>
      <trkpt lat="46.55088" lon="5.46304">
        <ele>453.2</ele>
        <time>2022-07-16T05:23:08Z</time>
      </trkpt>
      <trkpt lat="46.55096" lon="5.4631">
        <ele>453.8</ele>
        <time>2022-07-16T05:23:11Z</time>
      </trkpt>
      <trkpt lat="46.5511" lon="5.46319">
        <ele>454.8</ele>
        <time>2022-07-16T05:23:16Z</time>
      </trkpt>
      <trkpt lat="46.55113" lon="5.4632">
        <ele>455</ele>
        <time>2022-07-16T05:23:17Z</time>
      </trkpt>
      <trkpt lat="46.55134" lon="5.46326">
        <ele>456</ele>
        <time>2022-07-16T05:23:24Z</time>
      </trkpt>
      <trkpt lat="46.55137" lon="5.46327">
        <ele>456.2</ele>
        <time>2022-07-16T05:23:25Z</time>
      </trkpt>
      <trkpt lat="46.55152" lon="5.4633">
        <ele>457.4</ele>
        <time>2022-07-16T05:23:30Z</time>
      </trkpt>
      <trkpt lat="46.55159" lon="5.46332">
        <ele>457.6</ele>
        <time>2022-07-16T05:23:32Z</time>
      </trkpt>
      <trkpt lat="46.55168" lon="5.46336">
        <ele>458.4</ele>
        <time>2022-07-16T05:23:35Z</time>
      </trkpt>
      <trkpt lat="46.55178" lon="5.46345">
        <ele>458.6</ele>
        <time>2022-07-16T05:23:38Z</time>
      </trkpt>
      <trkpt lat="46.55215" lon="5.46376">
        <ele>459</ele>
        <time>2022-07-16T05:23:47Z</time>
      </trkpt>
      <trkpt lat="46.55245" lon="5.46406">
        <ele>459</ele>
        <time>2022-07-16T05:23:54Z</time>
      </trkpt>
      <trkpt lat="46.55274" lon="5.46433">
        <ele>459.4</ele>
        <time>2022-07-16T05:24:01Z</time>
      </trkpt>
      <trkpt lat="46.55281" lon="5.4644">
        <ele>459.6</ele>
        <time>2022-07-16T05:24:03Z</time>
      </trkpt>
      <trkpt lat="46.55296" lon="5.46454">
        <ele>460.6</ele>
        <time>2022-07-16T05:24:07Z</time>
      </trkpt>
      <trkpt lat="46.5531" lon="5.46473">
        <ele>461.4</ele>
        <time>2022-07-16T05:24:11Z</time>
      </trkpt>
      <trkpt lat="46.55314" lon="5.46479">
        <ele>461.4</ele>
        <time>2022-07-16T05:24:12Z</time>
      </trkpt>
      <trkpt lat="46.55324" lon="5.46501">
        <ele>461.4</ele>
        <time>2022-07-16T05:24:15Z</time>
      </trkpt>
      <trkpt lat="46.55341" lon="5.46551">
        <ele>460.6</ele>
        <time>2022-07-16T05:24:21Z</time>
      </trkpt>
      <trkpt lat="46.55348" lon="5.46565">
        <ele>460.4</ele>
        <time>2022-07-16T05:24:23Z</time>
      </trkpt>
      <trkpt lat="46.55358" lon="5.46582">
        <ele>460.8</ele>
        <time>2022-07-16T05:24:26Z</time>
      </trkpt>
      <trkpt lat="46.55368" lon="5.466">
        <ele>461.6</ele>
        <time>2022-07-16T05:24:30Z</time>
      </trkpt>
      <trkpt lat="46.55373" lon="5.46608">
        <ele>462.2</ele>
        <time>2022-07-16T05:24:32Z</time>
      </trkpt>
      <trkpt lat="46.55375" lon="5.46611">
        <ele>462.6</ele>
        <time>2022-07-16T05:24:33Z</time>
      </trkpt>
      <trkpt lat="46.5538" lon="5.46618">
        <ele>463.6</ele>
        <time>2022-07-16T05:24:35Z</time>
      </trkpt>
      <trkpt lat="46.55387" lon="5.46628">
        <ele>464.8</ele>
        <time>2022-07-16T05:24:38Z</time>
      </trkpt>
      <trkpt lat="46.5539" lon="5.46631">
        <ele>465.4</ele>
        <time>2022-07-16T05:24:39Z</time>
      </trkpt>
      <trkpt lat="46.55393" lon="5.46633">
        <ele>466</ele>
        <time>2022-07-16T05:24:40Z</time>
      </trkpt>
      <trkpt lat="46.55405" lon="5.46641">
        <ele>467.2</ele>
        <time>2022-07-16T05:24:44Z</time>
      </trkpt>
      <trkpt lat="46.55412" lon="5.46647">
        <ele>468.4</ele>
        <time>2022-07-16T05:24:47Z</time>
      </trkpt>
      <trkpt lat="46.55418" lon="5.46651">
        <ele>469.2</ele>
        <time>2022-07-16T05:24:49Z</time>
      </trkpt>
      <trkpt lat="46.5542" lon="5.46654">
        <ele>469.6</ele>
        <time>2022-07-16T05:24:50Z</time>
      </trkpt>
      <trkpt lat="46.5543" lon="5.46663">
        <ele>470.8</ele>
        <time>2022-07-16T05:24:54Z</time>
      </trkpt>
      <trkpt lat="46.55438" lon="5.46671">
        <ele>471.4</ele>
        <time>2022-07-16T05:24:56Z</time>
      </trkpt>
      <trkpt lat="46.55446" lon="5.46679">
        <ele>471.6</ele>
        <time>2022-07-16T05:25:00Z</time>
      </trkpt>
      <trkpt lat="46.55462" lon="5.46697">
        <ele>472.8</ele>
        <time>2022-07-16T05:25:06Z</time>
      </trkpt>
      <trkpt lat="46.55465" lon="5.46699">
        <ele>473</ele>
        <time>2022-07-16T05:25:07Z</time>
      </trkpt>
      <trkpt lat="46.55475" lon="5.46715">
        <ele>473.8</ele>
        <time>2022-07-16T05:25:12Z</time>
      </trkpt>
      <trkpt lat="46.55479" lon="5.46722">
        <ele>474.2</ele>
        <time>2022-07-16T05:25:14Z</time>
      </trkpt>
      <trkpt lat="46.5548" lon="5.46727">
        <ele>474.4</ele>
        <time>2022-07-16T05:25:15Z</time>
      </trkpt>
      <trkpt lat="46.5548" lon="5.46738">
        <ele>474.8</ele>
        <time>2022-07-16T05:25:17Z</time>
      </trkpt>
      <trkpt lat="46.55475" lon="5.46777">
        <ele>474.8</ele>
        <time>2022-07-16T05:25:23Z</time>
      </trkpt>
      <trkpt lat="46.55476" lon="5.46791">
        <ele>474.8</ele>
        <time>2022-07-16T05:25:25Z</time>
      </trkpt>
      <trkpt lat="46.5548" lon="5.46804">
        <ele>474.8</ele>
        <time>2022-07-16T05:25:27Z</time>
      </trkpt>
      <trkpt lat="46.55488" lon="5.46818">
        <ele>475</ele>
        <time>2022-07-16T05:25:29Z</time>
      </trkpt>
      <trkpt lat="46.55498" lon="5.46833">
        <ele>475.4</ele>
        <time>2022-07-16T05:25:33Z</time>
      </trkpt>
      <trkpt lat="46.55517" lon="5.4686">
        <ele>475.4</ele>
        <time>2022-07-16T05:25:38Z</time>
      </trkpt>
      <trkpt lat="46.55524" lon="5.4687">
        <ele>475.4</ele>
        <time>2022-07-16T05:25:40Z</time>
      </trkpt>
      <trkpt lat="46.55531" lon="5.46878">
        <ele>475.6</ele>
        <time>2022-07-16T05:25:41Z</time>
      </trkpt>
      <trkpt lat="46.55535" lon="5.46881">
        <ele>475.6</ele>
        <time>2022-07-16T05:25:43Z</time>
      </trkpt>
      <trkpt lat="46.5554" lon="5.46884">
        <ele>475.6</ele>
        <time>2022-07-16T05:25:44Z</time>
      </trkpt>
      <trkpt lat="46.55562" lon="5.46892">
        <ele>475.8</ele>
        <time>2022-07-16T05:25:48Z</time>
      </trkpt>
      <trkpt lat="46.55579" lon="5.46898">
        <ele>476.6</ele>
        <time>2022-07-16T05:25:52Z</time>
      </trkpt>
      <trkpt lat="46.55591" lon="5.46903">
        <ele>477</ele>
        <time>2022-07-16T05:25:55Z</time>
      </trkpt>
      <trkpt lat="46.55598" lon="5.46906">
        <ele>477.2</ele>
        <time>2022-07-16T05:25:57Z</time>
      </trkpt>
      <trkpt lat="46.55609" lon="5.46913">
        <ele>478.2</ele>
        <time>2022-07-16T05:26:00Z</time>
      </trkpt>
      <trkpt lat="46.55623" lon="5.46932">
        <ele>479.4</ele>
        <time>2022-07-16T05:26:05Z</time>
      </trkpt>
      <trkpt lat="46.55625" lon="5.46936">
        <ele>479.6</ele>
        <time>2022-07-16T05:26:06Z</time>
      </trkpt>
      <trkpt lat="46.55636" lon="5.46963">
        <ele>480.4</ele>
        <time>2022-07-16T05:26:12Z</time>
      </trkpt>
      <trkpt lat="46.55639" lon="5.46973">
        <ele>480.8</ele>
        <time>2022-07-16T05:26:14Z</time>
      </trkpt>
      <trkpt lat="46.55644" lon="5.46993">
        <ele>481.6</ele>
        <time>2022-07-16T05:26:18Z</time>
      </trkpt>
      <trkpt lat="46.55646" lon="5.46998">
        <ele>481.8</ele>
        <time>2022-07-16T05:26:19Z</time>
      </trkpt>
      <trkpt lat="46.55649" lon="5.47007">
        <ele>482.2</ele>
        <time>2022-07-16T05:26:21Z</time>
      </trkpt>
      <trkpt lat="46.55655" lon="5.47022">
        <ele>482.8</ele>
        <time>2022-07-16T05:26:24Z</time>
      </trkpt>
      <trkpt lat="46.55663" lon="5.4704">
        <ele>484.2</ele>
        <time>2022-07-16T05:26:28Z</time>
      </trkpt>
      <trkpt lat="46.55672" lon="5.47055">
        <ele>484.8</ele>
        <time>2022-07-16T05:26:32Z</time>
      </trkpt>
      <trkpt lat="46.55678" lon="5.47062">
        <ele>485.2</ele>
        <time>2022-07-16T05:26:34Z</time>
      </trkpt>
      <trkpt lat="46.55695" lon="5.4708">
        <ele>486.4</ele>
        <time>2022-07-16T05:26:40Z</time>
      </trkpt>
      <trkpt lat="46.55698" lon="5.47082">
        <ele>486.6</ele>
        <time>2022-07-16T05:26:41Z</time>
      </trkpt>
      <trkpt lat="46.55712" lon="5.47092">
        <ele>487.6</ele>
        <time>2022-07-16T05:26:46Z</time>
      </trkpt>
      <trkpt lat="46.55718" lon="5.47096">
        <ele>488</ele>
        <time>2022-07-16T05:26:48Z</time>
      </trkpt>
      <trkpt lat="46.55726" lon="5.47102">
        <ele>488.6</ele>
        <time>2022-07-16T05:26:51Z</time>
      </trkpt>
      <trkpt lat="46.55737" lon="5.47111">
        <ele>489.6</ele>
        <time>2022-07-16T05:26:55Z</time>
      </trkpt>
      <trkpt lat="46.5574" lon="5.47113">
        <ele>489.8</ele>
        <time>2022-07-16T05:26:56Z</time>
      </trkpt>
      <trkpt lat="46.55758" lon="5.47124">
        <ele>491</ele>
        <time>2022-07-16T05:27:02Z</time>
      </trkpt>
      <trkpt lat="46.55768" lon="5.47128">
        <ele>491.6</ele>
        <time>2022-07-16T05:27:05Z</time>
      </trkpt>
      <trkpt lat="46.55781" lon="5.47132">
        <ele>492.4</ele>
        <time>2022-07-16T05:27:09Z</time>
      </trkpt>
      <trkpt lat="46.55797" lon="5.47137">
        <ele>493.4</ele>
        <time>2022-07-16T05:27:14Z</time>
      </trkpt>
      <trkpt lat="46.55801" lon="5.47138">
        <ele>493.6</ele>
        <time>2022-07-16T05:27:15Z</time>
      </trkpt>
      <trkpt lat="46.55813" lon="5.47142">
        <ele>494.2</ele>
        <time>2022-07-16T05:27:19Z</time>
      </trkpt>
      <trkpt lat="46.5582" lon="5.47144">
        <ele>494.6</ele>
        <time>2022-07-16T05:27:21Z</time>
      </trkpt>
      <trkpt lat="46.55833" lon="5.4715">
        <ele>495.6</ele>
        <time>2022-07-16T05:27:25Z</time>
      </trkpt>
      <trkpt lat="46.55836" lon="5.47152">
        <ele>495.6</ele>
        <time>2022-07-16T05:27:26Z</time>
      </trkpt>
      <trkpt lat="46.55855" lon="5.4716">
        <ele>496.8</ele>
        <time>2022-07-16T05:27:32Z</time>
      </trkpt>
      <trkpt lat="46.55858" lon="5.47163">
        <ele>496.8</ele>
        <time>2022-07-16T05:27:33Z</time>
      </trkpt>
      <trkpt lat="46.55873" lon="5.4717">
        <ele>497.8</ele>
        <time>2022-07-16T05:27:38Z</time>
      </trkpt>
      <trkpt lat="46.55882" lon="5.47175">
        <ele>498.4</ele>
        <time>2022-07-16T05:27:41Z</time>
      </trkpt>
      <trkpt lat="46.5589" lon="5.4718">
        <ele>499</ele>
        <time>2022-07-16T05:27:44Z</time>
      </trkpt>
      <trkpt lat="46.55911" lon="5.4719">
        <ele>500.2</ele>
        <time>2022-07-16T05:27:51Z</time>
      </trkpt>
      <trkpt lat="46.55914" lon="5.47191">
        <ele>500</ele>
        <time>2022-07-16T05:27:52Z</time>
      </trkpt>
      <trkpt lat="46.5593" lon="5.47196">
        <ele>501.2</ele>
        <time>2022-07-16T05:27:57Z</time>
      </trkpt>
      <trkpt lat="46.55942" lon="5.47197">
        <ele>501.8</ele>
        <time>2022-07-16T05:28:01Z</time>
      </trkpt>
      <trkpt lat="46.55945" lon="5.47197">
        <ele>502.2</ele>
        <time>2022-07-16T05:28:02Z</time>
      </trkpt>
      <trkpt lat="46.55961" lon="5.47199">
        <ele>503.4</ele>
        <time>2022-07-16T05:28:07Z</time>
      </trkpt>
      <trkpt lat="46.5597" lon="5.472">
        <ele>503.6</ele>
        <time>2022-07-16T05:28:10Z</time>
      </trkpt>
      <trkpt lat="46.55986" lon="5.47205">
        <ele>504.4</ele>
        <time>2022-07-16T05:28:15Z</time>
      </trkpt>
      <trkpt lat="46.55999" lon="5.47209">
        <ele>505.2</ele>
        <time>2022-07-16T05:28:19Z</time>
      </trkpt>
      <trkpt lat="46.56003" lon="5.4721">
        <ele>505.6</ele>
        <time>2022-07-16T05:28:20Z</time>
      </trkpt>
      <trkpt lat="46.56019" lon="5.47216">
        <ele>506.4</ele>
        <time>2022-07-16T05:28:25Z</time>
      </trkpt>
      <trkpt lat="46.56022" lon="5.47217">
        <ele>506.6</ele>
        <time>2022-07-16T05:28:26Z</time>
      </trkpt>
      <trkpt lat="46.56025" lon="5.47218">
        <ele>506.8</ele>
        <time>2022-07-16T05:28:27Z</time>
      </trkpt>
      <trkpt lat="46.56047" lon="5.47225">
        <ele>507.8</ele>
        <time>2022-07-16T05:28:33Z</time>
      </trkpt>
      <trkpt lat="46.56055" lon="5.47228">
        <ele>508.2</ele>
        <time>2022-07-16T05:28:35Z</time>
      </trkpt>
      <trkpt lat="46.56074" lon="5.47235">
        <ele>508.8</ele>
        <time>2022-07-16T05:28:40Z</time>
      </trkpt>
      <trkpt lat="46.56081" lon="5.47238">
        <ele>509.2</ele>
        <time>2022-07-16T05:28:42Z</time>
      </trkpt>
      <trkpt lat="46.561" lon="5.47245">
        <ele>510</ele>
        <time>2022-07-16T05:28:47Z</time>
      </trkpt>
      <trkpt lat="46.56108" lon="5.47247">
        <ele>510.6</ele>
        <time>2022-07-16T05:28:49Z</time>
      </trkpt>
      <trkpt lat="46.56116" lon="5.4725">
        <ele>511.2</ele>
        <time>2022-07-16T05:28:51Z</time>
      </trkpt>
      <trkpt lat="46.56137" lon="5.47257">
        <ele>512.4</ele>
        <time>2022-07-16T05:28:57Z</time>
      </trkpt>
      <trkpt lat="46.56144" lon="5.47259">
        <ele>512.6</ele>
        <time>2022-07-16T05:28:59Z</time>
      </trkpt>
      <trkpt lat="46.56155" lon="5.47263">
        <ele>513.4</ele>
        <time>2022-07-16T05:29:02Z</time>
      </trkpt>
      <trkpt lat="46.5617" lon="5.47268">
        <ele>514.6</ele>
        <time>2022-07-16T05:29:07Z</time>
      </trkpt>
      <trkpt lat="46.5618" lon="5.47271">
        <ele>515</ele>
        <time>2022-07-16T05:29:10Z</time>
      </trkpt>
      <trkpt lat="46.56187" lon="5.47274">
        <ele>515.8</ele>
        <time>2022-07-16T05:29:12Z</time>
      </trkpt>
      <trkpt lat="46.56206" lon="5.47278">
        <ele>516.6</ele>
        <time>2022-07-16T05:29:18Z</time>
      </trkpt>
      <trkpt lat="46.56212" lon="5.47278">
        <ele>516.8</ele>
        <time>2022-07-16T05:29:20Z</time>
      </trkpt>
      <trkpt lat="46.56231" lon="5.47275">
        <ele>517.8</ele>
        <time>2022-07-16T05:29:26Z</time>
      </trkpt>
      <trkpt lat="46.56235" lon="5.47274">
        <ele>518.2</ele>
        <time>2022-07-16T05:29:27Z</time>
      </trkpt>
      <trkpt lat="46.5625" lon="5.4727">
        <ele>519</ele>
        <time>2022-07-16T05:29:31Z</time>
      </trkpt>
      <trkpt lat="46.5627" lon="5.47265">
        <ele>519.8</ele>
        <time>2022-07-16T05:29:37Z</time>
      </trkpt>
      <trkpt lat="46.56294" lon="5.47269">
        <ele>520.6</ele>
        <time>2022-07-16T05:29:44Z</time>
      </trkpt>
      <trkpt lat="46.56304" lon="5.47276">
        <ele>520.8</ele>
        <time>2022-07-16T05:29:47Z</time>
      </trkpt>
      <trkpt lat="46.5632" lon="5.47294">
        <ele>521.2</ele>
        <time>2022-07-16T05:29:52Z</time>
      </trkpt>
      <trkpt lat="46.56333" lon="5.47321">
        <ele>520.8</ele>
        <time>2022-07-16T05:29:58Z</time>
      </trkpt>
      <trkpt lat="46.56328" lon="5.47328">
        <ele>520.2</ele>
        <time>2022-07-16T05:30:00Z</time>
      </trkpt>
      <trkpt lat="46.56326" lon="5.47328">
        <ele>520.2</ele>
        <time>2022-07-16T05:30:01Z</time>
      </trkpt>
      <trkpt lat="46.5631" lon="5.47321">
        <ele>519.8</ele>
        <time>2022-07-16T05:30:06Z</time>
      </trkpt>
      <trkpt lat="46.56285" lon="5.4732">
        <ele>521.4</ele>
        <time>2022-07-16T05:30:13Z</time>
      </trkpt>
      <trkpt lat="46.56281" lon="5.47321">
        <ele>521.8</ele>
        <time>2022-07-16T05:30:14Z</time>
      </trkpt>
      <trkpt lat="46.56267" lon="5.47328">
        <ele>522.8</ele>
        <time>2022-07-16T05:30:19Z</time>
      </trkpt>
      <trkpt lat="46.56261" lon="5.47331">
        <ele>523.2</ele>
        <time>2022-07-16T05:30:20Z</time>
      </trkpt>
      <trkpt lat="46.5625" lon="5.47339">
        <ele>524</ele>
        <time>2022-07-16T05:30:24Z</time>
      </trkpt>
      <trkpt lat="46.56243" lon="5.47346">
        <ele>525</ele>
        <time>2022-07-16T05:30:27Z</time>
      </trkpt>
      <trkpt lat="46.56241" lon="5.47348">
        <ele>525.4</ele>
        <time>2022-07-16T05:30:28Z</time>
      </trkpt>
      <trkpt lat="46.56234" lon="5.47353">
        <ele>526.4</ele>
        <time>2022-07-16T05:30:31Z</time>
      </trkpt>
      <trkpt lat="46.56227" lon="5.47361">
        <ele>527.2</ele>
        <time>2022-07-16T05:30:34Z</time>
      </trkpt>
      <trkpt lat="46.56225" lon="5.47363">
        <ele>527.2</ele>
        <time>2022-07-16T05:30:35Z</time>
      </trkpt>
      <trkpt lat="46.5621" lon="5.47367">
        <ele>528.6</ele>
        <time>2022-07-16T05:30:41Z</time>
      </trkpt>
      <trkpt lat="46.56204" lon="5.47367">
        <ele>529.6</ele>
        <time>2022-07-16T05:30:44Z</time>
      </trkpt>
      <trkpt lat="46.56191" lon="5.47364">
        <ele>530.6</ele>
        <time>2022-07-16T05:30:49Z</time>
      </trkpt>
      <trkpt lat="46.56189" lon="5.47364">
        <ele>530.8</ele>
        <time>2022-07-16T05:30:50Z</time>
      </trkpt>
      <trkpt lat="46.56177" lon="5.47362">
        <ele>532</ele>
        <time>2022-07-16T05:30:55Z</time>
      </trkpt>
      <trkpt lat="46.56172" lon="5.47361">
        <ele>532.6</ele>
        <time>2022-07-16T05:30:57Z</time>
      </trkpt>
      <trkpt lat="46.56167" lon="5.4736">
        <ele>533.4</ele>
        <time>2022-07-16T05:30:59Z</time>
      </trkpt>
      <trkpt lat="46.56159" lon="5.47359">
        <ele>534.4</ele>
        <time>2022-07-16T05:31:03Z</time>
      </trkpt>
      <trkpt lat="46.56146" lon="5.47362">
        <ele>535.6</ele>
        <time>2022-07-16T05:31:08Z</time>
      </trkpt>
      <trkpt lat="46.56143" lon="5.47363">
        <ele>536</ele>
        <time>2022-07-16T05:31:10Z</time>
      </trkpt>
      <trkpt lat="46.56141" lon="5.47364">
        <ele>536.2</ele>
        <time>2022-07-16T05:31:11Z</time>
      </trkpt>
      <trkpt lat="46.56136" lon="5.47364">
        <ele>536.8</ele>
        <time>2022-07-16T05:31:13Z</time>
      </trkpt>
      <trkpt lat="46.56133" lon="5.47367">
        <ele>537.2</ele>
        <time>2022-07-16T05:31:15Z</time>
      </trkpt>
      <trkpt lat="46.56129" lon="5.47373">
        <ele>537.6</ele>
        <time>2022-07-16T05:31:17Z</time>
      </trkpt>
      <trkpt lat="46.56127" lon="5.47376">
        <ele>538</ele>
        <time>2022-07-16T05:31:18Z</time>
      </trkpt>
      <trkpt lat="46.56122" lon="5.47385">
        <ele>539.2</ele>
        <time>2022-07-16T05:31:21Z</time>
      </trkpt>
      <trkpt lat="46.56117" lon="5.47397">
        <ele>540.4</ele>
        <time>2022-07-16T05:31:25Z</time>
      </trkpt>
      <trkpt lat="46.56117" lon="5.47411">
        <ele>541.6</ele>
        <time>2022-07-16T05:31:30Z</time>
      </trkpt>
      <trkpt lat="46.56116" lon="5.4742">
        <ele>542</ele>
        <time>2022-07-16T05:31:33Z</time>
      </trkpt>
      <trkpt lat="46.56117" lon="5.47429">
        <ele>542.6</ele>
        <time>2022-07-16T05:31:36Z</time>
      </trkpt>
      <trkpt lat="46.56121" lon="5.47441">
        <ele>543.6</ele>
        <time>2022-07-16T05:31:40Z</time>
      </trkpt>
      <trkpt lat="46.56122" lon="5.47445">
        <ele>543.8</ele>
        <time>2022-07-16T05:31:41Z</time>
      </trkpt>
      <trkpt lat="46.56129" lon="5.4747">
        <ele>544.2</ele>
        <time>2022-07-16T05:31:46Z</time>
      </trkpt>
      <trkpt lat="46.56134" lon="5.47513">
        <ele>543.8</ele>
        <time>2022-07-16T05:31:51Z</time>
      </trkpt>
      <trkpt lat="46.56133" lon="5.47545">
        <ele>543</ele>
        <time>2022-07-16T05:31:54Z</time>
      </trkpt>
      <trkpt lat="46.56132" lon="5.47555">
        <ele>542.6</ele>
        <time>2022-07-16T05:31:55Z</time>
      </trkpt>
      <trkpt lat="46.56128" lon="5.47575">
        <ele>542</ele>
        <time>2022-07-16T05:31:57Z</time>
      </trkpt>
      <trkpt lat="46.56124" lon="5.47583">
        <ele>541</ele>
        <time>2022-07-16T05:31:58Z</time>
      </trkpt>
      <trkpt lat="46.56119" lon="5.47591">
        <ele>540.6</ele>
        <time>2022-07-16T05:31:59Z</time>
      </trkpt>
      <trkpt lat="46.56107" lon="5.476">
        <ele>539.6</ele>
        <time>2022-07-16T05:32:01Z</time>
      </trkpt>
      <trkpt lat="46.561" lon="5.47603">
        <ele>539</ele>
        <time>2022-07-16T05:32:02Z</time>
      </trkpt>
      <trkpt lat="46.56092" lon="5.47606">
        <ele>538.6</ele>
        <time>2022-07-16T05:32:03Z</time>
      </trkpt>
      <trkpt lat="46.56084" lon="5.47607">
        <ele>538.2</ele>
        <time>2022-07-16T05:32:04Z</time>
      </trkpt>
      <trkpt lat="46.56067" lon="5.47609">
        <ele>537.2</ele>
        <time>2022-07-16T05:32:06Z</time>
      </trkpt>
      <trkpt lat="46.56045" lon="5.47614">
        <ele>535.2</ele>
        <time>2022-07-16T05:32:09Z</time>
      </trkpt>
      <trkpt lat="46.56038" lon="5.47616">
        <ele>534.8</ele>
        <time>2022-07-16T05:32:10Z</time>
      </trkpt>
      <trkpt lat="46.5603" lon="5.47617">
        <ele>533.8</ele>
        <time>2022-07-16T05:32:11Z</time>
      </trkpt>
      <trkpt lat="46.56023" lon="5.47615">
        <ele>533.4</ele>
        <time>2022-07-16T05:32:12Z</time>
      </trkpt>
      <trkpt lat="46.56016" lon="5.47611">
        <ele>532.8</ele>
        <time>2022-07-16T05:32:13Z</time>
      </trkpt>
      <trkpt lat="46.56009" lon="5.47606">
        <ele>532</ele>
        <time>2022-07-16T05:32:14Z</time>
      </trkpt>
      <trkpt lat="46.56001" lon="5.47603">
        <ele>531.6</ele>
        <time>2022-07-16T05:32:15Z</time>
      </trkpt>
      <trkpt lat="46.55986" lon="5.47602">
        <ele>530.2</ele>
        <time>2022-07-16T05:32:17Z</time>
      </trkpt>
      <trkpt lat="46.55969" lon="5.47609">
        <ele>529</ele>
        <time>2022-07-16T05:32:19Z</time>
      </trkpt>
      <trkpt lat="46.55962" lon="5.47614">
        <ele>527</ele>
        <time>2022-07-16T05:32:20Z</time>
      </trkpt>
      <trkpt lat="46.55955" lon="5.47619">
        <ele>524.6</ele>
        <time>2022-07-16T05:32:21Z</time>
      </trkpt>
      <trkpt lat="46.55944" lon="5.47638">
        <ele>522.6</ele>
        <time>2022-07-16T05:32:23Z</time>
      </trkpt>
      <trkpt lat="46.5594" lon="5.4765">
        <ele>522.2</ele>
        <time>2022-07-16T05:32:24Z</time>
      </trkpt>
      <trkpt lat="46.55937" lon="5.47663">
        <ele>520.4</ele>
        <time>2022-07-16T05:32:25Z</time>
      </trkpt>
      <trkpt lat="46.55929" lon="5.47688">
        <ele>518</ele>
        <time>2022-07-16T05:32:27Z</time>
      </trkpt>
      <trkpt lat="46.55923" lon="5.47712">
        <ele>516.4</ele>
        <time>2022-07-16T05:32:29Z</time>
      </trkpt>
      <trkpt lat="46.55921" lon="5.47722">
        <ele>515.2</ele>
        <time>2022-07-16T05:32:30Z</time>
      </trkpt>
      <trkpt lat="46.55919" lon="5.47741">
        <ele>512.8</ele>
        <time>2022-07-16T05:32:32Z</time>
      </trkpt>
      <trkpt lat="46.55918" lon="5.47749">
        <ele>512</ele>
        <time>2022-07-16T05:32:33Z</time>
      </trkpt>
      <trkpt lat="46.55916" lon="5.47755">
        <ele>511.2</ele>
        <time>2022-07-16T05:32:34Z</time>
      </trkpt>
      <trkpt lat="46.55911" lon="5.47759">
        <ele>510.8</ele>
        <time>2022-07-16T05:32:35Z</time>
      </trkpt>
      <trkpt lat="46.55904" lon="5.47759">
        <ele>509.8</ele>
        <time>2022-07-16T05:32:36Z</time>
      </trkpt>
      <trkpt lat="46.55896" lon="5.47757">
        <ele>508.6</ele>
        <time>2022-07-16T05:32:37Z</time>
      </trkpt>
      <trkpt lat="46.55878" lon="5.47751">
        <ele>507</ele>
        <time>2022-07-16T05:32:39Z</time>
      </trkpt>
      <trkpt lat="46.5586" lon="5.47743">
        <ele>505</ele>
        <time>2022-07-16T05:32:41Z</time>
      </trkpt>
      <trkpt lat="46.55853" lon="5.47737">
        <ele>504</ele>
        <time>2022-07-16T05:32:42Z</time>
      </trkpt>
      <trkpt lat="46.55846" lon="5.47731">
        <ele>502.8</ele>
        <time>2022-07-16T05:32:43Z</time>
      </trkpt>
      <trkpt lat="46.5584" lon="5.47727">
        <ele>501.2</ele>
        <time>2022-07-16T05:32:44Z</time>
      </trkpt>
      <trkpt lat="46.55834" lon="5.47726">
        <ele>499.8</ele>
        <time>2022-07-16T05:32:45Z</time>
      </trkpt>
      <trkpt lat="46.55828" lon="5.47728">
        <ele>498.4</ele>
        <time>2022-07-16T05:32:46Z</time>
      </trkpt>
      <trkpt lat="46.55825" lon="5.47737">
        <ele>498</ele>
        <time>2022-07-16T05:32:47Z</time>
      </trkpt>
      <trkpt lat="46.55826" lon="5.47747">
        <ele>497.2</ele>
        <time>2022-07-16T05:32:48Z</time>
      </trkpt>
      <trkpt lat="46.55827" lon="5.47759">
        <ele>496.8</ele>
        <time>2022-07-16T05:32:49Z</time>
      </trkpt>
      <trkpt lat="46.55829" lon="5.4777">
        <ele>496.2</ele>
        <time>2022-07-16T05:32:50Z</time>
      </trkpt>
      <trkpt lat="46.55831" lon="5.47781">
        <ele>495</ele>
        <time>2022-07-16T05:32:51Z</time>
      </trkpt>
      <trkpt lat="46.55836" lon="5.47804">
        <ele>492.8</ele>
        <time>2022-07-16T05:32:53Z</time>
      </trkpt>
      <trkpt lat="46.55846" lon="5.47822">
        <ele>491</ele>
        <time>2022-07-16T05:32:55Z</time>
      </trkpt>
      <trkpt lat="46.55859" lon="5.47836">
        <ele>489.6</ele>
        <time>2022-07-16T05:32:57Z</time>
      </trkpt>
      <trkpt lat="46.55875" lon="5.47848">
        <ele>488.2</ele>
        <time>2022-07-16T05:32:59Z</time>
      </trkpt>
      <trkpt lat="46.55884" lon="5.47855">
        <ele>487</ele>
        <time>2022-07-16T05:33:00Z</time>
      </trkpt>
      <trkpt lat="46.55893" lon="5.47864">
        <ele>486.6</ele>
        <time>2022-07-16T05:33:01Z</time>
      </trkpt>
      <trkpt lat="46.559" lon="5.47875">
        <ele>484.8</ele>
        <time>2022-07-16T05:33:02Z</time>
      </trkpt>
      <trkpt lat="46.55908" lon="5.47887">
        <ele>483.2</ele>
        <time>2022-07-16T05:33:03Z</time>
      </trkpt>
      <trkpt lat="46.55915" lon="5.47899">
        <ele>481.4</ele>
        <time>2022-07-16T05:33:04Z</time>
      </trkpt>
      <trkpt lat="46.55927" lon="5.47924">
        <ele>479.2</ele>
        <time>2022-07-16T05:33:06Z</time>
      </trkpt>
      <trkpt lat="46.55933" lon="5.47937">
        <ele>477.6</ele>
        <time>2022-07-16T05:33:07Z</time>
      </trkpt>
      <trkpt lat="46.55937" lon="5.47949">
        <ele>476.2</ele>
        <time>2022-07-16T05:33:08Z</time>
      </trkpt>
      <trkpt lat="46.55942" lon="5.4796">
        <ele>474.2</ele>
        <time>2022-07-16T05:33:09Z</time>
      </trkpt>
      <trkpt lat="46.55942" lon="5.4796">
        <ele>473.8</ele>
        <time>2022-07-16T05:33:10Z</time>
      </trkpt>
      <trkpt lat="46.55949" lon="5.47977">
        <ele>472.6</ele>
        <time>2022-07-16T05:33:11Z</time>
      </trkpt>
      <trkpt lat="46.55952" lon="5.47984">
        <ele>471.6</ele>
        <time>2022-07-16T05:33:12Z</time>
      </trkpt>
      <trkpt lat="46.55952" lon="5.47984">
        <ele>470</ele>
        <time>2022-07-16T05:33:13Z</time>
      </trkpt>
      <trkpt lat="46.55953" lon="5.47996">
        <ele>468.6</ele>
        <time>2022-07-16T05:33:14Z</time>
      </trkpt>
      <trkpt lat="46.55948" lon="5.47999">
        <ele>468</ele>
        <time>2022-07-16T05:33:15Z</time>
      </trkpt>
      <trkpt lat="46.55943" lon="5.48">
        <ele>466.8</ele>
        <time>2022-07-16T05:33:16Z</time>
      </trkpt>
      <trkpt lat="46.55934" lon="5.4799">
        <ele>465.2</ele>
        <time>2022-07-16T05:33:18Z</time>
      </trkpt>
      <trkpt lat="46.55924" lon="5.4798">
        <ele>464.2</ele>
        <time>2022-07-16T05:33:20Z</time>
      </trkpt>
      <trkpt lat="46.55919" lon="5.47975">
        <ele>464</ele>
        <time>2022-07-16T05:33:21Z</time>
      </trkpt>
      <trkpt lat="46.55914" lon="5.47975">
        <ele>462.8</ele>
        <time>2022-07-16T05:33:22Z</time>
      </trkpt>
      <trkpt lat="46.5591" lon="5.47978">
        <ele>462</ele>
        <time>2022-07-16T05:33:23Z</time>
      </trkpt>
      <trkpt lat="46.5591" lon="5.47983">
        <ele>461</ele>
        <time>2022-07-16T05:33:24Z</time>
      </trkpt>
      <trkpt lat="46.55912" lon="5.47988">
        <ele>460</ele>
        <time>2022-07-16T05:33:25Z</time>
      </trkpt>
      <trkpt lat="46.55916" lon="5.47994">
        <ele>459.6</ele>
        <time>2022-07-16T05:33:26Z</time>
      </trkpt>
      <trkpt lat="46.55921" lon="5.47999">
        <ele>458.8</ele>
        <time>2022-07-16T05:33:27Z</time>
      </trkpt>
      <trkpt lat="46.55932" lon="5.4801">
        <ele>457.4</ele>
        <time>2022-07-16T05:33:29Z</time>
      </trkpt>
      <trkpt lat="46.55943" lon="5.48025">
        <ele>456</ele>
        <time>2022-07-16T05:33:31Z</time>
      </trkpt>
      <trkpt lat="46.55955" lon="5.48042">
        <ele>454.8</ele>
        <time>2022-07-16T05:33:33Z</time>
      </trkpt>
      <trkpt lat="46.55968" lon="5.48062">
        <ele>453.8</ele>
        <time>2022-07-16T05:33:35Z</time>
      </trkpt>
      <trkpt lat="46.55975" lon="5.48072">
        <ele>453</ele>
        <time>2022-07-16T05:33:36Z</time>
      </trkpt>
      <trkpt lat="46.5599" lon="5.48089">
        <ele>452</ele>
        <time>2022-07-16T05:33:38Z</time>
      </trkpt>
      <trkpt lat="46.55998" lon="5.48097">
        <ele>450.6</ele>
        <time>2022-07-16T05:33:39Z</time>
      </trkpt>
      <trkpt lat="46.56004" lon="5.48106">
        <ele>449.2</ele>
        <time>2022-07-16T05:33:40Z</time>
      </trkpt>
      <trkpt lat="46.56008" lon="5.48119">
        <ele>447.4</ele>
        <time>2022-07-16T05:33:41Z</time>
      </trkpt>
      <trkpt lat="46.5601" lon="5.48132">
        <ele>446.8</ele>
        <time>2022-07-16T05:33:42Z</time>
      </trkpt>
      <trkpt lat="46.5601" lon="5.48144">
        <ele>445</ele>
        <time>2022-07-16T05:33:43Z</time>
      </trkpt>
      <trkpt lat="46.56008" lon="5.48155">
        <ele>444</ele>
        <time>2022-07-16T05:33:44Z</time>
      </trkpt>
      <trkpt lat="46.56006" lon="5.48165">
        <ele>442.2</ele>
        <time>2022-07-16T05:33:45Z</time>
      </trkpt>
      <trkpt lat="46.56003" lon="5.48177">
        <ele>440.6</ele>
        <time>2022-07-16T05:33:46Z</time>
      </trkpt>
      <trkpt lat="46.55996" lon="5.48199">
        <ele>438.8</ele>
        <time>2022-07-16T05:33:48Z</time>
      </trkpt>
      <trkpt lat="46.55991" lon="5.48207">
        <ele>437.4</ele>
        <time>2022-07-16T05:33:50Z</time>
      </trkpt>
      <trkpt lat="46.55977" lon="5.48216">
        <ele>437.2</ele>
        <time>2022-07-16T05:33:51Z</time>
      </trkpt>
      <trkpt lat="46.5597" lon="5.48215">
        <ele>436.8</ele>
        <time>2022-07-16T05:33:52Z</time>
      </trkpt>
      <trkpt lat="46.55956" lon="5.48211">
        <ele>436.4</ele>
        <time>2022-07-16T05:33:54Z</time>
      </trkpt>
      <trkpt lat="46.55949" lon="5.48213">
        <ele>436</ele>
        <time>2022-07-16T05:33:56Z</time>
      </trkpt>
      <trkpt lat="46.55936" lon="5.48224">
        <ele>435.8</ele>
        <time>2022-07-16T05:33:57Z</time>
      </trkpt>
      <trkpt lat="46.55932" lon="5.48232">
        <ele>435.8</ele>
        <time>2022-07-16T05:33:58Z</time>
      </trkpt>
      <trkpt lat="46.5591" lon="5.48265">
        <ele>435.2</ele>
        <time>2022-07-16T05:34:02Z</time>
      </trkpt>
      <trkpt lat="46.55898" lon="5.48279">
        <ele>435</ele>
        <time>2022-07-16T05:34:04Z</time>
      </trkpt>
      <trkpt lat="46.55884" lon="5.48293">
        <ele>435</ele>
        <time>2022-07-16T05:34:06Z</time>
      </trkpt>
      <trkpt lat="46.55869" lon="5.483">
        <ele>434.8</ele>
        <time>2022-07-16T05:34:08Z</time>
      </trkpt>
      <trkpt lat="46.55848" lon="5.48299">
        <ele>435</ele>
        <time>2022-07-16T05:34:11Z</time>
      </trkpt>
      <trkpt lat="46.55816" lon="5.48289">
        <ele>436.4</ele>
        <time>2022-07-16T05:34:17Z</time>
      </trkpt>
      <trkpt lat="46.55803" lon="5.48284">
        <ele>438.2</ele>
        <time>2022-07-16T05:34:20Z</time>
      </trkpt>
      <trkpt lat="46.55794" lon="5.48282">
        <ele>439</ele>
        <time>2022-07-16T05:34:22Z</time>
      </trkpt>
      <trkpt lat="46.5579" lon="5.4828">
        <ele>439.6</ele>
        <time>2022-07-16T05:34:23Z</time>
      </trkpt>
      <trkpt lat="46.55781" lon="5.48276">
        <ele>440.6</ele>
        <time>2022-07-16T05:34:25Z</time>
      </trkpt>
      <trkpt lat="46.55769" lon="5.4827">
        <ele>441.4</ele>
        <time>2022-07-16T05:34:28Z</time>
      </trkpt>
      <trkpt lat="46.55765" lon="5.48267">
        <ele>441.8</ele>
        <time>2022-07-16T05:34:29Z</time>
      </trkpt>
      <trkpt lat="46.55761" lon="5.48264">
        <ele>442.2</ele>
        <time>2022-07-16T05:34:30Z</time>
      </trkpt>
      <trkpt lat="46.55746" lon="5.48255">
        <ele>443.2</ele>
        <time>2022-07-16T05:34:34Z</time>
      </trkpt>
      <trkpt lat="46.55733" lon="5.4825">
        <ele>444.4</ele>
        <time>2022-07-16T05:34:37Z</time>
      </trkpt>
      <trkpt lat="46.55729" lon="5.48251">
        <ele>444.6</ele>
        <time>2022-07-16T05:34:38Z</time>
      </trkpt>
      <trkpt lat="46.55723" lon="5.48255">
        <ele>445.6</ele>
        <time>2022-07-16T05:34:40Z</time>
      </trkpt>
      <trkpt lat="46.55721" lon="5.48259">
        <ele>445.8</ele>
        <time>2022-07-16T05:34:41Z</time>
      </trkpt>
      <trkpt lat="46.55718" lon="5.48274">
        <ele>446.6</ele>
        <time>2022-07-16T05:34:44Z</time>
      </trkpt>
      <trkpt lat="46.55718" lon="5.48279">
        <ele>446.8</ele>
        <time>2022-07-16T05:34:45Z</time>
      </trkpt>
      <trkpt lat="46.55721" lon="5.48318">
        <ele>447.6</ele>
        <time>2022-07-16T05:34:52Z</time>
      </trkpt>
      <trkpt lat="46.55718" lon="5.48336">
        <ele>448</ele>
        <time>2022-07-16T05:34:55Z</time>
      </trkpt>
      <trkpt lat="46.55715" lon="5.48347">
        <ele>448</ele>
        <time>2022-07-16T05:34:57Z</time>
      </trkpt>
      <trkpt lat="46.55713" lon="5.48353">
        <ele>448</ele>
        <time>2022-07-16T05:34:58Z</time>
      </trkpt>
      <trkpt lat="46.55698" lon="5.4839">
        <ele>448.6</ele>
        <time>2022-07-16T05:35:05Z</time>
      </trkpt>
      <trkpt lat="46.55695" lon="5.48395">
        <ele>448.8</ele>
        <time>2022-07-16T05:35:06Z</time>
      </trkpt>
      <trkpt lat="46.55691" lon="5.48405">
        <ele>449.2</ele>
        <time>2022-07-16T05:35:08Z</time>
      </trkpt>
      <trkpt lat="46.55682" lon="5.48425">
        <ele>450</ele>
        <time>2022-07-16T05:35:12Z</time>
      </trkpt>
      <trkpt lat="46.55681" lon="5.48431">
        <ele>450.2</ele>
        <time>2022-07-16T05:35:13Z</time>
      </trkpt>
      <trkpt lat="46.55678" lon="5.48443">
        <ele>450.6</ele>
        <time>2022-07-16T05:35:15Z</time>
      </trkpt>
      <trkpt lat="46.55678" lon="5.48456">
        <ele>450.8</ele>
        <time>2022-07-16T05:35:17Z</time>
      </trkpt>
      <trkpt lat="46.55678" lon="5.48462">
        <ele>450.8</ele>
        <time>2022-07-16T05:35:18Z</time>
      </trkpt>
      <trkpt lat="46.55678" lon="5.48475">
        <ele>451.2</ele>
        <time>2022-07-16T05:35:20Z</time>
      </trkpt>
      <trkpt lat="46.5568" lon="5.48508">
        <ele>452.2</ele>
        <time>2022-07-16T05:35:26Z</time>
      </trkpt>
      <trkpt lat="46.55682" lon="5.48521">
        <ele>452.2</ele>
        <time>2022-07-16T05:35:27Z</time>
      </trkpt>
      <trkpt lat="46.5569" lon="5.48559">
        <ele>452.8</ele>
        <time>2022-07-16T05:35:33Z</time>
      </trkpt>
      <trkpt lat="46.55695" lon="5.4857">
        <ele>452.8</ele>
        <time>2022-07-16T05:35:35Z</time>
      </trkpt>
      <trkpt lat="46.55706" lon="5.48591">
        <ele>453.4</ele>
        <time>2022-07-16T05:35:39Z</time>
      </trkpt>
      <trkpt lat="46.55739" lon="5.48639">
        <ele>454.4</ele>
        <time>2022-07-16T05:35:49Z</time>
      </trkpt>
      <trkpt lat="46.55742" lon="5.48643">
        <ele>454.4</ele>
        <time>2022-07-16T05:35:50Z</time>
      </trkpt>
      <trkpt lat="46.55762" lon="5.48676">
        <ele>455.6</ele>
        <time>2022-07-16T05:35:57Z</time>
      </trkpt>
      <trkpt lat="46.55766" lon="5.48685">
        <ele>455.8</ele>
        <time>2022-07-16T05:35:59Z</time>
      </trkpt>
      <trkpt lat="46.5577" lon="5.48697">
        <ele>456.2</ele>
        <time>2022-07-16T05:36:01Z</time>
      </trkpt>
      <trkpt lat="46.55771" lon="5.48704">
        <ele>456.4</ele>
        <time>2022-07-16T05:36:02Z</time>
      </trkpt>
      <trkpt lat="46.55775" lon="5.48738">
        <ele>456.8</ele>
        <time>2022-07-16T05:36:06Z</time>
      </trkpt>
      <trkpt lat="46.55776" lon="5.48748">
        <ele>456.8</ele>
        <time>2022-07-16T05:36:07Z</time>
      </trkpt>
      <trkpt lat="46.5578" lon="5.48815">
        <ele>455.8</ele>
        <time>2022-07-16T05:36:14Z</time>
      </trkpt>
      <trkpt lat="46.55781" lon="5.48832">
        <ele>455.8</ele>
        <time>2022-07-16T05:36:16Z</time>
      </trkpt>
      <trkpt lat="46.55783" lon="5.48868">
        <ele>456.2</ele>
        <time>2022-07-16T05:36:21Z</time>
      </trkpt>
      <trkpt lat="46.55784" lon="5.489">
        <ele>457.8</ele>
        <time>2022-07-16T05:36:26Z</time>
      </trkpt>
      <trkpt lat="46.55784" lon="5.48918">
        <ele>459</ele>
        <time>2022-07-16T05:36:29Z</time>
      </trkpt>
      <trkpt lat="46.55784" lon="5.48923">
        <ele>459</ele>
        <time>2022-07-16T05:36:30Z</time>
      </trkpt>
      <trkpt lat="46.5578" lon="5.48946">
        <ele>460.2</ele>
        <time>2022-07-16T05:36:34Z</time>
      </trkpt>
      <trkpt lat="46.55775" lon="5.48963">
        <ele>460.8</ele>
        <time>2022-07-16T05:36:37Z</time>
      </trkpt>
      <trkpt lat="46.55774" lon="5.48969">
        <ele>461.2</ele>
        <time>2022-07-16T05:36:38Z</time>
      </trkpt>
      <trkpt lat="46.55772" lon="5.48975">
        <ele>461.4</ele>
        <time>2022-07-16T05:36:39Z</time>
      </trkpt>
      <trkpt lat="46.55764" lon="5.48997">
        <ele>462.2</ele>
        <time>2022-07-16T05:36:43Z</time>
      </trkpt>
      <trkpt lat="46.55762" lon="5.49002">
        <ele>462.4</ele>
        <time>2022-07-16T05:36:44Z</time>
      </trkpt>
      <trkpt lat="46.55752" lon="5.49019">
        <ele>463.4</ele>
        <time>2022-07-16T05:36:48Z</time>
      </trkpt>
      <trkpt lat="46.5575" lon="5.49023">
        <ele>463.6</ele>
        <time>2022-07-16T05:36:49Z</time>
      </trkpt>
      <trkpt lat="46.55734" lon="5.49037">
        <ele>464.8</ele>
        <time>2022-07-16T05:36:54Z</time>
      </trkpt>
      <trkpt lat="46.55729" lon="5.49043">
        <ele>465.2</ele>
        <time>2022-07-16T05:36:56Z</time>
      </trkpt>
      <trkpt lat="46.55719" lon="5.49051">
        <ele>466.2</ele>
        <time>2022-07-16T05:36:59Z</time>
      </trkpt>
      <trkpt lat="46.55707" lon="5.4906">
        <ele>467</ele>
        <time>2022-07-16T05:37:03Z</time>
      </trkpt>
      <trkpt lat="46.55704" lon="5.49063">
        <ele>467.4</ele>
        <time>2022-07-16T05:37:04Z</time>
      </trkpt>
      <trkpt lat="46.55689" lon="5.49083">
        <ele>468.4</ele>
        <time>2022-07-16T05:37:10Z</time>
      </trkpt>
      <trkpt lat="46.55687" lon="5.49086">
        <ele>468.8</ele>
        <time>2022-07-16T05:37:11Z</time>
      </trkpt>
      <trkpt lat="46.55673" lon="5.4911">
        <ele>469.8</ele>
        <time>2022-07-16T05:37:17Z</time>
      </trkpt>
      <trkpt lat="46.55669" lon="5.4912">
        <ele>470.2</ele>
        <time>2022-07-16T05:37:19Z</time>
      </trkpt>
      <trkpt lat="46.55663" lon="5.49146">
        <ele>471</ele>
        <time>2022-07-16T05:37:24Z</time>
      </trkpt>
      <trkpt lat="46.55661" lon="5.49155">
        <ele>471.4</ele>
        <time>2022-07-16T05:37:26Z</time>
      </trkpt>
      <trkpt lat="46.55661" lon="5.49171">
        <ele>472.2</ele>
        <time>2022-07-16T05:37:29Z</time>
      </trkpt>
      <trkpt lat="46.55662" lon="5.49187">
        <ele>472.8</ele>
        <time>2022-07-16T05:37:32Z</time>
      </trkpt>
      <trkpt lat="46.55664" lon="5.49198">
        <ele>473.2</ele>
        <time>2022-07-16T05:37:34Z</time>
      </trkpt>
      <trkpt lat="46.5567" lon="5.49216">
        <ele>474.2</ele>
        <time>2022-07-16T05:37:38Z</time>
      </trkpt>
      <trkpt lat="46.55672" lon="5.4922">
        <ele>474.2</ele>
        <time>2022-07-16T05:37:39Z</time>
      </trkpt>
      <trkpt lat="46.55684" lon="5.49241">
        <ele>475.4</ele>
        <time>2022-07-16T05:37:44Z</time>
      </trkpt>
      <trkpt lat="46.55686" lon="5.49244">
        <ele>475.8</ele>
        <time>2022-07-16T05:37:45Z</time>
      </trkpt>
      <trkpt lat="46.55692" lon="5.49252">
        <ele>476.6</ele>
        <time>2022-07-16T05:37:47Z</time>
      </trkpt>
      <trkpt lat="46.55702" lon="5.49271">
        <ele>477.6</ele>
        <time>2022-07-16T05:37:52Z</time>
      </trkpt>
      <trkpt lat="46.557" lon="5.49286">
        <ele>478.2</ele>
        <time>2022-07-16T05:37:55Z</time>
      </trkpt>
      <trkpt lat="46.55696" lon="5.49288">
        <ele>478.4</ele>
        <time>2022-07-16T05:37:56Z</time>
      </trkpt>
      <trkpt lat="46.55693" lon="5.49289">
        <ele>478.8</ele>
        <time>2022-07-16T05:37:57Z</time>
      </trkpt>
      <trkpt lat="46.55684" lon="5.49284">
        <ele>479.2</ele>
        <time>2022-07-16T05:38:00Z</time>
      </trkpt>
      <trkpt lat="46.5568" lon="5.49281">
        <ele>479.8</ele>
        <time>2022-07-16T05:38:01Z</time>
      </trkpt>
      <trkpt lat="46.55663" lon="5.49269">
        <ele>481</ele>
        <time>2022-07-16T05:38:06Z</time>
      </trkpt>
      <trkpt lat="46.5566" lon="5.49267">
        <ele>481.2</ele>
        <time>2022-07-16T05:38:07Z</time>
      </trkpt>
      <trkpt lat="46.5564" lon="5.49255">
        <ele>482.2</ele>
        <time>2022-07-16T05:38:13Z</time>
      </trkpt>
      <trkpt lat="46.55632" lon="5.4925">
        <ele>482.6</ele>
        <time>2022-07-16T05:38:15Z</time>
      </trkpt>
      <trkpt lat="46.55621" lon="5.49244">
        <ele>483.2</ele>
        <time>2022-07-16T05:38:18Z</time>
      </trkpt>
      <trkpt lat="46.55598" lon="5.49233">
        <ele>484.2</ele>
        <time>2022-07-16T05:38:24Z</time>
      </trkpt>
      <trkpt lat="46.55594" lon="5.49231">
        <ele>484.4</ele>
        <time>2022-07-16T05:38:25Z</time>
      </trkpt>
      <trkpt lat="46.55571" lon="5.4922">
        <ele>485.4</ele>
        <time>2022-07-16T05:38:31Z</time>
      </trkpt>
      <trkpt lat="46.5556" lon="5.49214">
        <ele>485.8</ele>
        <time>2022-07-16T05:38:34Z</time>
      </trkpt>
      <trkpt lat="46.55541" lon="5.49204">
        <ele>486.4</ele>
        <time>2022-07-16T05:38:39Z</time>
      </trkpt>
      <trkpt lat="46.55533" lon="5.492">
        <ele>486.6</ele>
        <time>2022-07-16T05:38:41Z</time>
      </trkpt>
      <trkpt lat="46.55501" lon="5.49176">
        <ele>487.2</ele>
        <time>2022-07-16T05:38:49Z</time>
      </trkpt>
      <trkpt lat="46.55493" lon="5.49168">
        <ele>487.4</ele>
        <time>2022-07-16T05:38:51Z</time>
      </trkpt>
      <trkpt lat="46.55479" lon="5.49152">
        <ele>487.4</ele>
        <time>2022-07-16T05:38:55Z</time>
      </trkpt>
      <trkpt lat="46.55451" lon="5.49122">
        <ele>488.4</ele>
        <time>2022-07-16T05:39:02Z</time>
      </trkpt>
      <trkpt lat="46.55447" lon="5.49118">
        <ele>488.6</ele>
        <time>2022-07-16T05:39:03Z</time>
      </trkpt>
      <trkpt lat="46.55435" lon="5.49105">
        <ele>488.6</ele>
        <time>2022-07-16T05:39:06Z</time>
      </trkpt>
      <trkpt lat="46.55426" lon="5.49098">
        <ele>488.8</ele>
        <time>2022-07-16T05:39:08Z</time>
      </trkpt>
      <trkpt lat="46.55421" lon="5.49096">
        <ele>488.8</ele>
        <time>2022-07-16T05:39:09Z</time>
      </trkpt>
      <trkpt lat="46.5541" lon="5.49095">
        <ele>488.8</ele>
        <time>2022-07-16T05:39:11Z</time>
      </trkpt>
      <trkpt lat="46.55386" lon="5.49098">
        <ele>488.2</ele>
        <time>2022-07-16T05:39:15Z</time>
      </trkpt>
      <trkpt lat="46.55352" lon="5.49107">
        <ele>487</ele>
        <time>2022-07-16T05:39:20Z</time>
      </trkpt>
      <trkpt lat="46.55345" lon="5.49112">
        <ele>486.8</ele>
        <time>2022-07-16T05:39:21Z</time>
      </trkpt>
      <trkpt lat="46.55332" lon="5.49127">
        <ele>486.2</ele>
        <time>2022-07-16T05:39:23Z</time>
      </trkpt>
      <trkpt lat="46.55327" lon="5.49137">
        <ele>485.6</ele>
        <time>2022-07-16T05:39:24Z</time>
      </trkpt>
      <trkpt lat="46.55322" lon="5.49147">
        <ele>485.6</ele>
        <time>2022-07-16T05:39:25Z</time>
      </trkpt>
      <trkpt lat="46.55318" lon="5.49157">
        <ele>484.6</ele>
        <time>2022-07-16T05:39:26Z</time>
      </trkpt>
      <trkpt lat="46.55314" lon="5.49167">
        <ele>484</ele>
        <time>2022-07-16T05:39:27Z</time>
      </trkpt>
      <trkpt lat="46.5531" lon="5.49178">
        <ele>483.2</ele>
        <time>2022-07-16T05:39:28Z</time>
      </trkpt>
      <trkpt lat="46.55294" lon="5.49213">
        <ele>482.4</ele>
        <time>2022-07-16T05:39:32Z</time>
      </trkpt>
      <trkpt lat="46.5527" lon="5.49251">
        <ele>482.2</ele>
        <time>2022-07-16T05:39:38Z</time>
      </trkpt>
      <trkpt lat="46.55261" lon="5.49266">
        <ele>482.6</ele>
        <time>2022-07-16T05:39:41Z</time>
      </trkpt>
      <trkpt lat="46.55257" lon="5.49274">
        <ele>483.2</ele>
        <time>2022-07-16T05:39:43Z</time>
      </trkpt>
      <trkpt lat="46.55251" lon="5.49288">
        <ele>484.4</ele>
        <time>2022-07-16T05:39:47Z</time>
      </trkpt>
      <trkpt lat="46.5525" lon="5.49291">
        <ele>484.6</ele>
        <time>2022-07-16T05:39:48Z</time>
      </trkpt>
      <trkpt lat="46.55249" lon="5.49294">
        <ele>484.8</ele>
        <time>2022-07-16T05:39:49Z</time>
      </trkpt>
      <trkpt lat="46.55253" lon="5.49303">
        <ele>485</ele>
        <time>2022-07-16T05:39:51Z</time>
      </trkpt>
      <trkpt lat="46.5526" lon="5.49312">
        <ele>485</ele>
        <time>2022-07-16T05:39:53Z</time>
      </trkpt>
      <trkpt lat="46.55268" lon="5.49322">
        <ele>485</ele>
        <time>2022-07-16T05:39:55Z</time>
      </trkpt>
      <trkpt lat="46.55283" lon="5.49331">
        <ele>484.6</ele>
        <time>2022-07-16T05:39:58Z</time>
      </trkpt>
      <trkpt lat="46.55293" lon="5.49335">
        <ele>484.4</ele>
        <time>2022-07-16T05:40:00Z</time>
      </trkpt>
      <trkpt lat="46.55298" lon="5.49336">
        <ele>484.4</ele>
        <time>2022-07-16T05:40:01Z</time>
      </trkpt>
      <trkpt lat="46.55313" lon="5.49339">
        <ele>484.2</ele>
        <time>2022-07-16T05:40:04Z</time>
      </trkpt>
      <trkpt lat="46.55317" lon="5.49342">
        <ele>484.2</ele>
        <time>2022-07-16T05:40:05Z</time>
      </trkpt>
      <trkpt lat="46.55321" lon="5.49346">
        <ele>484.2</ele>
        <time>2022-07-16T05:40:06Z</time>
      </trkpt>
      <trkpt lat="46.55325" lon="5.49359">
        <ele>484</ele>
        <time>2022-07-16T05:40:08Z</time>
      </trkpt>
      <trkpt lat="46.55324" lon="5.49372">
        <ele>484</ele>
        <time>2022-07-16T05:40:10Z</time>
      </trkpt>
      <trkpt lat="46.55321" lon="5.4939">
        <ele>484.2</ele>
        <time>2022-07-16T05:40:13Z</time>
      </trkpt>
      <trkpt lat="46.55318" lon="5.49408">
        <ele>484.6</ele>
        <time>2022-07-16T05:40:16Z</time>
      </trkpt>
      <trkpt lat="46.55318" lon="5.49424">
        <ele>485.4</ele>
        <time>2022-07-16T05:40:19Z</time>
      </trkpt>
      <trkpt lat="46.55317" lon="5.49441">
        <ele>486.6</ele>
        <time>2022-07-16T05:40:22Z</time>
      </trkpt>
      <trkpt lat="46.55314" lon="5.49463">
        <ele>487.8</ele>
        <time>2022-07-16T05:40:26Z</time>
      </trkpt>
      <trkpt lat="46.55313" lon="5.49478">
        <ele>488.8</ele>
        <time>2022-07-16T05:40:29Z</time>
      </trkpt>
      <trkpt lat="46.5531" lon="5.49488">
        <ele>489.4</ele>
        <time>2022-07-16T05:40:31Z</time>
      </trkpt>
      <trkpt lat="46.55308" lon="5.49503">
        <ele>490</ele>
        <time>2022-07-16T05:40:34Z</time>
      </trkpt>
      <trkpt lat="46.55304" lon="5.49519">
        <ele>490.8</ele>
        <time>2022-07-16T05:40:37Z</time>
      </trkpt>
      <trkpt lat="46.55302" lon="5.49524">
        <ele>491.2</ele>
        <time>2022-07-16T05:40:38Z</time>
      </trkpt>
      <trkpt lat="46.55294" lon="5.49543">
        <ele>492.4</ele>
        <time>2022-07-16T05:40:42Z</time>
      </trkpt>
      <trkpt lat="46.55294" lon="5.49549">
        <ele>492.4</ele>
        <time>2022-07-16T05:40:43Z</time>
      </trkpt>
      <trkpt lat="46.55293" lon="5.49569">
        <ele>493.4</ele>
        <time>2022-07-16T05:40:47Z</time>
      </trkpt>
      <trkpt lat="46.55294" lon="5.49578">
        <ele>494</ele>
        <time>2022-07-16T05:40:49Z</time>
      </trkpt>
      <trkpt lat="46.55299" lon="5.49591">
        <ele>494.8</ele>
        <time>2022-07-16T05:40:52Z</time>
      </trkpt>
      <trkpt lat="46.55302" lon="5.49599">
        <ele>495.6</ele>
        <time>2022-07-16T05:40:54Z</time>
      </trkpt>
      <trkpt lat="46.55306" lon="5.49606">
        <ele>496.2</ele>
        <time>2022-07-16T05:40:56Z</time>
      </trkpt>
      <trkpt lat="46.55315" lon="5.49623">
        <ele>497.8</ele>
        <time>2022-07-16T05:41:01Z</time>
      </trkpt>
      <trkpt lat="46.55319" lon="5.49629">
        <ele>498.4</ele>
        <time>2022-07-16T05:41:03Z</time>
      </trkpt>
      <trkpt lat="46.55323" lon="5.49636">
        <ele>499</ele>
        <time>2022-07-16T05:41:05Z</time>
      </trkpt>
      <trkpt lat="46.5533" lon="5.49649">
        <ele>500.2</ele>
        <time>2022-07-16T05:41:09Z</time>
      </trkpt>
      <trkpt lat="46.55335" lon="5.49659">
        <ele>501.2</ele>
        <time>2022-07-16T05:41:12Z</time>
      </trkpt>
      <trkpt lat="46.55341" lon="5.49669">
        <ele>502.4</ele>
        <time>2022-07-16T05:41:15Z</time>
      </trkpt>
      <trkpt lat="46.55349" lon="5.49682">
        <ele>503.4</ele>
        <time>2022-07-16T05:41:19Z</time>
      </trkpt>
      <trkpt lat="46.55351" lon="5.49685">
        <ele>503.6</ele>
        <time>2022-07-16T05:41:20Z</time>
      </trkpt>
      <trkpt lat="46.55358" lon="5.49697">
        <ele>504.6</ele>
        <time>2022-07-16T05:41:24Z</time>
      </trkpt>
      <trkpt lat="46.55367" lon="5.49709">
        <ele>505.4</ele>
        <time>2022-07-16T05:41:28Z</time>
      </trkpt>
      <trkpt lat="46.55372" lon="5.49715">
        <ele>505.6</ele>
        <time>2022-07-16T05:41:30Z</time>
      </trkpt>
      <trkpt lat="46.55386" lon="5.49736">
        <ele>506.6</ele>
        <time>2022-07-16T05:41:37Z</time>
      </trkpt>
      <trkpt lat="46.55388" lon="5.4974">
        <ele>506.8</ele>
        <time>2022-07-16T05:41:38Z</time>
      </trkpt>
      <trkpt lat="46.5539" lon="5.49762">
        <ele>507.6</ele>
        <time>2022-07-16T05:41:43Z</time>
      </trkpt>
      <trkpt lat="46.5539" lon="5.49767">
        <ele>507.8</ele>
        <time>2022-07-16T05:41:44Z</time>
      </trkpt>
      <trkpt lat="46.55385" lon="5.49781">
        <ele>508.2</ele>
        <time>2022-07-16T05:41:47Z</time>
      </trkpt>
      <trkpt lat="46.55379" lon="5.49797">
        <ele>508.4</ele>
        <time>2022-07-16T05:41:50Z</time>
      </trkpt>
      <trkpt lat="46.55368" lon="5.4984">
        <ele>508.4</ele>
        <time>2022-07-16T05:41:56Z</time>
      </trkpt>
      <trkpt lat="46.55363" lon="5.4987">
        <ele>508.4</ele>
        <time>2022-07-16T05:42:00Z</time>
      </trkpt>
      <trkpt lat="46.55364" lon="5.49885">
        <ele>508.4</ele>
        <time>2022-07-16T05:42:02Z</time>
      </trkpt>
      <trkpt lat="46.55369" lon="5.49907">
        <ele>508.6</ele>
        <time>2022-07-16T05:42:05Z</time>
      </trkpt>
      <trkpt lat="46.55376" lon="5.4993">
        <ele>509</ele>
        <time>2022-07-16T05:42:08Z</time>
      </trkpt>
      <trkpt lat="46.55383" lon="5.49954">
        <ele>509</ele>
        <time>2022-07-16T05:42:11Z</time>
      </trkpt>
      <trkpt lat="46.55385" lon="5.49973">
        <ele>509</ele>
        <time>2022-07-16T05:42:13Z</time>
      </trkpt>
      <trkpt lat="46.55384" lon="5.50006">
        <ele>508.6</ele>
        <time>2022-07-16T05:42:16Z</time>
      </trkpt>
      <trkpt lat="46.55382" lon="5.50018">
        <ele>508</ele>
        <time>2022-07-16T05:42:17Z</time>
      </trkpt>
      <trkpt lat="46.55378" lon="5.50029">
        <ele>507.8</ele>
        <time>2022-07-16T05:42:18Z</time>
      </trkpt>
      <trkpt lat="46.55373" lon="5.50039">
        <ele>507.4</ele>
        <time>2022-07-16T05:42:19Z</time>
      </trkpt>
      <trkpt lat="46.55367" lon="5.50048">
        <ele>507</ele>
        <time>2022-07-16T05:42:20Z</time>
      </trkpt>
      <trkpt lat="46.5536" lon="5.50057">
        <ele>506.2</ele>
        <time>2022-07-16T05:42:21Z</time>
      </trkpt>
      <trkpt lat="46.55345" lon="5.50075">
        <ele>505</ele>
        <time>2022-07-16T05:42:23Z</time>
      </trkpt>
      <trkpt lat="46.55337" lon="5.50083">
        <ele>504.4</ele>
        <time>2022-07-16T05:42:24Z</time>
      </trkpt>
      <trkpt lat="46.5532" lon="5.50099">
        <ele>503.6</ele>
        <time>2022-07-16T05:42:26Z</time>
      </trkpt>
      <trkpt lat="46.55294" lon="5.50121">
        <ele>502.4</ele>
        <time>2022-07-16T05:42:29Z</time>
      </trkpt>
      <trkpt lat="46.55285" lon="5.50127">
        <ele>501.8</ele>
        <time>2022-07-16T05:42:30Z</time>
      </trkpt>
      <trkpt lat="46.55275" lon="5.50133">
        <ele>501.2</ele>
        <time>2022-07-16T05:42:31Z</time>
      </trkpt>
      <trkpt lat="46.55256" lon="5.50146">
        <ele>500</ele>
        <time>2022-07-16T05:42:33Z</time>
      </trkpt>
      <trkpt lat="46.55227" lon="5.50165">
        <ele>498.6</ele>
        <time>2022-07-16T05:42:36Z</time>
      </trkpt>
      <trkpt lat="46.55217" lon="5.50172">
        <ele>497.6</ele>
        <time>2022-07-16T05:42:37Z</time>
      </trkpt>
      <trkpt lat="46.55207" lon="5.50178">
        <ele>496.8</ele>
        <time>2022-07-16T05:42:38Z</time>
      </trkpt>
      <trkpt lat="46.55197" lon="5.50184">
        <ele>496.6</ele>
        <time>2022-07-16T05:42:39Z</time>
      </trkpt>
      <trkpt lat="46.55166" lon="5.50205">
        <ele>495.2</ele>
        <time>2022-07-16T05:42:42Z</time>
      </trkpt>
      <trkpt lat="46.55146" lon="5.50221">
        <ele>494</ele>
        <time>2022-07-16T05:42:44Z</time>
      </trkpt>
      <trkpt lat="46.55136" lon="5.50229">
        <ele>493.6</ele>
        <time>2022-07-16T05:42:45Z</time>
      </trkpt>
      <trkpt lat="46.55126" lon="5.50238">
        <ele>492.8</ele>
        <time>2022-07-16T05:42:46Z</time>
      </trkpt>
      <trkpt lat="46.55116" lon="5.50247">
        <ele>491.6</ele>
        <time>2022-07-16T05:42:47Z</time>
      </trkpt>
      <trkpt lat="46.55096" lon="5.50264">
        <ele>490.2</ele>
        <time>2022-07-16T05:42:49Z</time>
      </trkpt>
      <trkpt lat="46.55075" lon="5.50281">
        <ele>488.8</ele>
        <time>2022-07-16T05:42:51Z</time>
      </trkpt>
      <trkpt lat="46.55055" lon="5.50299">
        <ele>487.6</ele>
        <time>2022-07-16T05:42:53Z</time>
      </trkpt>
      <trkpt lat="46.55033" lon="5.50316">
        <ele>486.6</ele>
        <time>2022-07-16T05:42:55Z</time>
      </trkpt>
      <trkpt lat="46.55011" lon="5.50329">
        <ele>485.4</ele>
        <time>2022-07-16T05:42:57Z</time>
      </trkpt>
      <trkpt lat="46.55" lon="5.50335">
        <ele>484.6</ele>
        <time>2022-07-16T05:42:58Z</time>
      </trkpt>
      <trkpt lat="46.54988" lon="5.50342">
        <ele>484.2</ele>
        <time>2022-07-16T05:42:59Z</time>
      </trkpt>
      <trkpt lat="46.54966" lon="5.50359">
        <ele>483</ele>
        <time>2022-07-16T05:43:01Z</time>
      </trkpt>
      <trkpt lat="46.54956" lon="5.50369">
        <ele>482.6</ele>
        <time>2022-07-16T05:43:02Z</time>
      </trkpt>
      <trkpt lat="46.54946" lon="5.5038">
        <ele>481</ele>
        <time>2022-07-16T05:43:03Z</time>
      </trkpt>
      <trkpt lat="46.54925" lon="5.50403">
        <ele>479.6</ele>
        <time>2022-07-16T05:43:05Z</time>
      </trkpt>
      <trkpt lat="46.54919" lon="5.50413">
        <ele>479</ele>
        <time>2022-07-16T05:43:06Z</time>
      </trkpt>
      <trkpt lat="46.54911" lon="5.50427">
        <ele>478.2</ele>
        <time>2022-07-16T05:43:07Z</time>
      </trkpt>
      <trkpt lat="46.54904" lon="5.50445">
        <ele>477.6</ele>
        <time>2022-07-16T05:43:08Z</time>
      </trkpt>
      <trkpt lat="46.54898" lon="5.50472">
        <ele>476.8</ele>
        <time>2022-07-16T05:43:10Z</time>
      </trkpt>
      <trkpt lat="46.54893" lon="5.50487">
        <ele>476.6</ele>
        <time>2022-07-16T05:43:11Z</time>
      </trkpt>
      <trkpt lat="46.54882" lon="5.50505">
        <ele>476.4</ele>
        <time>2022-07-16T05:43:13Z</time>
      </trkpt>
      <trkpt lat="46.54867" lon="5.50515">
        <ele>476.2</ele>
        <time>2022-07-16T05:43:15Z</time>
      </trkpt>
      <trkpt lat="46.5486" lon="5.50517">
        <ele>476.2</ele>
        <time>2022-07-16T05:43:16Z</time>
      </trkpt>
      <trkpt lat="46.54847" lon="5.50518">
        <ele>476.6</ele>
        <time>2022-07-16T05:43:18Z</time>
      </trkpt>
      <trkpt lat="46.54834" lon="5.50517">
        <ele>477.4</ele>
        <time>2022-07-16T05:43:20Z</time>
      </trkpt>
      <trkpt lat="46.54828" lon="5.50517">
        <ele>478.2</ele>
        <time>2022-07-16T05:43:21Z</time>
      </trkpt>
      <trkpt lat="46.54817" lon="5.50517">
        <ele>479.8</ele>
        <time>2022-07-16T05:43:23Z</time>
      </trkpt>
      <trkpt lat="46.54808" lon="5.50517">
        <ele>481.2</ele>
        <time>2022-07-16T05:43:25Z</time>
      </trkpt>
      <trkpt lat="46.54799" lon="5.50517">
        <ele>482.2</ele>
        <time>2022-07-16T05:43:27Z</time>
      </trkpt>
      <trkpt lat="46.54795" lon="5.50518">
        <ele>483.2</ele>
        <time>2022-07-16T05:43:28Z</time>
      </trkpt>
      <trkpt lat="46.54787" lon="5.50518">
        <ele>484.2</ele>
        <time>2022-07-16T05:43:30Z</time>
      </trkpt>
      <trkpt lat="46.54783" lon="5.50519">
        <ele>484.6</ele>
        <time>2022-07-16T05:43:31Z</time>
      </trkpt>
      <trkpt lat="46.54775" lon="5.5052">
        <ele>485.4</ele>
        <time>2022-07-16T05:43:33Z</time>
      </trkpt>
      <trkpt lat="46.54763" lon="5.50521">
        <ele>486.6</ele>
        <time>2022-07-16T05:43:36Z</time>
      </trkpt>
      <trkpt lat="46.54749" lon="5.50523">
        <ele>487.6</ele>
        <time>2022-07-16T05:43:40Z</time>
      </trkpt>
      <trkpt lat="46.54742" lon="5.50524">
        <ele>488</ele>
        <time>2022-07-16T05:43:42Z</time>
      </trkpt>
      <trkpt lat="46.54731" lon="5.50525">
        <ele>488.6</ele>
        <time>2022-07-16T05:43:45Z</time>
      </trkpt>
      <trkpt lat="46.54714" lon="5.50524">
        <ele>489.6</ele>
        <time>2022-07-16T05:43:50Z</time>
      </trkpt>
      <trkpt lat="46.5471" lon="5.50523">
        <ele>490</ele>
        <time>2022-07-16T05:43:51Z</time>
      </trkpt>
      <trkpt lat="46.54697" lon="5.5052">
        <ele>491</ele>
        <time>2022-07-16T05:43:55Z</time>
      </trkpt>
      <trkpt lat="46.54683" lon="5.50517">
        <ele>492</ele>
        <time>2022-07-16T05:43:59Z</time>
      </trkpt>
      <trkpt lat="46.5468" lon="5.50516">
        <ele>492.4</ele>
        <time>2022-07-16T05:44:00Z</time>
      </trkpt>
      <trkpt lat="46.54663" lon="5.50511">
        <ele>493.4</ele>
        <time>2022-07-16T05:44:05Z</time>
      </trkpt>
      <trkpt lat="46.54646" lon="5.50508">
        <ele>494.6</ele>
        <time>2022-07-16T05:44:10Z</time>
      </trkpt>
      <trkpt lat="46.54633" lon="5.50518">
        <ele>495.4</ele>
        <time>2022-07-16T05:44:14Z</time>
      </trkpt>
      <trkpt lat="46.54633" lon="5.50531">
        <ele>495.8</ele>
        <time>2022-07-16T05:44:17Z</time>
      </trkpt>
      <trkpt lat="46.54634" lon="5.50534">
        <ele>495.8</ele>
        <time>2022-07-16T05:44:18Z</time>
      </trkpt>
      <trkpt lat="46.54646" lon="5.50544">
        <ele>496.6</ele>
        <time>2022-07-16T05:44:22Z</time>
      </trkpt>
      <trkpt lat="46.54649" lon="5.50547">
        <ele>496.8</ele>
        <time>2022-07-16T05:44:23Z</time>
      </trkpt>
      <trkpt lat="46.5466" lon="5.50554">
        <ele>497.6</ele>
        <time>2022-07-16T05:44:26Z</time>
      </trkpt>
      <trkpt lat="46.54673" lon="5.50564">
        <ele>498.4</ele>
        <time>2022-07-16T05:44:30Z</time>
      </trkpt>
      <trkpt lat="46.54676" lon="5.50566">
        <ele>498.6</ele>
        <time>2022-07-16T05:44:31Z</time>
      </trkpt>
      <trkpt lat="46.54696" lon="5.5058">
        <ele>499.8</ele>
        <time>2022-07-16T05:44:37Z</time>
      </trkpt>
      <trkpt lat="46.54699" lon="5.50582">
        <ele>500</ele>
        <time>2022-07-16T05:44:38Z</time>
      </trkpt>
      <trkpt lat="46.54711" lon="5.50592">
        <ele>500.8</ele>
        <time>2022-07-16T05:44:42Z</time>
      </trkpt>
      <trkpt lat="46.54727" lon="5.50604">
        <ele>502.2</ele>
        <time>2022-07-16T05:44:47Z</time>
      </trkpt>
      <trkpt lat="46.5473" lon="5.50607">
        <ele>502.2</ele>
        <time>2022-07-16T05:44:48Z</time>
      </trkpt>
      <trkpt lat="46.54747" lon="5.50624">
        <ele>503.4</ele>
        <time>2022-07-16T05:44:54Z</time>
      </trkpt>
      <trkpt lat="46.54755" lon="5.50633">
        <ele>503.8</ele>
        <time>2022-07-16T05:44:57Z</time>
      </trkpt>
      <trkpt lat="46.54763" lon="5.50643">
        <ele>504.6</ele>
        <time>2022-07-16T05:45:00Z</time>
      </trkpt>
      <trkpt lat="46.54777" lon="5.50666">
        <ele>505.6</ele>
        <time>2022-07-16T05:45:06Z</time>
      </trkpt>
      <trkpt lat="46.5478" lon="5.50675">
        <ele>505.6</ele>
        <time>2022-07-16T05:45:08Z</time>
      </trkpt>
      <trkpt lat="46.54786" lon="5.50694">
        <ele>506.8</ele>
        <time>2022-07-16T05:45:12Z</time>
      </trkpt>
      <trkpt lat="46.54786" lon="5.50698">
        <ele>506.8</ele>
        <time>2022-07-16T05:45:13Z</time>
      </trkpt>
      <trkpt lat="46.54785" lon="5.50718">
        <ele>507.6</ele>
        <time>2022-07-16T05:45:17Z</time>
      </trkpt>
      <trkpt lat="46.54784" lon="5.50723">
        <ele>507.8</ele>
        <time>2022-07-16T05:45:18Z</time>
      </trkpt>
      <trkpt lat="46.54772" lon="5.50744">
        <ele>508.8</ele>
        <time>2022-07-16T05:45:24Z</time>
      </trkpt>
      <trkpt lat="46.54761" lon="5.50755">
        <ele>510</ele>
        <time>2022-07-16T05:45:28Z</time>
      </trkpt>
      <trkpt lat="46.54752" lon="5.5076">
        <ele>510.6</ele>
        <time>2022-07-16T05:45:31Z</time>
      </trkpt>
      <trkpt lat="46.54749" lon="5.50762">
        <ele>511</ele>
        <time>2022-07-16T05:45:32Z</time>
      </trkpt>
      <trkpt lat="46.54737" lon="5.50766">
        <ele>512.2</ele>
        <time>2022-07-16T05:45:36Z</time>
      </trkpt>
      <trkpt lat="46.54731" lon="5.50768">
        <ele>512.8</ele>
        <time>2022-07-16T05:45:38Z</time>
      </trkpt>
      <trkpt lat="46.54728" lon="5.50769">
        <ele>513.2</ele>
        <time>2022-07-16T05:45:39Z</time>
      </trkpt>
      <trkpt lat="46.54712" lon="5.50775">
        <ele>514.4</ele>
        <time>2022-07-16T05:45:44Z</time>
      </trkpt>
      <trkpt lat="46.54708" lon="5.50777">
        <ele>514.4</ele>
        <time>2022-07-16T05:45:45Z</time>
      </trkpt>
      <trkpt lat="46.54682" lon="5.50789">
        <ele>515.4</ele>
        <time>2022-07-16T05:45:51Z</time>
      </trkpt>
      <trkpt lat="46.54677" lon="5.50791">
        <ele>515.4</ele>
        <time>2022-07-16T05:45:52Z</time>
      </trkpt>
      <trkpt lat="46.54647" lon="5.5081">
        <ele>516.4</ele>
        <time>2022-07-16T05:45:59Z</time>
      </trkpt>
      <trkpt lat="46.54643" lon="5.50813">
        <ele>516.4</ele>
        <time>2022-07-16T05:46:00Z</time>
      </trkpt>
      <trkpt lat="46.54639" lon="5.50817">
        <ele>516.6</ele>
        <time>2022-07-16T05:46:01Z</time>
      </trkpt>
      <trkpt lat="46.54614" lon="5.50844">
        <ele>517.4</ele>
        <time>2022-07-16T05:46:07Z</time>
      </trkpt>
      <trkpt lat="46.54606" lon="5.50853">
        <ele>517.6</ele>
        <time>2022-07-16T05:46:09Z</time>
      </trkpt>
      <trkpt lat="46.54584" lon="5.50874">
        <ele>518.2</ele>
        <time>2022-07-16T05:46:14Z</time>
      </trkpt>
      <trkpt lat="46.54572" lon="5.50887">
        <ele>518.6</ele>
        <time>2022-07-16T05:46:17Z</time>
      </trkpt>
      <trkpt lat="46.54549" lon="5.5091">
        <ele>519.8</ele>
        <time>2022-07-16T05:46:23Z</time>
      </trkpt>
      <trkpt lat="46.54545" lon="5.50914">
        <ele>520</ele>
        <time>2022-07-16T05:46:24Z</time>
      </trkpt>
      <trkpt lat="46.54533" lon="5.50926">
        <ele>520.8</ele>
        <time>2022-07-16T05:46:27Z</time>
      </trkpt>
      <trkpt lat="46.54508" lon="5.50948">
        <ele>521.6</ele>
        <time>2022-07-16T05:46:33Z</time>
      </trkpt>
      <trkpt lat="46.54504" lon="5.50952">
        <ele>521.8</ele>
        <time>2022-07-16T05:46:34Z</time>
      </trkpt>
      <trkpt lat="46.54464" lon="5.50982">
        <ele>522.6</ele>
        <time>2022-07-16T05:46:43Z</time>
      </trkpt>
      <trkpt lat="46.54459" lon="5.50985">
        <ele>522.8</ele>
        <time>2022-07-16T05:46:44Z</time>
      </trkpt>
      <trkpt lat="46.54431" lon="5.51005">
        <ele>524</ele>
        <time>2022-07-16T05:46:51Z</time>
      </trkpt>
      <trkpt lat="46.5441" lon="5.5102">
        <ele>525</ele>
        <time>2022-07-16T05:46:56Z</time>
      </trkpt>
      <trkpt lat="46.54396" lon="5.51031">
        <ele>525.6</ele>
        <time>2022-07-16T05:46:59Z</time>
      </trkpt>
      <trkpt lat="46.54383" lon="5.51042">
        <ele>526</ele>
        <time>2022-07-16T05:47:02Z</time>
      </trkpt>
      <trkpt lat="46.5437" lon="5.51055">
        <ele>526.8</ele>
        <time>2022-07-16T05:47:05Z</time>
      </trkpt>
      <trkpt lat="46.54366" lon="5.51059">
        <ele>527</ele>
        <time>2022-07-16T05:47:06Z</time>
      </trkpt>
      <trkpt lat="46.54362" lon="5.51064">
        <ele>527.4</ele>
        <time>2022-07-16T05:47:07Z</time>
      </trkpt>
      <trkpt lat="46.5435" lon="5.51081">
        <ele>527.6</ele>
        <time>2022-07-16T05:47:10Z</time>
      </trkpt>
      <trkpt lat="46.54346" lon="5.51087">
        <ele>527.8</ele>
        <time>2022-07-16T05:47:11Z</time>
      </trkpt>
      <trkpt lat="46.54337" lon="5.51105">
        <ele>528.2</ele>
        <time>2022-07-16T05:47:14Z</time>
      </trkpt>
      <trkpt lat="46.54331" lon="5.51118">
        <ele>528.2</ele>
        <time>2022-07-16T05:47:16Z</time>
      </trkpt>
      <trkpt lat="46.54329" lon="5.51125">
        <ele>528.4</ele>
        <time>2022-07-16T05:47:17Z</time>
      </trkpt>
      <trkpt lat="46.54327" lon="5.51133">
        <ele>528.4</ele>
        <time>2022-07-16T05:47:18Z</time>
      </trkpt>
      <trkpt lat="46.54323" lon="5.51154">
        <ele>528.6</ele>
        <time>2022-07-16T05:47:21Z</time>
      </trkpt>
      <trkpt lat="46.54322" lon="5.51162">
        <ele>528.6</ele>
        <time>2022-07-16T05:47:22Z</time>
      </trkpt>
      <trkpt lat="46.54322" lon="5.51169">
        <ele>528.8</ele>
        <time>2022-07-16T05:47:23Z</time>
      </trkpt>
      <trkpt lat="46.54319" lon="5.51192">
        <ele>529</ele>
        <time>2022-07-16T05:47:26Z</time>
      </trkpt>
      <trkpt lat="46.54317" lon="5.51199">
        <ele>529.2</ele>
        <time>2022-07-16T05:47:27Z</time>
      </trkpt>
      <trkpt lat="46.54314" lon="5.51206">
        <ele>529.2</ele>
        <time>2022-07-16T05:47:28Z</time>
      </trkpt>
      <trkpt lat="46.54303" lon="5.51222">
        <ele>529.4</ele>
        <time>2022-07-16T05:47:31Z</time>
      </trkpt>
      <trkpt lat="46.54273" lon="5.5125">
        <ele>529.8</ele>
        <time>2022-07-16T05:47:38Z</time>
      </trkpt>
      <trkpt lat="46.54254" lon="5.51265">
        <ele>530.4</ele>
        <time>2022-07-16T05:47:42Z</time>
      </trkpt>
      <trkpt lat="46.5425" lon="5.51269">
        <ele>530.4</ele>
        <time>2022-07-16T05:47:43Z</time>
      </trkpt>
      <trkpt lat="46.54242" lon="5.5128">
        <ele>530.6</ele>
        <time>2022-07-16T05:47:45Z</time>
      </trkpt>
      <trkpt lat="46.54237" lon="5.51295">
        <ele>530.6</ele>
        <time>2022-07-16T05:47:47Z</time>
      </trkpt>
      <trkpt lat="46.54234" lon="5.51313">
        <ele>530.6</ele>
        <time>2022-07-16T05:47:49Z</time>
      </trkpt>
      <trkpt lat="46.54231" lon="5.51376">
        <ele>530</ele>
        <time>2022-07-16T05:47:55Z</time>
      </trkpt>
      <trkpt lat="46.54224" lon="5.51411">
        <ele>528.6</ele>
        <time>2022-07-16T05:47:58Z</time>
      </trkpt>
      <trkpt lat="46.54221" lon="5.51423">
        <ele>528.4</ele>
        <time>2022-07-16T05:47:59Z</time>
      </trkpt>
      <trkpt lat="46.54207" lon="5.51458">
        <ele>527.6</ele>
        <time>2022-07-16T05:48:02Z</time>
      </trkpt>
      <trkpt lat="46.54201" lon="5.51469">
        <ele>527.4</ele>
        <time>2022-07-16T05:48:03Z</time>
      </trkpt>
      <trkpt lat="46.54189" lon="5.51492">
        <ele>526.6</ele>
        <time>2022-07-16T05:48:05Z</time>
      </trkpt>
      <trkpt lat="46.54178" lon="5.51516">
        <ele>524.8</ele>
        <time>2022-07-16T05:48:07Z</time>
      </trkpt>
      <trkpt lat="46.54173" lon="5.51529">
        <ele>524.2</ele>
        <time>2022-07-16T05:48:08Z</time>
      </trkpt>
      <trkpt lat="46.5417" lon="5.51543">
        <ele>523.8</ele>
        <time>2022-07-16T05:48:09Z</time>
      </trkpt>
      <trkpt lat="46.54169" lon="5.51557">
        <ele>523.4</ele>
        <time>2022-07-16T05:48:10Z</time>
      </trkpt>
      <trkpt lat="46.54169" lon="5.5157">
        <ele>522.4</ele>
        <time>2022-07-16T05:48:11Z</time>
      </trkpt>
      <trkpt lat="46.54171" lon="5.51597">
        <ele>521.4</ele>
        <time>2022-07-16T05:48:13Z</time>
      </trkpt>
      <trkpt lat="46.54174" lon="5.51621">
        <ele>521</ele>
        <time>2022-07-16T05:48:15Z</time>
      </trkpt>
      <trkpt lat="46.54175" lon="5.51645">
        <ele>520.6</ele>
        <time>2022-07-16T05:48:18Z</time>
      </trkpt>
      <trkpt lat="46.5418" lon="5.51669">
        <ele>520.6</ele>
        <time>2022-07-16T05:48:22Z</time>
      </trkpt>
      <trkpt lat="46.54188" lon="5.51684">
        <ele>520.4</ele>
        <time>2022-07-16T05:48:24Z</time>
      </trkpt>
      <trkpt lat="46.54193" lon="5.5169">
        <ele>520.4</ele>
        <time>2022-07-16T05:48:25Z</time>
      </trkpt>
      <trkpt lat="46.54204" lon="5.51703">
        <ele>520.4</ele>
        <time>2022-07-16T05:48:27Z</time>
      </trkpt>
      <trkpt lat="46.54232" lon="5.51734">
        <ele>519.6</ele>
        <time>2022-07-16T05:48:32Z</time>
      </trkpt>
      <trkpt lat="46.54245" lon="5.51744">
        <ele>519.2</ele>
        <time>2022-07-16T05:48:34Z</time>
      </trkpt>
      <trkpt lat="46.54274" lon="5.5176">
        <ele>519</ele>
        <time>2022-07-16T05:48:38Z</time>
      </trkpt>
      <trkpt lat="46.54329" lon="5.51782">
        <ele>518.4</ele>
        <time>2022-07-16T05:48:45Z</time>
      </trkpt>
      <trkpt lat="46.54346" lon="5.51793">
        <ele>518.2</ele>
        <time>2022-07-16T05:48:47Z</time>
      </trkpt>
      <trkpt lat="46.54361" lon="5.51807">
        <ele>517.4</ele>
        <time>2022-07-16T05:48:49Z</time>
      </trkpt>
      <trkpt lat="46.54369" lon="5.51815">
        <ele>517</ele>
        <time>2022-07-16T05:48:50Z</time>
      </trkpt>
      <trkpt lat="46.54391" lon="5.51841">
        <ele>515.8</ele>
        <time>2022-07-16T05:48:53Z</time>
      </trkpt>
      <trkpt lat="46.54399" lon="5.51849">
        <ele>515.6</ele>
        <time>2022-07-16T05:48:54Z</time>
      </trkpt>
      <trkpt lat="46.54423" lon="5.51875">
        <ele>514.2</ele>
        <time>2022-07-16T05:48:57Z</time>
      </trkpt>
      <trkpt lat="46.54448" lon="5.519">
        <ele>512.8</ele>
        <time>2022-07-16T05:49:00Z</time>
      </trkpt>
      <trkpt lat="46.54463" lon="5.51918">
        <ele>511.6</ele>
        <time>2022-07-16T05:49:02Z</time>
      </trkpt>
      <trkpt lat="46.54486" lon="5.51944">
        <ele>510.8</ele>
        <time>2022-07-16T05:49:05Z</time>
      </trkpt>
      <trkpt lat="46.54501" lon="5.5196">
        <ele>510.6</ele>
        <time>2022-07-16T05:49:07Z</time>
      </trkpt>
      <trkpt lat="46.54521" lon="5.51981">
        <ele>510.6</ele>
        <time>2022-07-16T05:49:10Z</time>
      </trkpt>
      <trkpt lat="46.54561" lon="5.52025">
        <ele>510.8</ele>
        <time>2022-07-16T05:49:16Z</time>
      </trkpt>
      <trkpt lat="46.5461" lon="5.52078">
        <ele>511.4</ele>
        <time>2022-07-16T05:49:23Z</time>
      </trkpt>
      <trkpt lat="46.54623" lon="5.52092">
        <ele>511.4</ele>
        <time>2022-07-16T05:49:25Z</time>
      </trkpt>
      <trkpt lat="46.54673" lon="5.52128">
        <ele>510.8</ele>
        <time>2022-07-16T05:49:31Z</time>
      </trkpt>
      <trkpt lat="46.54702" lon="5.5214">
        <ele>509.4</ele>
        <time>2022-07-16T05:49:34Z</time>
      </trkpt>
      <trkpt lat="46.54722" lon="5.52147">
        <ele>508.4</ele>
        <time>2022-07-16T05:49:36Z</time>
      </trkpt>
      <trkpt lat="46.54733" lon="5.52151">
        <ele>507.2</ele>
        <time>2022-07-16T05:49:37Z</time>
      </trkpt>
      <trkpt lat="46.54753" lon="5.52161">
        <ele>506</ele>
        <time>2022-07-16T05:49:39Z</time>
      </trkpt>
      <trkpt lat="46.54774" lon="5.52174">
        <ele>504.8</ele>
        <time>2022-07-16T05:49:41Z</time>
      </trkpt>
      <trkpt lat="46.54803" lon="5.52198">
        <ele>502.2</ele>
        <time>2022-07-16T05:49:44Z</time>
      </trkpt>
      <trkpt lat="46.54823" lon="5.52213">
        <ele>500.8</ele>
        <time>2022-07-16T05:49:46Z</time>
      </trkpt>
      <trkpt lat="46.54834" lon="5.5222">
        <ele>500.4</ele>
        <time>2022-07-16T05:49:47Z</time>
      </trkpt>
      <trkpt lat="46.54844" lon="5.52226">
        <ele>499.6</ele>
        <time>2022-07-16T05:49:48Z</time>
      </trkpt>
      <trkpt lat="46.54867" lon="5.52237">
        <ele>497.6</ele>
        <time>2022-07-16T05:49:50Z</time>
      </trkpt>
      <trkpt lat="46.54889" lon="5.52245">
        <ele>496.8</ele>
        <time>2022-07-16T05:49:52Z</time>
      </trkpt>
      <trkpt lat="46.549" lon="5.52249">
        <ele>496.2</ele>
        <time>2022-07-16T05:49:53Z</time>
      </trkpt>
      <trkpt lat="46.54923" lon="5.52258">
        <ele>494.8</ele>
        <time>2022-07-16T05:49:55Z</time>
      </trkpt>
      <trkpt lat="46.54946" lon="5.52268">
        <ele>493.4</ele>
        <time>2022-07-16T05:49:57Z</time>
      </trkpt>
      <trkpt lat="46.54957" lon="5.52275">
        <ele>492.6</ele>
        <time>2022-07-16T05:49:58Z</time>
      </trkpt>
      <trkpt lat="46.54968" lon="5.52283">
        <ele>492.2</ele>
        <time>2022-07-16T05:49:59Z</time>
      </trkpt>
      <trkpt lat="46.54978" lon="5.52292">
        <ele>491.2</ele>
        <time>2022-07-16T05:50:00Z</time>
      </trkpt>
      <trkpt lat="46.54988" lon="5.52303">
        <ele>490.8</ele>
        <time>2022-07-16T05:50:01Z</time>
      </trkpt>
      <trkpt lat="46.54997" lon="5.52315">
        <ele>490</ele>
        <time>2022-07-16T05:50:02Z</time>
      </trkpt>
      <trkpt lat="46.55006" lon="5.52331">
        <ele>489.8</ele>
        <time>2022-07-16T05:50:03Z</time>
      </trkpt>
      <trkpt lat="46.55011" lon="5.52343">
        <ele>488.8</ele>
        <time>2022-07-16T05:50:04Z</time>
      </trkpt>
      <trkpt lat="46.55017" lon="5.52359">
        <ele>487.6</ele>
        <time>2022-07-16T05:50:05Z</time>
      </trkpt>
      <trkpt lat="46.55027" lon="5.52391">
        <ele>486.4</ele>
        <time>2022-07-16T05:50:07Z</time>
      </trkpt>
      <trkpt lat="46.55038" lon="5.52423">
        <ele>485</ele>
        <time>2022-07-16T05:50:09Z</time>
      </trkpt>
      <trkpt lat="46.55048" lon="5.52454">
        <ele>483.8</ele>
        <time>2022-07-16T05:50:11Z</time>
      </trkpt>
      <trkpt lat="46.55059" lon="5.52485">
        <ele>481.8</ele>
        <time>2022-07-16T05:50:13Z</time>
      </trkpt>
      <trkpt lat="46.55064" lon="5.52501">
        <ele>480.8</ele>
        <time>2022-07-16T05:50:14Z</time>
      </trkpt>
      <trkpt lat="46.5508" lon="5.52548">
        <ele>479.8</ele>
        <time>2022-07-16T05:50:17Z</time>
      </trkpt>
      <trkpt lat="46.55089" lon="5.52579">
        <ele>478.6</ele>
        <time>2022-07-16T05:50:19Z</time>
      </trkpt>
      <trkpt lat="46.55093" lon="5.52594">
        <ele>477.8</ele>
        <time>2022-07-16T05:50:20Z</time>
      </trkpt>
      <trkpt lat="46.55096" lon="5.52611">
        <ele>477.2</ele>
        <time>2022-07-16T05:50:21Z</time>
      </trkpt>
      <trkpt lat="46.55095" lon="5.52628">
        <ele>477</ele>
        <time>2022-07-16T05:50:22Z</time>
      </trkpt>
      <trkpt lat="46.55093" lon="5.52644">
        <ele>476.4</ele>
        <time>2022-07-16T05:50:23Z</time>
      </trkpt>
      <trkpt lat="46.55088" lon="5.5266">
        <ele>476.2</ele>
        <time>2022-07-16T05:50:24Z</time>
      </trkpt>
      <trkpt lat="46.55083" lon="5.52674">
        <ele>475.6</ele>
        <time>2022-07-16T05:50:25Z</time>
      </trkpt>
      <trkpt lat="46.55077" lon="5.52688">
        <ele>475</ele>
        <time>2022-07-16T05:50:26Z</time>
      </trkpt>
      <trkpt lat="46.55071" lon="5.52702">
        <ele>473.8</ele>
        <time>2022-07-16T05:50:27Z</time>
      </trkpt>
      <trkpt lat="46.55061" lon="5.52728">
        <ele>472.8</ele>
        <time>2022-07-16T05:50:29Z</time>
      </trkpt>
      <trkpt lat="46.55045" lon="5.52763">
        <ele>472.2</ele>
        <time>2022-07-16T05:50:32Z</time>
      </trkpt>
      <trkpt lat="46.55015" lon="5.52813">
        <ele>472.4</ele>
        <time>2022-07-16T05:50:37Z</time>
      </trkpt>
      <trkpt lat="46.54983" lon="5.52857">
        <ele>472.6</ele>
        <time>2022-07-16T05:50:42Z</time>
      </trkpt>
      <trkpt lat="46.5496" lon="5.52909">
        <ele>472.8</ele>
        <time>2022-07-16T05:50:47Z</time>
      </trkpt>
      <trkpt lat="46.54949" lon="5.52961">
        <ele>473.4</ele>
        <time>2022-07-16T05:50:52Z</time>
      </trkpt>
      <trkpt lat="46.54939" lon="5.52998">
        <ele>473.8</ele>
        <time>2022-07-16T05:50:56Z</time>
      </trkpt>
      <trkpt lat="46.54937" lon="5.53006">
        <ele>474.2</ele>
        <time>2022-07-16T05:50:57Z</time>
      </trkpt>
      <trkpt lat="46.54931" lon="5.53021">
        <ele>475</ele>
        <time>2022-07-16T05:50:59Z</time>
      </trkpt>
      <trkpt lat="46.54921" lon="5.53042">
        <ele>475.8</ele>
        <time>2022-07-16T05:51:02Z</time>
      </trkpt>
      <trkpt lat="46.54918" lon="5.53049">
        <ele>476.2</ele>
        <time>2022-07-16T05:51:03Z</time>
      </trkpt>
      <trkpt lat="46.54912" lon="5.53062">
        <ele>477.2</ele>
        <time>2022-07-16T05:51:05Z</time>
      </trkpt>
      <trkpt lat="46.54894" lon="5.53099">
        <ele>478.6</ele>
        <time>2022-07-16T05:51:11Z</time>
      </trkpt>
      <trkpt lat="46.54888" lon="5.53111">
        <ele>479</ele>
        <time>2022-07-16T05:51:13Z</time>
      </trkpt>
      <trkpt lat="46.54882" lon="5.53122">
        <ele>479.4</ele>
        <time>2022-07-16T05:51:15Z</time>
      </trkpt>
      <trkpt lat="46.54871" lon="5.53136">
        <ele>480.6</ele>
        <time>2022-07-16T05:51:18Z</time>
      </trkpt>
      <trkpt lat="46.54867" lon="5.5314">
        <ele>480.6</ele>
        <time>2022-07-16T05:51:19Z</time>
      </trkpt>
      <trkpt lat="46.54844" lon="5.53156">
        <ele>481.6</ele>
        <time>2022-07-16T05:51:24Z</time>
      </trkpt>
      <trkpt lat="46.54839" lon="5.53159">
        <ele>481.8</ele>
        <time>2022-07-16T05:51:25Z</time>
      </trkpt>
      <trkpt lat="46.54815" lon="5.53171">
        <ele>483</ele>
        <time>2022-07-16T05:51:30Z</time>
      </trkpt>
      <trkpt lat="46.548" lon="5.53177">
        <ele>483.4</ele>
        <time>2022-07-16T05:51:33Z</time>
      </trkpt>
      <trkpt lat="46.54773" lon="5.5319">
        <ele>484</ele>
        <time>2022-07-16T05:51:39Z</time>
      </trkpt>
      <trkpt lat="46.5476" lon="5.53194">
        <ele>484.6</ele>
        <time>2022-07-16T05:51:42Z</time>
      </trkpt>
      <trkpt lat="46.54746" lon="5.53195">
        <ele>485.2</ele>
        <time>2022-07-16T05:51:45Z</time>
      </trkpt>
      <trkpt lat="46.54725" lon="5.53195">
        <ele>486.4</ele>
        <time>2022-07-16T05:51:50Z</time>
      </trkpt>
      <trkpt lat="46.54704" lon="5.53193">
        <ele>487.4</ele>
        <time>2022-07-16T05:51:55Z</time>
      </trkpt>
      <trkpt lat="46.54693" lon="5.53191">
        <ele>488.2</ele>
        <time>2022-07-16T05:51:58Z</time>
      </trkpt>
      <trkpt lat="46.54682" lon="5.5319">
        <ele>488.6</ele>
        <time>2022-07-16T05:52:01Z</time>
      </trkpt>
      <trkpt lat="46.54668" lon="5.5319">
        <ele>489.8</ele>
        <time>2022-07-16T05:52:05Z</time>
      </trkpt>
      <trkpt lat="46.54654" lon="5.53191">
        <ele>491</ele>
        <time>2022-07-16T05:52:09Z</time>
      </trkpt>
      <trkpt lat="46.54637" lon="5.53195">
        <ele>491.6</ele>
        <time>2022-07-16T05:52:14Z</time>
      </trkpt>
      <trkpt lat="46.54631" lon="5.53198">
        <ele>492</ele>
        <time>2022-07-16T05:52:16Z</time>
      </trkpt>
      <trkpt lat="46.54613" lon="5.53205">
        <ele>493.2</ele>
        <time>2022-07-16T05:52:21Z</time>
      </trkpt>
      <trkpt lat="46.54606" lon="5.53209">
        <ele>493.6</ele>
        <time>2022-07-16T05:52:23Z</time>
      </trkpt>
      <trkpt lat="46.54591" lon="5.53215">
        <ele>494.2</ele>
        <time>2022-07-16T05:52:27Z</time>
      </trkpt>
      <trkpt lat="46.54569" lon="5.53223">
        <ele>495.4</ele>
        <time>2022-07-16T05:52:33Z</time>
      </trkpt>
      <trkpt lat="46.54554" lon="5.53227">
        <ele>496.4</ele>
        <time>2022-07-16T05:52:37Z</time>
      </trkpt>
      <trkpt lat="46.54536" lon="5.53231">
        <ele>497.4</ele>
        <time>2022-07-16T05:52:42Z</time>
      </trkpt>
      <trkpt lat="46.54533" lon="5.53232">
        <ele>497.4</ele>
        <time>2022-07-16T05:52:43Z</time>
      </trkpt>
      <trkpt lat="46.54515" lon="5.53237">
        <ele>498.4</ele>
        <time>2022-07-16T05:52:48Z</time>
      </trkpt>
      <trkpt lat="46.54497" lon="5.53241">
        <ele>499.6</ele>
        <time>2022-07-16T05:52:53Z</time>
      </trkpt>
      <trkpt lat="46.5448" lon="5.53244">
        <ele>500.6</ele>
        <time>2022-07-16T05:52:58Z</time>
      </trkpt>
      <trkpt lat="46.54474" lon="5.53246">
        <ele>500.8</ele>
        <time>2022-07-16T05:53:00Z</time>
      </trkpt>
      <trkpt lat="46.54453" lon="5.5325">
        <ele>501.8</ele>
        <time>2022-07-16T05:53:06Z</time>
      </trkpt>
      <trkpt lat="46.5444" lon="5.53252">
        <ele>502.8</ele>
        <time>2022-07-16T05:53:10Z</time>
      </trkpt>
      <trkpt lat="46.54433" lon="5.53254">
        <ele>503.6</ele>
        <time>2022-07-16T05:53:12Z</time>
      </trkpt>
      <trkpt lat="46.54427" lon="5.53255">
        <ele>504.2</ele>
        <time>2022-07-16T05:53:14Z</time>
      </trkpt>
      <trkpt lat="46.54407" lon="5.53261">
        <ele>505.4</ele>
        <time>2022-07-16T05:53:20Z</time>
      </trkpt>
      <trkpt lat="46.54401" lon="5.53265">
        <ele>505.8</ele>
        <time>2022-07-16T05:53:22Z</time>
      </trkpt>
      <trkpt lat="46.54388" lon="5.53275">
        <ele>506.6</ele>
        <time>2022-07-16T05:53:26Z</time>
      </trkpt>
      <trkpt lat="46.5438" lon="5.53286">
        <ele>507.2</ele>
        <time>2022-07-16T05:53:29Z</time>
      </trkpt>
      <trkpt lat="46.54373" lon="5.53298">
        <ele>507.8</ele>
        <time>2022-07-16T05:53:32Z</time>
      </trkpt>
      <trkpt lat="46.54364" lon="5.53321">
        <ele>508.8</ele>
        <time>2022-07-16T05:53:37Z</time>
      </trkpt>
      <trkpt lat="46.54362" lon="5.53325">
        <ele>509</ele>
        <time>2022-07-16T05:53:38Z</time>
      </trkpt>
      <trkpt lat="46.54357" lon="5.53354">
        <ele>510</ele>
        <time>2022-07-16T05:53:43Z</time>
      </trkpt>
      <trkpt lat="46.54355" lon="5.53368">
        <ele>510.2</ele>
        <time>2022-07-16T05:53:45Z</time>
      </trkpt>
      <trkpt lat="46.54346" lon="5.53398">
        <ele>510.4</ele>
        <time>2022-07-16T05:53:50Z</time>
      </trkpt>
      <trkpt lat="46.54344" lon="5.53404">
        <ele>510.6</ele>
        <time>2022-07-16T05:53:51Z</time>
      </trkpt>
      <trkpt lat="46.54338" lon="5.53415">
        <ele>510.8</ele>
        <time>2022-07-16T05:53:53Z</time>
      </trkpt>
      <trkpt lat="46.54327" lon="5.53429">
        <ele>511</ele>
        <time>2022-07-16T05:53:56Z</time>
      </trkpt>
      <trkpt lat="46.54324" lon="5.53432">
        <ele>511.2</ele>
        <time>2022-07-16T05:53:57Z</time>
      </trkpt>
      <trkpt lat="46.54302" lon="5.53459">
        <ele>512.2</ele>
        <time>2022-07-16T05:54:04Z</time>
      </trkpt>
      <trkpt lat="46.54299" lon="5.53463">
        <ele>512.6</ele>
        <time>2022-07-16T05:54:05Z</time>
      </trkpt>
      <trkpt lat="46.54297" lon="5.53468">
        <ele>512.8</ele>
        <time>2022-07-16T05:54:06Z</time>
      </trkpt>
      <trkpt lat="46.5429" lon="5.53484">
        <ele>513.2</ele>
        <time>2022-07-16T05:54:09Z</time>
      </trkpt>
      <trkpt lat="46.54285" lon="5.53497">
        <ele>513.2</ele>
        <time>2022-07-16T05:54:11Z</time>
      </trkpt>
      <trkpt lat="46.54279" lon="5.53518">
        <ele>513.2</ele>
        <time>2022-07-16T05:54:14Z</time>
      </trkpt>
      <trkpt lat="46.54262" lon="5.53563">
        <ele>513.2</ele>
        <time>2022-07-16T05:54:20Z</time>
      </trkpt>
      <trkpt lat="46.54252" lon="5.53583">
        <ele>513.4</ele>
        <time>2022-07-16T05:54:23Z</time>
      </trkpt>
      <trkpt lat="46.54235" lon="5.53615">
        <ele>513.8</ele>
        <time>2022-07-16T05:54:28Z</time>
      </trkpt>
      <trkpt lat="46.54225" lon="5.53635">
        <ele>514</ele>
        <time>2022-07-16T05:54:31Z</time>
      </trkpt>
      <trkpt lat="46.54211" lon="5.53669">
        <ele>515</ele>
        <time>2022-07-16T05:54:36Z</time>
      </trkpt>
      <trkpt lat="46.54209" lon="5.53677">
        <ele>515.2</ele>
        <time>2022-07-16T05:54:37Z</time>
      </trkpt>
      <trkpt lat="46.54205" lon="5.53701">
        <ele>515.8</ele>
        <time>2022-07-16T05:54:40Z</time>
      </trkpt>
      <trkpt lat="46.54205" lon="5.53709">
        <ele>515.8</ele>
        <time>2022-07-16T05:54:41Z</time>
      </trkpt>
      <trkpt lat="46.54202" lon="5.5376">
        <ele>515.8</ele>
        <time>2022-07-16T05:54:47Z</time>
      </trkpt>
      <trkpt lat="46.54202" lon="5.5377">
        <ele>515.8</ele>
        <time>2022-07-16T05:54:48Z</time>
      </trkpt>
      <trkpt lat="46.54202" lon="5.53795">
        <ele>516.2</ele>
        <time>2022-07-16T05:54:51Z</time>
      </trkpt>
      <trkpt lat="46.54201" lon="5.53836">
        <ele>516.4</ele>
        <time>2022-07-16T05:54:56Z</time>
      </trkpt>
      <trkpt lat="46.54198" lon="5.53918">
        <ele>517.2</ele>
        <time>2022-07-16T05:55:06Z</time>
      </trkpt>
      <trkpt lat="46.54198" lon="5.53927">
        <ele>517.2</ele>
        <time>2022-07-16T05:55:07Z</time>
      </trkpt>
      <trkpt lat="46.5419" lon="5.5398">
        <ele>517</ele>
        <time>2022-07-16T05:55:13Z</time>
      </trkpt>
      <trkpt lat="46.54172" lon="5.54044">
        <ele>516.8</ele>
        <time>2022-07-16T05:55:21Z</time>
      </trkpt>
      <trkpt lat="46.54161" lon="5.54082">
        <ele>517.2</ele>
        <time>2022-07-16T05:55:26Z</time>
      </trkpt>
      <trkpt lat="46.54155" lon="5.54106">
        <ele>517.6</ele>
        <time>2022-07-16T05:55:29Z</time>
      </trkpt>
      <trkpt lat="46.54147" lon="5.54137">
        <ele>518.4</ele>
        <time>2022-07-16T05:55:33Z</time>
      </trkpt>
      <trkpt lat="46.54143" lon="5.54152">
        <ele>519</ele>
        <time>2022-07-16T05:55:35Z</time>
      </trkpt>
      <trkpt lat="46.54141" lon="5.54159">
        <ele>519</ele>
        <time>2022-07-16T05:55:36Z</time>
      </trkpt>
      <trkpt lat="46.54134" lon="5.54179">
        <ele>519.4</ele>
        <time>2022-07-16T05:55:39Z</time>
      </trkpt>
      <trkpt lat="46.54128" lon="5.542">
        <ele>519.8</ele>
        <time>2022-07-16T05:55:42Z</time>
      </trkpt>
      <trkpt lat="46.54126" lon="5.54208">
        <ele>519.8</ele>
        <time>2022-07-16T05:55:43Z</time>
      </trkpt>
      <trkpt lat="46.5412" lon="5.54228">
        <ele>520.4</ele>
        <time>2022-07-16T05:55:46Z</time>
      </trkpt>
      <trkpt lat="46.54113" lon="5.54257">
        <ele>521.4</ele>
        <time>2022-07-16T05:55:50Z</time>
      </trkpt>
      <trkpt lat="46.54111" lon="5.54264">
        <ele>521.6</ele>
        <time>2022-07-16T05:55:51Z</time>
      </trkpt>
      <trkpt lat="46.54101" lon="5.54296">
        <ele>522.8</ele>
        <time>2022-07-16T05:55:56Z</time>
      </trkpt>
      <trkpt lat="46.54096" lon="5.54314">
        <ele>523.4</ele>
        <time>2022-07-16T05:55:59Z</time>
      </trkpt>
      <trkpt lat="46.54092" lon="5.54326">
        <ele>523.8</ele>
        <time>2022-07-16T05:56:01Z</time>
      </trkpt>
      <trkpt lat="46.54086" lon="5.5435">
        <ele>525</ele>
        <time>2022-07-16T05:56:05Z</time>
      </trkpt>
      <trkpt lat="46.54085" lon="5.54356">
        <ele>525.4</ele>
        <time>2022-07-16T05:56:06Z</time>
      </trkpt>
      <trkpt lat="46.54083" lon="5.54362">
        <ele>525.8</ele>
        <time>2022-07-16T05:56:07Z</time>
      </trkpt>
      <trkpt lat="46.54081" lon="5.54368">
        <ele>526.2</ele>
        <time>2022-07-16T05:56:08Z</time>
      </trkpt>
      <trkpt lat="46.54073" lon="5.54399">
        <ele>527.2</ele>
        <time>2022-07-16T05:56:13Z</time>
      </trkpt>
      <trkpt lat="46.54066" lon="5.54425">
        <ele>528.4</ele>
        <time>2022-07-16T05:56:17Z</time>
      </trkpt>
      <trkpt lat="46.54055" lon="5.54463">
        <ele>529</ele>
        <time>2022-07-16T05:56:23Z</time>
      </trkpt>
      <trkpt lat="46.5405" lon="5.54483">
        <ele>529.2</ele>
        <time>2022-07-16T05:56:26Z</time>
      </trkpt>
      <trkpt lat="46.54037" lon="5.5453">
        <ele>530</ele>
        <time>2022-07-16T05:56:33Z</time>
      </trkpt>
      <trkpt lat="46.54033" lon="5.54545">
        <ele>530.2</ele>
        <time>2022-07-16T05:56:35Z</time>
      </trkpt>
      <trkpt lat="46.54024" lon="5.54581">
        <ele>530.6</ele>
        <time>2022-07-16T05:56:40Z</time>
      </trkpt>
      <trkpt lat="46.54006" lon="5.54645">
        <ele>531.2</ele>
        <time>2022-07-16T05:56:49Z</time>
      </trkpt>
      <trkpt lat="46.54004" lon="5.54652">
        <ele>531.4</ele>
        <time>2022-07-16T05:56:50Z</time>
      </trkpt>
      <trkpt lat="46.53989" lon="5.54698">
        <ele>532</ele>
        <time>2022-07-16T05:56:57Z</time>
      </trkpt>
      <trkpt lat="46.5398" lon="5.54716">
        <ele>532.4</ele>
        <time>2022-07-16T05:57:00Z</time>
      </trkpt>
      <trkpt lat="46.53964" lon="5.54738">
        <ele>532.6</ele>
        <time>2022-07-16T05:57:04Z</time>
      </trkpt>
      <trkpt lat="46.53938" lon="5.54764">
        <ele>532.6</ele>
        <time>2022-07-16T05:57:09Z</time>
      </trkpt>
      <trkpt lat="46.53914" lon="5.54782">
        <ele>532.4</ele>
        <time>2022-07-16T05:57:13Z</time>
      </trkpt>
      <trkpt lat="46.539" lon="5.54789">
        <ele>532.4</ele>
        <time>2022-07-16T05:57:15Z</time>
      </trkpt>
      <trkpt lat="46.53871" lon="5.54797">
        <ele>531.4</ele>
        <time>2022-07-16T05:57:19Z</time>
      </trkpt>
      <trkpt lat="46.53849" lon="5.54802">
        <ele>531</ele>
        <time>2022-07-16T05:57:22Z</time>
      </trkpt>
      <trkpt lat="46.53812" lon="5.54811">
        <ele>530.4</ele>
        <time>2022-07-16T05:57:27Z</time>
      </trkpt>
      <trkpt lat="46.53788" lon="5.54815">
        <ele>530</ele>
        <time>2022-07-16T05:57:30Z</time>
      </trkpt>
      <trkpt lat="46.53772" lon="5.54815">
        <ele>529</ele>
        <time>2022-07-16T05:57:32Z</time>
      </trkpt>
      <trkpt lat="46.53748" lon="5.5481">
        <ele>528.2</ele>
        <time>2022-07-16T05:57:35Z</time>
      </trkpt>
      <trkpt lat="46.53733" lon="5.54806">
        <ele>528</ele>
        <time>2022-07-16T05:57:37Z</time>
      </trkpt>
      <trkpt lat="46.53695" lon="5.54792">
        <ele>527.6</ele>
        <time>2022-07-16T05:57:42Z</time>
      </trkpt>
      <trkpt lat="46.53671" lon="5.54784">
        <ele>527</ele>
        <time>2022-07-16T05:57:45Z</time>
      </trkpt>
      <trkpt lat="46.5363" lon="5.54771">
        <ele>526</ele>
        <time>2022-07-16T05:57:50Z</time>
      </trkpt>
      <trkpt lat="46.53622" lon="5.54768">
        <ele>525.6</ele>
        <time>2022-07-16T05:57:51Z</time>
      </trkpt>
      <trkpt lat="46.5359" lon="5.54758">
        <ele>524.8</ele>
        <time>2022-07-16T05:57:55Z</time>
      </trkpt>
      <trkpt lat="46.53566" lon="5.5475">
        <ele>523.8</ele>
        <time>2022-07-16T05:57:58Z</time>
      </trkpt>
      <trkpt lat="46.53533" lon="5.54738">
        <ele>522.2</ele>
        <time>2022-07-16T05:58:02Z</time>
      </trkpt>
      <trkpt lat="46.53508" lon="5.54731">
        <ele>520.6</ele>
        <time>2022-07-16T05:58:05Z</time>
      </trkpt>
      <trkpt lat="46.53499" lon="5.54728">
        <ele>520.4</ele>
        <time>2022-07-16T05:58:06Z</time>
      </trkpt>
      <trkpt lat="46.53473" lon="5.54718">
        <ele>519.2</ele>
        <time>2022-07-16T05:58:09Z</time>
      </trkpt>
      <trkpt lat="46.53435" lon="5.54705">
        <ele>518</ele>
        <time>2022-07-16T05:58:13Z</time>
      </trkpt>
      <trkpt lat="46.53428" lon="5.54702">
        <ele>517.4</ele>
        <time>2022-07-16T05:58:14Z</time>
      </trkpt>
      <trkpt lat="46.53392" lon="5.54691">
        <ele>516.4</ele>
        <time>2022-07-16T05:58:18Z</time>
      </trkpt>
      <trkpt lat="46.53348" lon="5.54676">
        <ele>515.6</ele>
        <time>2022-07-16T05:58:23Z</time>
      </trkpt>
      <trkpt lat="46.5334" lon="5.54673">
        <ele>515.4</ele>
        <time>2022-07-16T05:58:24Z</time>
      </trkpt>
      <trkpt lat="46.53287" lon="5.54657">
        <ele>514.4</ele>
        <time>2022-07-16T05:58:30Z</time>
      </trkpt>
      <trkpt lat="46.5326" lon="5.5465">
        <ele>513.4</ele>
        <time>2022-07-16T05:58:33Z</time>
      </trkpt>
      <trkpt lat="46.53241" lon="5.54647">
        <ele>513</ele>
        <time>2022-07-16T05:58:35Z</time>
      </trkpt>
      <trkpt lat="46.53212" lon="5.54642">
        <ele>512.2</ele>
        <time>2022-07-16T05:58:38Z</time>
      </trkpt>
      <trkpt lat="46.53183" lon="5.54639">
        <ele>511.2</ele>
        <time>2022-07-16T05:58:41Z</time>
      </trkpt>
      <trkpt lat="46.53164" lon="5.54635">
        <ele>510.6</ele>
        <time>2022-07-16T05:58:43Z</time>
      </trkpt>
      <trkpt lat="46.53153" lon="5.54633">
        <ele>509.8</ele>
        <time>2022-07-16T05:58:44Z</time>
      </trkpt>
      <trkpt lat="46.53123" lon="5.54627">
        <ele>508.8</ele>
        <time>2022-07-16T05:58:47Z</time>
      </trkpt>
      <trkpt lat="46.53103" lon="5.54624">
        <ele>507.2</ele>
        <time>2022-07-16T05:58:49Z</time>
      </trkpt>
      <trkpt lat="46.53093" lon="5.54623">
        <ele>507</ele>
        <time>2022-07-16T05:58:50Z</time>
      </trkpt>
      <trkpt lat="46.53073" lon="5.54622">
        <ele>506.2</ele>
        <time>2022-07-16T05:58:52Z</time>
      </trkpt>
      <trkpt lat="46.53044" lon="5.54618">
        <ele>504.8</ele>
        <time>2022-07-16T05:58:55Z</time>
      </trkpt>
      <trkpt lat="46.53015" lon="5.54615">
        <ele>503.6</ele>
        <time>2022-07-16T05:58:58Z</time>
      </trkpt>
      <trkpt lat="46.53005" lon="5.54614">
        <ele>503.4</ele>
        <time>2022-07-16T05:58:59Z</time>
      </trkpt>
      <trkpt lat="46.52973" lon="5.54612">
        <ele>502.2</ele>
        <time>2022-07-16T05:59:02Z</time>
      </trkpt>
      <trkpt lat="46.52943" lon="5.5461">
        <ele>501.2</ele>
        <time>2022-07-16T05:59:05Z</time>
      </trkpt>
      <trkpt lat="46.52897" lon="5.54607">
        <ele>500.2</ele>
        <time>2022-07-16T05:59:10Z</time>
      </trkpt>
      <trkpt lat="46.52887" lon="5.54606">
        <ele>499.8</ele>
        <time>2022-07-16T05:59:11Z</time>
      </trkpt>
      <trkpt lat="46.52858" lon="5.54603">
        <ele>498.8</ele>
        <time>2022-07-16T05:59:14Z</time>
      </trkpt>
      <trkpt lat="46.52828" lon="5.54601">
        <ele>498.2</ele>
        <time>2022-07-16T05:59:17Z</time>
      </trkpt>
      <trkpt lat="46.52806" lon="5.54602">
        <ele>497.4</ele>
        <time>2022-07-16T05:59:19Z</time>
      </trkpt>
      <trkpt lat="46.52777" lon="5.54601">
        <ele>496.4</ele>
        <time>2022-07-16T05:59:22Z</time>
      </trkpt>
      <trkpt lat="46.52764" lon="5.546">
        <ele>495.6</ele>
        <time>2022-07-16T05:59:23Z</time>
      </trkpt>
      <trkpt lat="46.52757" lon="5.54601">
        <ele>495.2</ele>
        <time>2022-07-16T05:59:24Z</time>
      </trkpt>
      <trkpt lat="46.52739" lon="5.5461">
        <ele>493.6</ele>
        <time>2022-07-16T05:59:26Z</time>
      </trkpt>
      <trkpt lat="46.52727" lon="5.54632">
        <ele>492.2</ele>
        <time>2022-07-16T05:59:28Z</time>
      </trkpt>
      <trkpt lat="46.52722" lon="5.54676">
        <ele>490.6</ele>
        <time>2022-07-16T05:59:31Z</time>
      </trkpt>
      <trkpt lat="46.52721" lon="5.5469">
        <ele>489.8</ele>
        <time>2022-07-16T05:59:32Z</time>
      </trkpt>
      <trkpt lat="46.5272" lon="5.54705">
        <ele>489.4</ele>
        <time>2022-07-16T05:59:33Z</time>
      </trkpt>
      <trkpt lat="46.52717" lon="5.54749">
        <ele>488.2</ele>
        <time>2022-07-16T05:59:36Z</time>
      </trkpt>
      <trkpt lat="46.52714" lon="5.54793">
        <ele>486.8</ele>
        <time>2022-07-16T05:59:39Z</time>
      </trkpt>
      <trkpt lat="46.52709" lon="5.54866">
        <ele>485.8</ele>
        <time>2022-07-16T05:59:44Z</time>
      </trkpt>
      <trkpt lat="46.52704" lon="5.54925">
        <ele>484.6</ele>
        <time>2022-07-16T05:59:48Z</time>
      </trkpt>
      <trkpt lat="46.52703" lon="5.5494">
        <ele>483.8</ele>
        <time>2022-07-16T05:59:49Z</time>
      </trkpt>
      <trkpt lat="46.527" lon="5.5497">
        <ele>483.2</ele>
        <time>2022-07-16T05:59:51Z</time>
      </trkpt>
      <trkpt lat="46.52696" lon="5.55031">
        <ele>482</ele>
        <time>2022-07-16T05:59:55Z</time>
      </trkpt>
      <trkpt lat="46.52693" lon="5.55078">
        <ele>480.4</ele>
        <time>2022-07-16T05:59:58Z</time>
      </trkpt>
      <trkpt lat="46.52688" lon="5.55135">
        <ele>479.4</ele>
        <time>2022-07-16T06:00:02Z</time>
      </trkpt>
      <trkpt lat="46.52686" lon="5.55175">
        <ele>479</ele>
        <time>2022-07-16T06:00:05Z</time>
      </trkpt>
      <trkpt lat="46.5268" lon="5.55251">
        <ele>478.6</ele>
        <time>2022-07-16T06:00:11Z</time>
      </trkpt>
      <trkpt lat="46.52673" lon="5.55335">
        <ele>479</ele>
        <time>2022-07-16T06:00:18Z</time>
      </trkpt>
      <trkpt lat="46.5267" lon="5.55374">
        <ele>478.8</ele>
        <time>2022-07-16T06:00:21Z</time>
      </trkpt>
      <trkpt lat="46.52666" lon="5.55427">
        <ele>478.2</ele>
        <time>2022-07-16T06:00:25Z</time>
      </trkpt>
      <trkpt lat="46.52662" lon="5.55466">
        <ele>477.8</ele>
        <time>2022-07-16T06:00:28Z</time>
      </trkpt>
      <trkpt lat="46.52661" lon="5.55492">
        <ele>477.2</ele>
        <time>2022-07-16T06:00:30Z</time>
      </trkpt>
      <trkpt lat="46.52654" lon="5.55568">
        <ele>476.4</ele>
        <time>2022-07-16T06:00:36Z</time>
      </trkpt>
      <trkpt lat="46.52648" lon="5.55651">
        <ele>476.2</ele>
        <time>2022-07-16T06:00:43Z</time>
      </trkpt>
      <trkpt lat="46.52647" lon="5.55663">
        <ele>476.2</ele>
        <time>2022-07-16T06:00:44Z</time>
      </trkpt>
      <trkpt lat="46.52641" lon="5.55742">
        <ele>476.4</ele>
        <time>2022-07-16T06:00:51Z</time>
      </trkpt>
      <trkpt lat="46.52638" lon="5.55776">
        <ele>476.4</ele>
        <time>2022-07-16T06:00:54Z</time>
      </trkpt>
      <trkpt lat="46.52632" lon="5.55862">
        <ele>476.4</ele>
        <time>2022-07-16T06:01:02Z</time>
      </trkpt>
      <trkpt lat="46.52631" lon="5.55871">
        <ele>476.4</ele>
        <time>2022-07-16T06:01:03Z</time>
      </trkpt>
      <trkpt lat="46.52628" lon="5.55929">
        <ele>476.4</ele>
        <time>2022-07-16T06:01:09Z</time>
      </trkpt>
      <trkpt lat="46.5262" lon="5.56011">
        <ele>476.4</ele>
        <time>2022-07-16T06:01:17Z</time>
      </trkpt>
      <trkpt lat="46.5262" lon="5.56021">
        <ele>476.4</ele>
        <time>2022-07-16T06:01:18Z</time>
      </trkpt>
      <trkpt lat="46.52615" lon="5.56077">
        <ele>477</ele>
        <time>2022-07-16T06:01:24Z</time>
      </trkpt>
      <trkpt lat="46.52614" lon="5.5611">
        <ele>477.2</ele>
        <time>2022-07-16T06:01:28Z</time>
      </trkpt>
      <trkpt lat="46.52622" lon="5.56119">
        <ele>477.2</ele>
        <time>2022-07-16T06:01:30Z</time>
      </trkpt>
      <trkpt lat="46.52633" lon="5.56119">
        <ele>477.6</ele>
        <time>2022-07-16T06:01:32Z</time>
      </trkpt>
      <trkpt lat="46.52639" lon="5.56116">
        <ele>477.6</ele>
        <time>2022-07-16T06:01:33Z</time>
      </trkpt>
      <trkpt lat="46.52657" lon="5.56108">
        <ele>477.8</ele>
        <time>2022-07-16T06:01:36Z</time>
      </trkpt>
      <trkpt lat="46.52675" lon="5.561">
        <ele>477.8</ele>
        <time>2022-07-16T06:01:39Z</time>
      </trkpt>
      <trkpt lat="46.52687" lon="5.56094">
        <ele>478</ele>
        <time>2022-07-16T06:01:41Z</time>
      </trkpt>
      <trkpt lat="46.52705" lon="5.56086">
        <ele>478</ele>
        <time>2022-07-16T06:01:44Z</time>
      </trkpt>
      <trkpt lat="46.52717" lon="5.56086">
        <ele>478.2</ele>
        <time>2022-07-16T06:01:46Z</time>
      </trkpt>
      <trkpt lat="46.52722" lon="5.56089">
        <ele>478.2</ele>
        <time>2022-07-16T06:01:47Z</time>
      </trkpt>
      <trkpt lat="46.52726" lon="5.56095">
        <ele>478.4</ele>
        <time>2022-07-16T06:01:48Z</time>
      </trkpt>
      <trkpt lat="46.52731" lon="5.56112">
        <ele>478.6</ele>
        <time>2022-07-16T06:01:50Z</time>
      </trkpt>
      <trkpt lat="46.52737" lon="5.56139">
        <ele>478.6</ele>
        <time>2022-07-16T06:01:53Z</time>
      </trkpt>
      <trkpt lat="46.52742" lon="5.56157">
        <ele>478.8</ele>
        <time>2022-07-16T06:01:55Z</time>
      </trkpt>
      <trkpt lat="46.52763" lon="5.56239">
        <ele>478.8</ele>
        <time>2022-07-16T06:02:04Z</time>
      </trkpt>
      <trkpt lat="46.52784" lon="5.56323">
        <ele>478.8</ele>
        <time>2022-07-16T06:02:13Z</time>
      </trkpt>
      <trkpt lat="46.52786" lon="5.5633">
        <ele>478.8</ele>
        <time>2022-07-16T06:02:14Z</time>
      </trkpt>
      <trkpt lat="46.52804" lon="5.56402">
        <ele>479</ele>
        <time>2022-07-16T06:02:22Z</time>
      </trkpt>
      <trkpt lat="46.52814" lon="5.56438">
        <ele>479</ele>
        <time>2022-07-16T06:02:26Z</time>
      </trkpt>
      <trkpt lat="46.52817" lon="5.56457">
        <ele>479</ele>
        <time>2022-07-16T06:02:28Z</time>
      </trkpt>
      <trkpt lat="46.52832" lon="5.56519">
        <ele>479.4</ele>
        <time>2022-07-16T06:02:35Z</time>
      </trkpt>
      <trkpt lat="46.52845" lon="5.56577">
        <ele>480.4</ele>
        <time>2022-07-16T06:02:42Z</time>
      </trkpt>
      <trkpt lat="46.52847" lon="5.56585">
        <ele>480.6</ele>
        <time>2022-07-16T06:02:43Z</time>
      </trkpt>
      <trkpt lat="46.5286" lon="5.56635">
        <ele>481.6</ele>
        <time>2022-07-16T06:02:49Z</time>
      </trkpt>
      <trkpt lat="46.52865" lon="5.5666">
        <ele>481.8</ele>
        <time>2022-07-16T06:02:52Z</time>
      </trkpt>
      <trkpt lat="46.52882" lon="5.56736">
        <ele>482.4</ele>
        <time>2022-07-16T06:03:01Z</time>
      </trkpt>
      <trkpt lat="46.52886" lon="5.56752">
        <ele>482.6</ele>
        <time>2022-07-16T06:03:03Z</time>
      </trkpt>
      <trkpt lat="46.52898" lon="5.56808">
        <ele>483.6</ele>
        <time>2022-07-16T06:03:10Z</time>
      </trkpt>
      <trkpt lat="46.52908" lon="5.56849">
        <ele>483.8</ele>
        <time>2022-07-16T06:03:15Z</time>
      </trkpt>
      <trkpt lat="46.52923" lon="5.56912">
        <ele>483.8</ele>
        <time>2022-07-16T06:03:22Z</time>
      </trkpt>
      <trkpt lat="46.52934" lon="5.56956">
        <ele>483.6</ele>
        <time>2022-07-16T06:03:27Z</time>
      </trkpt>
      <trkpt lat="46.52937" lon="5.56965">
        <ele>483.2</ele>
        <time>2022-07-16T06:03:28Z</time>
      </trkpt>
      <trkpt lat="46.52951" lon="5.56999">
        <ele>483.2</ele>
        <time>2022-07-16T06:03:32Z</time>
      </trkpt>
      <trkpt lat="46.52979" lon="5.5704">
        <ele>482.6</ele>
        <time>2022-07-16T06:03:38Z</time>
      </trkpt>
      <trkpt lat="46.52997" lon="5.57074">
        <ele>482.4</ele>
        <time>2022-07-16T06:03:42Z</time>
      </trkpt>
      <trkpt lat="46.53001" lon="5.57083">
        <ele>482.4</ele>
        <time>2022-07-16T06:03:43Z</time>
      </trkpt>
      <trkpt lat="46.53029" lon="5.57154">
        <ele>481.8</ele>
        <time>2022-07-16T06:03:51Z</time>
      </trkpt>
      <trkpt lat="46.53033" lon="5.57163">
        <ele>481.8</ele>
        <time>2022-07-16T06:03:52Z</time>
      </trkpt>
      <trkpt lat="46.53051" lon="5.57209">
        <ele>482</ele>
        <time>2022-07-16T06:03:58Z</time>
      </trkpt>
      <trkpt lat="46.53073" lon="5.5726">
        <ele>482.8</ele>
        <time>2022-07-16T06:04:05Z</time>
      </trkpt>
      <trkpt lat="46.53083" lon="5.57283">
        <ele>483.6</ele>
        <time>2022-07-16T06:04:08Z</time>
      </trkpt>
      <trkpt lat="46.53098" lon="5.57313">
        <ele>484</ele>
        <time>2022-07-16T06:04:12Z</time>
      </trkpt>
      <trkpt lat="46.53115" lon="5.57334">
        <ele>484.2</ele>
        <time>2022-07-16T06:04:16Z</time>
      </trkpt>
      <trkpt lat="46.5312" lon="5.57338">
        <ele>484.2</ele>
        <time>2022-07-16T06:04:17Z</time>
      </trkpt>
      <trkpt lat="46.53131" lon="5.57346">
        <ele>484.6</ele>
        <time>2022-07-16T06:04:19Z</time>
      </trkpt>
      <trkpt lat="46.53157" lon="5.57365">
        <ele>485.2</ele>
        <time>2022-07-16T06:04:24Z</time>
      </trkpt>
      <trkpt lat="46.53172" lon="5.57376">
        <ele>485.6</ele>
        <time>2022-07-16T06:04:27Z</time>
      </trkpt>
      <trkpt lat="46.53187" lon="5.57387">
        <ele>486</ele>
        <time>2022-07-16T06:04:30Z</time>
      </trkpt>
      <trkpt lat="46.53209" lon="5.57405">
        <ele>486.6</ele>
        <time>2022-07-16T06:04:35Z</time>
      </trkpt>
      <trkpt lat="46.53222" lon="5.57416">
        <ele>487</ele>
        <time>2022-07-16T06:04:38Z</time>
      </trkpt>
      <trkpt lat="46.53242" lon="5.57441">
        <ele>487.8</ele>
        <time>2022-07-16T06:04:43Z</time>
      </trkpt>
      <trkpt lat="46.5325" lon="5.57454">
        <ele>487.8</ele>
        <time>2022-07-16T06:04:45Z</time>
      </trkpt>
      <trkpt lat="46.53267" lon="5.57481">
        <ele>488.2</ele>
        <time>2022-07-16T06:04:49Z</time>
      </trkpt>
      <trkpt lat="46.5327" lon="5.5749">
        <ele>488.2</ele>
        <time>2022-07-16T06:04:50Z</time>
      </trkpt>
      <trkpt lat="46.53286" lon="5.57554">
        <ele>488</ele>
        <time>2022-07-16T06:04:57Z</time>
      </trkpt>
      <trkpt lat="46.53292" lon="5.57602">
        <ele>487.4</ele>
        <time>2022-07-16T06:05:02Z</time>
      </trkpt>
      <trkpt lat="46.5329" lon="5.57649">
        <ele>487.4</ele>
        <time>2022-07-16T06:05:07Z</time>
      </trkpt>
      <trkpt lat="46.5329" lon="5.57657">
        <ele>487.4</ele>
        <time>2022-07-16T06:05:08Z</time>
      </trkpt>
      <trkpt lat="46.53291" lon="5.57665">
        <ele>487.4</ele>
        <time>2022-07-16T06:05:09Z</time>
      </trkpt>
      <trkpt lat="46.53295" lon="5.5768">
        <ele>487.8</ele>
        <time>2022-07-16T06:05:11Z</time>
      </trkpt>
      <trkpt lat="46.53298" lon="5.57688">
        <ele>488</ele>
        <time>2022-07-16T06:05:12Z</time>
      </trkpt>
      <trkpt lat="46.53302" lon="5.57695">
        <ele>488.2</ele>
        <time>2022-07-16T06:05:13Z</time>
      </trkpt>
      <trkpt lat="46.53317" lon="5.57716">
        <ele>488.4</ele>
        <time>2022-07-16T06:05:16Z</time>
      </trkpt>
      <trkpt lat="46.53345" lon="5.57737">
        <ele>488.2</ele>
        <time>2022-07-16T06:05:20Z</time>
      </trkpt>
      <trkpt lat="46.53387" lon="5.57751">
        <ele>487</ele>
        <time>2022-07-16T06:05:25Z</time>
      </trkpt>
      <trkpt lat="46.53421" lon="5.57763">
        <ele>486.6</ele>
        <time>2022-07-16T06:05:29Z</time>
      </trkpt>
      <trkpt lat="46.53445" lon="5.57772">
        <ele>485.8</ele>
        <time>2022-07-16T06:05:32Z</time>
      </trkpt>
      <trkpt lat="46.53465" lon="5.57785">
        <ele>485.4</ele>
        <time>2022-07-16T06:05:35Z</time>
      </trkpt>
      <trkpt lat="46.53477" lon="5.57796">
        <ele>485.4</ele>
        <time>2022-07-16T06:05:37Z</time>
      </trkpt>
      <trkpt lat="46.53512" lon="5.57834">
        <ele>485.4</ele>
        <time>2022-07-16T06:05:42Z</time>
      </trkpt>
      <trkpt lat="46.53548" lon="5.57863">
        <ele>484.2</ele>
        <time>2022-07-16T06:05:46Z</time>
      </trkpt>
      <trkpt lat="46.53557" lon="5.57869">
        <ele>483.8</ele>
        <time>2022-07-16T06:05:47Z</time>
      </trkpt>
      <trkpt lat="46.53567" lon="5.57874">
        <ele>482.8</ele>
        <time>2022-07-16T06:05:48Z</time>
      </trkpt>
      <trkpt lat="46.53595" lon="5.57887">
        <ele>481.2</ele>
        <time>2022-07-16T06:05:51Z</time>
      </trkpt>
      <trkpt lat="46.53606" lon="5.5789">
        <ele>480.6</ele>
        <time>2022-07-16T06:05:52Z</time>
      </trkpt>
      <trkpt lat="46.53613" lon="5.57893">
        <ele>479.8</ele>
        <time>2022-07-16T06:05:53Z</time>
      </trkpt>
      <trkpt lat="46.53649" lon="5.57905">
        <ele>479</ele>
        <time>2022-07-16T06:05:57Z</time>
      </trkpt>
      <trkpt lat="46.53665" lon="5.57911">
        <ele>479</ele>
        <time>2022-07-16T06:05:59Z</time>
      </trkpt>
      <trkpt lat="46.5368" lon="5.57918">
        <ele>479</ele>
        <time>2022-07-16T06:06:01Z</time>
      </trkpt>
      <trkpt lat="46.53719" lon="5.5793">
        <ele>480.2</ele>
        <time>2022-07-16T06:06:07Z</time>
      </trkpt>
      <trkpt lat="46.53731" lon="5.57933">
        <ele>480.8</ele>
        <time>2022-07-16T06:06:09Z</time>
      </trkpt>
      <trkpt lat="46.53754" lon="5.57939">
        <ele>482.2</ele>
        <time>2022-07-16T06:06:13Z</time>
      </trkpt>
      <trkpt lat="46.5376" lon="5.57941">
        <ele>482.2</ele>
        <time>2022-07-16T06:06:14Z</time>
      </trkpt>
      <trkpt lat="46.5378" lon="5.57946">
        <ele>483.2</ele>
        <time>2022-07-16T06:06:18Z</time>
      </trkpt>
      <trkpt lat="46.53794" lon="5.57951">
        <ele>483.8</ele>
        <time>2022-07-16T06:06:21Z</time>
      </trkpt>
      <trkpt lat="46.538" lon="5.57952">
        <ele>484.4</ele>
        <time>2022-07-16T06:06:22Z</time>
      </trkpt>
      <trkpt lat="46.53813" lon="5.57956">
        <ele>485.6</ele>
        <time>2022-07-16T06:06:25Z</time>
      </trkpt>
      <trkpt lat="46.53835" lon="5.57962">
        <ele>486.8</ele>
        <time>2022-07-16T06:06:30Z</time>
      </trkpt>
      <trkpt lat="46.53862" lon="5.5797">
        <ele>487.8</ele>
        <time>2022-07-16T06:06:36Z</time>
      </trkpt>
      <trkpt lat="46.53874" lon="5.57974">
        <ele>488.2</ele>
        <time>2022-07-16T06:06:39Z</time>
      </trkpt>
      <trkpt lat="46.53891" lon="5.57978">
        <ele>488.8</ele>
        <time>2022-07-16T06:06:43Z</time>
      </trkpt>
      <trkpt lat="46.53909" lon="5.57982">
        <ele>490.2</ele>
        <time>2022-07-16T06:06:48Z</time>
      </trkpt>
      <trkpt lat="46.53925" lon="5.57983">
        <ele>491.2</ele>
        <time>2022-07-16T06:06:53Z</time>
      </trkpt>
      <trkpt lat="46.53932" lon="5.57984">
        <ele>492</ele>
        <time>2022-07-16T06:06:55Z</time>
      </trkpt>
      <trkpt lat="46.53939" lon="5.57985">
        <ele>492.6</ele>
        <time>2022-07-16T06:06:57Z</time>
      </trkpt>
      <trkpt lat="46.53948" lon="5.57986">
        <ele>493.8</ele>
        <time>2022-07-16T06:07:00Z</time>
      </trkpt>
      <trkpt lat="46.53954" lon="5.57988">
        <ele>494.2</ele>
        <time>2022-07-16T06:07:02Z</time>
      </trkpt>
      <trkpt lat="46.5396" lon="5.5799">
        <ele>495</ele>
        <time>2022-07-16T06:07:04Z</time>
      </trkpt>
      <trkpt lat="46.53969" lon="5.57993">
        <ele>496</ele>
        <time>2022-07-16T06:07:07Z</time>
      </trkpt>
      <trkpt lat="46.53981" lon="5.57994">
        <ele>497</ele>
        <time>2022-07-16T06:07:11Z</time>
      </trkpt>
      <trkpt lat="46.53983" lon="5.57995">
        <ele>497.4</ele>
        <time>2022-07-16T06:07:12Z</time>
      </trkpt>
      <trkpt lat="46.53993" lon="5.58">
        <ele>498.6</ele>
        <time>2022-07-16T06:07:15Z</time>
      </trkpt>
      <trkpt lat="46.54007" lon="5.58007">
        <ele>499.4</ele>
        <time>2022-07-16T06:07:19Z</time>
      </trkpt>
      <trkpt lat="46.54011" lon="5.5801">
        <ele>499.8</ele>
        <time>2022-07-16T06:07:20Z</time>
      </trkpt>
      <trkpt lat="46.54036" lon="5.58028">
        <ele>500.8</ele>
        <time>2022-07-16T06:07:27Z</time>
      </trkpt>
      <trkpt lat="46.54044" lon="5.58034">
        <ele>501</ele>
        <time>2022-07-16T06:07:29Z</time>
      </trkpt>
      <trkpt lat="46.54074" lon="5.58064">
        <ele>501.6</ele>
        <time>2022-07-16T06:07:37Z</time>
      </trkpt>
      <trkpt lat="46.54078" lon="5.58069">
        <ele>501.6</ele>
        <time>2022-07-16T06:07:38Z</time>
      </trkpt>
      <trkpt lat="46.54098" lon="5.58094">
        <ele>501.4</ele>
        <time>2022-07-16T06:07:42Z</time>
      </trkpt>
      <trkpt lat="46.54132" lon="5.58127">
        <ele>499.8</ele>
        <time>2022-07-16T06:07:47Z</time>
      </trkpt>
      <trkpt lat="46.54139" lon="5.58135">
        <ele>499.4</ele>
        <time>2022-07-16T06:07:48Z</time>
      </trkpt>
      <trkpt lat="46.54151" lon="5.58152">
        <ele>497.8</ele>
        <time>2022-07-16T06:07:50Z</time>
      </trkpt>
      <trkpt lat="46.54163" lon="5.5817">
        <ele>497.2</ele>
        <time>2022-07-16T06:07:52Z</time>
      </trkpt>
      <trkpt lat="46.54172" lon="5.58192">
        <ele>496.8</ele>
        <time>2022-07-16T06:07:54Z</time>
      </trkpt>
      <trkpt lat="46.54175" lon="5.58205">
        <ele>496.4</ele>
        <time>2022-07-16T06:07:55Z</time>
      </trkpt>
      <trkpt lat="46.54179" lon="5.58232">
        <ele>495.6</ele>
        <time>2022-07-16T06:07:57Z</time>
      </trkpt>
      <trkpt lat="46.54183" lon="5.58246">
        <ele>495.2</ele>
        <time>2022-07-16T06:07:58Z</time>
      </trkpt>
      <trkpt lat="46.54187" lon="5.58259">
        <ele>494.2</ele>
        <time>2022-07-16T06:07:59Z</time>
      </trkpt>
      <trkpt lat="46.54193" lon="5.5827">
        <ele>493.4</ele>
        <time>2022-07-16T06:08:00Z</time>
      </trkpt>
      <trkpt lat="46.542" lon="5.5828">
        <ele>493</ele>
        <time>2022-07-16T06:08:01Z</time>
      </trkpt>
      <trkpt lat="46.54209" lon="5.58287">
        <ele>492.4</ele>
        <time>2022-07-16T06:08:02Z</time>
      </trkpt>
      <trkpt lat="46.54226" lon="5.58297">
        <ele>491.6</ele>
        <time>2022-07-16T06:08:04Z</time>
      </trkpt>
      <trkpt lat="46.54253" lon="5.58311">
        <ele>490.8</ele>
        <time>2022-07-16T06:08:07Z</time>
      </trkpt>
      <trkpt lat="46.54278" lon="5.58324">
        <ele>490.6</ele>
        <time>2022-07-16T06:08:10Z</time>
      </trkpt>
      <trkpt lat="46.54302" lon="5.58336">
        <ele>490.4</ele>
        <time>2022-07-16T06:08:13Z</time>
      </trkpt>
      <trkpt lat="46.54351" lon="5.58361">
        <ele>491.2</ele>
        <time>2022-07-16T06:08:20Z</time>
      </trkpt>
      <trkpt lat="46.54364" lon="5.58368">
        <ele>491.8</ele>
        <time>2022-07-16T06:08:22Z</time>
      </trkpt>
      <trkpt lat="46.54403" lon="5.58386">
        <ele>492.8</ele>
        <time>2022-07-16T06:08:28Z</time>
      </trkpt>
      <trkpt lat="46.54447" lon="5.58407">
        <ele>494</ele>
        <time>2022-07-16T06:08:35Z</time>
      </trkpt>
      <trkpt lat="46.5446" lon="5.58411">
        <ele>494.6</ele>
        <time>2022-07-16T06:08:37Z</time>
      </trkpt>
      <trkpt lat="46.54489" lon="5.5842">
        <ele>495.2</ele>
        <time>2022-07-16T06:08:42Z</time>
      </trkpt>
      <trkpt lat="46.54505" lon="5.58424">
        <ele>495.8</ele>
        <time>2022-07-16T06:08:45Z</time>
      </trkpt>
      <trkpt lat="46.54511" lon="5.58425">
        <ele>496.2</ele>
        <time>2022-07-16T06:08:46Z</time>
      </trkpt>
      <trkpt lat="46.54545" lon="5.5843">
        <ele>497.2</ele>
        <time>2022-07-16T06:08:52Z</time>
      </trkpt>
      <trkpt lat="46.54551" lon="5.58431">
        <ele>497.6</ele>
        <time>2022-07-16T06:08:53Z</time>
      </trkpt>
      <trkpt lat="46.54609" lon="5.58445">
        <ele>498</ele>
        <time>2022-07-16T06:09:02Z</time>
      </trkpt>
      <trkpt lat="46.54636" lon="5.5845">
        <ele>497.6</ele>
        <time>2022-07-16T06:09:06Z</time>
      </trkpt>
      <trkpt lat="46.54669" lon="5.58457">
        <ele>497.6</ele>
        <time>2022-07-16T06:09:11Z</time>
      </trkpt>
      <trkpt lat="46.54723" lon="5.58468">
        <ele>497.6</ele>
        <time>2022-07-16T06:09:19Z</time>
      </trkpt>
      <trkpt lat="46.54738" lon="5.58471">
        <ele>497.6</ele>
        <time>2022-07-16T06:09:21Z</time>
      </trkpt>
      <trkpt lat="46.54784" lon="5.5848">
        <ele>497.4</ele>
        <time>2022-07-16T06:09:28Z</time>
      </trkpt>
      <trkpt lat="46.54843" lon="5.58493">
        <ele>497</ele>
        <time>2022-07-16T06:09:36Z</time>
      </trkpt>
      <trkpt lat="46.54888" lon="5.58509">
        <ele>496.8</ele>
        <time>2022-07-16T06:09:42Z</time>
      </trkpt>
      <trkpt lat="46.54921" lon="5.58527">
        <ele>496.2</ele>
        <time>2022-07-16T06:09:46Z</time>
      </trkpt>
      <trkpt lat="46.54945" lon="5.58539">
        <ele>495.8</ele>
        <time>2022-07-16T06:09:49Z</time>
      </trkpt>
      <trkpt lat="46.54975" lon="5.58556">
        <ele>495</ele>
        <time>2022-07-16T06:09:53Z</time>
      </trkpt>
      <trkpt lat="46.55012" lon="5.58576">
        <ele>494.8</ele>
        <time>2022-07-16T06:09:58Z</time>
      </trkpt>
      <trkpt lat="46.55058" lon="5.58601">
        <ele>495.2</ele>
        <time>2022-07-16T06:10:05Z</time>
      </trkpt>
      <trkpt lat="46.55083" lon="5.58614">
        <ele>496</ele>
        <time>2022-07-16T06:10:09Z</time>
      </trkpt>
      <trkpt lat="46.55101" lon="5.58624">
        <ele>496.6</ele>
        <time>2022-07-16T06:10:12Z</time>
      </trkpt>
      <trkpt lat="46.55112" lon="5.58629">
        <ele>497</ele>
        <time>2022-07-16T06:10:14Z</time>
      </trkpt>
      <trkpt lat="46.55139" lon="5.58645">
        <ele>498</ele>
        <time>2022-07-16T06:10:19Z</time>
      </trkpt>
      <trkpt lat="46.55145" lon="5.58648">
        <ele>498</ele>
        <time>2022-07-16T06:10:20Z</time>
      </trkpt>
      <trkpt lat="46.5517" lon="5.58663">
        <ele>499.4</ele>
        <time>2022-07-16T06:10:25Z</time>
      </trkpt>
      <trkpt lat="46.5519" lon="5.58673">
        <ele>500.6</ele>
        <time>2022-07-16T06:10:29Z</time>
      </trkpt>
      <trkpt lat="46.55229" lon="5.5869">
        <ele>501.6</ele>
        <time>2022-07-16T06:10:36Z</time>
      </trkpt>
      <trkpt lat="46.55235" lon="5.58692">
        <ele>501.6</ele>
        <time>2022-07-16T06:10:37Z</time>
      </trkpt>
      <trkpt lat="46.5527" lon="5.58704">
        <ele>501.8</ele>
        <time>2022-07-16T06:10:42Z</time>
      </trkpt>
      <trkpt lat="46.55276" lon="5.58706">
        <ele>501.8</ele>
        <time>2022-07-16T06:10:43Z</time>
      </trkpt>
      <trkpt lat="46.55324" lon="5.5872">
        <ele>501.4</ele>
        <time>2022-07-16T06:10:50Z</time>
      </trkpt>
      <trkpt lat="46.55362" lon="5.58722">
        <ele>501.2</ele>
        <time>2022-07-16T06:10:56Z</time>
      </trkpt>
      <trkpt lat="46.5538" lon="5.58712">
        <ele>501.6</ele>
        <time>2022-07-16T06:10:59Z</time>
      </trkpt>
      <trkpt lat="46.55384" lon="5.58708">
        <ele>501.8</ele>
        <time>2022-07-16T06:11:00Z</time>
      </trkpt>
      <trkpt lat="46.55404" lon="5.58687">
        <ele>502.6</ele>
        <time>2022-07-16T06:11:04Z</time>
      </trkpt>
      <trkpt lat="46.55422" lon="5.58662">
        <ele>503.2</ele>
        <time>2022-07-16T06:11:08Z</time>
      </trkpt>
      <trkpt lat="46.55443" lon="5.58629">
        <ele>503.8</ele>
        <time>2022-07-16T06:11:13Z</time>
      </trkpt>
      <trkpt lat="46.55449" lon="5.58615">
        <ele>503.8</ele>
        <time>2022-07-16T06:11:15Z</time>
      </trkpt>
      <trkpt lat="46.55467" lon="5.58566">
        <ele>504.4</ele>
        <time>2022-07-16T06:11:21Z</time>
      </trkpt>
      <trkpt lat="46.55471" lon="5.5856">
        <ele>504.4</ele>
        <time>2022-07-16T06:11:22Z</time>
      </trkpt>
      <trkpt lat="46.55476" lon="5.58555">
        <ele>504.6</ele>
        <time>2022-07-16T06:11:23Z</time>
      </trkpt>
      <trkpt lat="46.55487" lon="5.58549">
        <ele>505.2</ele>
        <time>2022-07-16T06:11:25Z</time>
      </trkpt>
      <trkpt lat="46.55499" lon="5.58548">
        <ele>505.4</ele>
        <time>2022-07-16T06:11:27Z</time>
      </trkpt>
      <trkpt lat="46.55515" lon="5.58549">
        <ele>505.8</ele>
        <time>2022-07-16T06:11:30Z</time>
      </trkpt>
      <trkpt lat="46.55522" lon="5.5855">
        <ele>505.8</ele>
        <time>2022-07-16T06:11:31Z</time>
      </trkpt>
      <trkpt lat="46.55553" lon="5.58557">
        <ele>506.2</ele>
        <time>2022-07-16T06:11:36Z</time>
      </trkpt>
      <trkpt lat="46.55602" lon="5.5856">
        <ele>506.6</ele>
        <time>2022-07-16T06:11:44Z</time>
      </trkpt>
      <trkpt lat="46.55612" lon="5.58559">
        <ele>507.2</ele>
        <time>2022-07-16T06:11:46Z</time>
      </trkpt>
      <trkpt lat="46.55625" lon="5.58558">
        <ele>507.4</ele>
        <time>2022-07-16T06:11:48Z</time>
      </trkpt>
      <trkpt lat="46.55635" lon="5.58562">
        <ele>507.8</ele>
        <time>2022-07-16T06:11:50Z</time>
      </trkpt>
      <trkpt lat="46.55644" lon="5.58574">
        <ele>508</ele>
        <time>2022-07-16T06:11:52Z</time>
      </trkpt>
      <trkpt lat="46.55646" lon="5.58583">
        <ele>508</ele>
        <time>2022-07-16T06:11:53Z</time>
      </trkpt>
      <trkpt lat="46.55646" lon="5.58593">
        <ele>508</ele>
        <time>2022-07-16T06:11:54Z</time>
      </trkpt>
      <trkpt lat="46.55644" lon="5.58614">
        <ele>508</ele>
        <time>2022-07-16T06:11:56Z</time>
      </trkpt>
      <trkpt lat="46.55645" lon="5.58635">
        <ele>507.8</ele>
        <time>2022-07-16T06:11:58Z</time>
      </trkpt>
      <trkpt lat="46.5565" lon="5.58655">
        <ele>507.4</ele>
        <time>2022-07-16T06:12:00Z</time>
      </trkpt>
      <trkpt lat="46.55659" lon="5.5867">
        <ele>506.2</ele>
        <time>2022-07-16T06:12:02Z</time>
      </trkpt>
      <trkpt lat="46.55666" lon="5.58676">
        <ele>506</ele>
        <time>2022-07-16T06:12:03Z</time>
      </trkpt>
      <trkpt lat="46.55712" lon="5.58716">
        <ele>505.8</ele>
        <time>2022-07-16T06:12:11Z</time>
      </trkpt>
      <trkpt lat="46.55732" lon="5.5874">
        <ele>506.2</ele>
        <time>2022-07-16T06:12:15Z</time>
      </trkpt>
      <trkpt lat="46.55734" lon="5.58746">
        <ele>506.2</ele>
        <time>2022-07-16T06:12:16Z</time>
      </trkpt>
      <trkpt lat="46.55738" lon="5.58763">
        <ele>506.4</ele>
        <time>2022-07-16T06:12:18Z</time>
      </trkpt>
      <trkpt lat="46.55738" lon="5.58778">
        <ele>507</ele>
        <time>2022-07-16T06:12:20Z</time>
      </trkpt>
      <trkpt lat="46.55739" lon="5.58784">
        <ele>507</ele>
        <time>2022-07-16T06:12:21Z</time>
      </trkpt>
      <trkpt lat="46.55738" lon="5.58818">
        <ele>507.6</ele>
        <time>2022-07-16T06:12:25Z</time>
      </trkpt>
      <trkpt lat="46.55738" lon="5.58837">
        <ele>508.2</ele>
        <time>2022-07-16T06:12:27Z</time>
      </trkpt>
      <trkpt lat="46.55732" lon="5.58904">
        <ele>509.2</ele>
        <time>2022-07-16T06:12:35Z</time>
      </trkpt>
      <trkpt lat="46.55731" lon="5.58914">
        <ele>509.4</ele>
        <time>2022-07-16T06:12:36Z</time>
      </trkpt>
      <trkpt lat="46.55727" lon="5.58969">
        <ele>510</ele>
        <time>2022-07-16T06:12:42Z</time>
      </trkpt>
      <trkpt lat="46.5573" lon="5.59016">
        <ele>510</ele>
        <time>2022-07-16T06:12:47Z</time>
      </trkpt>
      <trkpt lat="46.55732" lon="5.59025">
        <ele>510</ele>
        <time>2022-07-16T06:12:48Z</time>
      </trkpt>
      <trkpt lat="46.55734" lon="5.59034">
        <ele>510</ele>
        <time>2022-07-16T06:12:49Z</time>
      </trkpt>
      <trkpt lat="46.55749" lon="5.59072">
        <ele>509.8</ele>
        <time>2022-07-16T06:12:53Z</time>
      </trkpt>
      <trkpt lat="46.55769" lon="5.59124">
        <ele>508.6</ele>
        <time>2022-07-16T06:12:58Z</time>
      </trkpt>
      <trkpt lat="46.55772" lon="5.59136">
        <ele>508.4</ele>
        <time>2022-07-16T06:12:59Z</time>
      </trkpt>
      <trkpt lat="46.55783" lon="5.59188">
        <ele>507.8</ele>
        <time>2022-07-16T06:13:04Z</time>
      </trkpt>
      <trkpt lat="46.55792" lon="5.59236">
        <ele>508.2</ele>
        <time>2022-07-16T06:13:10Z</time>
      </trkpt>
      <trkpt lat="46.55797" lon="5.59259">
        <ele>509.8</ele>
        <time>2022-07-16T06:13:13Z</time>
      </trkpt>
      <trkpt lat="46.55801" lon="5.5928">
        <ele>511</ele>
        <time>2022-07-16T06:13:16Z</time>
      </trkpt>
      <trkpt lat="46.55803" lon="5.59286">
        <ele>511</ele>
        <time>2022-07-16T06:13:17Z</time>
      </trkpt>
      <trkpt lat="46.55807" lon="5.59306">
        <ele>512</ele>
        <time>2022-07-16T06:13:20Z</time>
      </trkpt>
      <trkpt lat="46.55814" lon="5.59332">
        <ele>513.4</ele>
        <time>2022-07-16T06:13:24Z</time>
      </trkpt>
      <trkpt lat="46.55824" lon="5.59366">
        <ele>514.8</ele>
        <time>2022-07-16T06:13:29Z</time>
      </trkpt>
      <trkpt lat="46.55829" lon="5.5938">
        <ele>514.8</ele>
        <time>2022-07-16T06:13:31Z</time>
      </trkpt>
      <trkpt lat="46.55836" lon="5.59401">
        <ele>515.6</ele>
        <time>2022-07-16T06:13:34Z</time>
      </trkpt>
      <trkpt lat="46.55838" lon="5.59407">
        <ele>515.6</ele>
        <time>2022-07-16T06:13:35Z</time>
      </trkpt>
      <trkpt lat="46.55848" lon="5.59435">
        <ele>516.2</ele>
        <time>2022-07-16T06:13:39Z</time>
      </trkpt>
      <trkpt lat="46.55862" lon="5.59479">
        <ele>516.8</ele>
        <time>2022-07-16T06:13:45Z</time>
      </trkpt>
      <trkpt lat="46.55875" lon="5.5952">
        <ele>517.2</ele>
        <time>2022-07-16T06:13:51Z</time>
      </trkpt>
      <trkpt lat="46.55885" lon="5.59549">
        <ele>518</ele>
        <time>2022-07-16T06:13:56Z</time>
      </trkpt>
      <trkpt lat="46.55886" lon="5.59555">
        <ele>518.4</ele>
        <time>2022-07-16T06:13:57Z</time>
      </trkpt>
      <trkpt lat="46.55886" lon="5.59565">
        <ele>519.2</ele>
        <time>2022-07-16T06:13:59Z</time>
      </trkpt>
      <trkpt lat="46.55885" lon="5.59569">
        <ele>519.2</ele>
        <time>2022-07-16T06:14:00Z</time>
      </trkpt>
      <trkpt lat="46.55883" lon="5.59583">
        <ele>520.4</ele>
        <time>2022-07-16T06:14:03Z</time>
      </trkpt>
      <trkpt lat="46.55885" lon="5.59594">
        <ele>520.8</ele>
        <time>2022-07-16T06:14:05Z</time>
      </trkpt>
      <trkpt lat="46.55893" lon="5.59614">
        <ele>521</ele>
        <time>2022-07-16T06:14:08Z</time>
      </trkpt>
      <trkpt lat="46.55897" lon="5.5962">
        <ele>521.2</ele>
        <time>2022-07-16T06:14:09Z</time>
      </trkpt>
      <trkpt lat="46.55905" lon="5.5963">
        <ele>521.4</ele>
        <time>2022-07-16T06:14:11Z</time>
      </trkpt>
      <trkpt lat="46.55921" lon="5.5965">
        <ele>521.6</ele>
        <time>2022-07-16T06:14:15Z</time>
      </trkpt>
      <trkpt lat="46.55934" lon="5.59687">
        <ele>522.6</ele>
        <time>2022-07-16T06:14:21Z</time>
      </trkpt>
      <trkpt lat="46.55942" lon="5.59725">
        <ele>523.8</ele>
        <time>2022-07-16T06:14:27Z</time>
      </trkpt>
      <trkpt lat="46.55945" lon="5.59747">
        <ele>524.2</ele>
        <time>2022-07-16T06:14:30Z</time>
      </trkpt>
      <trkpt lat="46.5595" lon="5.59812">
        <ele>524.4</ele>
        <time>2022-07-16T06:14:38Z</time>
      </trkpt>
      <trkpt lat="46.55952" lon="5.59874">
        <ele>524.4</ele>
        <time>2022-07-16T06:14:45Z</time>
      </trkpt>
      <trkpt lat="46.55959" lon="5.59921">
        <ele>524</ele>
        <time>2022-07-16T06:14:50Z</time>
      </trkpt>
      <trkpt lat="46.55959" lon="5.5994">
        <ele>523.8</ele>
        <time>2022-07-16T06:14:52Z</time>
      </trkpt>
      <trkpt lat="46.55957" lon="5.59958">
        <ele>523.8</ele>
        <time>2022-07-16T06:14:54Z</time>
      </trkpt>
      <trkpt lat="46.55952" lon="5.59999">
        <ele>524.4</ele>
        <time>2022-07-16T06:14:59Z</time>
      </trkpt>
      <trkpt lat="46.5595" lon="5.60015">
        <ele>525.2</ele>
        <time>2022-07-16T06:15:01Z</time>
      </trkpt>
      <trkpt lat="46.55942" lon="5.60079">
        <ele>525.8</ele>
        <time>2022-07-16T06:15:08Z</time>
      </trkpt>
      <trkpt lat="46.55929" lon="5.60132">
        <ele>525.4</ele>
        <time>2022-07-16T06:15:14Z</time>
      </trkpt>
      <trkpt lat="46.55927" lon="5.60142">
        <ele>525.2</ele>
        <time>2022-07-16T06:15:15Z</time>
      </trkpt>
      <trkpt lat="46.55924" lon="5.60166">
        <ele>524.8</ele>
        <time>2022-07-16T06:15:17Z</time>
      </trkpt>
      <trkpt lat="46.55923" lon="5.60176">
        <ele>524.6</ele>
        <time>2022-07-16T06:15:18Z</time>
      </trkpt>
      <trkpt lat="46.55925" lon="5.60223">
        <ele>524.4</ele>
        <time>2022-07-16T06:15:23Z</time>
      </trkpt>
      <trkpt lat="46.55926" lon="5.60232">
        <ele>524.2</ele>
        <time>2022-07-16T06:15:24Z</time>
      </trkpt>
      <trkpt lat="46.55927" lon="5.60265">
        <ele>524</ele>
        <time>2022-07-16T06:15:27Z</time>
      </trkpt>
      <trkpt lat="46.55926" lon="5.60287">
        <ele>523.8</ele>
        <time>2022-07-16T06:15:29Z</time>
      </trkpt>
      <trkpt lat="46.55926" lon="5.60299">
        <ele>523.8</ele>
        <time>2022-07-16T06:15:30Z</time>
      </trkpt>
      <trkpt lat="46.55928" lon="5.60324">
        <ele>523.6</ele>
        <time>2022-07-16T06:15:32Z</time>
      </trkpt>
      <trkpt lat="46.55931" lon="5.6034">
        <ele>523.2</ele>
        <time>2022-07-16T06:15:33Z</time>
      </trkpt>
      <trkpt lat="46.55934" lon="5.60354">
        <ele>522.4</ele>
        <time>2022-07-16T06:15:34Z</time>
      </trkpt>
      <trkpt lat="46.55937" lon="5.60368">
        <ele>522</ele>
        <time>2022-07-16T06:15:35Z</time>
      </trkpt>
      <trkpt lat="46.55939" lon="5.6038">
        <ele>521.2</ele>
        <time>2022-07-16T06:15:36Z</time>
      </trkpt>
      <trkpt lat="46.55938" lon="5.60395">
        <ele>520.8</ele>
        <time>2022-07-16T06:15:37Z</time>
      </trkpt>
      <trkpt lat="46.55935" lon="5.60412">
        <ele>520</ele>
        <time>2022-07-16T06:15:38Z</time>
      </trkpt>
      <trkpt lat="46.5593" lon="5.60432">
        <ele>518.6</ele>
        <time>2022-07-16T06:15:39Z</time>
      </trkpt>
      <trkpt lat="46.55926" lon="5.60449">
        <ele>517.8</ele>
        <time>2022-07-16T06:15:40Z</time>
      </trkpt>
      <trkpt lat="46.55924" lon="5.60464">
        <ele>516.6</ele>
        <time>2022-07-16T06:15:41Z</time>
      </trkpt>
      <trkpt lat="46.55917" lon="5.60502">
        <ele>514</ele>
        <time>2022-07-16T06:15:43Z</time>
      </trkpt>
      <trkpt lat="46.55911" lon="5.60529">
        <ele>511.6</ele>
        <time>2022-07-16T06:15:45Z</time>
      </trkpt>
      <trkpt lat="46.55908" lon="5.60543">
        <ele>510.2</ele>
        <time>2022-07-16T06:15:46Z</time>
      </trkpt>
      <trkpt lat="46.559" lon="5.60561">
        <ele>509</ele>
        <time>2022-07-16T06:15:48Z</time>
      </trkpt>
      <trkpt lat="46.55886" lon="5.60577">
        <ele>508.2</ele>
        <time>2022-07-16T06:15:51Z</time>
      </trkpt>
      <trkpt lat="46.55884" lon="5.60593">
        <ele>508</ele>
        <time>2022-07-16T06:15:53Z</time>
      </trkpt>
      <trkpt lat="46.55885" lon="5.60602">
        <ele>508</ele>
        <time>2022-07-16T06:15:54Z</time>
      </trkpt>
      <trkpt lat="46.55888" lon="5.60611">
        <ele>508</ele>
        <time>2022-07-16T06:15:55Z</time>
      </trkpt>
      <trkpt lat="46.55891" lon="5.6062">
        <ele>508</ele>
        <time>2022-07-16T06:15:56Z</time>
      </trkpt>
      <trkpt lat="46.55894" lon="5.60629">
        <ele>508</ele>
        <time>2022-07-16T06:15:57Z</time>
      </trkpt>
      <trkpt lat="46.55898" lon="5.60648">
        <ele>508</ele>
        <time>2022-07-16T06:15:59Z</time>
      </trkpt>
      <trkpt lat="46.55913" lon="5.60713">
        <ele>508.4</ele>
        <time>2022-07-16T06:16:06Z</time>
      </trkpt>
      <trkpt lat="46.55919" lon="5.60739">
        <ele>509</ele>
        <time>2022-07-16T06:16:09Z</time>
      </trkpt>
      <trkpt lat="46.55925" lon="5.60774">
        <ele>509.8</ele>
        <time>2022-07-16T06:16:13Z</time>
      </trkpt>
      <trkpt lat="46.55927" lon="5.60799">
        <ele>510</ele>
        <time>2022-07-16T06:16:16Z</time>
      </trkpt>
      <trkpt lat="46.55928" lon="5.60828">
        <ele>510.2</ele>
        <time>2022-07-16T06:16:19Z</time>
      </trkpt>
      <trkpt lat="46.55936" lon="5.60905">
        <ele>510.4</ele>
        <time>2022-07-16T06:16:27Z</time>
      </trkpt>
      <trkpt lat="46.55941" lon="5.60924">
        <ele>510.4</ele>
        <time>2022-07-16T06:16:29Z</time>
      </trkpt>
      <trkpt lat="46.55953" lon="5.60975">
        <ele>510</ele>
        <time>2022-07-16T06:16:34Z</time>
      </trkpt>
      <trkpt lat="46.55972" lon="5.61049">
        <ele>509.4</ele>
        <time>2022-07-16T06:16:41Z</time>
      </trkpt>
      <trkpt lat="46.55975" lon="5.61059">
        <ele>509.2</ele>
        <time>2022-07-16T06:16:42Z</time>
      </trkpt>
      <trkpt lat="46.55981" lon="5.61079">
        <ele>508.8</ele>
        <time>2022-07-16T06:16:44Z</time>
      </trkpt>
      <trkpt lat="46.55993" lon="5.61108">
        <ele>508.8</ele>
        <time>2022-07-16T06:16:47Z</time>
      </trkpt>
      <trkpt lat="46.56024" lon="5.61172">
        <ele>508.4</ele>
        <time>2022-07-16T06:16:54Z</time>
      </trkpt>
      <trkpt lat="46.56052" lon="5.61229">
        <ele>507.4</ele>
        <time>2022-07-16T06:17:00Z</time>
      </trkpt>
      <trkpt lat="46.56062" lon="5.61249">
        <ele>507.2</ele>
        <time>2022-07-16T06:17:02Z</time>
      </trkpt>
      <trkpt lat="46.56093" lon="5.61309">
        <ele>506.4</ele>
        <time>2022-07-16T06:17:08Z</time>
      </trkpt>
      <trkpt lat="46.56107" lon="5.6134">
        <ele>506</ele>
        <time>2022-07-16T06:17:11Z</time>
      </trkpt>
      <trkpt lat="46.56137" lon="5.614">
        <ele>505.2</ele>
        <time>2022-07-16T06:17:17Z</time>
      </trkpt>
      <trkpt lat="46.5616" lon="5.61447">
        <ele>505</ele>
        <time>2022-07-16T06:17:22Z</time>
      </trkpt>
      <trkpt lat="46.56196" lon="5.6152">
        <ele>504.8</ele>
        <time>2022-07-16T06:17:30Z</time>
      </trkpt>
      <trkpt lat="46.56209" lon="5.61547">
        <ele>505</ele>
        <time>2022-07-16T06:17:33Z</time>
      </trkpt>
      <trkpt lat="46.56246" lon="5.61616">
        <ele>505.6</ele>
        <time>2022-07-16T06:17:41Z</time>
      </trkpt>
      <trkpt lat="46.56251" lon="5.61624">
        <ele>505.6</ele>
        <time>2022-07-16T06:17:42Z</time>
      </trkpt>
      <trkpt lat="46.56292" lon="5.61678">
        <ele>505.4</ele>
        <time>2022-07-16T06:17:49Z</time>
      </trkpt>
      <trkpt lat="46.56298" lon="5.61686">
        <ele>505.4</ele>
        <time>2022-07-16T06:17:50Z</time>
      </trkpt>
      <trkpt lat="46.56341" lon="5.6174">
        <ele>504.2</ele>
        <time>2022-07-16T06:17:57Z</time>
      </trkpt>
      <trkpt lat="46.56347" lon="5.61747">
        <ele>504.2</ele>
        <time>2022-07-16T06:17:58Z</time>
      </trkpt>
      <trkpt lat="46.56358" lon="5.61763">
        <ele>504.2</ele>
        <time>2022-07-16T06:18:00Z</time>
      </trkpt>
      <trkpt lat="46.56365" lon="5.61784">
        <ele>503.8</ele>
        <time>2022-07-16T06:18:02Z</time>
      </trkpt>
      <trkpt lat="46.56367" lon="5.61808">
        <ele>503.6</ele>
        <time>2022-07-16T06:18:04Z</time>
      </trkpt>
      <trkpt lat="46.56366" lon="5.61822">
        <ele>503.4</ele>
        <time>2022-07-16T06:18:05Z</time>
      </trkpt>
      <trkpt lat="46.56364" lon="5.61848">
        <ele>503</ele>
        <time>2022-07-16T06:18:07Z</time>
      </trkpt>
      <trkpt lat="46.5636" lon="5.61903">
        <ele>501.6</ele>
        <time>2022-07-16T06:18:11Z</time>
      </trkpt>
      <trkpt lat="46.56361" lon="5.61949">
        <ele>500</ele>
        <time>2022-07-16T06:18:14Z</time>
      </trkpt>
      <trkpt lat="46.56363" lon="5.61978">
        <ele>498.8</ele>
        <time>2022-07-16T06:18:16Z</time>
      </trkpt>
      <trkpt lat="46.56365" lon="5.61988">
        <ele>498.6</ele>
        <time>2022-07-16T06:18:17Z</time>
      </trkpt>
      <trkpt lat="46.5637" lon="5.62016">
        <ele>497.8</ele>
        <time>2022-07-16T06:18:19Z</time>
      </trkpt>
      <trkpt lat="46.56378" lon="5.62054">
        <ele>496.8</ele>
        <time>2022-07-16T06:18:22Z</time>
      </trkpt>
      <trkpt lat="46.56384" lon="5.62079">
        <ele>496.2</ele>
        <time>2022-07-16T06:18:24Z</time>
      </trkpt>
      <trkpt lat="46.56404" lon="5.6216">
        <ele>496</ele>
        <time>2022-07-16T06:18:31Z</time>
      </trkpt>
      <trkpt lat="46.56421" lon="5.62231">
        <ele>495.8</ele>
        <time>2022-07-16T06:18:37Z</time>
      </trkpt>
      <trkpt lat="46.56424" lon="5.62242">
        <ele>495.8</ele>
        <time>2022-07-16T06:18:38Z</time>
      </trkpt>
      <trkpt lat="46.56443" lon="5.62318">
        <ele>495.4</ele>
        <time>2022-07-16T06:18:45Z</time>
      </trkpt>
      <trkpt lat="46.56445" lon="5.62328">
        <ele>495.6</ele>
        <time>2022-07-16T06:18:46Z</time>
      </trkpt>
      <trkpt lat="46.56454" lon="5.62366">
        <ele>496</ele>
        <time>2022-07-16T06:18:50Z</time>
      </trkpt>
      <trkpt lat="46.56454" lon="5.62375">
        <ele>496.2</ele>
        <time>2022-07-16T06:18:51Z</time>
      </trkpt>
      <trkpt lat="46.56455" lon="5.62393">
        <ele>496.6</ele>
        <time>2022-07-16T06:18:53Z</time>
      </trkpt>
      <trkpt lat="46.56453" lon="5.62411">
        <ele>497</ele>
        <time>2022-07-16T06:18:55Z</time>
      </trkpt>
      <trkpt lat="46.56452" lon="5.6242">
        <ele>497.2</ele>
        <time>2022-07-16T06:18:56Z</time>
      </trkpt>
      <trkpt lat="46.56441" lon="5.62469">
        <ele>497.6</ele>
        <time>2022-07-16T06:19:02Z</time>
      </trkpt>
      <trkpt lat="46.56438" lon="5.62486">
        <ele>498</ele>
        <time>2022-07-16T06:19:04Z</time>
      </trkpt>
      <trkpt lat="46.56429" lon="5.62524">
        <ele>498.8</ele>
        <time>2022-07-16T06:19:09Z</time>
      </trkpt>
      <trkpt lat="46.56425" lon="5.62548">
        <ele>499.2</ele>
        <time>2022-07-16T06:19:12Z</time>
      </trkpt>
      <trkpt lat="46.56415" lon="5.62594">
        <ele>500.2</ele>
        <time>2022-07-16T06:19:18Z</time>
      </trkpt>
      <trkpt lat="46.56415" lon="5.62602">
        <ele>500.2</ele>
        <time>2022-07-16T06:19:19Z</time>
      </trkpt>
      <trkpt lat="46.56416" lon="5.62635">
        <ele>500.8</ele>
        <time>2022-07-16T06:19:23Z</time>
      </trkpt>
      <trkpt lat="46.56422" lon="5.62663">
        <ele>501.2</ele>
        <time>2022-07-16T06:19:27Z</time>
      </trkpt>
      <trkpt lat="46.56427" lon="5.62676">
        <ele>501.4</ele>
        <time>2022-07-16T06:19:29Z</time>
      </trkpt>
      <trkpt lat="46.56435" lon="5.62699">
        <ele>502.2</ele>
        <time>2022-07-16T06:19:33Z</time>
      </trkpt>
      <trkpt lat="46.56437" lon="5.62704">
        <ele>502.4</ele>
        <time>2022-07-16T06:19:34Z</time>
      </trkpt>
      <trkpt lat="46.56453" lon="5.62731">
        <ele>503.2</ele>
        <time>2022-07-16T06:19:39Z</time>
      </trkpt>
      <trkpt lat="46.56457" lon="5.62737">
        <ele>503.4</ele>
        <time>2022-07-16T06:19:40Z</time>
      </trkpt>
      <trkpt lat="46.56462" lon="5.62742">
        <ele>503.6</ele>
        <time>2022-07-16T06:19:41Z</time>
      </trkpt>
      <trkpt lat="46.56467" lon="5.62747">
        <ele>503.6</ele>
        <time>2022-07-16T06:19:42Z</time>
      </trkpt>
      <trkpt lat="46.565" lon="5.62777">
        <ele>504</ele>
        <time>2022-07-16T06:19:48Z</time>
      </trkpt>
      <trkpt lat="46.56519" lon="5.62792">
        <ele>504.6</ele>
        <time>2022-07-16T06:19:51Z</time>
      </trkpt>
      <trkpt lat="46.56547" lon="5.62817">
        <ele>505</ele>
        <time>2022-07-16T06:19:56Z</time>
      </trkpt>
      <trkpt lat="46.56568" lon="5.62835">
        <ele>505.4</ele>
        <time>2022-07-16T06:20:00Z</time>
      </trkpt>
      <trkpt lat="46.56582" lon="5.62848">
        <ele>505.8</ele>
        <time>2022-07-16T06:20:03Z</time>
      </trkpt>
      <trkpt lat="46.56587" lon="5.62853">
        <ele>506</ele>
        <time>2022-07-16T06:20:04Z</time>
      </trkpt>
      <trkpt lat="46.56592" lon="5.62858">
        <ele>506.2</ele>
        <time>2022-07-16T06:20:05Z</time>
      </trkpt>
      <trkpt lat="46.566" lon="5.62868">
        <ele>506.6</ele>
        <time>2022-07-16T06:20:07Z</time>
      </trkpt>
      <trkpt lat="46.56612" lon="5.62883">
        <ele>506.8</ele>
        <time>2022-07-16T06:20:10Z</time>
      </trkpt>
      <trkpt lat="46.56631" lon="5.62912">
        <ele>507.6</ele>
        <time>2022-07-16T06:20:15Z</time>
      </trkpt>
      <trkpt lat="46.56637" lon="5.62924">
        <ele>507.8</ele>
        <time>2022-07-16T06:20:17Z</time>
      </trkpt>
      <trkpt lat="46.56651" lon="5.6295">
        <ele>508</ele>
        <time>2022-07-16T06:20:21Z</time>
      </trkpt>
      <trkpt lat="46.5666" lon="5.62974">
        <ele>508</ele>
        <time>2022-07-16T06:20:24Z</time>
      </trkpt>
      <trkpt lat="46.56672" lon="5.63018">
        <ele>508.2</ele>
        <time>2022-07-16T06:20:30Z</time>
      </trkpt>
      <trkpt lat="46.56674" lon="5.63026">
        <ele>508.2</ele>
        <time>2022-07-16T06:20:31Z</time>
      </trkpt>
      <trkpt lat="46.56676" lon="5.63033">
        <ele>508.4</ele>
        <time>2022-07-16T06:20:32Z</time>
      </trkpt>
      <trkpt lat="46.5668" lon="5.63049">
        <ele>508.6</ele>
        <time>2022-07-16T06:20:34Z</time>
      </trkpt>
      <trkpt lat="46.56684" lon="5.6308">
        <ele>509</ele>
        <time>2022-07-16T06:20:38Z</time>
      </trkpt>
      <trkpt lat="46.56686" lon="5.63102">
        <ele>509.4</ele>
        <time>2022-07-16T06:20:41Z</time>
      </trkpt>
      <trkpt lat="46.56685" lon="5.63116">
        <ele>509.6</ele>
        <time>2022-07-16T06:20:43Z</time>
      </trkpt>
      <trkpt lat="46.56684" lon="5.63123">
        <ele>509.8</ele>
        <time>2022-07-16T06:20:44Z</time>
      </trkpt>
      <trkpt lat="46.56677" lon="5.63149">
        <ele>510.8</ele>
        <time>2022-07-16T06:20:48Z</time>
      </trkpt>
      <trkpt lat="46.56675" lon="5.63161">
        <ele>511.6</ele>
        <time>2022-07-16T06:20:50Z</time>
      </trkpt>
      <trkpt lat="46.56674" lon="5.63167">
        <ele>511.8</ele>
        <time>2022-07-16T06:20:51Z</time>
      </trkpt>
      <trkpt lat="46.56672" lon="5.63205">
        <ele>513</ele>
        <time>2022-07-16T06:20:57Z</time>
      </trkpt>
      <trkpt lat="46.56675" lon="5.63229">
        <ele>514</ele>
        <time>2022-07-16T06:21:01Z</time>
      </trkpt>
      <trkpt lat="46.56676" lon="5.63235">
        <ele>514.4</ele>
        <time>2022-07-16T06:21:02Z</time>
      </trkpt>
      <trkpt lat="46.56679" lon="5.63241">
        <ele>514.4</ele>
        <time>2022-07-16T06:21:03Z</time>
      </trkpt>
      <trkpt lat="46.56681" lon="5.63245">
        <ele>514.6</ele>
        <time>2022-07-16T06:21:04Z</time>
      </trkpt>
      <trkpt lat="46.56687" lon="5.63254">
        <ele>515</ele>
        <time>2022-07-16T06:21:06Z</time>
      </trkpt>
      <trkpt lat="46.56692" lon="5.63258">
        <ele>515.2</ele>
        <time>2022-07-16T06:21:07Z</time>
      </trkpt>
      <trkpt lat="46.56696" lon="5.63261">
        <ele>515.4</ele>
        <time>2022-07-16T06:21:08Z</time>
      </trkpt>
      <trkpt lat="46.56727" lon="5.63275">
        <ele>516.2</ele>
        <time>2022-07-16T06:21:14Z</time>
      </trkpt>
      <trkpt lat="46.56733" lon="5.63277">
        <ele>516.2</ele>
        <time>2022-07-16T06:21:15Z</time>
      </trkpt>
      <trkpt lat="46.56767" lon="5.63292">
        <ele>516.2</ele>
        <time>2022-07-16T06:21:21Z</time>
      </trkpt>
      <trkpt lat="46.56817" lon="5.63316">
        <ele>515.6</ele>
        <time>2022-07-16T06:21:29Z</time>
      </trkpt>
      <trkpt lat="46.56851" lon="5.63346">
        <ele>515.8</ele>
        <time>2022-07-16T06:21:35Z</time>
      </trkpt>
      <trkpt lat="46.56896" lon="5.63401">
        <ele>515.8</ele>
        <time>2022-07-16T06:21:44Z</time>
      </trkpt>
      <trkpt lat="46.56901" lon="5.63407">
        <ele>516</ele>
        <time>2022-07-16T06:21:45Z</time>
      </trkpt>
      <trkpt lat="46.56946" lon="5.63456">
        <ele>516.6</ele>
        <time>2022-07-16T06:21:54Z</time>
      </trkpt>
      <trkpt lat="46.56989" lon="5.63487">
        <ele>516</ele>
        <time>2022-07-16T06:22:01Z</time>
      </trkpt>
      <trkpt lat="46.57039" lon="5.63522">
        <ele>515.6</ele>
        <time>2022-07-16T06:22:08Z</time>
      </trkpt>
      <trkpt lat="46.57083" lon="5.6356">
        <ele>515.8</ele>
        <time>2022-07-16T06:22:15Z</time>
      </trkpt>
      <trkpt lat="46.57122" lon="5.6358">
        <ele>516</ele>
        <time>2022-07-16T06:22:21Z</time>
      </trkpt>
      <trkpt lat="46.5716" lon="5.63588">
        <ele>516</ele>
        <time>2022-07-16T06:22:26Z</time>
      </trkpt>
      <trkpt lat="46.57208" lon="5.63586">
        <ele>515</ele>
        <time>2022-07-16T06:22:32Z</time>
      </trkpt>
      <trkpt lat="46.57247" lon="5.63596">
        <ele>514.2</ele>
        <time>2022-07-16T06:22:38Z</time>
      </trkpt>
      <trkpt lat="46.57262" lon="5.63602">
        <ele>514</ele>
        <time>2022-07-16T06:22:40Z</time>
      </trkpt>
      <trkpt lat="46.57301" lon="5.63614">
        <ele>514.2</ele>
        <time>2022-07-16T06:22:46Z</time>
      </trkpt>
      <trkpt lat="46.57329" lon="5.63619">
        <ele>514.6</ele>
        <time>2022-07-16T06:22:50Z</time>
      </trkpt>
      <trkpt lat="46.57341" lon="5.63626">
        <ele>514.6</ele>
        <time>2022-07-16T06:22:52Z</time>
      </trkpt>
      <trkpt lat="46.57348" lon="5.6364">
        <ele>514.6</ele>
        <time>2022-07-16T06:22:54Z</time>
      </trkpt>
      <trkpt lat="46.57351" lon="5.63648">
        <ele>514.6</ele>
        <time>2022-07-16T06:22:55Z</time>
      </trkpt>
      <trkpt lat="46.57362" lon="5.63685">
        <ele>515</ele>
        <time>2022-07-16T06:23:00Z</time>
      </trkpt>
      <trkpt lat="46.57364" lon="5.6369">
        <ele>515</ele>
        <time>2022-07-16T06:23:01Z</time>
      </trkpt>
      <trkpt lat="46.57364" lon="5.63691">
        <ele>515</ele>
        <time>2022-07-16T06:23:03Z</time>
      </trkpt>
      <trkpt lat="46.57364" lon="5.63691">
        <ele>515.2</ele>
        <time>2022-07-16T06:23:04Z</time>
      </trkpt>
      <trkpt lat="46.57365" lon="5.63694">
        <ele>515.4</ele>
        <time>2022-07-16T06:23:44Z</time>
      </trkpt>
      <trkpt lat="46.57369" lon="5.63704">
        <ele>515.4</ele>
        <time>2022-07-16T06:23:46Z</time>
      </trkpt>
      <trkpt lat="46.57379" lon="5.63736">
        <ele>515.6</ele>
        <time>2022-07-16T06:23:51Z</time>
      </trkpt>
      <trkpt lat="46.57396" lon="5.63795">
        <ele>515.6</ele>
        <time>2022-07-16T06:23:58Z</time>
      </trkpt>
      <trkpt lat="46.57409" lon="5.63836">
        <ele>516.2</ele>
        <time>2022-07-16T06:24:03Z</time>
      </trkpt>
      <trkpt lat="46.57412" lon="5.63844">
        <ele>516.2</ele>
        <time>2022-07-16T06:24:04Z</time>
      </trkpt>
      <trkpt lat="46.57419" lon="5.63859">
        <ele>516.6</ele>
        <time>2022-07-16T06:24:06Z</time>
      </trkpt>
      <trkpt lat="46.57422" lon="5.63867">
        <ele>516.6</ele>
        <time>2022-07-16T06:24:07Z</time>
      </trkpt>
      <trkpt lat="46.57439" lon="5.63892">
        <ele>516.6</ele>
        <time>2022-07-16T06:24:11Z</time>
      </trkpt>
      <trkpt lat="46.57481" lon="5.63946">
        <ele>516.4</ele>
        <time>2022-07-16T06:24:20Z</time>
      </trkpt>
      <trkpt lat="46.57486" lon="5.63951">
        <ele>516.4</ele>
        <time>2022-07-16T06:24:21Z</time>
      </trkpt>
      <trkpt lat="46.57495" lon="5.63958">
        <ele>516.8</ele>
        <time>2022-07-16T06:24:23Z</time>
      </trkpt>
      <trkpt lat="46.57498" lon="5.63962">
        <ele>517</ele>
        <time>2022-07-16T06:24:24Z</time>
      </trkpt>
      <trkpt lat="46.57499" lon="5.63968">
        <ele>517</ele>
        <time>2022-07-16T06:24:25Z</time>
      </trkpt>
      <trkpt lat="46.57499" lon="5.63975">
        <ele>517.4</ele>
        <time>2022-07-16T06:24:26Z</time>
      </trkpt>
      <trkpt lat="46.57498" lon="5.63982">
        <ele>517.6</ele>
        <time>2022-07-16T06:24:27Z</time>
      </trkpt>
      <trkpt lat="46.57492" lon="5.63992">
        <ele>517.8</ele>
        <time>2022-07-16T06:24:29Z</time>
      </trkpt>
      <trkpt lat="46.5749" lon="5.63997">
        <ele>518</ele>
        <time>2022-07-16T06:24:30Z</time>
      </trkpt>
      <trkpt lat="46.57488" lon="5.64004">
        <ele>518</ele>
        <time>2022-07-16T06:24:31Z</time>
      </trkpt>
      <trkpt lat="46.5749" lon="5.64009">
        <ele>518.2</ele>
        <time>2022-07-16T06:24:32Z</time>
      </trkpt>
      <trkpt lat="46.57493" lon="5.64012">
        <ele>518.2</ele>
        <time>2022-07-16T06:24:33Z</time>
      </trkpt>
      <trkpt lat="46.57502" lon="5.64024">
        <ele>518.2</ele>
        <time>2022-07-16T06:24:35Z</time>
      </trkpt>
      <trkpt lat="46.57506" lon="5.64031">
        <ele>518.2</ele>
        <time>2022-07-16T06:24:36Z</time>
      </trkpt>
      <trkpt lat="46.57526" lon="5.64065">
        <ele>518</ele>
        <time>2022-07-16T06:24:41Z</time>
      </trkpt>
      <trkpt lat="46.57536" lon="5.64077">
        <ele>518</ele>
        <time>2022-07-16T06:24:43Z</time>
      </trkpt>
      <trkpt lat="46.57541" lon="5.6408">
        <ele>518</ele>
        <time>2022-07-16T06:24:44Z</time>
      </trkpt>
      <trkpt lat="46.57546" lon="5.64082">
        <ele>518</ele>
        <time>2022-07-16T06:24:45Z</time>
      </trkpt>
      <trkpt lat="46.57571" lon="5.64087">
        <ele>518</ele>
        <time>2022-07-16T06:24:49Z</time>
      </trkpt>
      <trkpt lat="46.57582" lon="5.6409">
        <ele>518.2</ele>
        <time>2022-07-16T06:24:51Z</time>
      </trkpt>
      <trkpt lat="46.57594" lon="5.64096">
        <ele>518.2</ele>
        <time>2022-07-16T06:24:53Z</time>
      </trkpt>
      <trkpt lat="46.576" lon="5.641">
        <ele>518.2</ele>
        <time>2022-07-16T06:24:54Z</time>
      </trkpt>
      <trkpt lat="46.5764" lon="5.64129">
        <ele>518.4</ele>
        <time>2022-07-16T06:25:01Z</time>
      </trkpt>
      <trkpt lat="46.57662" lon="5.64144">
        <ele>518.6</ele>
        <time>2022-07-16T06:25:05Z</time>
      </trkpt>
      <trkpt lat="46.57692" lon="5.64165">
        <ele>518.4</ele>
        <time>2022-07-16T06:25:10Z</time>
      </trkpt>
      <trkpt lat="46.57745" lon="5.64196">
        <ele>518.6</ele>
        <time>2022-07-16T06:25:19Z</time>
      </trkpt>
      <trkpt lat="46.57793" lon="5.64219">
        <ele>519.4</ele>
        <time>2022-07-16T06:25:27Z</time>
      </trkpt>
      <trkpt lat="46.57799" lon="5.64222">
        <ele>519.8</ele>
        <time>2022-07-16T06:25:28Z</time>
      </trkpt>
      <trkpt lat="46.57838" lon="5.64243">
        <ele>521</ele>
        <time>2022-07-16T06:25:35Z</time>
      </trkpt>
      <trkpt lat="46.57843" lon="5.64246">
        <ele>521.2</ele>
        <time>2022-07-16T06:25:36Z</time>
      </trkpt>
      <trkpt lat="46.57876" lon="5.64263">
        <ele>522</ele>
        <time>2022-07-16T06:25:42Z</time>
      </trkpt>
      <trkpt lat="46.57897" lon="5.64276">
        <ele>522.6</ele>
        <time>2022-07-16T06:25:46Z</time>
      </trkpt>
      <trkpt lat="46.57908" lon="5.64282">
        <ele>523</ele>
        <time>2022-07-16T06:25:48Z</time>
      </trkpt>
      <trkpt lat="46.57949" lon="5.64306">
        <ele>524.2</ele>
        <time>2022-07-16T06:25:56Z</time>
      </trkpt>
      <trkpt lat="46.57954" lon="5.64309">
        <ele>524.2</ele>
        <time>2022-07-16T06:25:57Z</time>
      </trkpt>
      <trkpt lat="46.57979" lon="5.64324">
        <ele>525.2</ele>
        <time>2022-07-16T06:26:02Z</time>
      </trkpt>
      <trkpt lat="46.57999" lon="5.64337">
        <ele>525.8</ele>
        <time>2022-07-16T06:26:06Z</time>
      </trkpt>
      <trkpt lat="46.58022" lon="5.6435">
        <ele>526.2</ele>
        <time>2022-07-16T06:26:10Z</time>
      </trkpt>
      <trkpt lat="46.58053" lon="5.64369">
        <ele>527</ele>
        <time>2022-07-16T06:26:16Z</time>
      </trkpt>
      <trkpt lat="46.58058" lon="5.64372">
        <ele>527.2</ele>
        <time>2022-07-16T06:26:17Z</time>
      </trkpt>
      <trkpt lat="46.58097" lon="5.64395">
        <ele>528.2</ele>
        <time>2022-07-16T06:26:24Z</time>
      </trkpt>
      <trkpt lat="46.58108" lon="5.64402">
        <ele>528.6</ele>
        <time>2022-07-16T06:26:26Z</time>
      </trkpt>
      <trkpt lat="46.58136" lon="5.64418">
        <ele>529.4</ele>
        <time>2022-07-16T06:26:31Z</time>
      </trkpt>
      <trkpt lat="46.58153" lon="5.64428">
        <ele>530</ele>
        <time>2022-07-16T06:26:35Z</time>
      </trkpt>
      <trkpt lat="46.58162" lon="5.64433">
        <ele>530.6</ele>
        <time>2022-07-16T06:26:37Z</time>
      </trkpt>
      <trkpt lat="46.58179" lon="5.64445">
        <ele>531</ele>
        <time>2022-07-16T06:26:41Z</time>
      </trkpt>
      <trkpt lat="46.58202" lon="5.64463">
        <ele>531.8</ele>
        <time>2022-07-16T06:26:46Z</time>
      </trkpt>
      <trkpt lat="46.5821" lon="5.64473">
        <ele>531.8</ele>
        <time>2022-07-16T06:26:48Z</time>
      </trkpt>
      <trkpt lat="46.58233" lon="5.6451">
        <ele>532.8</ele>
        <time>2022-07-16T06:26:54Z</time>
      </trkpt>
      <trkpt lat="46.58237" lon="5.64518">
        <ele>532.8</ele>
        <time>2022-07-16T06:26:55Z</time>
      </trkpt>
      <trkpt lat="46.58264" lon="5.64553">
        <ele>533.2</ele>
        <time>2022-07-16T06:27:01Z</time>
      </trkpt>
      <trkpt lat="46.58308" lon="5.64599">
        <ele>533.2</ele>
        <time>2022-07-16T06:27:10Z</time>
      </trkpt>
      <trkpt lat="46.58318" lon="5.64607">
        <ele>533.4</ele>
        <time>2022-07-16T06:27:12Z</time>
      </trkpt>
      <trkpt lat="46.58337" lon="5.64625">
        <ele>533.8</ele>
        <time>2022-07-16T06:27:16Z</time>
      </trkpt>
      <trkpt lat="46.58361" lon="5.64647">
        <ele>535</ele>
        <time>2022-07-16T06:27:21Z</time>
      </trkpt>
      <trkpt lat="46.58366" lon="5.64651">
        <ele>535</ele>
        <time>2022-07-16T06:27:22Z</time>
      </trkpt>
      <trkpt lat="46.5839" lon="5.64671">
        <ele>536</ele>
        <time>2022-07-16T06:27:27Z</time>
      </trkpt>
      <trkpt lat="46.58409" lon="5.64685">
        <ele>537.2</ele>
        <time>2022-07-16T06:27:31Z</time>
      </trkpt>
      <trkpt lat="46.58429" lon="5.64698">
        <ele>538.4</ele>
        <time>2022-07-16T06:27:35Z</time>
      </trkpt>
      <trkpt lat="46.58456" lon="5.64715">
        <ele>539.2</ele>
        <time>2022-07-16T06:27:40Z</time>
      </trkpt>
      <trkpt lat="46.58482" lon="5.64734">
        <ele>539.4</ele>
        <time>2022-07-16T06:27:44Z</time>
      </trkpt>
      <trkpt lat="46.58514" lon="5.6476">
        <ele>539</ele>
        <time>2022-07-16T06:27:49Z</time>
      </trkpt>
      <trkpt lat="46.58521" lon="5.64763">
        <ele>539</ele>
        <time>2022-07-16T06:27:50Z</time>
      </trkpt>
      <trkpt lat="46.58528" lon="5.64764">
        <ele>538.8</ele>
        <time>2022-07-16T06:27:51Z</time>
      </trkpt>
      <trkpt lat="46.58548" lon="5.64761">
        <ele>538.6</ele>
        <time>2022-07-16T06:27:54Z</time>
      </trkpt>
      <trkpt lat="46.58577" lon="5.64756">
        <ele>538.2</ele>
        <time>2022-07-16T06:27:58Z</time>
      </trkpt>
      <trkpt lat="46.58582" lon="5.64756">
        <ele>538.2</ele>
        <time>2022-07-16T06:27:59Z</time>
      </trkpt>
      <trkpt lat="46.58623" lon="5.64763">
        <ele>538.6</ele>
        <time>2022-07-16T06:28:05Z</time>
      </trkpt>
      <trkpt lat="46.58629" lon="5.64763">
        <ele>538.8</ele>
        <time>2022-07-16T06:28:06Z</time>
      </trkpt>
      <trkpt lat="46.58648" lon="5.64759">
        <ele>539.8</ele>
        <time>2022-07-16T06:28:09Z</time>
      </trkpt>
      <trkpt lat="46.58654" lon="5.64759">
        <ele>540.2</ele>
        <time>2022-07-16T06:28:10Z</time>
      </trkpt>
      <trkpt lat="46.58661" lon="5.64761">
        <ele>540.2</ele>
        <time>2022-07-16T06:28:11Z</time>
      </trkpt>
      <trkpt lat="46.58675" lon="5.64767">
        <ele>540.4</ele>
        <time>2022-07-16T06:28:13Z</time>
      </trkpt>
      <trkpt lat="46.58689" lon="5.64777">
        <ele>540.4</ele>
        <time>2022-07-16T06:28:15Z</time>
      </trkpt>
      <trkpt lat="46.58737" lon="5.648">
        <ele>539</ele>
        <time>2022-07-16T06:28:21Z</time>
      </trkpt>
      <trkpt lat="46.58761" lon="5.64799">
        <ele>538.6</ele>
        <time>2022-07-16T06:28:24Z</time>
      </trkpt>
      <trkpt lat="46.58768" lon="5.64797">
        <ele>538.4</ele>
        <time>2022-07-16T06:28:25Z</time>
      </trkpt>
      <trkpt lat="46.58804" lon="5.64777">
        <ele>538</ele>
        <time>2022-07-16T06:28:30Z</time>
      </trkpt>
      <trkpt lat="46.58835" lon="5.64762">
        <ele>537.6</ele>
        <time>2022-07-16T06:28:34Z</time>
      </trkpt>
      <trkpt lat="46.58851" lon="5.64752">
        <ele>537</ele>
        <time>2022-07-16T06:28:36Z</time>
      </trkpt>
      <trkpt lat="46.58859" lon="5.64746">
        <ele>536.6</ele>
        <time>2022-07-16T06:28:37Z</time>
      </trkpt>
      <trkpt lat="46.58875" lon="5.64737">
        <ele>536.2</ele>
        <time>2022-07-16T06:28:39Z</time>
      </trkpt>
      <trkpt lat="46.58883" lon="5.64735">
        <ele>536</ele>
        <time>2022-07-16T06:28:40Z</time>
      </trkpt>
      <trkpt lat="46.58892" lon="5.64736">
        <ele>535.8</ele>
        <time>2022-07-16T06:28:41Z</time>
      </trkpt>
      <trkpt lat="46.58908" lon="5.64744">
        <ele>535.4</ele>
        <time>2022-07-16T06:28:43Z</time>
      </trkpt>
      <trkpt lat="46.58933" lon="5.64758">
        <ele>534.2</ele>
        <time>2022-07-16T06:28:46Z</time>
      </trkpt>
      <trkpt lat="46.5895" lon="5.64762">
        <ele>533.6</ele>
        <time>2022-07-16T06:28:48Z</time>
      </trkpt>
      <trkpt lat="46.58968" lon="5.64758">
        <ele>533.2</ele>
        <time>2022-07-16T06:28:50Z</time>
      </trkpt>
      <trkpt lat="46.58975" lon="5.64755">
        <ele>533</ele>
        <time>2022-07-16T06:28:51Z</time>
      </trkpt>
      <trkpt lat="46.58983" lon="5.64751">
        <ele>533</ele>
        <time>2022-07-16T06:28:52Z</time>
      </trkpt>
      <trkpt lat="46.59004" lon="5.64733">
        <ele>533</ele>
        <time>2022-07-16T06:28:55Z</time>
      </trkpt>
      <trkpt lat="46.5905" lon="5.64693">
        <ele>533.6</ele>
        <time>2022-07-16T06:29:02Z</time>
      </trkpt>
      <trkpt lat="46.59096" lon="5.64661">
        <ele>534.2</ele>
        <time>2022-07-16T06:29:09Z</time>
      </trkpt>
      <trkpt lat="46.59119" lon="5.64646">
        <ele>535.4</ele>
        <time>2022-07-16T06:29:13Z</time>
      </trkpt>
      <trkpt lat="46.59134" lon="5.64637">
        <ele>536</ele>
        <time>2022-07-16T06:29:16Z</time>
      </trkpt>
      <trkpt lat="46.59146" lon="5.64629">
        <ele>536.6</ele>
        <time>2022-07-16T06:29:18Z</time>
      </trkpt>
      <trkpt lat="46.59166" lon="5.64615">
        <ele>537.6</ele>
        <time>2022-07-16T06:29:22Z</time>
      </trkpt>
      <trkpt lat="46.5917" lon="5.64611">
        <ele>538</ele>
        <time>2022-07-16T06:29:23Z</time>
      </trkpt>
      <trkpt lat="46.59175" lon="5.64607">
        <ele>538.2</ele>
        <time>2022-07-16T06:29:24Z</time>
      </trkpt>
      <trkpt lat="46.5919" lon="5.64595">
        <ele>538.8</ele>
        <time>2022-07-16T06:29:27Z</time>
      </trkpt>
      <trkpt lat="46.592" lon="5.64591">
        <ele>539</ele>
        <time>2022-07-16T06:29:29Z</time>
      </trkpt>
      <trkpt lat="46.59205" lon="5.64591">
        <ele>539</ele>
        <time>2022-07-16T06:29:30Z</time>
      </trkpt>
      <trkpt lat="46.59244" lon="5.6459">
        <ele>540.2</ele>
        <time>2022-07-16T06:29:37Z</time>
      </trkpt>
      <trkpt lat="46.59271" lon="5.64581">
        <ele>541.4</ele>
        <time>2022-07-16T06:29:42Z</time>
      </trkpt>
      <trkpt lat="46.59283" lon="5.64577">
        <ele>541.6</ele>
        <time>2022-07-16T06:29:44Z</time>
      </trkpt>
      <trkpt lat="46.59323" lon="5.64563">
        <ele>542.2</ele>
        <time>2022-07-16T06:29:51Z</time>
      </trkpt>
      <trkpt lat="46.59328" lon="5.64562">
        <ele>542.4</ele>
        <time>2022-07-16T06:29:52Z</time>
      </trkpt>
      <trkpt lat="46.59334" lon="5.64562">
        <ele>542.6</ele>
        <time>2022-07-16T06:29:53Z</time>
      </trkpt>
      <trkpt lat="46.59351" lon="5.64562">
        <ele>542.8</ele>
        <time>2022-07-16T06:29:56Z</time>
      </trkpt>
      <trkpt lat="46.59367" lon="5.64566">
        <ele>543.2</ele>
        <time>2022-07-16T06:29:59Z</time>
      </trkpt>
      <trkpt lat="46.59383" lon="5.64572">
        <ele>543.6</ele>
        <time>2022-07-16T06:30:02Z</time>
      </trkpt>
      <trkpt lat="46.5942" lon="5.64583">
        <ele>544.4</ele>
        <time>2022-07-16T06:30:09Z</time>
      </trkpt>
      <trkpt lat="46.59426" lon="5.64584">
        <ele>544.6</ele>
        <time>2022-07-16T06:30:10Z</time>
      </trkpt>
      <trkpt lat="46.59457" lon="5.64595">
        <ele>545.8</ele>
        <time>2022-07-16T06:30:16Z</time>
      </trkpt>
      <trkpt lat="46.5948" lon="5.64601">
        <ele>546.4</ele>
        <time>2022-07-16T06:30:20Z</time>
      </trkpt>
      <trkpt lat="46.59492" lon="5.64604">
        <ele>547</ele>
        <time>2022-07-16T06:30:22Z</time>
      </trkpt>
      <trkpt lat="46.59534" lon="5.64615">
        <ele>547.2</ele>
        <time>2022-07-16T06:30:29Z</time>
      </trkpt>
      <trkpt lat="46.59583" lon="5.64632">
        <ele>546.8</ele>
        <time>2022-07-16T06:30:37Z</time>
      </trkpt>
      <trkpt lat="46.59619" lon="5.64644">
        <ele>547</ele>
        <time>2022-07-16T06:30:43Z</time>
      </trkpt>
      <trkpt lat="46.5963" lon="5.64645">
        <ele>547.4</ele>
        <time>2022-07-16T06:30:45Z</time>
      </trkpt>
      <trkpt lat="46.59642" lon="5.64643">
        <ele>548</ele>
        <time>2022-07-16T06:30:47Z</time>
      </trkpt>
      <trkpt lat="46.59647" lon="5.64641">
        <ele>548</ele>
        <time>2022-07-16T06:30:48Z</time>
      </trkpt>
      <trkpt lat="46.59658" lon="5.64635">
        <ele>548.6</ele>
        <time>2022-07-16T06:30:50Z</time>
      </trkpt>
      <trkpt lat="46.59669" lon="5.64628">
        <ele>549</ele>
        <time>2022-07-16T06:30:52Z</time>
      </trkpt>
      <trkpt lat="46.59688" lon="5.64611">
        <ele>550</ele>
        <time>2022-07-16T06:30:56Z</time>
      </trkpt>
      <trkpt lat="46.59693" lon="5.64607">
        <ele>550.2</ele>
        <time>2022-07-16T06:30:57Z</time>
      </trkpt>
      <trkpt lat="46.5971" lon="5.6459">
        <ele>551.2</ele>
        <time>2022-07-16T06:31:01Z</time>
      </trkpt>
      <trkpt lat="46.59718" lon="5.64585">
        <ele>551.6</ele>
        <time>2022-07-16T06:31:03Z</time>
      </trkpt>
      <trkpt lat="46.59726" lon="5.64583">
        <ele>552.2</ele>
        <time>2022-07-16T06:31:05Z</time>
      </trkpt>
      <trkpt lat="46.59734" lon="5.64574">
        <ele>552.4</ele>
        <time>2022-07-16T06:31:07Z</time>
      </trkpt>
      <trkpt lat="46.59737" lon="5.64557">
        <ele>552.6</ele>
        <time>2022-07-16T06:31:09Z</time>
      </trkpt>
      <trkpt lat="46.5974" lon="5.6454">
        <ele>552.8</ele>
        <time>2022-07-16T06:31:11Z</time>
      </trkpt>
      <trkpt lat="46.59752" lon="5.64504">
        <ele>552.8</ele>
        <time>2022-07-16T06:31:15Z</time>
      </trkpt>
      <trkpt lat="46.59755" lon="5.64495">
        <ele>552.8</ele>
        <time>2022-07-16T06:31:16Z</time>
      </trkpt>
      <trkpt lat="46.59784" lon="5.64436">
        <ele>551.8</ele>
        <time>2022-07-16T06:31:22Z</time>
      </trkpt>
      <trkpt lat="46.5979" lon="5.64426">
        <ele>551.2</ele>
        <time>2022-07-16T06:31:23Z</time>
      </trkpt>
      <trkpt lat="46.59808" lon="5.64395">
        <ele>550.2</ele>
        <time>2022-07-16T06:31:26Z</time>
      </trkpt>
      <trkpt lat="46.59813" lon="5.64383">
        <ele>549.8</ele>
        <time>2022-07-16T06:31:27Z</time>
      </trkpt>
      <trkpt lat="46.59824" lon="5.6436">
        <ele>549</ele>
        <time>2022-07-16T06:31:29Z</time>
      </trkpt>
      <trkpt lat="46.59836" lon="5.64336">
        <ele>547.6</ele>
        <time>2022-07-16T06:31:31Z</time>
      </trkpt>
      <trkpt lat="46.59848" lon="5.64313">
        <ele>546.8</ele>
        <time>2022-07-16T06:31:33Z</time>
      </trkpt>
      <trkpt lat="46.59854" lon="5.64301">
        <ele>546.6</ele>
        <time>2022-07-16T06:31:34Z</time>
      </trkpt>
      <trkpt lat="46.59877" lon="5.64254">
        <ele>545.4</ele>
        <time>2022-07-16T06:31:38Z</time>
      </trkpt>
      <trkpt lat="46.59883" lon="5.64242">
        <ele>544.6</ele>
        <time>2022-07-16T06:31:39Z</time>
      </trkpt>
      <trkpt lat="46.59889" lon="5.64231">
        <ele>543.8</ele>
        <time>2022-07-16T06:31:40Z</time>
      </trkpt>
      <trkpt lat="46.59912" lon="5.64188">
        <ele>542.6</ele>
        <time>2022-07-16T06:31:44Z</time>
      </trkpt>
      <trkpt lat="46.59934" lon="5.64147">
        <ele>542.2</ele>
        <time>2022-07-16T06:31:48Z</time>
      </trkpt>
      <trkpt lat="46.59953" lon="5.64108">
        <ele>542.2</ele>
        <time>2022-07-16T06:31:52Z</time>
      </trkpt>
      <trkpt lat="46.59976" lon="5.64062">
        <ele>542.8</ele>
        <time>2022-07-16T06:31:57Z</time>
      </trkpt>
      <trkpt lat="46.60012" lon="5.63992">
        <ele>543.6</ele>
        <time>2022-07-16T06:32:05Z</time>
      </trkpt>
      <trkpt lat="46.60021" lon="5.63975">
        <ele>543.6</ele>
        <time>2022-07-16T06:32:07Z</time>
      </trkpt>
      <trkpt lat="46.6005" lon="5.63918">
        <ele>543</ele>
        <time>2022-07-16T06:32:14Z</time>
      </trkpt>
      <trkpt lat="46.60055" lon="5.63905">
        <ele>542.8</ele>
        <time>2022-07-16T06:32:16Z</time>
      </trkpt>
      <trkpt lat="46.60054" lon="5.63893">
        <ele>542.8</ele>
        <time>2022-07-16T06:32:18Z</time>
      </trkpt>
      <trkpt lat="46.6004" lon="5.63878">
        <ele>542.6</ele>
        <time>2022-07-16T06:32:21Z</time>
      </trkpt>
      <trkpt lat="46.60034" lon="5.63872">
        <ele>542.6</ele>
        <time>2022-07-16T06:32:22Z</time>
      </trkpt>
      <trkpt lat="46.60004" lon="5.63842">
        <ele>542</ele>
        <time>2022-07-16T06:32:27Z</time>
      </trkpt>
      <trkpt lat="46.59997" lon="5.63836">
        <ele>541.4</ele>
        <time>2022-07-16T06:32:28Z</time>
      </trkpt>
      <trkpt lat="46.5997" lon="5.63809">
        <ele>540.6</ele>
        <time>2022-07-16T06:32:32Z</time>
      </trkpt>
      <trkpt lat="46.59963" lon="5.63802">
        <ele>540.4</ele>
        <time>2022-07-16T06:32:33Z</time>
      </trkpt>
      <trkpt lat="46.59927" lon="5.63763">
        <ele>540.2</ele>
        <time>2022-07-16T06:32:38Z</time>
      </trkpt>
      <trkpt lat="46.59906" lon="5.63725">
        <ele>539.2</ele>
        <time>2022-07-16T06:32:42Z</time>
      </trkpt>
      <trkpt lat="46.59902" lon="5.63715">
        <ele>539</ele>
        <time>2022-07-16T06:32:43Z</time>
      </trkpt>
      <trkpt lat="46.59883" lon="5.63664">
        <ele>538.4</ele>
        <time>2022-07-16T06:32:48Z</time>
      </trkpt>
      <trkpt lat="46.59876" lon="5.63643">
        <ele>538.2</ele>
        <time>2022-07-16T06:32:50Z</time>
      </trkpt>
      <trkpt lat="46.59846" lon="5.63571">
        <ele>538.8</ele>
        <time>2022-07-16T06:32:58Z</time>
      </trkpt>
      <trkpt lat="46.59835" lon="5.63559">
        <ele>539</ele>
        <time>2022-07-16T06:33:00Z</time>
      </trkpt>
      <trkpt lat="46.59823" lon="5.6355">
        <ele>539.2</ele>
        <time>2022-07-16T06:33:02Z</time>
      </trkpt>
      <trkpt lat="46.59816" lon="5.63546">
        <ele>539.4</ele>
        <time>2022-07-16T06:33:03Z</time>
      </trkpt>
      <trkpt lat="46.59776" lon="5.63519">
        <ele>540</ele>
        <time>2022-07-16T06:33:09Z</time>
      </trkpt>
      <trkpt lat="46.59763" lon="5.63505">
        <ele>540.4</ele>
        <time>2022-07-16T06:33:11Z</time>
      </trkpt>
      <trkpt lat="46.59752" lon="5.63487">
        <ele>540</ele>
        <time>2022-07-16T06:33:13Z</time>
      </trkpt>
      <trkpt lat="46.59744" lon="5.63463">
        <ele>540</ele>
        <time>2022-07-16T06:33:15Z</time>
      </trkpt>
      <trkpt lat="46.59742" lon="5.63451">
        <ele>539.8</ele>
        <time>2022-07-16T06:33:16Z</time>
      </trkpt>
      <trkpt lat="46.59741" lon="5.63438">
        <ele>539.6</ele>
        <time>2022-07-16T06:33:17Z</time>
      </trkpt>
      <trkpt lat="46.59743" lon="5.63411">
        <ele>539</ele>
        <time>2022-07-16T06:33:19Z</time>
      </trkpt>
      <trkpt lat="46.59749" lon="5.63372">
        <ele>537.8</ele>
        <time>2022-07-16T06:33:22Z</time>
      </trkpt>
      <trkpt lat="46.59755" lon="5.6333">
        <ele>536.8</ele>
        <time>2022-07-16T06:33:25Z</time>
      </trkpt>
      <trkpt lat="46.59756" lon="5.63316">
        <ele>535.8</ele>
        <time>2022-07-16T06:33:26Z</time>
      </trkpt>
      <trkpt lat="46.59756" lon="5.63302">
        <ele>535.4</ele>
        <time>2022-07-16T06:33:27Z</time>
      </trkpt>
      <trkpt lat="46.59756" lon="5.63288">
        <ele>535</ele>
        <time>2022-07-16T06:33:28Z</time>
      </trkpt>
      <trkpt lat="46.59756" lon="5.63274">
        <ele>534.4</ele>
        <time>2022-07-16T06:33:29Z</time>
      </trkpt>
      <trkpt lat="46.59755" lon="5.6326">
        <ele>534.2</ele>
        <time>2022-07-16T06:33:30Z</time>
      </trkpt>
      <trkpt lat="46.5975" lon="5.63206">
        <ele>533.2</ele>
        <time>2022-07-16T06:33:34Z</time>
      </trkpt>
      <trkpt lat="46.59747" lon="5.63153">
        <ele>532.8</ele>
        <time>2022-07-16T06:33:38Z</time>
      </trkpt>
      <trkpt lat="46.5975" lon="5.63106">
        <ele>532.6</ele>
        <time>2022-07-16T06:33:42Z</time>
      </trkpt>
      <trkpt lat="46.59752" lon="5.63062">
        <ele>533</ele>
        <time>2022-07-16T06:33:46Z</time>
      </trkpt>
      <trkpt lat="46.5975" lon="5.63052">
        <ele>533</ele>
        <time>2022-07-16T06:33:47Z</time>
      </trkpt>
      <trkpt lat="46.59747" lon="5.63043">
        <ele>533</ele>
        <time>2022-07-16T06:33:48Z</time>
      </trkpt>
      <trkpt lat="46.59741" lon="5.63037">
        <ele>533</ele>
        <time>2022-07-16T06:33:49Z</time>
      </trkpt>
      <trkpt lat="46.59733" lon="5.63034">
        <ele>533</ele>
        <time>2022-07-16T06:33:50Z</time>
      </trkpt>
      <trkpt lat="46.59718" lon="5.63031">
        <ele>533</ele>
        <time>2022-07-16T06:33:52Z</time>
      </trkpt>
      <trkpt lat="46.59688" lon="5.63021">
        <ele>532</ele>
        <time>2022-07-16T06:33:56Z</time>
      </trkpt>
      <trkpt lat="46.59681" lon="5.63017">
        <ele>532</ele>
        <time>2022-07-16T06:33:57Z</time>
      </trkpt>
      <trkpt lat="46.59668" lon="5.63007">
        <ele>531.6</ele>
        <time>2022-07-16T06:33:59Z</time>
      </trkpt>
      <trkpt lat="46.59663" lon="5.63001">
        <ele>531.6</ele>
        <time>2022-07-16T06:34:00Z</time>
      </trkpt>
      <trkpt lat="46.59659" lon="5.62994">
        <ele>531.4</ele>
        <time>2022-07-16T06:34:01Z</time>
      </trkpt>
      <trkpt lat="46.59652" lon="5.62981">
        <ele>531.4</ele>
        <time>2022-07-16T06:34:03Z</time>
      </trkpt>
      <trkpt lat="46.5965" lon="5.62973">
        <ele>531.4</ele>
        <time>2022-07-16T06:34:04Z</time>
      </trkpt>
      <trkpt lat="46.5965" lon="5.62966">
        <ele>531.4</ele>
        <time>2022-07-16T06:34:05Z</time>
      </trkpt>
      <trkpt lat="46.59651" lon="5.62939">
        <ele>531.6</ele>
        <time>2022-07-16T06:34:09Z</time>
      </trkpt>
      <trkpt lat="46.59657" lon="5.62929">
        <ele>531.6</ele>
        <time>2022-07-16T06:34:12Z</time>
      </trkpt>
      <trkpt lat="46.59682" lon="5.62924">
        <ele>531.6</ele>
        <time>2022-07-16T06:34:17Z</time>
      </trkpt>
      <trkpt lat="46.5971" lon="5.62922">
        <ele>531.2</ele>
        <time>2022-07-16T06:34:21Z</time>
      </trkpt>
      <trkpt lat="46.59717" lon="5.62921">
        <ele>531</ele>
        <time>2022-07-16T06:34:22Z</time>
      </trkpt>
      <trkpt lat="46.59749" lon="5.62916">
        <ele>530</ele>
        <time>2022-07-16T06:34:26Z</time>
      </trkpt>
      <trkpt lat="46.59775" lon="5.62912">
        <ele>529</ele>
        <time>2022-07-16T06:34:29Z</time>
      </trkpt>
      <trkpt lat="46.59793" lon="5.62908">
        <ele>528.6</ele>
        <time>2022-07-16T06:34:31Z</time>
      </trkpt>
      <trkpt lat="46.59846" lon="5.62901">
        <ele>527.8</ele>
        <time>2022-07-16T06:34:37Z</time>
      </trkpt>
      <trkpt lat="46.59881" lon="5.62893">
        <ele>527.6</ele>
        <time>2022-07-16T06:34:41Z</time>
      </trkpt>
      <trkpt lat="46.59899" lon="5.62888">
        <ele>527.2</ele>
        <time>2022-07-16T06:34:43Z</time>
      </trkpt>
      <trkpt lat="46.59933" lon="5.62876">
        <ele>526.2</ele>
        <time>2022-07-16T06:34:47Z</time>
      </trkpt>
      <trkpt lat="46.59985" lon="5.62858">
        <ele>525.4</ele>
        <time>2022-07-16T06:34:53Z</time>
      </trkpt>
      <trkpt lat="46.59992" lon="5.62857">
        <ele>525.2</ele>
        <time>2022-07-16T06:34:54Z</time>
      </trkpt>
      <trkpt lat="46.60047" lon="5.62839">
        <ele>524.8</ele>
        <time>2022-07-16T06:35:01Z</time>
      </trkpt>
      <trkpt lat="46.60092" lon="5.62825">
        <ele>525.4</ele>
        <time>2022-07-16T06:35:07Z</time>
      </trkpt>
      <trkpt lat="46.60148" lon="5.62806">
        <ele>526</ele>
        <time>2022-07-16T06:35:15Z</time>
      </trkpt>
      <trkpt lat="46.60175" lon="5.62797">
        <ele>526.2</ele>
        <time>2022-07-16T06:35:19Z</time>
      </trkpt>
      <trkpt lat="46.60194" lon="5.6279">
        <ele>526.4</ele>
        <time>2022-07-16T06:35:22Z</time>
      </trkpt>
      <trkpt lat="46.60238" lon="5.62776">
        <ele>527</ele>
        <time>2022-07-16T06:35:29Z</time>
      </trkpt>
      <trkpt lat="46.60257" lon="5.6277">
        <ele>527.4</ele>
        <time>2022-07-16T06:35:32Z</time>
      </trkpt>
      <trkpt lat="46.60281" lon="5.62762">
        <ele>527.4</ele>
        <time>2022-07-16T06:35:36Z</time>
      </trkpt>
      <trkpt lat="46.60338" lon="5.62743">
        <ele>527.8</ele>
        <time>2022-07-16T06:35:45Z</time>
      </trkpt>
      <trkpt lat="46.60392" lon="5.62725">
        <ele>527.8</ele>
        <time>2022-07-16T06:35:53Z</time>
      </trkpt>
      <trkpt lat="46.60399" lon="5.62723">
        <ele>527.8</ele>
        <time>2022-07-16T06:35:54Z</time>
      </trkpt>
      <trkpt lat="46.60453" lon="5.62705">
        <ele>527.2</ele>
        <time>2022-07-16T06:36:02Z</time>
      </trkpt>
      <trkpt lat="46.6046" lon="5.62704">
        <ele>526.8</ele>
        <time>2022-07-16T06:36:03Z</time>
      </trkpt>
      <trkpt lat="46.60493" lon="5.62692">
        <ele>526</ele>
        <time>2022-07-16T06:36:08Z</time>
      </trkpt>
      <trkpt lat="46.60507" lon="5.62687">
        <ele>526</ele>
        <time>2022-07-16T06:36:10Z</time>
      </trkpt>
      <trkpt lat="46.60549" lon="5.62675">
        <ele>525.8</ele>
        <time>2022-07-16T06:36:16Z</time>
      </trkpt>
      <trkpt lat="46.6057" lon="5.62667">
        <ele>525.2</ele>
        <time>2022-07-16T06:36:19Z</time>
      </trkpt>
      <trkpt lat="46.60592" lon="5.6266">
        <ele>525</ele>
        <time>2022-07-16T06:36:22Z</time>
      </trkpt>
      <trkpt lat="46.60647" lon="5.62642">
        <ele>524.4</ele>
        <time>2022-07-16T06:36:30Z</time>
      </trkpt>
      <trkpt lat="46.6066" lon="5.62638">
        <ele>524.2</ele>
        <time>2022-07-16T06:36:32Z</time>
      </trkpt>
      <trkpt lat="46.6068" lon="5.62634">
        <ele>524.2</ele>
        <time>2022-07-16T06:36:35Z</time>
      </trkpt>
      <trkpt lat="46.60691" lon="5.62635">
        <ele>524.4</ele>
        <time>2022-07-16T06:36:37Z</time>
      </trkpt>
      <trkpt lat="46.60701" lon="5.6264">
        <ele>524.4</ele>
        <time>2022-07-16T06:36:39Z</time>
      </trkpt>
      <trkpt lat="46.60709" lon="5.62648">
        <ele>524.6</ele>
        <time>2022-07-16T06:36:41Z</time>
      </trkpt>
      <trkpt lat="46.60715" lon="5.62653">
        <ele>525</ele>
        <time>2022-07-16T06:36:44Z</time>
      </trkpt>
      <trkpt lat="46.60716" lon="5.62654">
        <ele>525.8</ele>
        <time>2022-07-16T06:36:47Z</time>
      </trkpt>
      <trkpt lat="46.60721" lon="5.62655">
        <ele>526.4</ele>
        <time>2022-07-16T06:36:52Z</time>
      </trkpt>
      <trkpt lat="46.60731" lon="5.62642">
        <ele>526.6</ele>
        <time>2022-07-16T06:36:56Z</time>
      </trkpt>
      <trkpt lat="46.60744" lon="5.62614">
        <ele>526.6</ele>
        <time>2022-07-16T06:37:00Z</time>
      </trkpt>
      <trkpt lat="46.60772" lon="5.62563">
        <ele>525.8</ele>
        <time>2022-07-16T06:37:06Z</time>
      </trkpt>
      <trkpt lat="46.60805" lon="5.62502">
        <ele>526</ele>
        <time>2022-07-16T06:37:13Z</time>
      </trkpt>
      <trkpt lat="46.60839" lon="5.62438">
        <ele>526</ele>
        <time>2022-07-16T06:37:21Z</time>
      </trkpt>
      <trkpt lat="46.60843" lon="5.62431">
        <ele>526</ele>
        <time>2022-07-16T06:37:22Z</time>
      </trkpt>
      <trkpt lat="46.60855" lon="5.62409">
        <ele>526.6</ele>
        <time>2022-07-16T06:37:25Z</time>
      </trkpt>
      <trkpt lat="46.60866" lon="5.62387">
        <ele>527.2</ele>
        <time>2022-07-16T06:37:28Z</time>
      </trkpt>
      <trkpt lat="46.60878" lon="5.62365">
        <ele>527.6</ele>
        <time>2022-07-16T06:37:31Z</time>
      </trkpt>
      <trkpt lat="46.60891" lon="5.6234">
        <ele>528.2</ele>
        <time>2022-07-16T06:37:35Z</time>
      </trkpt>
      <trkpt lat="46.60895" lon="5.62334">
        <ele>528.6</ele>
        <time>2022-07-16T06:37:36Z</time>
      </trkpt>
      <trkpt lat="46.60915" lon="5.62295">
        <ele>529.6</ele>
        <time>2022-07-16T06:37:42Z</time>
      </trkpt>
      <trkpt lat="46.60922" lon="5.62282">
        <ele>530</ele>
        <time>2022-07-16T06:37:44Z</time>
      </trkpt>
      <trkpt lat="46.60932" lon="5.62264">
        <ele>530.8</ele>
        <time>2022-07-16T06:37:47Z</time>
      </trkpt>
      <trkpt lat="46.6096" lon="5.62211">
        <ele>531.6</ele>
        <time>2022-07-16T06:37:55Z</time>
      </trkpt>
      <trkpt lat="46.60968" lon="5.62197">
        <ele>531.8</ele>
        <time>2022-07-16T06:37:57Z</time>
      </trkpt>
      <trkpt lat="46.60996" lon="5.62144">
        <ele>532</ele>
        <time>2022-07-16T06:38:04Z</time>
      </trkpt>
      <trkpt lat="46.61031" lon="5.62078">
        <ele>531.4</ele>
        <time>2022-07-16T06:38:12Z</time>
      </trkpt>
      <trkpt lat="46.61054" lon="5.62035">
        <ele>530.6</ele>
        <time>2022-07-16T06:38:17Z</time>
      </trkpt>
      <trkpt lat="46.61074" lon="5.61998">
        <ele>530</ele>
        <time>2022-07-16T06:38:21Z</time>
      </trkpt>
      <trkpt lat="46.61088" lon="5.61971">
        <ele>529.4</ele>
        <time>2022-07-16T06:38:24Z</time>
      </trkpt>
      <trkpt lat="46.61118" lon="5.61915">
        <ele>528.6</ele>
        <time>2022-07-16T06:38:30Z</time>
      </trkpt>
      <trkpt lat="46.61137" lon="5.61878">
        <ele>528.4</ele>
        <time>2022-07-16T06:38:34Z</time>
      </trkpt>
      <trkpt lat="46.61156" lon="5.61841">
        <ele>528</ele>
        <time>2022-07-16T06:38:38Z</time>
      </trkpt>
      <trkpt lat="46.61191" lon="5.61775">
        <ele>527.2</ele>
        <time>2022-07-16T06:38:45Z</time>
      </trkpt>
      <trkpt lat="46.612" lon="5.61759">
        <ele>527</ele>
        <time>2022-07-16T06:38:47Z</time>
      </trkpt>
      <trkpt lat="46.61232" lon="5.61699">
        <ele>525.8</ele>
        <time>2022-07-16T06:38:53Z</time>
      </trkpt>
      <trkpt lat="46.61252" lon="5.61659">
        <ele>524.8</ele>
        <time>2022-07-16T06:38:57Z</time>
      </trkpt>
      <trkpt lat="46.61278" lon="5.61612">
        <ele>523.8</ele>
        <time>2022-07-16T06:39:02Z</time>
      </trkpt>
      <trkpt lat="46.61297" lon="5.61576">
        <ele>523.6</ele>
        <time>2022-07-16T06:39:06Z</time>
      </trkpt>
      <trkpt lat="46.61333" lon="5.61507">
        <ele>523.8</ele>
        <time>2022-07-16T06:39:14Z</time>
      </trkpt>
      <trkpt lat="46.61367" lon="5.61445">
        <ele>523.8</ele>
        <time>2022-07-16T06:39:21Z</time>
      </trkpt>
      <trkpt lat="46.61381" lon="5.61419">
        <ele>523.8</ele>
        <time>2022-07-16T06:39:24Z</time>
      </trkpt>
      <trkpt lat="46.61415" lon="5.61356">
        <ele>523.2</ele>
        <time>2022-07-16T06:39:31Z</time>
      </trkpt>
      <trkpt lat="46.61428" lon="5.61331">
        <ele>523.2</ele>
        <time>2022-07-16T06:39:34Z</time>
      </trkpt>
      <trkpt lat="46.61438" lon="5.61314">
        <ele>522.6</ele>
        <time>2022-07-16T06:39:36Z</time>
      </trkpt>
      <trkpt lat="46.61473" lon="5.61249">
        <ele>522</ele>
        <time>2022-07-16T06:39:43Z</time>
      </trkpt>
      <trkpt lat="46.61477" lon="5.61241">
        <ele>522</ele>
        <time>2022-07-16T06:39:44Z</time>
      </trkpt>
      <trkpt lat="46.61492" lon="5.61212">
        <ele>521.6</ele>
        <time>2022-07-16T06:39:47Z</time>
      </trkpt>
      <trkpt lat="46.61521" lon="5.61159">
        <ele>521</ele>
        <time>2022-07-16T06:39:53Z</time>
      </trkpt>
      <trkpt lat="46.61547" lon="5.61104">
        <ele>521.4</ele>
        <time>2022-07-16T06:39:59Z</time>
      </trkpt>
      <trkpt lat="46.61577" lon="5.61048">
        <ele>521.6</ele>
        <time>2022-07-16T06:40:06Z</time>
      </trkpt>
      <trkpt lat="46.61598" lon="5.6101">
        <ele>521.8</ele>
        <time>2022-07-16T06:40:11Z</time>
      </trkpt>
      <trkpt lat="46.61623" lon="5.60965">
        <ele>522.6</ele>
        <time>2022-07-16T06:40:17Z</time>
      </trkpt>
      <trkpt lat="46.61625" lon="5.60959">
        <ele>522.8</ele>
        <time>2022-07-16T06:40:18Z</time>
      </trkpt>
      <trkpt lat="46.61626" lon="5.60943">
        <ele>523.2</ele>
        <time>2022-07-16T06:40:20Z</time>
      </trkpt>
      <trkpt lat="46.61619" lon="5.60928">
        <ele>523.6</ele>
        <time>2022-07-16T06:40:22Z</time>
      </trkpt>
      <trkpt lat="46.61615" lon="5.60922">
        <ele>523.8</ele>
        <time>2022-07-16T06:40:23Z</time>
      </trkpt>
      <trkpt lat="46.61584" lon="5.60882">
        <ele>524</ele>
        <time>2022-07-16T06:40:29Z</time>
      </trkpt>
      <trkpt lat="46.61544" lon="5.60828">
        <ele>524.4</ele>
        <time>2022-07-16T06:40:37Z</time>
      </trkpt>
      <trkpt lat="46.61529" lon="5.60807">
        <ele>524.6</ele>
        <time>2022-07-16T06:40:40Z</time>
      </trkpt>
      <trkpt lat="46.61524" lon="5.608">
        <ele>525</ele>
        <time>2022-07-16T06:40:41Z</time>
      </trkpt>
      <trkpt lat="46.61492" lon="5.60756">
        <ele>525.2</ele>
        <time>2022-07-16T06:40:47Z</time>
      </trkpt>
      <trkpt lat="46.61451" lon="5.60701">
        <ele>524.8</ele>
        <time>2022-07-16T06:40:54Z</time>
      </trkpt>
      <trkpt lat="46.61413" lon="5.60648">
        <ele>524.8</ele>
        <time>2022-07-16T06:41:01Z</time>
      </trkpt>
      <trkpt lat="46.61387" lon="5.60611">
        <ele>526</ele>
        <time>2022-07-16T06:41:07Z</time>
      </trkpt>
      <trkpt lat="46.6137" lon="5.60587">
        <ele>527</ele>
        <time>2022-07-16T06:41:11Z</time>
      </trkpt>
      <trkpt lat="46.61353" lon="5.60565">
        <ele>528</ele>
        <time>2022-07-16T06:41:15Z</time>
      </trkpt>
      <trkpt lat="46.61345" lon="5.60555">
        <ele>528.2</ele>
        <time>2022-07-16T06:41:17Z</time>
      </trkpt>
      <trkpt lat="46.61327" lon="5.60533">
        <ele>529.2</ele>
        <time>2022-07-16T06:41:21Z</time>
      </trkpt>
      <trkpt lat="46.61322" lon="5.60526">
        <ele>529.2</ele>
        <time>2022-07-16T06:41:22Z</time>
      </trkpt>
      <trkpt lat="46.61291" lon="5.60482">
        <ele>529.8</ele>
        <time>2022-07-16T06:41:28Z</time>
      </trkpt>
      <trkpt lat="46.61251" lon="5.60428">
        <ele>528.8</ele>
        <time>2022-07-16T06:41:35Z</time>
      </trkpt>
      <trkpt lat="46.6124" lon="5.60413">
        <ele>528.8</ele>
        <time>2022-07-16T06:41:37Z</time>
      </trkpt>
      <trkpt lat="46.61205" lon="5.60365">
        <ele>529</ele>
        <time>2022-07-16T06:41:44Z</time>
      </trkpt>
      <trkpt lat="46.6118" lon="5.6033">
        <ele>530.4</ele>
        <time>2022-07-16T06:41:50Z</time>
      </trkpt>
      <trkpt lat="46.61172" lon="5.60319">
        <ele>531</ele>
        <time>2022-07-16T06:41:52Z</time>
      </trkpt>
      <trkpt lat="46.61159" lon="5.60301">
        <ele>531.6</ele>
        <time>2022-07-16T06:41:55Z</time>
      </trkpt>
      <trkpt lat="46.61139" lon="5.60273">
        <ele>532.6</ele>
        <time>2022-07-16T06:42:00Z</time>
      </trkpt>
      <trkpt lat="46.61135" lon="5.60267">
        <ele>532.6</ele>
        <time>2022-07-16T06:42:01Z</time>
      </trkpt>
      <trkpt lat="46.61098" lon="5.60217">
        <ele>533.4</ele>
        <time>2022-07-16T06:42:10Z</time>
      </trkpt>
      <trkpt lat="46.6109" lon="5.60206">
        <ele>533.6</ele>
        <time>2022-07-16T06:42:12Z</time>
      </trkpt>
      <trkpt lat="46.61065" lon="5.60171">
        <ele>534.8</ele>
        <time>2022-07-16T06:42:18Z</time>
      </trkpt>
      <trkpt lat="46.61056" lon="5.6016">
        <ele>535.2</ele>
        <time>2022-07-16T06:42:20Z</time>
      </trkpt>
      <trkpt lat="46.61036" lon="5.60131">
        <ele>535.8</ele>
        <time>2022-07-16T06:42:25Z</time>
      </trkpt>
      <trkpt lat="46.61029" lon="5.60121">
        <ele>536</ele>
        <time>2022-07-16T06:42:27Z</time>
      </trkpt>
      <trkpt lat="46.61006" lon="5.6009">
        <ele>537</ele>
        <time>2022-07-16T06:42:33Z</time>
      </trkpt>
      <trkpt lat="46.60995" lon="5.60075">
        <ele>538</ele>
        <time>2022-07-16T06:42:36Z</time>
      </trkpt>
      <trkpt lat="46.60991" lon="5.6007">
        <ele>538.2</ele>
        <time>2022-07-16T06:42:37Z</time>
      </trkpt>
      <trkpt lat="46.60977" lon="5.6005">
        <ele>539.2</ele>
        <time>2022-07-16T06:42:41Z</time>
      </trkpt>
      <trkpt lat="46.6096" lon="5.60027">
        <ele>540.4</ele>
        <time>2022-07-16T06:42:46Z</time>
      </trkpt>
      <trkpt lat="46.60946" lon="5.60009">
        <ele>541.4</ele>
        <time>2022-07-16T06:42:50Z</time>
      </trkpt>
      <trkpt lat="46.60934" lon="5.59989">
        <ele>542.4</ele>
        <time>2022-07-16T06:42:54Z</time>
      </trkpt>
      <trkpt lat="46.6093" lon="5.59985">
        <ele>542.8</ele>
        <time>2022-07-16T06:42:55Z</time>
      </trkpt>
      <trkpt lat="46.60917" lon="5.59964">
        <ele>544</ele>
        <time>2022-07-16T06:42:59Z</time>
      </trkpt>
      <trkpt lat="46.60902" lon="5.59944">
        <ele>544.6</ele>
        <time>2022-07-16T06:43:03Z</time>
      </trkpt>
      <trkpt lat="46.60894" lon="5.59933">
        <ele>545.2</ele>
        <time>2022-07-16T06:43:05Z</time>
      </trkpt>
      <trkpt lat="46.60876" lon="5.5991">
        <ele>545.6</ele>
        <time>2022-07-16T06:43:09Z</time>
      </trkpt>
      <trkpt lat="46.60842" lon="5.59857">
        <ele>545.2</ele>
        <time>2022-07-16T06:43:17Z</time>
      </trkpt>
      <trkpt lat="46.60837" lon="5.5984">
        <ele>545.2</ele>
        <time>2022-07-16T06:43:19Z</time>
      </trkpt>
      <trkpt lat="46.60835" lon="5.59821">
        <ele>545.2</ele>
        <time>2022-07-16T06:43:21Z</time>
      </trkpt>
      <trkpt lat="46.60838" lon="5.59805">
        <ele>545.2</ele>
        <time>2022-07-16T06:43:23Z</time>
      </trkpt>
      <trkpt lat="46.60844" lon="5.59789">
        <ele>545.4</ele>
        <time>2022-07-16T06:43:25Z</time>
      </trkpt>
      <trkpt lat="46.60862" lon="5.59745">
        <ele>546</ele>
        <time>2022-07-16T06:43:31Z</time>
      </trkpt>
      <trkpt lat="46.60865" lon="5.59739">
        <ele>546.2</ele>
        <time>2022-07-16T06:43:32Z</time>
      </trkpt>
      <trkpt lat="46.60884" lon="5.59704">
        <ele>547.2</ele>
        <time>2022-07-16T06:43:38Z</time>
      </trkpt>
      <trkpt lat="46.60887" lon="5.597">
        <ele>547.4</ele>
        <time>2022-07-16T06:43:39Z</time>
      </trkpt>
      <trkpt lat="46.60891" lon="5.59696">
        <ele>547.6</ele>
        <time>2022-07-16T06:43:40Z</time>
      </trkpt>
      <trkpt lat="46.60902" lon="5.59686">
        <ele>548.4</ele>
        <time>2022-07-16T06:43:43Z</time>
      </trkpt>
      <trkpt lat="46.60906" lon="5.59684">
        <ele>548.6</ele>
        <time>2022-07-16T06:43:44Z</time>
      </trkpt>
      <trkpt lat="46.6092" lon="5.59676">
        <ele>549.8</ele>
        <time>2022-07-16T06:43:48Z</time>
      </trkpt>
      <trkpt lat="46.60926" lon="5.59671">
        <ele>550.2</ele>
        <time>2022-07-16T06:43:50Z</time>
      </trkpt>
      <trkpt lat="46.60933" lon="5.59658">
        <ele>551</ele>
        <time>2022-07-16T06:43:53Z</time>
      </trkpt>
      <trkpt lat="46.60934" lon="5.59652">
        <ele>551</ele>
        <time>2022-07-16T06:43:54Z</time>
      </trkpt>
      <trkpt lat="46.60936" lon="5.59632">
        <ele>552.2</ele>
        <time>2022-07-16T06:43:57Z</time>
      </trkpt>
      <trkpt lat="46.60936" lon="5.59612">
        <ele>552.8</ele>
        <time>2022-07-16T06:44:00Z</time>
      </trkpt>
      <trkpt lat="46.60936" lon="5.59583">
        <ele>553.2</ele>
        <time>2022-07-16T06:44:04Z</time>
      </trkpt>
      <trkpt lat="46.60938" lon="5.59563">
        <ele>553.4</ele>
        <time>2022-07-16T06:44:07Z</time>
      </trkpt>
      <trkpt lat="46.60943" lon="5.59531">
        <ele>553.8</ele>
        <time>2022-07-16T06:44:12Z</time>
      </trkpt>
      <trkpt lat="46.60946" lon="5.59519">
        <ele>554</ele>
        <time>2022-07-16T06:44:14Z</time>
      </trkpt>
      <trkpt lat="46.6095" lon="5.59508">
        <ele>554.4</ele>
        <time>2022-07-16T06:44:16Z</time>
      </trkpt>
      <trkpt lat="46.60956" lon="5.59485">
        <ele>555.2</ele>
        <time>2022-07-16T06:44:20Z</time>
      </trkpt>
      <trkpt lat="46.60961" lon="5.59469">
        <ele>555.6</ele>
        <time>2022-07-16T06:44:23Z</time>
      </trkpt>
      <trkpt lat="46.60976" lon="5.59438">
        <ele>556.6</ele>
        <time>2022-07-16T06:44:29Z</time>
      </trkpt>
      <trkpt lat="46.60978" lon="5.59434">
        <ele>556.8</ele>
        <time>2022-07-16T06:44:30Z</time>
      </trkpt>
      <trkpt lat="46.60999" lon="5.594">
        <ele>557.4</ele>
        <time>2022-07-16T06:44:37Z</time>
      </trkpt>
      <trkpt lat="46.61003" lon="5.59397">
        <ele>557.8</ele>
        <time>2022-07-16T06:44:38Z</time>
      </trkpt>
      <trkpt lat="46.61009" lon="5.59391">
        <ele>557.8</ele>
        <time>2022-07-16T06:44:40Z</time>
      </trkpt>
      <trkpt lat="46.61018" lon="5.59385">
        <ele>558.6</ele>
        <time>2022-07-16T06:44:42Z</time>
      </trkpt>
      <trkpt lat="46.61029" lon="5.59379">
        <ele>559.2</ele>
        <time>2022-07-16T06:44:45Z</time>
      </trkpt>
      <trkpt lat="46.61041" lon="5.59375">
        <ele>559.6</ele>
        <time>2022-07-16T06:44:48Z</time>
      </trkpt>
      <trkpt lat="46.61055" lon="5.59368">
        <ele>560</ele>
        <time>2022-07-16T06:44:52Z</time>
      </trkpt>
      <trkpt lat="46.61074" lon="5.59359">
        <ele>560.8</ele>
        <time>2022-07-16T06:44:57Z</time>
      </trkpt>
      <trkpt lat="46.61081" lon="5.59355">
        <ele>561.4</ele>
        <time>2022-07-16T06:44:59Z</time>
      </trkpt>
      <trkpt lat="46.61085" lon="5.59352">
        <ele>562</ele>
        <time>2022-07-16T06:45:00Z</time>
      </trkpt>
      <trkpt lat="46.61098" lon="5.59341">
        <ele>563</ele>
        <time>2022-07-16T06:45:04Z</time>
      </trkpt>
      <trkpt lat="46.61108" lon="5.59332">
        <ele>563.8</ele>
        <time>2022-07-16T06:45:07Z</time>
      </trkpt>
      <trkpt lat="46.61115" lon="5.59325">
        <ele>564.2</ele>
        <time>2022-07-16T06:45:09Z</time>
      </trkpt>
      <trkpt lat="46.61132" lon="5.59313">
        <ele>565.2</ele>
        <time>2022-07-16T06:45:14Z</time>
      </trkpt>
      <trkpt lat="46.61136" lon="5.59311">
        <ele>565.2</ele>
        <time>2022-07-16T06:45:15Z</time>
      </trkpt>
      <trkpt lat="46.61139" lon="5.59309">
        <ele>565.8</ele>
        <time>2022-07-16T06:45:16Z</time>
      </trkpt>
      <trkpt lat="46.61155" lon="5.59303">
        <ele>566.4</ele>
        <time>2022-07-16T06:45:20Z</time>
      </trkpt>
      <trkpt lat="46.61166" lon="5.59298">
        <ele>567</ele>
        <time>2022-07-16T06:45:23Z</time>
      </trkpt>
      <trkpt lat="46.61177" lon="5.59294">
        <ele>567.6</ele>
        <time>2022-07-16T06:45:26Z</time>
      </trkpt>
      <trkpt lat="46.61187" lon="5.59289">
        <ele>568.6</ele>
        <time>2022-07-16T06:45:29Z</time>
      </trkpt>
      <trkpt lat="46.612" lon="5.59283">
        <ele>570</ele>
        <time>2022-07-16T06:45:33Z</time>
      </trkpt>
      <trkpt lat="46.61207" lon="5.5928">
        <ele>570.4</ele>
        <time>2022-07-16T06:45:35Z</time>
      </trkpt>
      <trkpt lat="46.61227" lon="5.59268">
        <ele>571</ele>
        <time>2022-07-16T06:45:41Z</time>
      </trkpt>
      <trkpt lat="46.61233" lon="5.59264">
        <ele>571.2</ele>
        <time>2022-07-16T06:45:43Z</time>
      </trkpt>
      <trkpt lat="46.61243" lon="5.59258">
        <ele>572</ele>
        <time>2022-07-16T06:45:46Z</time>
      </trkpt>
      <trkpt lat="46.61258" lon="5.59247">
        <ele>573</ele>
        <time>2022-07-16T06:45:51Z</time>
      </trkpt>
      <trkpt lat="46.61261" lon="5.59244">
        <ele>573</ele>
        <time>2022-07-16T06:45:52Z</time>
      </trkpt>
      <trkpt lat="46.61276" lon="5.59232">
        <ele>574.2</ele>
        <time>2022-07-16T06:45:57Z</time>
      </trkpt>
      <trkpt lat="46.61291" lon="5.5922">
        <ele>575.4</ele>
        <time>2022-07-16T06:46:02Z</time>
      </trkpt>
      <trkpt lat="46.613" lon="5.59214">
        <ele>576.2</ele>
        <time>2022-07-16T06:46:05Z</time>
      </trkpt>
      <trkpt lat="46.61306" lon="5.5921">
        <ele>576.6</ele>
        <time>2022-07-16T06:46:07Z</time>
      </trkpt>
      <trkpt lat="46.61322" lon="5.59194">
        <ele>577.4</ele>
        <time>2022-07-16T06:46:13Z</time>
      </trkpt>
      <trkpt lat="46.61328" lon="5.59188">
        <ele>578</ele>
        <time>2022-07-16T06:46:15Z</time>
      </trkpt>
      <trkpt lat="46.6133" lon="5.59185">
        <ele>578.4</ele>
        <time>2022-07-16T06:46:16Z</time>
      </trkpt>
      <trkpt lat="46.61333" lon="5.59181">
        <ele>578.6</ele>
        <time>2022-07-16T06:46:17Z</time>
      </trkpt>
      <trkpt lat="46.61345" lon="5.59166">
        <ele>579.6</ele>
        <time>2022-07-16T06:46:21Z</time>
      </trkpt>
      <trkpt lat="46.61351" lon="5.59159">
        <ele>579.6</ele>
        <time>2022-07-16T06:46:23Z</time>
      </trkpt>
      <trkpt lat="46.61366" lon="5.59141">
        <ele>580.6</ele>
        <time>2022-07-16T06:46:28Z</time>
      </trkpt>
      <trkpt lat="46.61382" lon="5.59122">
        <ele>581.4</ele>
        <time>2022-07-16T06:46:33Z</time>
      </trkpt>
      <trkpt lat="46.61385" lon="5.59118">
        <ele>581.6</ele>
        <time>2022-07-16T06:46:34Z</time>
      </trkpt>
      <trkpt lat="46.61401" lon="5.59101">
        <ele>582.8</ele>
        <time>2022-07-16T06:46:39Z</time>
      </trkpt>
      <trkpt lat="46.61413" lon="5.5909">
        <ele>583.2</ele>
        <time>2022-07-16T06:46:43Z</time>
      </trkpt>
      <trkpt lat="46.61421" lon="5.59086">
        <ele>583.8</ele>
        <time>2022-07-16T06:46:45Z</time>
      </trkpt>
      <trkpt lat="46.61441" lon="5.59076">
        <ele>584.8</ele>
        <time>2022-07-16T06:46:51Z</time>
      </trkpt>
      <trkpt lat="46.61444" lon="5.59075">
        <ele>585.2</ele>
        <time>2022-07-16T06:46:52Z</time>
      </trkpt>
      <trkpt lat="46.61457" lon="5.59074">
        <ele>586.2</ele>
        <time>2022-07-16T06:46:55Z</time>
      </trkpt>
      <trkpt lat="46.61465" lon="5.59073">
        <ele>586.8</ele>
        <time>2022-07-16T06:46:57Z</time>
      </trkpt>
      <trkpt lat="46.61477" lon="5.59069">
        <ele>587.4</ele>
        <time>2022-07-16T06:47:00Z</time>
      </trkpt>
      <trkpt lat="46.61484" lon="5.59063">
        <ele>587.6</ele>
        <time>2022-07-16T06:47:02Z</time>
      </trkpt>
      <trkpt lat="46.61505" lon="5.59031">
        <ele>588.4</ele>
        <time>2022-07-16T06:47:09Z</time>
      </trkpt>
      <trkpt lat="46.61512" lon="5.59022">
        <ele>588.6</ele>
        <time>2022-07-16T06:47:11Z</time>
      </trkpt>
      <trkpt lat="46.61526" lon="5.58998">
        <ele>589.2</ele>
        <time>2022-07-16T06:47:15Z</time>
      </trkpt>
      <trkpt lat="46.61534" lon="5.58985">
        <ele>589.4</ele>
        <time>2022-07-16T06:47:17Z</time>
      </trkpt>
      <trkpt lat="46.61546" lon="5.58977">
        <ele>589</ele>
        <time>2022-07-16T06:47:19Z</time>
      </trkpt>
      <trkpt lat="46.61568" lon="5.58972">
        <ele>588.4</ele>
        <time>2022-07-16T06:47:22Z</time>
      </trkpt>
      <trkpt lat="46.61575" lon="5.58974">
        <ele>588.2</ele>
        <time>2022-07-16T06:47:23Z</time>
      </trkpt>
      <trkpt lat="46.61583" lon="5.58977">
        <ele>588.2</ele>
        <time>2022-07-16T06:47:24Z</time>
      </trkpt>
      <trkpt lat="46.61596" lon="5.58989">
        <ele>587.4</ele>
        <time>2022-07-16T06:47:26Z</time>
      </trkpt>
      <trkpt lat="46.61608" lon="5.59008">
        <ele>586.6</ele>
        <time>2022-07-16T06:47:28Z</time>
      </trkpt>
      <trkpt lat="46.61618" lon="5.59028">
        <ele>585.8</ele>
        <time>2022-07-16T06:47:30Z</time>
      </trkpt>
      <trkpt lat="46.61629" lon="5.59038">
        <ele>585</ele>
        <time>2022-07-16T06:47:32Z</time>
      </trkpt>
      <trkpt lat="46.61635" lon="5.59038">
        <ele>584</ele>
        <time>2022-07-16T06:47:33Z</time>
      </trkpt>
      <trkpt lat="46.61641" lon="5.59032">
        <ele>583.8</ele>
        <time>2022-07-16T06:47:34Z</time>
      </trkpt>
      <trkpt lat="46.61644" lon="5.59022">
        <ele>583.4</ele>
        <time>2022-07-16T06:47:35Z</time>
      </trkpt>
      <trkpt lat="46.61647" lon="5.59011">
        <ele>583.4</ele>
        <time>2022-07-16T06:47:36Z</time>
      </trkpt>
      <trkpt lat="46.61648" lon="5.58998">
        <ele>583</ele>
        <time>2022-07-16T06:47:37Z</time>
      </trkpt>
      <trkpt lat="46.61649" lon="5.58986">
        <ele>582.8</ele>
        <time>2022-07-16T06:47:38Z</time>
      </trkpt>
      <trkpt lat="46.61647" lon="5.5896">
        <ele>581.4</ele>
        <time>2022-07-16T06:47:40Z</time>
      </trkpt>
      <trkpt lat="46.61644" lon="5.58948">
        <ele>581.2</ele>
        <time>2022-07-16T06:47:41Z</time>
      </trkpt>
      <trkpt lat="46.61641" lon="5.58936">
        <ele>580.2</ele>
        <time>2022-07-16T06:47:42Z</time>
      </trkpt>
      <trkpt lat="46.61626" lon="5.58891">
        <ele>579</ele>
        <time>2022-07-16T06:47:46Z</time>
      </trkpt>
      <trkpt lat="46.61613" lon="5.58856">
        <ele>578</ele>
        <time>2022-07-16T06:47:49Z</time>
      </trkpt>
      <trkpt lat="46.616" lon="5.58818">
        <ele>577.2</ele>
        <time>2022-07-16T06:47:52Z</time>
      </trkpt>
      <trkpt lat="46.61596" lon="5.58806">
        <ele>576.8</ele>
        <time>2022-07-16T06:47:53Z</time>
      </trkpt>
      <trkpt lat="46.61586" lon="5.58783">
        <ele>575.6</ele>
        <time>2022-07-16T06:47:55Z</time>
      </trkpt>
      <trkpt lat="46.61569" lon="5.58739">
        <ele>574.4</ele>
        <time>2022-07-16T06:47:59Z</time>
      </trkpt>
      <trkpt lat="46.61545" lon="5.58671">
        <ele>573.6</ele>
        <time>2022-07-16T06:48:05Z</time>
      </trkpt>
      <trkpt lat="46.61542" lon="5.58659">
        <ele>573.2</ele>
        <time>2022-07-16T06:48:06Z</time>
      </trkpt>
      <trkpt lat="46.61538" lon="5.58634">
        <ele>572.6</ele>
        <time>2022-07-16T06:48:08Z</time>
      </trkpt>
      <trkpt lat="46.61525" lon="5.58617">
        <ele>572</ele>
        <time>2022-07-16T06:48:10Z</time>
      </trkpt>
      <trkpt lat="46.61506" lon="5.58614">
        <ele>571.8</ele>
        <time>2022-07-16T06:48:12Z</time>
      </trkpt>
      <trkpt lat="46.61495" lon="5.58613">
        <ele>571.2</ele>
        <time>2022-07-16T06:48:13Z</time>
      </trkpt>
      <trkpt lat="46.61485" lon="5.5861">
        <ele>569.2</ele>
        <time>2022-07-16T06:48:14Z</time>
      </trkpt>
      <trkpt lat="46.61476" lon="5.58604">
        <ele>568.6</ele>
        <time>2022-07-16T06:48:15Z</time>
      </trkpt>
      <trkpt lat="46.61467" lon="5.58597">
        <ele>567.8</ele>
        <time>2022-07-16T06:48:16Z</time>
      </trkpt>
      <trkpt lat="46.61459" lon="5.5859">
        <ele>567</ele>
        <time>2022-07-16T06:48:17Z</time>
      </trkpt>
      <trkpt lat="46.61454" lon="5.5858">
        <ele>566.8</ele>
        <time>2022-07-16T06:48:18Z</time>
      </trkpt>
      <trkpt lat="46.61455" lon="5.58563">
        <ele>566.2</ele>
        <time>2022-07-16T06:48:19Z</time>
      </trkpt>
      <trkpt lat="46.61455" lon="5.58547">
        <ele>565.6</ele>
        <time>2022-07-16T06:48:20Z</time>
      </trkpt>
      <trkpt lat="46.61456" lon="5.58531">
        <ele>564.4</ele>
        <time>2022-07-16T06:48:21Z</time>
      </trkpt>
      <trkpt lat="46.61458" lon="5.58516">
        <ele>564</ele>
        <time>2022-07-16T06:48:22Z</time>
      </trkpt>
      <trkpt lat="46.6146" lon="5.585">
        <ele>562.6</ele>
        <time>2022-07-16T06:48:23Z</time>
      </trkpt>
      <trkpt lat="46.61463" lon="5.58485">
        <ele>562</ele>
        <time>2022-07-16T06:48:24Z</time>
      </trkpt>
      <trkpt lat="46.6147" lon="5.58453">
        <ele>561.2</ele>
        <time>2022-07-16T06:48:26Z</time>
      </trkpt>
      <trkpt lat="46.61479" lon="5.58422">
        <ele>560</ele>
        <time>2022-07-16T06:48:28Z</time>
      </trkpt>
      <trkpt lat="46.61482" lon="5.58411">
        <ele>559.6</ele>
        <time>2022-07-16T06:48:29Z</time>
      </trkpt>
      <trkpt lat="46.61483" lon="5.58397">
        <ele>558.8</ele>
        <time>2022-07-16T06:48:30Z</time>
      </trkpt>
      <trkpt lat="46.61483" lon="5.58382">
        <ele>557.8</ele>
        <time>2022-07-16T06:48:31Z</time>
      </trkpt>
      <trkpt lat="46.61479" lon="5.5835">
        <ele>556.6</ele>
        <time>2022-07-16T06:48:33Z</time>
      </trkpt>
      <trkpt lat="46.61475" lon="5.58317">
        <ele>555.6</ele>
        <time>2022-07-16T06:48:35Z</time>
      </trkpt>
      <trkpt lat="46.61471" lon="5.58289">
        <ele>554.4</ele>
        <time>2022-07-16T06:48:37Z</time>
      </trkpt>
      <trkpt lat="46.61467" lon="5.58279">
        <ele>554</ele>
        <time>2022-07-16T06:48:38Z</time>
      </trkpt>
      <trkpt lat="46.61459" lon="5.5827">
        <ele>552.8</ele>
        <time>2022-07-16T06:48:39Z</time>
      </trkpt>
      <trkpt lat="46.61448" lon="5.58266">
        <ele>551.6</ele>
        <time>2022-07-16T06:48:40Z</time>
      </trkpt>
      <trkpt lat="46.61437" lon="5.58265">
        <ele>551</ele>
        <time>2022-07-16T06:48:41Z</time>
      </trkpt>
      <trkpt lat="46.61426" lon="5.58264">
        <ele>548.6</ele>
        <time>2022-07-16T06:48:42Z</time>
      </trkpt>
      <trkpt lat="46.61415" lon="5.58265">
        <ele>547.8</ele>
        <time>2022-07-16T06:48:43Z</time>
      </trkpt>
      <trkpt lat="46.61404" lon="5.58267">
        <ele>546.8</ele>
        <time>2022-07-16T06:48:44Z</time>
      </trkpt>
      <trkpt lat="46.61379" lon="5.58273">
        <ele>545.6</ele>
        <time>2022-07-16T06:48:46Z</time>
      </trkpt>
      <trkpt lat="46.6136" lon="5.58277">
        <ele>544.2</ele>
        <time>2022-07-16T06:48:48Z</time>
      </trkpt>
      <trkpt lat="46.6135" lon="5.58277">
        <ele>543</ele>
        <time>2022-07-16T06:48:49Z</time>
      </trkpt>
      <trkpt lat="46.61337" lon="5.58268">
        <ele>541.8</ele>
        <time>2022-07-16T06:48:51Z</time>
      </trkpt>
      <trkpt lat="46.61333" lon="5.58257">
        <ele>541.8</ele>
        <time>2022-07-16T06:48:52Z</time>
      </trkpt>
      <trkpt lat="46.61333" lon="5.58249">
        <ele>541.2</ele>
        <time>2022-07-16T06:48:53Z</time>
      </trkpt>
      <trkpt lat="46.61339" lon="5.58242">
        <ele>540.4</ele>
        <time>2022-07-16T06:48:54Z</time>
      </trkpt>
      <trkpt lat="46.61344" lon="5.58236">
        <ele>540.4</ele>
        <time>2022-07-16T06:48:55Z</time>
      </trkpt>
      <trkpt lat="46.6135" lon="5.58231">
        <ele>539.8</ele>
        <time>2022-07-16T06:48:56Z</time>
      </trkpt>
      <trkpt lat="46.61357" lon="5.58228">
        <ele>539.2</ele>
        <time>2022-07-16T06:48:57Z</time>
      </trkpt>
      <trkpt lat="46.61365" lon="5.58225">
        <ele>538.6</ele>
        <time>2022-07-16T06:48:58Z</time>
      </trkpt>
      <trkpt lat="46.61382" lon="5.5822">
        <ele>538.4</ele>
        <time>2022-07-16T06:49:00Z</time>
      </trkpt>
      <trkpt lat="46.614" lon="5.58214">
        <ele>538</ele>
        <time>2022-07-16T06:49:02Z</time>
      </trkpt>
      <trkpt lat="46.61429" lon="5.58206">
        <ele>536</ele>
        <time>2022-07-16T06:49:05Z</time>
      </trkpt>
      <trkpt lat="46.61449" lon="5.58199">
        <ele>534.8</ele>
        <time>2022-07-16T06:49:07Z</time>
      </trkpt>
      <trkpt lat="46.6146" lon="5.58195">
        <ele>533.8</ele>
        <time>2022-07-16T06:49:08Z</time>
      </trkpt>
      <trkpt lat="46.61481" lon="5.58184">
        <ele>531.4</ele>
        <time>2022-07-16T06:49:10Z</time>
      </trkpt>
      <trkpt lat="46.615" lon="5.58169">
        <ele>530.2</ele>
        <time>2022-07-16T06:49:12Z</time>
      </trkpt>
      <trkpt lat="46.61509" lon="5.5816">
        <ele>530</ele>
        <time>2022-07-16T06:49:13Z</time>
      </trkpt>
      <trkpt lat="46.6153" lon="5.58141">
        <ele>529</ele>
        <time>2022-07-16T06:49:15Z</time>
      </trkpt>
      <trkpt lat="46.6155" lon="5.58122">
        <ele>528.6</ele>
        <time>2022-07-16T06:49:17Z</time>
      </trkpt>
      <trkpt lat="46.61559" lon="5.58112">
        <ele>527.6</ele>
        <time>2022-07-16T06:49:18Z</time>
      </trkpt>
      <trkpt lat="46.61567" lon="5.58104">
        <ele>526.4</ele>
        <time>2022-07-16T06:49:19Z</time>
      </trkpt>
      <trkpt lat="46.6159" lon="5.5808">
        <ele>524.8</ele>
        <time>2022-07-16T06:49:21Z</time>
      </trkpt>
      <trkpt lat="46.61601" lon="5.5807">
        <ele>524.2</ele>
        <time>2022-07-16T06:49:22Z</time>
      </trkpt>
      <trkpt lat="46.61611" lon="5.58063">
        <ele>523.2</ele>
        <time>2022-07-16T06:49:23Z</time>
      </trkpt>
      <trkpt lat="46.61623" lon="5.58057">
        <ele>522.4</ele>
        <time>2022-07-16T06:49:24Z</time>
      </trkpt>
      <trkpt lat="46.61635" lon="5.58053">
        <ele>522</ele>
        <time>2022-07-16T06:49:25Z</time>
      </trkpt>
      <trkpt lat="46.61647" lon="5.5805">
        <ele>520.4</ele>
        <time>2022-07-16T06:49:26Z</time>
      </trkpt>
      <trkpt lat="46.61659" lon="5.58048">
        <ele>519.2</ele>
        <time>2022-07-16T06:49:27Z</time>
      </trkpt>
      <trkpt lat="46.61671" lon="5.58045">
        <ele>517.6</ele>
        <time>2022-07-16T06:49:28Z</time>
      </trkpt>
      <trkpt lat="46.6168" lon="5.58041">
        <ele>517</ele>
        <time>2022-07-16T06:49:29Z</time>
      </trkpt>
      <trkpt lat="46.61691" lon="5.58036">
        <ele>516</ele>
        <time>2022-07-16T06:49:30Z</time>
      </trkpt>
      <trkpt lat="46.617" lon="5.58028">
        <ele>515.2</ele>
        <time>2022-07-16T06:49:31Z</time>
      </trkpt>
      <trkpt lat="46.61709" lon="5.58018">
        <ele>514.8</ele>
        <time>2022-07-16T06:49:32Z</time>
      </trkpt>
      <trkpt lat="46.61727" lon="5.57998">
        <ele>513.6</ele>
        <time>2022-07-16T06:49:34Z</time>
      </trkpt>
      <trkpt lat="46.61739" lon="5.57985">
        <ele>512.2</ele>
        <time>2022-07-16T06:49:36Z</time>
      </trkpt>
      <trkpt lat="46.61748" lon="5.57981">
        <ele>510.6</ele>
        <time>2022-07-16T06:49:38Z</time>
      </trkpt>
      <trkpt lat="46.61751" lon="5.57986">
        <ele>510.4</ele>
        <time>2022-07-16T06:49:39Z</time>
      </trkpt>
      <trkpt lat="46.61751" lon="5.58001">
        <ele>509.4</ele>
        <time>2022-07-16T06:49:41Z</time>
      </trkpt>
      <trkpt lat="46.61733" lon="5.58022">
        <ele>507.6</ele>
        <time>2022-07-16T06:49:44Z</time>
      </trkpt>
      <trkpt lat="46.61726" lon="5.58028">
        <ele>507</ele>
        <time>2022-07-16T06:49:45Z</time>
      </trkpt>
      <trkpt lat="46.61711" lon="5.5804">
        <ele>506.4</ele>
        <time>2022-07-16T06:49:47Z</time>
      </trkpt>
      <trkpt lat="46.61702" lon="5.58047">
        <ele>506.2</ele>
        <time>2022-07-16T06:49:48Z</time>
      </trkpt>
      <trkpt lat="46.61675" lon="5.58064">
        <ele>505</ele>
        <time>2022-07-16T06:49:51Z</time>
      </trkpt>
      <trkpt lat="46.61656" lon="5.58072">
        <ele>504.2</ele>
        <time>2022-07-16T06:49:53Z</time>
      </trkpt>
      <trkpt lat="46.61647" lon="5.58075">
        <ele>503.2</ele>
        <time>2022-07-16T06:49:54Z</time>
      </trkpt>
      <trkpt lat="46.61637" lon="5.5808">
        <ele>503.2</ele>
        <time>2022-07-16T06:49:55Z</time>
      </trkpt>
      <trkpt lat="46.61619" lon="5.58093">
        <ele>502.2</ele>
        <time>2022-07-16T06:49:57Z</time>
      </trkpt>
      <trkpt lat="46.6161" lon="5.58102">
        <ele>501.8</ele>
        <time>2022-07-16T06:49:58Z</time>
      </trkpt>
      <trkpt lat="46.61589" lon="5.58125">
        <ele>501.4</ele>
        <time>2022-07-16T06:50:01Z</time>
      </trkpt>
      <trkpt lat="46.61582" lon="5.58138">
        <ele>501.4</ele>
        <time>2022-07-16T06:50:02Z</time>
      </trkpt>
      <trkpt lat="46.61578" lon="5.58149">
        <ele>501.2</ele>
        <time>2022-07-16T06:50:03Z</time>
      </trkpt>
      <trkpt lat="46.61585" lon="5.5816">
        <ele>501</ele>
        <time>2022-07-16T06:50:05Z</time>
      </trkpt>
      <trkpt lat="46.61593" lon="5.58161">
        <ele>501</ele>
        <time>2022-07-16T06:50:06Z</time>
      </trkpt>
      <trkpt lat="46.61601" lon="5.58158">
        <ele>500.8</ele>
        <time>2022-07-16T06:50:07Z</time>
      </trkpt>
      <trkpt lat="46.61604" lon="5.5815">
        <ele>500.8</ele>
        <time>2022-07-16T06:50:08Z</time>
      </trkpt>
      <trkpt lat="46.61614" lon="5.58134">
        <ele>500.6</ele>
        <time>2022-07-16T06:50:10Z</time>
      </trkpt>
      <trkpt lat="46.61618" lon="5.58126">
        <ele>500.4</ele>
        <time>2022-07-16T06:50:11Z</time>
      </trkpt>
      <trkpt lat="46.6163" lon="5.58127">
        <ele>500</ele>
        <time>2022-07-16T06:50:12Z</time>
      </trkpt>
      <trkpt lat="46.61642" lon="5.58127">
        <ele>499.4</ele>
        <time>2022-07-16T06:50:13Z</time>
      </trkpt>
      <trkpt lat="46.61655" lon="5.58129">
        <ele>498.2</ele>
        <time>2022-07-16T06:50:14Z</time>
      </trkpt>
      <trkpt lat="46.61684" lon="5.58135">
        <ele>496.4</ele>
        <time>2022-07-16T06:50:16Z</time>
      </trkpt>
      <trkpt lat="46.6171" lon="5.58147">
        <ele>495.4</ele>
        <time>2022-07-16T06:50:18Z</time>
      </trkpt>
      <trkpt lat="46.61738" lon="5.58154">
        <ele>494.2</ele>
        <time>2022-07-16T06:50:20Z</time>
      </trkpt>
      <trkpt lat="46.61764" lon="5.58162">
        <ele>492.6</ele>
        <time>2022-07-16T06:50:22Z</time>
      </trkpt>
      <trkpt lat="46.61789" lon="5.58172">
        <ele>490.4</ele>
        <time>2022-07-16T06:50:24Z</time>
      </trkpt>
      <trkpt lat="46.61817" lon="5.58189">
        <ele>489.8</ele>
        <time>2022-07-16T06:50:26Z</time>
      </trkpt>
      <trkpt lat="46.6183" lon="5.58196">
        <ele>488.8</ele>
        <time>2022-07-16T06:50:27Z</time>
      </trkpt>
      <trkpt lat="46.61845" lon="5.58205">
        <ele>487.6</ele>
        <time>2022-07-16T06:50:28Z</time>
      </trkpt>
      <trkpt lat="46.61869" lon="5.58217">
        <ele>485.8</ele>
        <time>2022-07-16T06:50:30Z</time>
      </trkpt>
      <trkpt lat="46.6188" lon="5.58218">
        <ele>485.2</ele>
        <time>2022-07-16T06:50:31Z</time>
      </trkpt>
      <trkpt lat="46.61892" lon="5.58219">
        <ele>484.6</ele>
        <time>2022-07-16T06:50:32Z</time>
      </trkpt>
      <trkpt lat="46.61905" lon="5.58219">
        <ele>483.2</ele>
        <time>2022-07-16T06:50:33Z</time>
      </trkpt>
      <trkpt lat="46.61931" lon="5.5822">
        <ele>481.4</ele>
        <time>2022-07-16T06:50:35Z</time>
      </trkpt>
      <trkpt lat="46.61944" lon="5.58224">
        <ele>480.8</ele>
        <time>2022-07-16T06:50:36Z</time>
      </trkpt>
      <trkpt lat="46.61959" lon="5.58225">
        <ele>479.2</ele>
        <time>2022-07-16T06:50:37Z</time>
      </trkpt>
      <trkpt lat="46.61984" lon="5.58223">
        <ele>478</ele>
        <time>2022-07-16T06:50:39Z</time>
      </trkpt>
      <trkpt lat="46.62023" lon="5.58224">
        <ele>476.8</ele>
        <time>2022-07-16T06:50:42Z</time>
      </trkpt>
      <trkpt lat="46.62046" lon="5.58226">
        <ele>474.6</ele>
        <time>2022-07-16T06:50:44Z</time>
      </trkpt>
      <trkpt lat="46.62057" lon="5.5823">
        <ele>473</ele>
        <time>2022-07-16T06:50:45Z</time>
      </trkpt>
      <trkpt lat="46.62068" lon="5.58236">
        <ele>472.6</ele>
        <time>2022-07-16T06:50:46Z</time>
      </trkpt>
      <trkpt lat="46.62077" lon="5.58243">
        <ele>471.6</ele>
        <time>2022-07-16T06:50:47Z</time>
      </trkpt>
      <trkpt lat="46.62084" lon="5.58251">
        <ele>471.2</ele>
        <time>2022-07-16T06:50:48Z</time>
      </trkpt>
      <trkpt lat="46.6209" lon="5.58259">
        <ele>470</ele>
        <time>2022-07-16T06:50:49Z</time>
      </trkpt>
      <trkpt lat="46.62097" lon="5.58267">
        <ele>469.4</ele>
        <time>2022-07-16T06:50:50Z</time>
      </trkpt>
      <trkpt lat="46.62101" lon="5.58272">
        <ele>468.6</ele>
        <time>2022-07-16T06:50:51Z</time>
      </trkpt>
      <trkpt lat="46.62108" lon="5.58275">
        <ele>468</ele>
        <time>2022-07-16T06:50:52Z</time>
      </trkpt>
      <trkpt lat="46.62119" lon="5.58274">
        <ele>467.2</ele>
        <time>2022-07-16T06:50:54Z</time>
      </trkpt>
      <trkpt lat="46.62121" lon="5.58274">
        <ele>467</ele>
        <time>2022-07-16T06:50:55Z</time>
      </trkpt>
      <trkpt lat="46.62126" lon="5.58274">
        <ele>466.4</ele>
        <time>2022-07-16T06:50:56Z</time>
      </trkpt>
      <trkpt lat="46.62128" lon="5.58273">
        <ele>466</ele>
        <time>2022-07-16T06:50:57Z</time>
      </trkpt>
      <trkpt lat="46.62125" lon="5.5827">
        <ele>465.8</ele>
        <time>2022-07-16T06:50:58Z</time>
      </trkpt>
      <trkpt lat="46.62118" lon="5.5826">
        <ele>464.8</ele>
        <time>2022-07-16T06:51:00Z</time>
      </trkpt>
      <trkpt lat="46.62098" lon="5.58238">
        <ele>463.6</ele>
        <time>2022-07-16T06:51:01Z</time>
      </trkpt>
      <trkpt lat="46.62064" lon="5.58204">
        <ele>462.4</ele>
        <time>2022-07-16T06:51:03Z</time>
      </trkpt>
      <trkpt lat="46.62051" lon="5.58193">
        <ele>462</ele>
        <time>2022-07-16T06:51:04Z</time>
      </trkpt>
      <trkpt lat="46.62025" lon="5.58182">
        <ele>460.8</ele>
        <time>2022-07-16T06:51:06Z</time>
      </trkpt>
      <trkpt lat="46.62002" lon="5.58176">
        <ele>459.6</ele>
        <time>2022-07-16T06:51:08Z</time>
      </trkpt>
      <trkpt lat="46.61991" lon="5.58172">
        <ele>459</ele>
        <time>2022-07-16T06:51:09Z</time>
      </trkpt>
      <trkpt lat="46.61978" lon="5.58165">
        <ele>458.4</ele>
        <time>2022-07-16T06:51:10Z</time>
      </trkpt>
      <trkpt lat="46.6196" lon="5.58145">
        <ele>457.4</ele>
        <time>2022-07-16T06:51:12Z</time>
      </trkpt>
      <trkpt lat="46.61944" lon="5.5812">
        <ele>456.4</ele>
        <time>2022-07-16T06:51:14Z</time>
      </trkpt>
      <trkpt lat="46.6192" lon="5.58085">
        <ele>454</ele>
        <time>2022-07-16T06:51:17Z</time>
      </trkpt>
      <trkpt lat="46.61914" lon="5.58074">
        <ele>453.4</ele>
        <time>2022-07-16T06:51:18Z</time>
      </trkpt>
      <trkpt lat="46.6191" lon="5.58062">
        <ele>452.4</ele>
        <time>2022-07-16T06:51:19Z</time>
      </trkpt>
      <trkpt lat="46.61909" lon="5.58049">
        <ele>452</ele>
        <time>2022-07-16T06:51:20Z</time>
      </trkpt>
      <trkpt lat="46.61911" lon="5.58035">
        <ele>451.4</ele>
        <time>2022-07-16T06:51:21Z</time>
      </trkpt>
      <trkpt lat="46.61918" lon="5.58026">
        <ele>450.8</ele>
        <time>2022-07-16T06:51:22Z</time>
      </trkpt>
      <trkpt lat="46.61926" lon="5.5802">
        <ele>450.6</ele>
        <time>2022-07-16T06:51:23Z</time>
      </trkpt>
      <trkpt lat="46.61936" lon="5.58013">
        <ele>450</ele>
        <time>2022-07-16T06:51:24Z</time>
      </trkpt>
      <trkpt lat="46.61946" lon="5.58006">
        <ele>449.8</ele>
        <time>2022-07-16T06:51:25Z</time>
      </trkpt>
      <trkpt lat="46.61964" lon="5.57989">
        <ele>447.8</ele>
        <time>2022-07-16T06:51:27Z</time>
      </trkpt>
      <trkpt lat="46.61974" lon="5.5798">
        <ele>446.6</ele>
        <time>2022-07-16T06:51:28Z</time>
      </trkpt>
      <trkpt lat="46.61996" lon="5.57963">
        <ele>445.4</ele>
        <time>2022-07-16T06:51:30Z</time>
      </trkpt>
      <trkpt lat="46.62006" lon="5.57954">
        <ele>445</ele>
        <time>2022-07-16T06:51:31Z</time>
      </trkpt>
      <trkpt lat="46.62028" lon="5.57939">
        <ele>444.2</ele>
        <time>2022-07-16T06:51:33Z</time>
      </trkpt>
      <trkpt lat="46.62053" lon="5.57927">
        <ele>442.4</ele>
        <time>2022-07-16T06:51:35Z</time>
      </trkpt>
      <trkpt lat="46.62077" lon="5.57917">
        <ele>440.8</ele>
        <time>2022-07-16T06:51:37Z</time>
      </trkpt>
      <trkpt lat="46.62088" lon="5.57912">
        <ele>439.8</ele>
        <time>2022-07-16T06:51:38Z</time>
      </trkpt>
      <trkpt lat="46.62112" lon="5.57903">
        <ele>438.2</ele>
        <time>2022-07-16T06:51:40Z</time>
      </trkpt>
      <trkpt lat="46.62134" lon="5.57897">
        <ele>436.6</ele>
        <time>2022-07-16T06:51:42Z</time>
      </trkpt>
      <trkpt lat="46.62151" lon="5.57891">
        <ele>435.2</ele>
        <time>2022-07-16T06:51:44Z</time>
      </trkpt>
      <trkpt lat="46.62161" lon="5.57897">
        <ele>433.6</ele>
        <time>2022-07-16T06:51:46Z</time>
      </trkpt>
      <trkpt lat="46.62159" lon="5.57913">
        <ele>432.4</ele>
        <time>2022-07-16T06:51:48Z</time>
      </trkpt>
      <trkpt lat="46.62154" lon="5.5792">
        <ele>431.8</ele>
        <time>2022-07-16T06:51:49Z</time>
      </trkpt>
      <trkpt lat="46.62142" lon="5.5793">
        <ele>430.8</ele>
        <time>2022-07-16T06:51:51Z</time>
      </trkpt>
      <trkpt lat="46.62135" lon="5.57935">
        <ele>430.6</ele>
        <time>2022-07-16T06:51:52Z</time>
      </trkpt>
      <trkpt lat="46.62111" lon="5.57952">
        <ele>429.6</ele>
        <time>2022-07-16T06:51:55Z</time>
      </trkpt>
      <trkpt lat="46.62104" lon="5.57959">
        <ele>428.6</ele>
        <time>2022-07-16T06:51:56Z</time>
      </trkpt>
      <trkpt lat="46.62096" lon="5.57966">
        <ele>428.4</ele>
        <time>2022-07-16T06:51:57Z</time>
      </trkpt>
      <trkpt lat="46.62081" lon="5.5798">
        <ele>427.4</ele>
        <time>2022-07-16T06:51:59Z</time>
      </trkpt>
      <trkpt lat="46.62059" lon="5.57997">
        <ele>426.2</ele>
        <time>2022-07-16T06:52:02Z</time>
      </trkpt>
      <trkpt lat="46.62053" lon="5.58003">
        <ele>425.8</ele>
        <time>2022-07-16T06:52:03Z</time>
      </trkpt>
      <trkpt lat="46.62048" lon="5.58016">
        <ele>425.4</ele>
        <time>2022-07-16T06:52:05Z</time>
      </trkpt>
      <trkpt lat="46.62054" lon="5.58028">
        <ele>425.2</ele>
        <time>2022-07-16T06:52:07Z</time>
      </trkpt>
      <trkpt lat="46.62061" lon="5.58026">
        <ele>425</ele>
        <time>2022-07-16T06:52:08Z</time>
      </trkpt>
      <trkpt lat="46.62068" lon="5.58023">
        <ele>424.8</ele>
        <time>2022-07-16T06:52:09Z</time>
      </trkpt>
      <trkpt lat="46.62077" lon="5.58016">
        <ele>424.6</ele>
        <time>2022-07-16T06:52:10Z</time>
      </trkpt>
      <trkpt lat="46.62095" lon="5.58003">
        <ele>424</ele>
        <time>2022-07-16T06:52:12Z</time>
      </trkpt>
      <trkpt lat="46.62113" lon="5.57987">
        <ele>423.6</ele>
        <time>2022-07-16T06:52:14Z</time>
      </trkpt>
      <trkpt lat="46.62123" lon="5.57979">
        <ele>422.4</ele>
        <time>2022-07-16T06:52:15Z</time>
      </trkpt>
      <trkpt lat="46.62143" lon="5.57962">
        <ele>420.8</ele>
        <time>2022-07-16T06:52:17Z</time>
      </trkpt>
      <trkpt lat="46.62163" lon="5.57943">
        <ele>419.4</ele>
        <time>2022-07-16T06:52:19Z</time>
      </trkpt>
      <trkpt lat="46.62173" lon="5.57932">
        <ele>419</ele>
        <time>2022-07-16T06:52:20Z</time>
      </trkpt>
      <trkpt lat="46.62181" lon="5.5792">
        <ele>418.4</ele>
        <time>2022-07-16T06:52:21Z</time>
      </trkpt>
      <trkpt lat="46.62189" lon="5.57909">
        <ele>418</ele>
        <time>2022-07-16T06:52:22Z</time>
      </trkpt>
      <trkpt lat="46.62206" lon="5.57883">
        <ele>416.2</ele>
        <time>2022-07-16T06:52:24Z</time>
      </trkpt>
      <trkpt lat="46.62216" lon="5.5787">
        <ele>415.6</ele>
        <time>2022-07-16T06:52:25Z</time>
      </trkpt>
      <trkpt lat="46.62225" lon="5.57858">
        <ele>414.4</ele>
        <time>2022-07-16T06:52:26Z</time>
      </trkpt>
      <trkpt lat="46.62247" lon="5.57838">
        <ele>413.2</ele>
        <time>2022-07-16T06:52:28Z</time>
      </trkpt>
      <trkpt lat="46.62258" lon="5.5783">
        <ele>412.8</ele>
        <time>2022-07-16T06:52:29Z</time>
      </trkpt>
      <trkpt lat="46.62268" lon="5.57823">
        <ele>411.6</ele>
        <time>2022-07-16T06:52:30Z</time>
      </trkpt>
      <trkpt lat="46.62277" lon="5.57818">
        <ele>409.6</ele>
        <time>2022-07-16T06:52:31Z</time>
      </trkpt>
      <trkpt lat="46.62285" lon="5.57812">
        <ele>409</ele>
        <time>2022-07-16T06:52:32Z</time>
      </trkpt>
      <trkpt lat="46.62292" lon="5.57804">
        <ele>408</ele>
        <time>2022-07-16T06:52:33Z</time>
      </trkpt>
      <trkpt lat="46.62295" lon="5.57793">
        <ele>407.6</ele>
        <time>2022-07-16T06:52:34Z</time>
      </trkpt>
      <trkpt lat="46.62293" lon="5.57781">
        <ele>406.6</ele>
        <time>2022-07-16T06:52:35Z</time>
      </trkpt>
      <trkpt lat="46.62287" lon="5.57768">
        <ele>406.2</ele>
        <time>2022-07-16T06:52:36Z</time>
      </trkpt>
      <trkpt lat="46.6228" lon="5.57758">
        <ele>405.4</ele>
        <time>2022-07-16T06:52:37Z</time>
      </trkpt>
      <trkpt lat="46.62274" lon="5.57746">
        <ele>404.6</ele>
        <time>2022-07-16T06:52:38Z</time>
      </trkpt>
      <trkpt lat="46.62266" lon="5.57721">
        <ele>404</ele>
        <time>2022-07-16T06:52:40Z</time>
      </trkpt>
      <trkpt lat="46.62262" lon="5.57692">
        <ele>402.6</ele>
        <time>2022-07-16T06:52:42Z</time>
      </trkpt>
      <trkpt lat="46.62262" lon="5.57677">
        <ele>402.4</ele>
        <time>2022-07-16T06:52:43Z</time>
      </trkpt>
      <trkpt lat="46.62264" lon="5.57662">
        <ele>401.6</ele>
        <time>2022-07-16T06:52:44Z</time>
      </trkpt>
      <trkpt lat="46.62268" lon="5.57647">
        <ele>401</ele>
        <time>2022-07-16T06:52:45Z</time>
      </trkpt>
      <trkpt lat="46.62272" lon="5.57634">
        <ele>400.6</ele>
        <time>2022-07-16T06:52:46Z</time>
      </trkpt>
      <trkpt lat="46.62284" lon="5.57612">
        <ele>399.6</ele>
        <time>2022-07-16T06:52:48Z</time>
      </trkpt>
      <trkpt lat="46.62291" lon="5.57606">
        <ele>399.2</ele>
        <time>2022-07-16T06:52:49Z</time>
      </trkpt>
      <trkpt lat="46.623" lon="5.57603">
        <ele>398.8</ele>
        <time>2022-07-16T06:52:50Z</time>
      </trkpt>
      <trkpt lat="46.62318" lon="5.576">
        <ele>398.2</ele>
        <time>2022-07-16T06:52:52Z</time>
      </trkpt>
      <trkpt lat="46.62338" lon="5.57597">
        <ele>396.6</ele>
        <time>2022-07-16T06:52:54Z</time>
      </trkpt>
      <trkpt lat="46.62356" lon="5.57603">
        <ele>394.8</ele>
        <time>2022-07-16T06:52:56Z</time>
      </trkpt>
      <trkpt lat="46.62376" lon="5.57616">
        <ele>393.8</ele>
        <time>2022-07-16T06:52:58Z</time>
      </trkpt>
      <trkpt lat="46.62385" lon="5.57621">
        <ele>393.4</ele>
        <time>2022-07-16T06:52:59Z</time>
      </trkpt>
      <trkpt lat="46.62395" lon="5.57622">
        <ele>392.2</ele>
        <time>2022-07-16T06:53:00Z</time>
      </trkpt>
      <trkpt lat="46.62404" lon="5.57621">
        <ele>391.2</ele>
        <time>2022-07-16T06:53:01Z</time>
      </trkpt>
      <trkpt lat="46.62415" lon="5.57617">
        <ele>391</ele>
        <time>2022-07-16T06:53:02Z</time>
      </trkpt>
      <trkpt lat="46.62424" lon="5.57612">
        <ele>390.2</ele>
        <time>2022-07-16T06:53:03Z</time>
      </trkpt>
      <trkpt lat="46.62434" lon="5.57606">
        <ele>389.4</ele>
        <time>2022-07-16T06:53:04Z</time>
      </trkpt>
      <trkpt lat="46.62456" lon="5.57597">
        <ele>388.2</ele>
        <time>2022-07-16T06:53:06Z</time>
      </trkpt>
      <trkpt lat="46.62466" lon="5.57591">
        <ele>387.4</ele>
        <time>2022-07-16T06:53:07Z</time>
      </trkpt>
      <trkpt lat="46.62476" lon="5.57586">
        <ele>386.8</ele>
        <time>2022-07-16T06:53:08Z</time>
      </trkpt>
      <trkpt lat="46.62488" lon="5.57582">
        <ele>386.6</ele>
        <time>2022-07-16T06:53:09Z</time>
      </trkpt>
      <trkpt lat="46.62514" lon="5.57576">
        <ele>386</ele>
        <time>2022-07-16T06:53:11Z</time>
      </trkpt>
      <trkpt lat="46.62528" lon="5.57573">
        <ele>385.2</ele>
        <time>2022-07-16T06:53:12Z</time>
      </trkpt>
      <trkpt lat="46.62539" lon="5.57568">
        <ele>384.8</ele>
        <time>2022-07-16T06:53:13Z</time>
      </trkpt>
      <trkpt lat="46.62548" lon="5.57562">
        <ele>383.4</ele>
        <time>2022-07-16T06:53:14Z</time>
      </trkpt>
      <trkpt lat="46.62559" lon="5.57555">
        <ele>382.4</ele>
        <time>2022-07-16T06:53:15Z</time>
      </trkpt>
      <trkpt lat="46.62576" lon="5.5754">
        <ele>381.2</ele>
        <time>2022-07-16T06:53:17Z</time>
      </trkpt>
      <trkpt lat="46.62592" lon="5.57526">
        <ele>380</ele>
        <time>2022-07-16T06:53:19Z</time>
      </trkpt>
      <trkpt lat="46.62599" lon="5.57522">
        <ele>379.6</ele>
        <time>2022-07-16T06:53:20Z</time>
      </trkpt>
      <trkpt lat="46.62605" lon="5.57522">
        <ele>379.2</ele>
        <time>2022-07-16T06:53:21Z</time>
      </trkpt>
      <trkpt lat="46.62609" lon="5.57525">
        <ele>378.8</ele>
        <time>2022-07-16T06:53:22Z</time>
      </trkpt>
      <trkpt lat="46.62611" lon="5.57534">
        <ele>378.4</ele>
        <time>2022-07-16T06:53:23Z</time>
      </trkpt>
      <trkpt lat="46.62604" lon="5.57555">
        <ele>378</ele>
        <time>2022-07-16T06:53:25Z</time>
      </trkpt>
      <trkpt lat="46.62598" lon="5.57562">
        <ele>377.6</ele>
        <time>2022-07-16T06:53:26Z</time>
      </trkpt>
      <trkpt lat="46.62583" lon="5.57574">
        <ele>376.6</ele>
        <time>2022-07-16T06:53:28Z</time>
      </trkpt>
      <trkpt lat="46.62576" lon="5.5758">
        <ele>376.6</ele>
        <time>2022-07-16T06:53:29Z</time>
      </trkpt>
      <trkpt lat="46.62562" lon="5.57596">
        <ele>375</ele>
        <time>2022-07-16T06:53:31Z</time>
      </trkpt>
      <trkpt lat="46.62548" lon="5.57614">
        <ele>374</ele>
        <time>2022-07-16T06:53:33Z</time>
      </trkpt>
      <trkpt lat="46.62542" lon="5.57624">
        <ele>373.8</ele>
        <time>2022-07-16T06:53:34Z</time>
      </trkpt>
      <trkpt lat="46.62528" lon="5.57641">
        <ele>372.4</ele>
        <time>2022-07-16T06:53:36Z</time>
      </trkpt>
      <trkpt lat="46.62514" lon="5.57659">
        <ele>371.2</ele>
        <time>2022-07-16T06:53:38Z</time>
      </trkpt>
      <trkpt lat="46.6249" lon="5.57681">
        <ele>370</ele>
        <time>2022-07-16T06:53:41Z</time>
      </trkpt>
      <trkpt lat="46.62473" lon="5.57695">
        <ele>369</ele>
        <time>2022-07-16T06:53:43Z</time>
      </trkpt>
      <trkpt lat="46.62464" lon="5.57702">
        <ele>368.4</ele>
        <time>2022-07-16T06:53:44Z</time>
      </trkpt>
      <trkpt lat="46.62446" lon="5.57711">
        <ele>367.8</ele>
        <time>2022-07-16T06:53:46Z</time>
      </trkpt>
      <trkpt lat="46.62438" lon="5.57712">
        <ele>367.2</ele>
        <time>2022-07-16T06:53:47Z</time>
      </trkpt>
      <trkpt lat="46.6243" lon="5.57712">
        <ele>367</ele>
        <time>2022-07-16T06:53:48Z</time>
      </trkpt>
      <trkpt lat="46.62422" lon="5.57711">
        <ele>366.2</ele>
        <time>2022-07-16T06:53:49Z</time>
      </trkpt>
      <trkpt lat="46.62416" lon="5.57714">
        <ele>365.8</ele>
        <time>2022-07-16T06:53:50Z</time>
      </trkpt>
      <trkpt lat="46.62415" lon="5.57726">
        <ele>365.4</ele>
        <time>2022-07-16T06:53:52Z</time>
      </trkpt>
      <trkpt lat="46.6242" lon="5.57731">
        <ele>365</ele>
        <time>2022-07-16T06:53:53Z</time>
      </trkpt>
      <trkpt lat="46.62426" lon="5.57734">
        <ele>364.6</ele>
        <time>2022-07-16T06:53:54Z</time>
      </trkpt>
      <trkpt lat="46.6244" lon="5.57738">
        <ele>363.8</ele>
        <time>2022-07-16T06:53:56Z</time>
      </trkpt>
      <trkpt lat="46.62466" lon="5.57743">
        <ele>362.6</ele>
        <time>2022-07-16T06:53:59Z</time>
      </trkpt>
      <trkpt lat="46.62475" lon="5.57743">
        <ele>362.2</ele>
        <time>2022-07-16T06:54:00Z</time>
      </trkpt>
      <trkpt lat="46.62502" lon="5.57744">
        <ele>361</ele>
        <time>2022-07-16T06:54:03Z</time>
      </trkpt>
      <trkpt lat="46.62511" lon="5.57744">
        <ele>360.6</ele>
        <time>2022-07-16T06:54:04Z</time>
      </trkpt>
      <trkpt lat="46.62529" lon="5.57741">
        <ele>359.6</ele>
        <time>2022-07-16T06:54:06Z</time>
      </trkpt>
      <trkpt lat="46.62548" lon="5.57735">
        <ele>358.2</ele>
        <time>2022-07-16T06:54:08Z</time>
      </trkpt>
      <trkpt lat="46.62566" lon="5.57727">
        <ele>356.8</ele>
        <time>2022-07-16T06:54:10Z</time>
      </trkpt>
      <trkpt lat="46.62583" lon="5.57717">
        <ele>355.8</ele>
        <time>2022-07-16T06:54:12Z</time>
      </trkpt>
      <trkpt lat="46.62592" lon="5.57711">
        <ele>355.4</ele>
        <time>2022-07-16T06:54:13Z</time>
      </trkpt>
      <trkpt lat="46.62599" lon="5.57705">
        <ele>355</ele>
        <time>2022-07-16T06:54:14Z</time>
      </trkpt>
      <trkpt lat="46.62606" lon="5.577">
        <ele>354.4</ele>
        <time>2022-07-16T06:54:15Z</time>
      </trkpt>
      <trkpt lat="46.62614" lon="5.57696">
        <ele>354.2</ele>
        <time>2022-07-16T06:54:16Z</time>
      </trkpt>
      <trkpt lat="46.62662" lon="5.5768">
        <ele>353.6</ele>
        <time>2022-07-16T06:54:22Z</time>
      </trkpt>
      <trkpt lat="46.62677" lon="5.57681">
        <ele>353.4</ele>
        <time>2022-07-16T06:54:24Z</time>
      </trkpt>
      <trkpt lat="46.62685" lon="5.57684">
        <ele>353.4</ele>
        <time>2022-07-16T06:54:25Z</time>
      </trkpt>
      <trkpt lat="46.62693" lon="5.57686">
        <ele>353.2</ele>
        <time>2022-07-16T06:54:26Z</time>
      </trkpt>
      <trkpt lat="46.6271" lon="5.57686">
        <ele>352.8</ele>
        <time>2022-07-16T06:54:28Z</time>
      </trkpt>
      <trkpt lat="46.62718" lon="5.57684">
        <ele>352.8</ele>
        <time>2022-07-16T06:54:29Z</time>
      </trkpt>
      <trkpt lat="46.62727" lon="5.57681">
        <ele>352.6</ele>
        <time>2022-07-16T06:54:30Z</time>
      </trkpt>
      <trkpt lat="46.62736" lon="5.57678">
        <ele>352.2</ele>
        <time>2022-07-16T06:54:31Z</time>
      </trkpt>
      <trkpt lat="46.62755" lon="5.57669">
        <ele>351.4</ele>
        <time>2022-07-16T06:54:33Z</time>
      </trkpt>
      <trkpt lat="46.62765" lon="5.57662">
        <ele>350.8</ele>
        <time>2022-07-16T06:54:34Z</time>
      </trkpt>
      <trkpt lat="46.62773" lon="5.57654">
        <ele>349.8</ele>
        <time>2022-07-16T06:54:35Z</time>
      </trkpt>
      <trkpt lat="46.62779" lon="5.57646">
        <ele>349.2</ele>
        <time>2022-07-16T06:54:36Z</time>
      </trkpt>
      <trkpt lat="46.62786" lon="5.57633">
        <ele>348.2</ele>
        <time>2022-07-16T06:54:37Z</time>
      </trkpt>
      <trkpt lat="46.62802" lon="5.57602">
        <ele>347.4</ele>
        <time>2022-07-16T06:54:40Z</time>
      </trkpt>
      <trkpt lat="46.62808" lon="5.57593">
        <ele>347.2</ele>
        <time>2022-07-16T06:54:41Z</time>
      </trkpt>
      <trkpt lat="46.62815" lon="5.57584">
        <ele>347</ele>
        <time>2022-07-16T06:54:42Z</time>
      </trkpt>
      <trkpt lat="46.62819" lon="5.57574">
        <ele>347</ele>
        <time>2022-07-16T06:54:43Z</time>
      </trkpt>
      <trkpt lat="46.62822" lon="5.57551">
        <ele>346.6</ele>
        <time>2022-07-16T06:54:45Z</time>
      </trkpt>
      <trkpt lat="46.62825" lon="5.57522">
        <ele>346.4</ele>
        <time>2022-07-16T06:54:47Z</time>
      </trkpt>
      <trkpt lat="46.62834" lon="5.57499">
        <ele>346.2</ele>
        <time>2022-07-16T06:54:49Z</time>
      </trkpt>
      <trkpt lat="46.62849" lon="5.57482">
        <ele>346</ele>
        <time>2022-07-16T06:54:51Z</time>
      </trkpt>
      <trkpt lat="46.62857" lon="5.57476">
        <ele>345.8</ele>
        <time>2022-07-16T06:54:52Z</time>
      </trkpt>
      <trkpt lat="46.62884" lon="5.57456">
        <ele>345</ele>
        <time>2022-07-16T06:54:55Z</time>
      </trkpt>
      <trkpt lat="46.62902" lon="5.57443">
        <ele>343.8</ele>
        <time>2022-07-16T06:54:57Z</time>
      </trkpt>
      <trkpt lat="46.62926" lon="5.57423">
        <ele>342.4</ele>
        <time>2022-07-16T06:55:00Z</time>
      </trkpt>
      <trkpt lat="46.62953" lon="5.57404">
        <ele>341.4</ele>
        <time>2022-07-16T06:55:03Z</time>
      </trkpt>
      <trkpt lat="46.62974" lon="5.57394">
        <ele>341.2</ele>
        <time>2022-07-16T06:55:05Z</time>
      </trkpt>
      <trkpt lat="46.62994" lon="5.57386">
        <ele>340.2</ele>
        <time>2022-07-16T06:55:07Z</time>
      </trkpt>
      <trkpt lat="46.63012" lon="5.57379">
        <ele>339.4</ele>
        <time>2022-07-16T06:55:09Z</time>
      </trkpt>
      <trkpt lat="46.63042" lon="5.5737">
        <ele>338.6</ele>
        <time>2022-07-16T06:55:12Z</time>
      </trkpt>
      <trkpt lat="46.63054" lon="5.57368">
        <ele>338.4</ele>
        <time>2022-07-16T06:55:13Z</time>
      </trkpt>
      <trkpt lat="46.63064" lon="5.57367">
        <ele>337.8</ele>
        <time>2022-07-16T06:55:14Z</time>
      </trkpt>
      <trkpt lat="46.63075" lon="5.57367">
        <ele>337.2</ele>
        <time>2022-07-16T06:55:15Z</time>
      </trkpt>
      <trkpt lat="46.63096" lon="5.57366">
        <ele>336.2</ele>
        <time>2022-07-16T06:55:17Z</time>
      </trkpt>
      <trkpt lat="46.63128" lon="5.57361">
        <ele>335</ele>
        <time>2022-07-16T06:55:20Z</time>
      </trkpt>
      <trkpt lat="46.63138" lon="5.57357">
        <ele>334.6</ele>
        <time>2022-07-16T06:55:21Z</time>
      </trkpt>
      <trkpt lat="46.63148" lon="5.57352">
        <ele>334.2</ele>
        <time>2022-07-16T06:55:22Z</time>
      </trkpt>
      <trkpt lat="46.63163" lon="5.5734">
        <ele>334</ele>
        <time>2022-07-16T06:55:24Z</time>
      </trkpt>
      <trkpt lat="46.63195" lon="5.57307">
        <ele>333.8</ele>
        <time>2022-07-16T06:55:28Z</time>
      </trkpt>
      <trkpt lat="46.63234" lon="5.57264">
        <ele>334.4</ele>
        <time>2022-07-16T06:55:34Z</time>
      </trkpt>
      <trkpt lat="46.63275" lon="5.57231">
        <ele>334.8</ele>
        <time>2022-07-16T06:55:40Z</time>
      </trkpt>
      <trkpt lat="46.63324" lon="5.57195">
        <ele>334.8</ele>
        <time>2022-07-16T06:55:47Z</time>
      </trkpt>
      <trkpt lat="46.63338" lon="5.57184">
        <ele>334.8</ele>
        <time>2022-07-16T06:55:49Z</time>
      </trkpt>
      <trkpt lat="46.63385" lon="5.57141">
        <ele>334.8</ele>
        <time>2022-07-16T06:55:56Z</time>
      </trkpt>
      <trkpt lat="46.63391" lon="5.57135">
        <ele>334.6</ele>
        <time>2022-07-16T06:55:57Z</time>
      </trkpt>
      <trkpt lat="46.63417" lon="5.57114">
        <ele>334</ele>
        <time>2022-07-16T06:56:01Z</time>
      </trkpt>
      <trkpt lat="46.63431" lon="5.57105">
        <ele>333.4</ele>
        <time>2022-07-16T06:56:03Z</time>
      </trkpt>
      <trkpt lat="46.63476" lon="5.57067">
        <ele>333.2</ele>
        <time>2022-07-16T06:56:10Z</time>
      </trkpt>
      <trkpt lat="46.63521" lon="5.57023">
        <ele>333.2</ele>
        <time>2022-07-16T06:56:17Z</time>
      </trkpt>
      <trkpt lat="46.63527" lon="5.57017">
        <ele>333.2</ele>
        <time>2022-07-16T06:56:18Z</time>
      </trkpt>
      <trkpt lat="46.63553" lon="5.56979">
        <ele>332.4</ele>
        <time>2022-07-16T06:56:22Z</time>
      </trkpt>
      <trkpt lat="46.63565" lon="5.56958">
        <ele>331.6</ele>
        <time>2022-07-16T06:56:24Z</time>
      </trkpt>
      <trkpt lat="46.63576" lon="5.56935">
        <ele>330.6</ele>
        <time>2022-07-16T06:56:26Z</time>
      </trkpt>
      <trkpt lat="46.6358" lon="5.56925">
        <ele>330.2</ele>
        <time>2022-07-16T06:56:27Z</time>
      </trkpt>
      <trkpt lat="46.63589" lon="5.56898">
        <ele>329.2</ele>
        <time>2022-07-16T06:56:29Z</time>
      </trkpt>
      <trkpt lat="46.63597" lon="5.5687">
        <ele>327.6</ele>
        <time>2022-07-16T06:56:31Z</time>
      </trkpt>
      <trkpt lat="46.63606" lon="5.56841">
        <ele>326.4</ele>
        <time>2022-07-16T06:56:33Z</time>
      </trkpt>
      <trkpt lat="46.63611" lon="5.56826">
        <ele>326.2</ele>
        <time>2022-07-16T06:56:34Z</time>
      </trkpt>
      <trkpt lat="46.63624" lon="5.56799">
        <ele>325.4</ele>
        <time>2022-07-16T06:56:36Z</time>
      </trkpt>
      <trkpt lat="46.63632" lon="5.56784">
        <ele>324.6</ele>
        <time>2022-07-16T06:56:37Z</time>
      </trkpt>
      <trkpt lat="46.63639" lon="5.56776">
        <ele>324</ele>
        <time>2022-07-16T06:56:38Z</time>
      </trkpt>
      <trkpt lat="46.63649" lon="5.56763">
        <ele>323.6</ele>
        <time>2022-07-16T06:56:39Z</time>
      </trkpt>
      <trkpt lat="46.63658" lon="5.56754">
        <ele>322.6</ele>
        <time>2022-07-16T06:56:40Z</time>
      </trkpt>
      <trkpt lat="46.63678" lon="5.56738">
        <ele>320.8</ele>
        <time>2022-07-16T06:56:42Z</time>
      </trkpt>
      <trkpt lat="46.63686" lon="5.56732">
        <ele>320.2</ele>
        <time>2022-07-16T06:56:43Z</time>
      </trkpt>
      <trkpt lat="46.63696" lon="5.56725">
        <ele>319.6</ele>
        <time>2022-07-16T06:56:44Z</time>
      </trkpt>
      <trkpt lat="46.63731" lon="5.567">
        <ele>318</ele>
        <time>2022-07-16T06:56:47Z</time>
      </trkpt>
      <trkpt lat="46.63741" lon="5.5669">
        <ele>317.2</ele>
        <time>2022-07-16T06:56:48Z</time>
      </trkpt>
      <trkpt lat="46.63748" lon="5.56681">
        <ele>316.2</ele>
        <time>2022-07-16T06:56:49Z</time>
      </trkpt>
      <trkpt lat="46.63759" lon="5.56666">
        <ele>315.6</ele>
        <time>2022-07-16T06:56:50Z</time>
      </trkpt>
      <trkpt lat="46.63766" lon="5.56653">
        <ele>314.8</ele>
        <time>2022-07-16T06:56:51Z</time>
      </trkpt>
      <trkpt lat="46.63772" lon="5.56641">
        <ele>314.2</ele>
        <time>2022-07-16T06:56:52Z</time>
      </trkpt>
      <trkpt lat="46.63779" lon="5.56626">
        <ele>313</ele>
        <time>2022-07-16T06:56:53Z</time>
      </trkpt>
      <trkpt lat="46.63786" lon="5.56607">
        <ele>312.2</ele>
        <time>2022-07-16T06:56:54Z</time>
      </trkpt>
      <trkpt lat="46.63791" lon="5.56591">
        <ele>311.8</ele>
        <time>2022-07-16T06:56:55Z</time>
      </trkpt>
      <trkpt lat="46.63794" lon="5.56577">
        <ele>310.6</ele>
        <time>2022-07-16T06:56:56Z</time>
      </trkpt>
      <trkpt lat="46.63802" lon="5.56538">
        <ele>309.4</ele>
        <time>2022-07-16T06:56:58Z</time>
      </trkpt>
      <trkpt lat="46.63808" lon="5.56506">
        <ele>307.6</ele>
        <time>2022-07-16T06:57:00Z</time>
      </trkpt>
      <trkpt lat="46.63813" lon="5.5649">
        <ele>306.6</ele>
        <time>2022-07-16T06:57:01Z</time>
      </trkpt>
      <trkpt lat="46.63819" lon="5.56475">
        <ele>306.2</ele>
        <time>2022-07-16T06:57:02Z</time>
      </trkpt>
      <trkpt lat="46.63836" lon="5.56435">
        <ele>305.6</ele>
        <time>2022-07-16T06:57:05Z</time>
      </trkpt>
      <trkpt lat="46.6387" lon="5.56379">
        <ele>305.4</ele>
        <time>2022-07-16T06:57:10Z</time>
      </trkpt>
      <trkpt lat="46.63889" lon="5.56358">
        <ele>305.4</ele>
        <time>2022-07-16T06:57:12Z</time>
      </trkpt>
      <trkpt lat="46.63898" lon="5.5635">
        <ele>305.4</ele>
        <time>2022-07-16T06:57:13Z</time>
      </trkpt>
      <trkpt lat="46.63906" lon="5.56346">
        <ele>305.4</ele>
        <time>2022-07-16T06:57:14Z</time>
      </trkpt>
      <trkpt lat="46.63919" lon="5.5634">
        <ele>304.8</ele>
        <time>2022-07-16T06:57:15Z</time>
      </trkpt>
      <trkpt lat="46.6393" lon="5.56336">
        <ele>304.2</ele>
        <time>2022-07-16T06:57:16Z</time>
      </trkpt>
      <trkpt lat="46.63941" lon="5.56333">
        <ele>302.8</ele>
        <time>2022-07-16T06:57:17Z</time>
      </trkpt>
      <trkpt lat="46.6395" lon="5.56329">
        <ele>302.4</ele>
        <time>2022-07-16T06:57:18Z</time>
      </trkpt>
      <trkpt lat="46.63962" lon="5.56321">
        <ele>301.6</ele>
        <time>2022-07-16T06:57:19Z</time>
      </trkpt>
      <trkpt lat="46.63972" lon="5.56313">
        <ele>301.6</ele>
        <time>2022-07-16T06:57:20Z</time>
      </trkpt>
      <trkpt lat="46.64004" lon="5.56272">
        <ele>300.2</ele>
        <time>2022-07-16T06:57:24Z</time>
      </trkpt>
      <trkpt lat="46.64013" lon="5.56257">
        <ele>300</ele>
        <time>2022-07-16T06:57:25Z</time>
      </trkpt>
      <trkpt lat="46.64024" lon="5.56231">
        <ele>298.8</ele>
        <time>2022-07-16T06:57:27Z</time>
      </trkpt>
      <trkpt lat="46.64029" lon="5.56213">
        <ele>298.2</ele>
        <time>2022-07-16T06:57:28Z</time>
      </trkpt>
      <trkpt lat="46.64036" lon="5.56184">
        <ele>297.2</ele>
        <time>2022-07-16T06:57:30Z</time>
      </trkpt>
      <trkpt lat="46.64039" lon="5.56168">
        <ele>296.4</ele>
        <time>2022-07-16T06:57:31Z</time>
      </trkpt>
      <trkpt lat="46.64042" lon="5.56151">
        <ele>296</ele>
        <time>2022-07-16T06:57:32Z</time>
      </trkpt>
      <trkpt lat="46.6405" lon="5.56116">
        <ele>295.2</ele>
        <time>2022-07-16T06:57:34Z</time>
      </trkpt>
      <trkpt lat="46.64054" lon="5.56104">
        <ele>294.6</ele>
        <time>2022-07-16T06:57:35Z</time>
      </trkpt>
      <trkpt lat="46.6406" lon="5.5609">
        <ele>294.2</ele>
        <time>2022-07-16T06:57:36Z</time>
      </trkpt>
      <trkpt lat="46.64068" lon="5.56073">
        <ele>293.4</ele>
        <time>2022-07-16T06:57:37Z</time>
      </trkpt>
      <trkpt lat="46.64089" lon="5.56039">
        <ele>293</ele>
        <time>2022-07-16T06:57:40Z</time>
      </trkpt>
      <trkpt lat="46.64099" lon="5.56025">
        <ele>292.6</ele>
        <time>2022-07-16T06:57:41Z</time>
      </trkpt>
      <trkpt lat="46.64116" lon="5.56002">
        <ele>291.6</ele>
        <time>2022-07-16T06:57:43Z</time>
      </trkpt>
      <trkpt lat="46.64136" lon="5.55965">
        <ele>290.2</ele>
        <time>2022-07-16T06:57:46Z</time>
      </trkpt>
      <trkpt lat="46.64158" lon="5.55907">
        <ele>289</ele>
        <time>2022-07-16T06:57:50Z</time>
      </trkpt>
      <trkpt lat="46.64164" lon="5.55893">
        <ele>288.6</ele>
        <time>2022-07-16T06:57:51Z</time>
      </trkpt>
      <trkpt lat="46.64179" lon="5.55857">
        <ele>287.6</ele>
        <time>2022-07-16T06:57:54Z</time>
      </trkpt>
      <trkpt lat="46.64193" lon="5.5583">
        <ele>287.2</ele>
        <time>2022-07-16T06:57:56Z</time>
      </trkpt>
      <trkpt lat="46.64223" lon="5.55775">
        <ele>286.6</ele>
        <time>2022-07-16T06:58:01Z</time>
      </trkpt>
      <trkpt lat="46.6424" lon="5.55741">
        <ele>286.2</ele>
        <time>2022-07-16T06:58:04Z</time>
      </trkpt>
      <trkpt lat="46.64275" lon="5.55673">
        <ele>285.8</ele>
        <time>2022-07-16T06:58:10Z</time>
      </trkpt>
      <trkpt lat="46.64286" lon="5.5565">
        <ele>285.6</ele>
        <time>2022-07-16T06:58:12Z</time>
      </trkpt>
      <trkpt lat="46.64292" lon="5.55639">
        <ele>285.6</ele>
        <time>2022-07-16T06:58:13Z</time>
      </trkpt>
      <trkpt lat="46.64325" lon="5.55575">
        <ele>285</ele>
        <time>2022-07-16T06:58:19Z</time>
      </trkpt>
      <trkpt lat="46.6433" lon="5.55565">
        <ele>284.8</ele>
        <time>2022-07-16T06:58:20Z</time>
      </trkpt>
      <trkpt lat="46.64337" lon="5.55553">
        <ele>284.4</ele>
        <time>2022-07-16T06:58:21Z</time>
      </trkpt>
      <trkpt lat="46.64375" lon="5.55481">
        <ele>283.2</ele>
        <time>2022-07-16T06:58:28Z</time>
      </trkpt>
      <trkpt lat="46.64416" lon="5.55414">
        <ele>282.6</ele>
        <time>2022-07-16T06:58:35Z</time>
      </trkpt>
      <trkpt lat="46.64462" lon="5.55357">
        <ele>282</ele>
        <time>2022-07-16T06:58:42Z</time>
      </trkpt>
      <trkpt lat="46.64476" lon="5.5534">
        <ele>282</ele>
        <time>2022-07-16T06:58:44Z</time>
      </trkpt>
      <trkpt lat="46.64517" lon="5.55274">
        <ele>281</ele>
        <time>2022-07-16T06:58:51Z</time>
      </trkpt>
      <trkpt lat="46.6455" lon="5.55209">
        <ele>280.6</ele>
        <time>2022-07-16T06:58:58Z</time>
      </trkpt>
      <trkpt lat="46.64554" lon="5.55199">
        <ele>280.6</ele>
        <time>2022-07-16T06:58:59Z</time>
      </trkpt>
      <trkpt lat="46.64579" lon="5.55137">
        <ele>280</ele>
        <time>2022-07-16T06:59:05Z</time>
      </trkpt>
      <trkpt lat="46.64584" lon="5.55126">
        <ele>280</ele>
        <time>2022-07-16T06:59:06Z</time>
      </trkpt>
      <trkpt lat="46.64593" lon="5.55105">
        <ele>279</ele>
        <time>2022-07-16T06:59:08Z</time>
      </trkpt>
      <trkpt lat="46.64607" lon="5.55068">
        <ele>278.2</ele>
        <time>2022-07-16T06:59:11Z</time>
      </trkpt>
      <trkpt lat="46.64611" lon="5.55056">
        <ele>277.8</ele>
        <time>2022-07-16T06:59:12Z</time>
      </trkpt>
      <trkpt lat="46.64628" lon="5.55009">
        <ele>276.6</ele>
        <time>2022-07-16T06:59:16Z</time>
      </trkpt>
      <trkpt lat="46.64636" lon="5.54988">
        <ele>276.4</ele>
        <time>2022-07-16T06:59:18Z</time>
      </trkpt>
      <trkpt lat="46.64641" lon="5.54976">
        <ele>276.2</ele>
        <time>2022-07-16T06:59:19Z</time>
      </trkpt>
      <trkpt lat="46.64646" lon="5.54965">
        <ele>276.2</ele>
        <time>2022-07-16T06:59:20Z</time>
      </trkpt>
      <trkpt lat="46.64659" lon="5.54944">
        <ele>275.8</ele>
        <time>2022-07-16T06:59:22Z</time>
      </trkpt>
      <trkpt lat="46.64666" lon="5.54935">
        <ele>275.4</ele>
        <time>2022-07-16T06:59:23Z</time>
      </trkpt>
      <trkpt lat="46.64696" lon="5.54895">
        <ele>274.2</ele>
        <time>2022-07-16T06:59:27Z</time>
      </trkpt>
      <trkpt lat="46.64701" lon="5.54883">
        <ele>273.8</ele>
        <time>2022-07-16T06:59:28Z</time>
      </trkpt>
      <trkpt lat="46.6471" lon="5.54858">
        <ele>273</ele>
        <time>2022-07-16T06:59:30Z</time>
      </trkpt>
      <trkpt lat="46.64726" lon="5.54808">
        <ele>272</ele>
        <time>2022-07-16T06:59:34Z</time>
      </trkpt>
      <trkpt lat="46.64728" lon="5.54798">
        <ele>271.6</ele>
        <time>2022-07-16T06:59:35Z</time>
      </trkpt>
      <trkpt lat="46.64735" lon="5.54749">
        <ele>271</ele>
        <time>2022-07-16T06:59:39Z</time>
      </trkpt>
      <trkpt lat="46.64745" lon="5.54677">
        <ele>271</ele>
        <time>2022-07-16T06:59:45Z</time>
      </trkpt>
      <trkpt lat="46.64745" lon="5.54665">
        <ele>271</ele>
        <time>2022-07-16T06:59:46Z</time>
      </trkpt>
      <trkpt lat="46.64742" lon="5.54642">
        <ele>271</ele>
        <time>2022-07-16T06:59:48Z</time>
      </trkpt>
      <trkpt lat="46.64729" lon="5.54593">
        <ele>271.4</ele>
        <time>2022-07-16T06:59:53Z</time>
      </trkpt>
      <trkpt lat="46.64713" lon="5.54559">
        <ele>272</ele>
        <time>2022-07-16T06:59:57Z</time>
      </trkpt>
      <trkpt lat="46.64697" lon="5.54529">
        <ele>273</ele>
        <time>2022-07-16T07:00:01Z</time>
      </trkpt>
      <trkpt lat="46.64684" lon="5.54508">
        <ele>273.2</ele>
        <time>2022-07-16T07:00:04Z</time>
      </trkpt>
      <trkpt lat="46.64677" lon="5.54493">
        <ele>273.6</ele>
        <time>2022-07-16T07:00:06Z</time>
      </trkpt>
      <trkpt lat="46.64671" lon="5.54478">
        <ele>274</ele>
        <time>2022-07-16T07:00:08Z</time>
      </trkpt>
      <trkpt lat="46.64669" lon="5.54469">
        <ele>274</ele>
        <time>2022-07-16T07:00:09Z</time>
      </trkpt>
      <trkpt lat="46.64653" lon="5.54409">
        <ele>274.6</ele>
        <time>2022-07-16T07:00:15Z</time>
      </trkpt>
      <trkpt lat="46.64635" lon="5.54344">
        <ele>274</ele>
        <time>2022-07-16T07:00:21Z</time>
      </trkpt>
      <trkpt lat="46.64621" lon="5.54303">
        <ele>272.8</ele>
        <time>2022-07-16T07:00:25Z</time>
      </trkpt>
      <trkpt lat="46.64613" lon="5.5428">
        <ele>272.4</ele>
        <time>2022-07-16T07:00:27Z</time>
      </trkpt>
      <trkpt lat="46.64607" lon="5.54261">
        <ele>271.8</ele>
        <time>2022-07-16T07:00:29Z</time>
      </trkpt>
      <trkpt lat="46.64591" lon="5.54218">
        <ele>270.8</ele>
        <time>2022-07-16T07:00:33Z</time>
      </trkpt>
      <trkpt lat="46.64586" lon="5.54205">
        <ele>270.6</ele>
        <time>2022-07-16T07:00:34Z</time>
      </trkpt>
      <trkpt lat="46.64569" lon="5.54166">
        <ele>269.4</ele>
        <time>2022-07-16T07:00:38Z</time>
      </trkpt>
      <trkpt lat="46.64562" lon="5.54147">
        <ele>268.8</ele>
        <time>2022-07-16T07:00:40Z</time>
      </trkpt>
      <trkpt lat="46.64561" lon="5.54137">
        <ele>268.6</ele>
        <time>2022-07-16T07:00:41Z</time>
      </trkpt>
      <trkpt lat="46.64561" lon="5.54127">
        <ele>268.2</ele>
        <time>2022-07-16T07:00:42Z</time>
      </trkpt>
      <trkpt lat="46.64567" lon="5.5411">
        <ele>267.8</ele>
        <time>2022-07-16T07:00:44Z</time>
      </trkpt>
      <trkpt lat="46.64585" lon="5.54094">
        <ele>267</ele>
        <time>2022-07-16T07:00:47Z</time>
      </trkpt>
      <trkpt lat="46.64614" lon="5.54073">
        <ele>265.8</ele>
        <time>2022-07-16T07:00:51Z</time>
      </trkpt>
      <trkpt lat="46.64621" lon="5.54069">
        <ele>265.6</ele>
        <time>2022-07-16T07:00:52Z</time>
      </trkpt>
      <trkpt lat="46.64644" lon="5.54057">
        <ele>265.2</ele>
        <time>2022-07-16T07:00:55Z</time>
      </trkpt>
      <trkpt lat="46.64659" lon="5.54053">
        <ele>265</ele>
        <time>2022-07-16T07:00:57Z</time>
      </trkpt>
      <trkpt lat="46.64696" lon="5.54043">
        <ele>265</ele>
        <time>2022-07-16T07:01:02Z</time>
      </trkpt>
      <trkpt lat="46.64702" lon="5.54039">
        <ele>265</ele>
        <time>2022-07-16T07:01:03Z</time>
      </trkpt>
      <trkpt lat="46.64707" lon="5.54033">
        <ele>265</ele>
        <time>2022-07-16T07:01:04Z</time>
      </trkpt>
      <trkpt lat="46.6471" lon="5.54026">
        <ele>265</ele>
        <time>2022-07-16T07:01:05Z</time>
      </trkpt>
      <trkpt lat="46.64709" lon="5.54017">
        <ele>265</ele>
        <time>2022-07-16T07:01:06Z</time>
      </trkpt>
      <trkpt lat="46.64703" lon="5.53998">
        <ele>265</ele>
        <time>2022-07-16T07:01:08Z</time>
      </trkpt>
      <trkpt lat="46.64689" lon="5.53953">
        <ele>264.6</ele>
        <time>2022-07-16T07:01:12Z</time>
      </trkpt>
      <trkpt lat="46.64683" lon="5.53931">
        <ele>264.2</ele>
        <time>2022-07-16T07:01:14Z</time>
      </trkpt>
      <trkpt lat="46.64682" lon="5.53907">
        <ele>263.8</ele>
        <time>2022-07-16T07:01:16Z</time>
      </trkpt>
      <trkpt lat="46.64684" lon="5.53897">
        <ele>263.6</ele>
        <time>2022-07-16T07:01:17Z</time>
      </trkpt>
      <trkpt lat="46.64689" lon="5.53889">
        <ele>263.6</ele>
        <time>2022-07-16T07:01:18Z</time>
      </trkpt>
      <trkpt lat="46.64696" lon="5.53884">
        <ele>263.2</ele>
        <time>2022-07-16T07:01:19Z</time>
      </trkpt>
      <trkpt lat="46.64727" lon="5.5387">
        <ele>262.4</ele>
        <time>2022-07-16T07:01:23Z</time>
      </trkpt>
      <trkpt lat="46.64736" lon="5.53864">
        <ele>262</ele>
        <time>2022-07-16T07:01:24Z</time>
      </trkpt>
      <trkpt lat="46.64756" lon="5.53846">
        <ele>261.6</ele>
        <time>2022-07-16T07:01:27Z</time>
      </trkpt>
      <trkpt lat="46.64783" lon="5.53798">
        <ele>261</ele>
        <time>2022-07-16T07:01:32Z</time>
      </trkpt>
      <trkpt lat="46.64788" lon="5.53788">
        <ele>260.8</ele>
        <time>2022-07-16T07:01:33Z</time>
      </trkpt>
      <trkpt lat="46.64811" lon="5.53725">
        <ele>260.2</ele>
        <time>2022-07-16T07:01:39Z</time>
      </trkpt>
      <trkpt lat="46.64831" lon="5.53669">
        <ele>259.8</ele>
        <time>2022-07-16T07:01:44Z</time>
      </trkpt>
      <trkpt lat="46.64835" lon="5.53658">
        <ele>259.8</ele>
        <time>2022-07-16T07:01:45Z</time>
      </trkpt>
      <trkpt lat="46.64864" lon="5.53582">
        <ele>258.8</ele>
        <time>2022-07-16T07:01:52Z</time>
      </trkpt>
      <trkpt lat="46.64873" lon="5.53557">
        <ele>258.6</ele>
        <time>2022-07-16T07:01:54Z</time>
      </trkpt>
      <trkpt lat="46.6489" lon="5.53516">
        <ele>257.8</ele>
        <time>2022-07-16T07:01:58Z</time>
      </trkpt>
      <trkpt lat="46.64917" lon="5.53451">
        <ele>257</ele>
        <time>2022-07-16T07:02:04Z</time>
      </trkpt>
      <trkpt lat="46.64921" lon="5.5344">
        <ele>256.8</ele>
        <time>2022-07-16T07:02:05Z</time>
      </trkpt>
      <trkpt lat="46.64953" lon="5.53367">
        <ele>256.4</ele>
        <time>2022-07-16T07:02:12Z</time>
      </trkpt>
      <trkpt lat="46.64967" lon="5.53336">
        <ele>255.8</ele>
        <time>2022-07-16T07:02:15Z</time>
      </trkpt>
      <trkpt lat="46.64994" lon="5.53286">
        <ele>255.2</ele>
        <time>2022-07-16T07:02:20Z</time>
      </trkpt>
      <trkpt lat="46.65018" lon="5.53233">
        <ele>254.8</ele>
        <time>2022-07-16T07:02:25Z</time>
      </trkpt>
      <trkpt lat="46.65026" lon="5.53212">
        <ele>254.2</ele>
        <time>2022-07-16T07:02:27Z</time>
      </trkpt>
      <trkpt lat="46.65038" lon="5.53177">
        <ele>253.6</ele>
        <time>2022-07-16T07:02:30Z</time>
      </trkpt>
      <trkpt lat="46.65054" lon="5.53147">
        <ele>253.2</ele>
        <time>2022-07-16T07:02:33Z</time>
      </trkpt>
      <trkpt lat="46.65075" lon="5.53108">
        <ele>252.4</ele>
        <time>2022-07-16T07:02:37Z</time>
      </trkpt>
      <trkpt lat="46.6509" lon="5.53079">
        <ele>252.2</ele>
        <time>2022-07-16T07:02:40Z</time>
      </trkpt>
      <trkpt lat="46.65116" lon="5.53016">
        <ele>252</ele>
        <time>2022-07-16T07:02:46Z</time>
      </trkpt>
      <trkpt lat="46.6515" lon="5.52943">
        <ele>251.6</ele>
        <time>2022-07-16T07:02:53Z</time>
      </trkpt>
      <trkpt lat="46.65156" lon="5.52933">
        <ele>251.4</ele>
        <time>2022-07-16T07:02:54Z</time>
      </trkpt>
      <trkpt lat="46.65181" lon="5.52887">
        <ele>250.8</ele>
        <time>2022-07-16T07:02:59Z</time>
      </trkpt>
      <trkpt lat="46.65185" lon="5.52878">
        <ele>250.8</ele>
        <time>2022-07-16T07:03:00Z</time>
      </trkpt>
      <trkpt lat="46.65194" lon="5.5286">
        <ele>250.6</ele>
        <time>2022-07-16T07:03:02Z</time>
      </trkpt>
      <trkpt lat="46.65196" lon="5.5285">
        <ele>250.8</ele>
        <time>2022-07-16T07:03:03Z</time>
      </trkpt>
      <trkpt lat="46.65199" lon="5.52829">
        <ele>250.8</ele>
        <time>2022-07-16T07:03:05Z</time>
      </trkpt>
      <trkpt lat="46.65202" lon="5.52808">
        <ele>251</ele>
        <time>2022-07-16T07:03:07Z</time>
      </trkpt>
      <trkpt lat="46.65209" lon="5.52792">
        <ele>251.4</ele>
        <time>2022-07-16T07:03:09Z</time>
      </trkpt>
      <trkpt lat="46.65215" lon="5.52788">
        <ele>251.6</ele>
        <time>2022-07-16T07:03:10Z</time>
      </trkpt>
      <trkpt lat="46.65222" lon="5.52785">
        <ele>251.6</ele>
        <time>2022-07-16T07:03:11Z</time>
      </trkpt>
      <trkpt lat="46.65237" lon="5.52782">
        <ele>251.6</ele>
        <time>2022-07-16T07:03:13Z</time>
      </trkpt>
      <trkpt lat="46.65254" lon="5.52774">
        <ele>251.6</ele>
        <time>2022-07-16T07:03:15Z</time>
      </trkpt>
      <trkpt lat="46.6527" lon="5.52762">
        <ele>251</ele>
        <time>2022-07-16T07:03:17Z</time>
      </trkpt>
      <trkpt lat="46.65287" lon="5.52747">
        <ele>250</ele>
        <time>2022-07-16T07:03:19Z</time>
      </trkpt>
      <trkpt lat="46.65316" lon="5.52718">
        <ele>248.6</ele>
        <time>2022-07-16T07:03:23Z</time>
      </trkpt>
      <trkpt lat="46.65323" lon="5.52711">
        <ele>248.4</ele>
        <time>2022-07-16T07:03:24Z</time>
      </trkpt>
      <trkpt lat="46.65351" lon="5.52677">
        <ele>247.6</ele>
        <time>2022-07-16T07:03:28Z</time>
      </trkpt>
      <trkpt lat="46.65362" lon="5.52657">
        <ele>247.2</ele>
        <time>2022-07-16T07:03:30Z</time>
      </trkpt>
      <trkpt lat="46.65384" lon="5.52602">
        <ele>246.6</ele>
        <time>2022-07-16T07:03:35Z</time>
      </trkpt>
      <trkpt lat="46.65407" lon="5.52532">
        <ele>245.8</ele>
        <time>2022-07-16T07:03:41Z</time>
      </trkpt>
      <trkpt lat="46.65419" lon="5.52511">
        <ele>245.6</ele>
        <time>2022-07-16T07:03:43Z</time>
      </trkpt>
      <trkpt lat="46.65425" lon="5.52502">
        <ele>245.6</ele>
        <time>2022-07-16T07:03:44Z</time>
      </trkpt>
      <trkpt lat="46.65433" lon="5.52494">
        <ele>245.4</ele>
        <time>2022-07-16T07:03:45Z</time>
      </trkpt>
      <trkpt lat="46.65471" lon="5.52457">
        <ele>244.4</ele>
        <time>2022-07-16T07:03:50Z</time>
      </trkpt>
      <trkpt lat="46.65487" lon="5.52444">
        <ele>244.2</ele>
        <time>2022-07-16T07:03:52Z</time>
      </trkpt>
      <trkpt lat="46.65541" lon="5.52396">
        <ele>244</ele>
        <time>2022-07-16T07:03:59Z</time>
      </trkpt>
      <trkpt lat="46.65557" lon="5.52383">
        <ele>243.8</ele>
        <time>2022-07-16T07:04:01Z</time>
      </trkpt>
      <trkpt lat="46.65589" lon="5.5236">
        <ele>243.4</ele>
        <time>2022-07-16T07:04:05Z</time>
      </trkpt>
      <trkpt lat="46.6562" lon="5.52338">
        <ele>243.4</ele>
        <time>2022-07-16T07:04:09Z</time>
      </trkpt>
      <trkpt lat="46.65676" lon="5.52302">
        <ele>243.6</ele>
        <time>2022-07-16T07:04:16Z</time>
      </trkpt>
      <trkpt lat="46.657" lon="5.52288">
        <ele>244</ele>
        <time>2022-07-16T07:04:19Z</time>
      </trkpt>
      <trkpt lat="46.65719" lon="5.52272">
        <ele>244.2</ele>
        <time>2022-07-16T07:04:22Z</time>
      </trkpt>
      <trkpt lat="46.65738" lon="5.52252">
        <ele>244.6</ele>
        <time>2022-07-16T07:04:25Z</time>
      </trkpt>
      <trkpt lat="46.65755" lon="5.52231">
        <ele>246</ele>
        <time>2022-07-16T07:04:28Z</time>
      </trkpt>
      <trkpt lat="46.65764" lon="5.52216">
        <ele>246.4</ele>
        <time>2022-07-16T07:04:30Z</time>
      </trkpt>
      <trkpt lat="46.65774" lon="5.52191">
        <ele>247.2</ele>
        <time>2022-07-16T07:04:33Z</time>
      </trkpt>
      <trkpt lat="46.6579" lon="5.52159">
        <ele>248.4</ele>
        <time>2022-07-16T07:04:37Z</time>
      </trkpt>
      <trkpt lat="46.658" lon="5.52145">
        <ele>248.8</ele>
        <time>2022-07-16T07:04:39Z</time>
      </trkpt>
      <trkpt lat="46.65817" lon="5.52124">
        <ele>249.6</ele>
        <time>2022-07-16T07:04:42Z</time>
      </trkpt>
      <trkpt lat="46.65844" lon="5.52089">
        <ele>250</ele>
        <time>2022-07-16T07:04:47Z</time>
      </trkpt>
      <trkpt lat="46.6585" lon="5.52083">
        <ele>250</ele>
        <time>2022-07-16T07:04:48Z</time>
      </trkpt>
      <trkpt lat="46.65867" lon="5.52062">
        <ele>250</ele>
        <time>2022-07-16T07:04:51Z</time>
      </trkpt>
      <trkpt lat="46.6587" lon="5.52053">
        <ele>250</ele>
        <time>2022-07-16T07:04:52Z</time>
      </trkpt>
      <trkpt lat="46.65871" lon="5.52044">
        <ele>250</ele>
        <time>2022-07-16T07:04:53Z</time>
      </trkpt>
      <trkpt lat="46.6587" lon="5.52025">
        <ele>250.4</ele>
        <time>2022-07-16T07:04:55Z</time>
      </trkpt>
      <trkpt lat="46.65865" lon="5.51997">
        <ele>250.6</ele>
        <time>2022-07-16T07:04:58Z</time>
      </trkpt>
      <trkpt lat="46.6586" lon="5.51969">
        <ele>251.2</ele>
        <time>2022-07-16T07:05:01Z</time>
      </trkpt>
      <trkpt lat="46.65848" lon="5.51898">
        <ele>251.6</ele>
        <time>2022-07-16T07:05:08Z</time>
      </trkpt>
      <trkpt lat="46.65836" lon="5.51823">
        <ele>251.4</ele>
        <time>2022-07-16T07:05:15Z</time>
      </trkpt>
      <trkpt lat="46.65825" lon="5.51744">
        <ele>250.8</ele>
        <time>2022-07-16T07:05:22Z</time>
      </trkpt>
      <trkpt lat="46.65819" lon="5.51707">
        <ele>250.4</ele>
        <time>2022-07-16T07:05:25Z</time>
      </trkpt>
      <trkpt lat="46.65807" lon="5.5163">
        <ele>249.8</ele>
        <time>2022-07-16T07:05:32Z</time>
      </trkpt>
      <trkpt lat="46.658" lon="5.51598">
        <ele>249.6</ele>
        <time>2022-07-16T07:05:35Z</time>
      </trkpt>
      <trkpt lat="46.65791" lon="5.51565">
        <ele>249.2</ele>
        <time>2022-07-16T07:05:38Z</time>
      </trkpt>
      <trkpt lat="46.65791" lon="5.51545">
        <ele>249</ele>
        <time>2022-07-16T07:05:40Z</time>
      </trkpt>
      <trkpt lat="46.65801" lon="5.51521">
        <ele>249</ele>
        <time>2022-07-16T07:05:43Z</time>
      </trkpt>
      <trkpt lat="46.658" lon="5.51504">
        <ele>248.8</ele>
        <time>2022-07-16T07:05:45Z</time>
      </trkpt>
      <trkpt lat="46.65791" lon="5.51487">
        <ele>248.8</ele>
        <time>2022-07-16T07:05:47Z</time>
      </trkpt>
      <trkpt lat="46.65788" lon="5.51479">
        <ele>248.6</ele>
        <time>2022-07-16T07:05:48Z</time>
      </trkpt>
      <trkpt lat="46.65785" lon="5.51455">
        <ele>248.4</ele>
        <time>2022-07-16T07:05:50Z</time>
      </trkpt>
      <trkpt lat="46.65785" lon="5.51445">
        <ele>248.4</ele>
        <time>2022-07-16T07:05:51Z</time>
      </trkpt>
      <trkpt lat="46.65784" lon="5.51363">
        <ele>248</ele>
        <time>2022-07-16T07:05:58Z</time>
      </trkpt>
      <trkpt lat="46.65783" lon="5.51302">
        <ele>247.6</ele>
        <time>2022-07-16T07:06:03Z</time>
      </trkpt>
      <trkpt lat="46.65781" lon="5.51269">
        <ele>247</ele>
        <time>2022-07-16T07:06:06Z</time>
      </trkpt>
      <trkpt lat="46.65779" lon="5.51218">
        <ele>246.4</ele>
        <time>2022-07-16T07:06:10Z</time>
      </trkpt>
      <trkpt lat="46.65779" lon="5.51207">
        <ele>246.4</ele>
        <time>2022-07-16T07:06:11Z</time>
      </trkpt>
      <trkpt lat="46.65777" lon="5.51127">
        <ele>246.2</ele>
        <time>2022-07-16T07:06:18Z</time>
      </trkpt>
      <trkpt lat="46.65777" lon="5.51116">
        <ele>246</ele>
        <time>2022-07-16T07:06:19Z</time>
      </trkpt>
      <trkpt lat="46.65775" lon="5.51044">
        <ele>245.4</ele>
        <time>2022-07-16T07:06:25Z</time>
      </trkpt>
      <trkpt lat="46.65775" lon="5.51032">
        <ele>245.2</ele>
        <time>2022-07-16T07:06:26Z</time>
      </trkpt>
      <trkpt lat="46.65775" lon="5.50983">
        <ele>244.2</ele>
        <time>2022-07-16T07:06:30Z</time>
      </trkpt>
      <trkpt lat="46.65776" lon="5.5097">
        <ele>243.8</ele>
        <time>2022-07-16T07:06:31Z</time>
      </trkpt>
      <trkpt lat="46.65777" lon="5.50942">
        <ele>242.8</ele>
        <time>2022-07-16T07:06:33Z</time>
      </trkpt>
      <trkpt lat="46.65777" lon="5.50928">
        <ele>242.6</ele>
        <time>2022-07-16T07:06:34Z</time>
      </trkpt>
      <trkpt lat="46.65776" lon="5.50914">
        <ele>241.8</ele>
        <time>2022-07-16T07:06:35Z</time>
      </trkpt>
      <trkpt lat="46.65773" lon="5.509">
        <ele>241.6</ele>
        <time>2022-07-16T07:06:36Z</time>
      </trkpt>
      <trkpt lat="46.65768" lon="5.50888">
        <ele>240.8</ele>
        <time>2022-07-16T07:06:37Z</time>
      </trkpt>
      <trkpt lat="46.65761" lon="5.50877">
        <ele>240.2</ele>
        <time>2022-07-16T07:06:38Z</time>
      </trkpt>
      <trkpt lat="46.65743" lon="5.50862">
        <ele>239.2</ele>
        <time>2022-07-16T07:06:40Z</time>
      </trkpt>
      <trkpt lat="46.65733" lon="5.50856">
        <ele>239</ele>
        <time>2022-07-16T07:06:41Z</time>
      </trkpt>
      <trkpt lat="46.65722" lon="5.50849">
        <ele>238.2</ele>
        <time>2022-07-16T07:06:42Z</time>
      </trkpt>
      <trkpt lat="46.65713" lon="5.50841">
        <ele>237.6</ele>
        <time>2022-07-16T07:06:43Z</time>
      </trkpt>
      <trkpt lat="46.65705" lon="5.5083">
        <ele>236.4</ele>
        <time>2022-07-16T07:06:44Z</time>
      </trkpt>
      <trkpt lat="46.65698" lon="5.50815">
        <ele>236</ele>
        <time>2022-07-16T07:06:45Z</time>
      </trkpt>
      <trkpt lat="46.65695" lon="5.50799">
        <ele>235.2</ele>
        <time>2022-07-16T07:06:46Z</time>
      </trkpt>
      <trkpt lat="46.65693" lon="5.50782">
        <ele>234.2</ele>
        <time>2022-07-16T07:06:47Z</time>
      </trkpt>
      <trkpt lat="46.65692" lon="5.50751">
        <ele>232.2</ele>
        <time>2022-07-16T07:06:49Z</time>
      </trkpt>
      <trkpt lat="46.65693" lon="5.50736">
        <ele>231.6</ele>
        <time>2022-07-16T07:06:50Z</time>
      </trkpt>
      <trkpt lat="46.65696" lon="5.50717">
        <ele>230.2</ele>
        <time>2022-07-16T07:06:51Z</time>
      </trkpt>
      <trkpt lat="46.65704" lon="5.50686">
        <ele>228.8</ele>
        <time>2022-07-16T07:06:53Z</time>
      </trkpt>
      <trkpt lat="46.65721" lon="5.50628">
        <ele>227.6</ele>
        <time>2022-07-16T07:06:57Z</time>
      </trkpt>
      <trkpt lat="46.65723" lon="5.50617">
        <ele>227.4</ele>
        <time>2022-07-16T07:06:58Z</time>
      </trkpt>
      <trkpt lat="46.65724" lon="5.50602">
        <ele>227.2</ele>
        <time>2022-07-16T07:06:59Z</time>
      </trkpt>
      <trkpt lat="46.65723" lon="5.50574">
        <ele>226.8</ele>
        <time>2022-07-16T07:07:01Z</time>
      </trkpt>
      <trkpt lat="46.65714" lon="5.50548">
        <ele>226.6</ele>
        <time>2022-07-16T07:07:03Z</time>
      </trkpt>
      <trkpt lat="46.65708" lon="5.50521">
        <ele>226.4</ele>
        <time>2022-07-16T07:07:05Z</time>
      </trkpt>
      <trkpt lat="46.65703" lon="5.50466">
        <ele>226.2</ele>
        <time>2022-07-16T07:07:09Z</time>
      </trkpt>
      <trkpt lat="46.65701" lon="5.50382">
        <ele>225.8</ele>
        <time>2022-07-16T07:07:15Z</time>
      </trkpt>
      <trkpt lat="46.65699" lon="5.50343">
        <ele>225.6</ele>
        <time>2022-07-16T07:07:18Z</time>
      </trkpt>
      <trkpt lat="46.65697" lon="5.50307">
        <ele>225.6</ele>
        <time>2022-07-16T07:07:21Z</time>
      </trkpt>
      <trkpt lat="46.65691" lon="5.50259">
        <ele>225.4</ele>
        <time>2022-07-16T07:07:25Z</time>
      </trkpt>
      <trkpt lat="46.65674" lon="5.50181">
        <ele>225.6</ele>
        <time>2022-07-16T07:07:32Z</time>
      </trkpt>
      <trkpt lat="46.65664" lon="5.5014">
        <ele>226.2</ele>
        <time>2022-07-16T07:07:36Z</time>
      </trkpt>
      <trkpt lat="46.65663" lon="5.50125">
        <ele>226.2</ele>
        <time>2022-07-16T07:07:38Z</time>
      </trkpt>
      <trkpt lat="46.65665" lon="5.50116">
        <ele>226.4</ele>
        <time>2022-07-16T07:07:39Z</time>
      </trkpt>
      <trkpt lat="46.65667" lon="5.5011">
        <ele>227</ele>
        <time>2022-07-16T07:07:40Z</time>
      </trkpt>
      <trkpt lat="46.65682" lon="5.5006">
        <ele>227.8</ele>
        <time>2022-07-16T07:07:46Z</time>
      </trkpt>
      <trkpt lat="46.65686" lon="5.50052">
        <ele>227.8</ele>
        <time>2022-07-16T07:07:47Z</time>
      </trkpt>
      <trkpt lat="46.6569" lon="5.50043">
        <ele>228</ele>
        <time>2022-07-16T07:07:48Z</time>
      </trkpt>
      <trkpt lat="46.65693" lon="5.50036">
        <ele>228.2</ele>
        <time>2022-07-16T07:07:49Z</time>
      </trkpt>
      <trkpt lat="46.65698" lon="5.5003">
        <ele>228.4</ele>
        <time>2022-07-16T07:07:50Z</time>
      </trkpt>
      <trkpt lat="46.65716" lon="5.50012">
        <ele>229</ele>
        <time>2022-07-16T07:07:54Z</time>
      </trkpt>
      <trkpt lat="46.65721" lon="5.50009">
        <ele>229.2</ele>
        <time>2022-07-16T07:07:55Z</time>
      </trkpt>
      <trkpt lat="46.65734" lon="5.49999">
        <ele>230.2</ele>
        <time>2022-07-16T07:07:58Z</time>
      </trkpt>
      <trkpt lat="46.65745" lon="5.49994">
        <ele>231</ele>
        <time>2022-07-16T07:08:00Z</time>
      </trkpt>
      <trkpt lat="46.65751" lon="5.49993">
        <ele>231.6</ele>
        <time>2022-07-16T07:08:01Z</time>
      </trkpt>
      <trkpt lat="46.65769" lon="5.49987">
        <ele>232.8</ele>
        <time>2022-07-16T07:08:04Z</time>
      </trkpt>
      <trkpt lat="46.65782" lon="5.4998">
        <ele>233.6</ele>
        <time>2022-07-16T07:08:06Z</time>
      </trkpt>
      <trkpt lat="46.65787" lon="5.49977">
        <ele>234</ele>
        <time>2022-07-16T07:08:07Z</time>
      </trkpt>
      <trkpt lat="46.65811" lon="5.4996">
        <ele>235.2</ele>
        <time>2022-07-16T07:08:12Z</time>
      </trkpt>
      <trkpt lat="46.65816" lon="5.49957">
        <ele>235.2</ele>
        <time>2022-07-16T07:08:13Z</time>
      </trkpt>
      <trkpt lat="46.65824" lon="5.49952">
        <ele>235.2</ele>
        <time>2022-07-16T07:08:15Z</time>
      </trkpt>
      <trkpt lat="46.65834" lon="5.49945">
        <ele>235.4</ele>
        <time>2022-07-16T07:08:17Z</time>
      </trkpt>
      <trkpt lat="46.65861" lon="5.4993">
        <ele>235.2</ele>
        <time>2022-07-16T07:08:22Z</time>
      </trkpt>
      <trkpt lat="46.65872" lon="5.49924">
        <ele>234.8</ele>
        <time>2022-07-16T07:08:24Z</time>
      </trkpt>
      <trkpt lat="46.65903" lon="5.49907">
        <ele>234.6</ele>
        <time>2022-07-16T07:08:31Z</time>
      </trkpt>
      <trkpt lat="46.65907" lon="5.499">
        <ele>234.6</ele>
        <time>2022-07-16T07:08:33Z</time>
      </trkpt>
      <trkpt lat="46.65908" lon="5.49896">
        <ele>234.8</ele>
        <time>2022-07-16T07:08:34Z</time>
      </trkpt>
      <trkpt lat="46.65901" lon="5.49872">
        <ele>234.8</ele>
        <time>2022-07-16T07:08:37Z</time>
      </trkpt>
      <trkpt lat="46.65889" lon="5.49823">
        <ele>234.6</ele>
        <time>2022-07-16T07:08:42Z</time>
      </trkpt>
      <trkpt lat="46.65879" lon="5.49779">
        <ele>234</ele>
        <time>2022-07-16T07:08:46Z</time>
      </trkpt>
      <trkpt lat="46.6587" lon="5.49732">
        <ele>233.6</ele>
        <time>2022-07-16T07:08:50Z</time>
      </trkpt>
      <trkpt lat="46.65857" lon="5.49666">
        <ele>233</ele>
        <time>2022-07-16T07:08:56Z</time>
      </trkpt>
      <trkpt lat="46.65852" lon="5.49641">
        <ele>233</ele>
        <time>2022-07-16T07:08:58Z</time>
      </trkpt>
      <trkpt lat="46.65838" lon="5.49561">
        <ele>232.6</ele>
        <time>2022-07-16T07:09:05Z</time>
      </trkpt>
      <trkpt lat="46.65821" lon="5.49496">
        <ele>232.2</ele>
        <time>2022-07-16T07:09:11Z</time>
      </trkpt>
      <trkpt lat="46.65803" lon="5.49444">
        <ele>232</ele>
        <time>2022-07-16T07:09:16Z</time>
      </trkpt>
      <trkpt lat="46.65787" lon="5.49387">
        <ele>231</ele>
        <time>2022-07-16T07:09:21Z</time>
      </trkpt>
      <trkpt lat="46.65784" lon="5.49375">
        <ele>230.8</ele>
        <time>2022-07-16T07:09:22Z</time>
      </trkpt>
      <trkpt lat="46.65762" lon="5.49296">
        <ele>230.6</ele>
        <time>2022-07-16T07:09:29Z</time>
      </trkpt>
      <trkpt lat="46.6576" lon="5.49287">
        <ele>230.4</ele>
        <time>2022-07-16T07:09:30Z</time>
      </trkpt>
      <trkpt lat="46.65741" lon="5.4922">
        <ele>229.8</ele>
        <time>2022-07-16T07:09:36Z</time>
      </trkpt>
      <trkpt lat="46.65731" lon="5.49184">
        <ele>229.4</ele>
        <time>2022-07-16T07:09:39Z</time>
      </trkpt>
      <trkpt lat="46.65722" lon="5.49153">
        <ele>229.2</ele>
        <time>2022-07-16T07:09:42Z</time>
      </trkpt>
      <trkpt lat="46.65717" lon="5.49129">
        <ele>229.2</ele>
        <time>2022-07-16T07:09:44Z</time>
      </trkpt>
      <trkpt lat="46.65698" lon="5.49046">
        <ele>228.6</ele>
        <time>2022-07-16T07:09:51Z</time>
      </trkpt>
      <trkpt lat="46.65689" lon="5.4897">
        <ele>227.8</ele>
        <time>2022-07-16T07:09:57Z</time>
      </trkpt>
      <trkpt lat="46.65687" lon="5.48957">
        <ele>227.4</ele>
        <time>2022-07-16T07:09:58Z</time>
      </trkpt>
      <trkpt lat="46.65683" lon="5.48905">
        <ele>226.4</ele>
        <time>2022-07-16T07:10:02Z</time>
      </trkpt>
      <trkpt lat="46.65681" lon="5.48888">
        <ele>226</ele>
        <time>2022-07-16T07:10:03Z</time>
      </trkpt>
      <trkpt lat="46.65679" lon="5.48877">
        <ele>225.8</ele>
        <time>2022-07-16T07:10:04Z</time>
      </trkpt>
      <trkpt lat="46.65676" lon="5.48862">
        <ele>225.4</ele>
        <time>2022-07-16T07:10:05Z</time>
      </trkpt>
      <trkpt lat="46.6566" lon="5.48818">
        <ele>224</ele>
        <time>2022-07-16T07:10:08Z</time>
      </trkpt>
      <trkpt lat="46.65645" lon="5.48792">
        <ele>223</ele>
        <time>2022-07-16T07:10:10Z</time>
      </trkpt>
      <trkpt lat="46.65636" lon="5.4878">
        <ele>222.4</ele>
        <time>2022-07-16T07:10:11Z</time>
      </trkpt>
      <trkpt lat="46.65628" lon="5.48769">
        <ele>221</ele>
        <time>2022-07-16T07:10:12Z</time>
      </trkpt>
      <trkpt lat="46.65611" lon="5.48747">
        <ele>219.2</ele>
        <time>2022-07-16T07:10:14Z</time>
      </trkpt>
      <trkpt lat="46.65601" lon="5.48735">
        <ele>218</ele>
        <time>2022-07-16T07:10:15Z</time>
      </trkpt>
      <trkpt lat="46.65584" lon="5.48716">
        <ele>216.6</ele>
        <time>2022-07-16T07:10:17Z</time>
      </trkpt>
      <trkpt lat="46.65576" lon="5.48707">
        <ele>216.4</ele>
        <time>2022-07-16T07:10:18Z</time>
      </trkpt>
      <trkpt lat="46.65559" lon="5.48698">
        <ele>215.8</ele>
        <time>2022-07-16T07:10:20Z</time>
      </trkpt>
      <trkpt lat="46.65548" lon="5.48696">
        <ele>215.6</ele>
        <time>2022-07-16T07:10:21Z</time>
      </trkpt>
      <trkpt lat="46.65538" lon="5.48696">
        <ele>215.4</ele>
        <time>2022-07-16T07:10:22Z</time>
      </trkpt>
      <trkpt lat="46.65531" lon="5.48697">
        <ele>215.2</ele>
        <time>2022-07-16T07:10:23Z</time>
      </trkpt>
      <trkpt lat="46.65477" lon="5.48704">
        <ele>214.8</ele>
        <time>2022-07-16T07:10:29Z</time>
      </trkpt>
      <trkpt lat="46.65438" lon="5.48704">
        <ele>216.4</ele>
        <time>2022-07-16T07:10:34Z</time>
      </trkpt>
      <trkpt lat="46.65431" lon="5.48702">
        <ele>217.2</ele>
        <time>2022-07-16T07:10:35Z</time>
      </trkpt>
      <trkpt lat="46.65418" lon="5.48696">
        <ele>218</ele>
        <time>2022-07-16T07:10:37Z</time>
      </trkpt>
      <trkpt lat="46.65413" lon="5.48692">
        <ele>218.4</ele>
        <time>2022-07-16T07:10:38Z</time>
      </trkpt>
      <trkpt lat="46.65407" lon="5.48687">
        <ele>218.8</ele>
        <time>2022-07-16T07:10:39Z</time>
      </trkpt>
      <trkpt lat="46.65397" lon="5.48679">
        <ele>219.6</ele>
        <time>2022-07-16T07:10:41Z</time>
      </trkpt>
      <trkpt lat="46.65382" lon="5.48668">
        <ele>220.2</ele>
        <time>2022-07-16T07:10:44Z</time>
      </trkpt>
      <trkpt lat="46.65378" lon="5.48664">
        <ele>220.2</ele>
        <time>2022-07-16T07:10:45Z</time>
      </trkpt>
      <trkpt lat="46.65373" lon="5.48661">
        <ele>220.6</ele>
        <time>2022-07-16T07:10:46Z</time>
      </trkpt>
      <trkpt lat="46.65369" lon="5.48659">
        <ele>221.2</ele>
        <time>2022-07-16T07:10:47Z</time>
      </trkpt>
      <trkpt lat="46.65359" lon="5.48657">
        <ele>221.8</ele>
        <time>2022-07-16T07:10:49Z</time>
      </trkpt>
      <trkpt lat="46.65355" lon="5.48656">
        <ele>222.2</ele>
        <time>2022-07-16T07:10:50Z</time>
      </trkpt>
      <trkpt lat="46.65346" lon="5.48652">
        <ele>223.8</ele>
        <time>2022-07-16T07:10:52Z</time>
      </trkpt>
      <trkpt lat="46.65331" lon="5.48649">
        <ele>224.6</ele>
        <time>2022-07-16T07:10:55Z</time>
      </trkpt>
      <trkpt lat="46.65326" lon="5.48648">
        <ele>224.8</ele>
        <time>2022-07-16T07:10:56Z</time>
      </trkpt>
      <trkpt lat="46.65302" lon="5.48645">
        <ele>225.8</ele>
        <time>2022-07-16T07:11:00Z</time>
      </trkpt>
      <trkpt lat="46.65291" lon="5.48642">
        <ele>226.6</ele>
        <time>2022-07-16T07:11:02Z</time>
      </trkpt>
      <trkpt lat="46.65285" lon="5.4864">
        <ele>227</ele>
        <time>2022-07-16T07:11:03Z</time>
      </trkpt>
      <trkpt lat="46.65256" lon="5.48621">
        <ele>228</ele>
        <time>2022-07-16T07:11:09Z</time>
      </trkpt>
      <trkpt lat="46.65251" lon="5.48618">
        <ele>228</ele>
        <time>2022-07-16T07:11:10Z</time>
      </trkpt>
      <trkpt lat="46.65229" lon="5.48603">
        <ele>229</ele>
        <time>2022-07-16T07:11:15Z</time>
      </trkpt>
      <trkpt lat="46.65221" lon="5.48597">
        <ele>229</ele>
        <time>2022-07-16T07:11:17Z</time>
      </trkpt>
      <trkpt lat="46.65217" lon="5.48593">
        <ele>229.2</ele>
        <time>2022-07-16T07:11:18Z</time>
      </trkpt>
      <trkpt lat="46.65209" lon="5.48585">
        <ele>229.4</ele>
        <time>2022-07-16T07:11:21Z</time>
      </trkpt>
      <trkpt lat="46.65204" lon="5.48582">
        <ele>229.4</ele>
        <time>2022-07-16T07:11:23Z</time>
      </trkpt>
      <trkpt lat="46.652" lon="5.48585">
        <ele>229.4</ele>
        <time>2022-07-16T07:11:25Z</time>
      </trkpt>
      <trkpt lat="46.65204" lon="5.48592">
        <ele>229.4</ele>
        <time>2022-07-16T07:11:28Z</time>
      </trkpt>
      <trkpt lat="46.65218" lon="5.48601">
        <ele>229.4</ele>
        <time>2022-07-16T07:11:32Z</time>
      </trkpt>
      <trkpt lat="46.65222" lon="5.48606">
        <ele>229.4</ele>
        <time>2022-07-16T07:11:33Z</time>
      </trkpt>
      <trkpt lat="46.65224" lon="5.48612">
        <ele>229.4</ele>
        <time>2022-07-16T07:11:34Z</time>
      </trkpt>
      <trkpt lat="46.65224" lon="5.48618">
        <ele>229.2</ele>
        <time>2022-07-16T07:11:35Z</time>
      </trkpt>
      <trkpt lat="46.65222" lon="5.48625">
        <ele>229.2</ele>
        <time>2022-07-16T07:11:36Z</time>
      </trkpt>
      <trkpt lat="46.65215" lon="5.48647">
        <ele>229.2</ele>
        <time>2022-07-16T07:11:39Z</time>
      </trkpt>
      <trkpt lat="46.652" lon="5.48694">
        <ele>229.6</ele>
        <time>2022-07-16T07:11:45Z</time>
      </trkpt>
      <trkpt lat="46.65198" lon="5.48702">
        <ele>229.6</ele>
        <time>2022-07-16T07:11:46Z</time>
      </trkpt>
      <trkpt lat="46.65196" lon="5.48719">
        <ele>229.8</ele>
        <time>2022-07-16T07:11:48Z</time>
      </trkpt>
      <trkpt lat="46.65195" lon="5.48735">
        <ele>230.2</ele>
        <time>2022-07-16T07:11:50Z</time>
      </trkpt>
      <trkpt lat="46.65191" lon="5.48775">
        <ele>230.8</ele>
        <time>2022-07-16T07:11:55Z</time>
      </trkpt>
      <trkpt lat="46.65191" lon="5.48782">
        <ele>231.2</ele>
        <time>2022-07-16T07:11:56Z</time>
      </trkpt>
      <trkpt lat="46.6519" lon="5.48789">
        <ele>231.4</ele>
        <time>2022-07-16T07:11:57Z</time>
      </trkpt>
      <trkpt lat="46.65188" lon="5.48802">
        <ele>232.2</ele>
        <time>2022-07-16T07:11:59Z</time>
      </trkpt>
      <trkpt lat="46.65187" lon="5.48808">
        <ele>232.4</ele>
        <time>2022-07-16T07:12:00Z</time>
      </trkpt>
      <trkpt lat="46.65184" lon="5.48829">
        <ele>233.6</ele>
        <time>2022-07-16T07:12:03Z</time>
      </trkpt>
      <trkpt lat="46.65178" lon="5.48855">
        <ele>234.4</ele>
        <time>2022-07-16T07:12:07Z</time>
      </trkpt>
      <trkpt lat="46.65176" lon="5.4886">
        <ele>234.8</ele>
        <time>2022-07-16T07:12:08Z</time>
      </trkpt>
      <trkpt lat="46.65172" lon="5.48864">
        <ele>235</ele>
        <time>2022-07-16T07:12:09Z</time>
      </trkpt>
      <trkpt lat="46.65163" lon="5.48869">
        <ele>235.2</ele>
        <time>2022-07-16T07:12:11Z</time>
      </trkpt>
      <trkpt lat="46.65153" lon="5.48869">
        <ele>235.8</ele>
        <time>2022-07-16T07:12:13Z</time>
      </trkpt>
      <trkpt lat="46.65148" lon="5.48869">
        <ele>236.2</ele>
        <time>2022-07-16T07:12:14Z</time>
      </trkpt>
      <trkpt lat="46.65143" lon="5.48868">
        <ele>236.8</ele>
        <time>2022-07-16T07:12:15Z</time>
      </trkpt>
      <trkpt lat="46.65121" lon="5.48861">
        <ele>237.4</ele>
        <time>2022-07-16T07:12:19Z</time>
      </trkpt>
      <trkpt lat="46.65116" lon="5.48859">
        <ele>237.4</ele>
        <time>2022-07-16T07:12:20Z</time>
      </trkpt>
      <trkpt lat="46.65105" lon="5.48856">
        <ele>237.6</ele>
        <time>2022-07-16T07:12:22Z</time>
      </trkpt>
      <trkpt lat="46.65088" lon="5.48856">
        <ele>238.2</ele>
        <time>2022-07-16T07:12:25Z</time>
      </trkpt>
      <trkpt lat="46.65078" lon="5.48857">
        <ele>238.4</ele>
        <time>2022-07-16T07:12:27Z</time>
      </trkpt>
      <trkpt lat="46.6505" lon="5.48865">
        <ele>238.6</ele>
        <time>2022-07-16T07:12:32Z</time>
      </trkpt>
      <trkpt lat="46.65013" lon="5.48878">
        <ele>239.2</ele>
        <time>2022-07-16T07:12:39Z</time>
      </trkpt>
      <trkpt lat="46.65003" lon="5.48882">
        <ele>239.4</ele>
        <time>2022-07-16T07:12:41Z</time>
      </trkpt>
      <trkpt lat="46.64988" lon="5.48886">
        <ele>241</ele>
        <time>2022-07-16T07:12:44Z</time>
      </trkpt>
      <trkpt lat="46.64974" lon="5.48891">
        <ele>241.6</ele>
        <time>2022-07-16T07:12:47Z</time>
      </trkpt>
      <trkpt lat="46.64954" lon="5.48898">
        <ele>242</ele>
        <time>2022-07-16T07:12:51Z</time>
      </trkpt>
      <trkpt lat="46.64938" lon="5.48902">
        <ele>242.8</ele>
        <time>2022-07-16T07:12:54Z</time>
      </trkpt>
      <trkpt lat="46.64933" lon="5.48903">
        <ele>243</ele>
        <time>2022-07-16T07:12:55Z</time>
      </trkpt>
      <trkpt lat="46.64928" lon="5.48903">
        <ele>243.2</ele>
        <time>2022-07-16T07:12:56Z</time>
      </trkpt>
      <trkpt lat="46.64885" lon="5.48908">
        <ele>244.6</ele>
        <time>2022-07-16T07:13:05Z</time>
      </trkpt>
      <trkpt lat="46.64876" lon="5.48909">
        <ele>245</ele>
        <time>2022-07-16T07:13:07Z</time>
      </trkpt>
      <trkpt lat="46.64863" lon="5.48911">
        <ele>245</ele>
        <time>2022-07-16T07:13:10Z</time>
      </trkpt>
      <trkpt lat="46.64828" lon="5.48921">
        <ele>244</ele>
        <time>2022-07-16T07:13:16Z</time>
      </trkpt>
      <trkpt lat="46.64808" lon="5.48927">
        <ele>243.6</ele>
        <time>2022-07-16T07:13:19Z</time>
      </trkpt>
      <trkpt lat="46.64792" lon="5.48931">
        <ele>243</ele>
        <time>2022-07-16T07:13:22Z</time>
      </trkpt>
      <trkpt lat="46.64786" lon="5.4893">
        <ele>242</ele>
        <time>2022-07-16T07:13:24Z</time>
      </trkpt>
      <trkpt lat="46.64783" lon="5.48929">
        <ele>241.8</ele>
        <time>2022-07-16T07:13:25Z</time>
      </trkpt>
      <trkpt lat="46.64767" lon="5.48936">
        <ele>241.2</ele>
        <time>2022-07-16T07:13:29Z</time>
      </trkpt>
      <trkpt lat="46.6476" lon="5.48937">
        <ele>241</ele>
        <time>2022-07-16T07:13:30Z</time>
      </trkpt>
      <trkpt lat="46.64754" lon="5.48938">
        <ele>240.8</ele>
        <time>2022-07-16T07:13:31Z</time>
      </trkpt>
      <trkpt lat="46.6474" lon="5.48938">
        <ele>240.4</ele>
        <time>2022-07-16T07:13:33Z</time>
      </trkpt>
      <trkpt lat="46.64726" lon="5.48933">
        <ele>239.6</ele>
        <time>2022-07-16T07:13:35Z</time>
      </trkpt>
      <trkpt lat="46.64703" lon="5.48921">
        <ele>238.6</ele>
        <time>2022-07-16T07:13:38Z</time>
      </trkpt>
      <trkpt lat="46.64695" lon="5.4892">
        <ele>238.6</ele>
        <time>2022-07-16T07:13:39Z</time>
      </trkpt>
      <trkpt lat="46.64687" lon="5.48923">
        <ele>238.2</ele>
        <time>2022-07-16T07:13:40Z</time>
      </trkpt>
      <trkpt lat="46.64672" lon="5.48937">
        <ele>237.4</ele>
        <time>2022-07-16T07:13:42Z</time>
      </trkpt>
      <trkpt lat="46.64666" lon="5.48948">
        <ele>237</ele>
        <time>2022-07-16T07:13:43Z</time>
      </trkpt>
      <trkpt lat="46.64649" lon="5.4898">
        <ele>236</ele>
        <time>2022-07-16T07:13:46Z</time>
      </trkpt>
      <trkpt lat="46.64644" lon="5.4899">
        <ele>234.8</ele>
        <time>2022-07-16T07:13:47Z</time>
      </trkpt>
      <trkpt lat="46.64633" lon="5.49009">
        <ele>233.4</ele>
        <time>2022-07-16T07:13:49Z</time>
      </trkpt>
      <trkpt lat="46.6462" lon="5.49024">
        <ele>232.8</ele>
        <time>2022-07-16T07:13:51Z</time>
      </trkpt>
      <trkpt lat="46.64606" lon="5.49034">
        <ele>232.2</ele>
        <time>2022-07-16T07:13:53Z</time>
      </trkpt>
      <trkpt lat="46.64586" lon="5.49047">
        <ele>232.4</ele>
        <time>2022-07-16T07:13:56Z</time>
      </trkpt>
      <trkpt lat="46.64553" lon="5.49066">
        <ele>233.4</ele>
        <time>2022-07-16T07:14:01Z</time>
      </trkpt>
      <trkpt lat="46.64539" lon="5.49075">
        <ele>233.4</ele>
        <time>2022-07-16T07:14:03Z</time>
      </trkpt>
      <trkpt lat="46.64496" lon="5.49105">
        <ele>234.2</ele>
        <time>2022-07-16T07:14:10Z</time>
      </trkpt>
      <trkpt lat="46.64485" lon="5.49115">
        <ele>234.4</ele>
        <time>2022-07-16T07:14:12Z</time>
      </trkpt>
      <trkpt lat="46.64472" lon="5.49135">
        <ele>235</ele>
        <time>2022-07-16T07:14:15Z</time>
      </trkpt>
      <trkpt lat="46.64466" lon="5.4915">
        <ele>235.4</ele>
        <time>2022-07-16T07:14:17Z</time>
      </trkpt>
      <trkpt lat="46.6445" lon="5.49176">
        <ele>235.6</ele>
        <time>2022-07-16T07:14:21Z</time>
      </trkpt>
      <trkpt lat="46.64438" lon="5.49188">
        <ele>235.8</ele>
        <time>2022-07-16T07:14:23Z</time>
      </trkpt>
      <trkpt lat="46.64423" lon="5.49197">
        <ele>235.6</ele>
        <time>2022-07-16T07:14:25Z</time>
      </trkpt>
      <trkpt lat="46.64389" lon="5.49213">
        <ele>234.6</ele>
        <time>2022-07-16T07:14:29Z</time>
      </trkpt>
      <trkpt lat="46.64382" lon="5.49219">
        <ele>234.2</ele>
        <time>2022-07-16T07:14:30Z</time>
      </trkpt>
      <trkpt lat="46.64362" lon="5.49245">
        <ele>233</ele>
        <time>2022-07-16T07:14:33Z</time>
      </trkpt>
      <trkpt lat="46.64351" lon="5.49263">
        <ele>232.8</ele>
        <time>2022-07-16T07:14:35Z</time>
      </trkpt>
      <trkpt lat="46.64316" lon="5.49327">
        <ele>232.6</ele>
        <time>2022-07-16T07:14:42Z</time>
      </trkpt>
      <trkpt lat="46.64297" lon="5.49385">
        <ele>233.4</ele>
        <time>2022-07-16T07:14:48Z</time>
      </trkpt>
      <trkpt lat="46.6428" lon="5.49443">
        <ele>234.2</ele>
        <time>2022-07-16T07:14:55Z</time>
      </trkpt>
      <trkpt lat="46.64271" lon="5.49464">
        <ele>235.4</ele>
        <time>2022-07-16T07:14:58Z</time>
      </trkpt>
      <trkpt lat="46.64262" lon="5.49483">
        <ele>236.6</ele>
        <time>2022-07-16T07:15:01Z</time>
      </trkpt>
      <trkpt lat="46.64259" lon="5.49486">
        <ele>237</ele>
        <time>2022-07-16T07:15:02Z</time>
      </trkpt>
      <trkpt lat="46.64252" lon="5.49494">
        <ele>237.6</ele>
        <time>2022-07-16T07:15:04Z</time>
      </trkpt>
      <trkpt lat="46.64248" lon="5.49496">
        <ele>238</ele>
        <time>2022-07-16T07:15:05Z</time>
      </trkpt>
      <trkpt lat="46.64235" lon="5.49502">
        <ele>239</ele>
        <time>2022-07-16T07:15:08Z</time>
      </trkpt>
      <trkpt lat="46.64223" lon="5.49504">
        <ele>239.8</ele>
        <time>2022-07-16T07:15:11Z</time>
      </trkpt>
      <trkpt lat="46.64218" lon="5.49504">
        <ele>240.6</ele>
        <time>2022-07-16T07:15:12Z</time>
      </trkpt>
      <trkpt lat="46.64196" lon="5.49505">
        <ele>242</ele>
        <time>2022-07-16T07:15:17Z</time>
      </trkpt>
      <trkpt lat="46.6418" lon="5.49503">
        <ele>243.2</ele>
        <time>2022-07-16T07:15:21Z</time>
      </trkpt>
      <trkpt lat="46.64176" lon="5.49503">
        <ele>243.6</ele>
        <time>2022-07-16T07:15:22Z</time>
      </trkpt>
      <trkpt lat="46.64172" lon="5.49504">
        <ele>244</ele>
        <time>2022-07-16T07:15:23Z</time>
      </trkpt>
      <trkpt lat="46.64169" lon="5.49507">
        <ele>244.4</ele>
        <time>2022-07-16T07:15:24Z</time>
      </trkpt>
      <trkpt lat="46.64168" lon="5.49511">
        <ele>244.4</ele>
        <time>2022-07-16T07:15:25Z</time>
      </trkpt>
      <trkpt lat="46.64175" lon="5.49524">
        <ele>245.4</ele>
        <time>2022-07-16T07:15:28Z</time>
      </trkpt>
      <trkpt lat="46.64179" lon="5.4953">
        <ele>245.6</ele>
        <time>2022-07-16T07:15:29Z</time>
      </trkpt>
      <trkpt lat="46.64183" lon="5.49542">
        <ele>245.8</ele>
        <time>2022-07-16T07:15:31Z</time>
      </trkpt>
      <trkpt lat="46.64184" lon="5.4955">
        <ele>245.8</ele>
        <time>2022-07-16T07:15:32Z</time>
      </trkpt>
      <trkpt lat="46.64185" lon="5.49556">
        <ele>246</ele>
        <time>2022-07-16T07:15:33Z</time>
      </trkpt>
      <trkpt lat="46.64183" lon="5.49587">
        <ele>246.2</ele>
        <time>2022-07-16T07:15:37Z</time>
      </trkpt>
      <trkpt lat="46.64182" lon="5.49596">
        <ele>246.2</ele>
        <time>2022-07-16T07:15:38Z</time>
      </trkpt>
      <trkpt lat="46.64181" lon="5.4963">
        <ele>246</ele>
        <time>2022-07-16T07:15:42Z</time>
      </trkpt>
      <trkpt lat="46.64182" lon="5.49651">
        <ele>245.8</ele>
        <time>2022-07-16T07:15:44Z</time>
      </trkpt>
      <trkpt lat="46.6418" lon="5.49668">
        <ele>245.6</ele>
        <time>2022-07-16T07:15:46Z</time>
      </trkpt>
      <trkpt lat="46.64176" lon="5.49679">
        <ele>245.4</ele>
        <time>2022-07-16T07:15:47Z</time>
      </trkpt>
      <trkpt lat="46.64174" lon="5.49686">
        <ele>245.2</ele>
        <time>2022-07-16T07:15:48Z</time>
      </trkpt>
      <trkpt lat="46.64165" lon="5.497">
        <ele>245.2</ele>
        <time>2022-07-16T07:15:50Z</time>
      </trkpt>
      <trkpt lat="46.6416" lon="5.49706">
        <ele>245.2</ele>
        <time>2022-07-16T07:15:51Z</time>
      </trkpt>
      <trkpt lat="46.64129" lon="5.49744">
        <ele>245.8</ele>
        <time>2022-07-16T07:15:58Z</time>
      </trkpt>
      <trkpt lat="46.64118" lon="5.49762">
        <ele>246.6</ele>
        <time>2022-07-16T07:16:01Z</time>
      </trkpt>
      <trkpt lat="46.64107" lon="5.4978">
        <ele>247.6</ele>
        <time>2022-07-16T07:16:04Z</time>
      </trkpt>
      <trkpt lat="46.64104" lon="5.49787">
        <ele>247.8</ele>
        <time>2022-07-16T07:16:05Z</time>
      </trkpt>
      <trkpt lat="46.64078" lon="5.49842">
        <ele>248.4</ele>
        <time>2022-07-16T07:16:13Z</time>
      </trkpt>
      <trkpt lat="46.64061" lon="5.49888">
        <ele>248.8</ele>
        <time>2022-07-16T07:16:19Z</time>
      </trkpt>
      <trkpt lat="46.64059" lon="5.49895">
        <ele>248.8</ele>
        <time>2022-07-16T07:16:20Z</time>
      </trkpt>
      <trkpt lat="46.64044" lon="5.49938">
        <ele>250</ele>
        <time>2022-07-16T07:16:26Z</time>
      </trkpt>
      <trkpt lat="46.64034" lon="5.49965">
        <ele>250.6</ele>
        <time>2022-07-16T07:16:30Z</time>
      </trkpt>
      <trkpt lat="46.64031" lon="5.49972">
        <ele>250.8</ele>
        <time>2022-07-16T07:16:31Z</time>
      </trkpt>
      <trkpt lat="46.64027" lon="5.49984">
        <ele>251.2</ele>
        <time>2022-07-16T07:16:33Z</time>
      </trkpt>
      <trkpt lat="46.64025" lon="5.49989">
        <ele>251.4</ele>
        <time>2022-07-16T07:16:34Z</time>
      </trkpt>
      <trkpt lat="46.64022" lon="5.49994">
        <ele>251.6</ele>
        <time>2022-07-16T07:16:35Z</time>
      </trkpt>
      <trkpt lat="46.64014" lon="5.50005">
        <ele>252.2</ele>
        <time>2022-07-16T07:16:39Z</time>
      </trkpt>
      <trkpt lat="46.64005" lon="5.50001">
        <ele>252.2</ele>
        <time>2022-07-16T07:16:42Z</time>
      </trkpt>
      <trkpt lat="46.63997" lon="5.50007">
        <ele>252.2</ele>
        <time>2022-07-16T07:16:44Z</time>
      </trkpt>
      <trkpt lat="46.63993" lon="5.50013">
        <ele>252.2</ele>
        <time>2022-07-16T07:16:45Z</time>
      </trkpt>
      <trkpt lat="46.63977" lon="5.50053">
        <ele>252.2</ele>
        <time>2022-07-16T07:16:51Z</time>
      </trkpt>
      <trkpt lat="46.63953" lon="5.50115">
        <ele>253.4</ele>
        <time>2022-07-16T07:17:00Z</time>
      </trkpt>
      <trkpt lat="46.63948" lon="5.50129">
        <ele>253.6</ele>
        <time>2022-07-16T07:17:02Z</time>
      </trkpt>
      <trkpt lat="46.63933" lon="5.50162">
        <ele>254</ele>
        <time>2022-07-16T07:17:07Z</time>
      </trkpt>
      <trkpt lat="46.63924" lon="5.50179">
        <ele>254.6</ele>
        <time>2022-07-16T07:17:10Z</time>
      </trkpt>
      <trkpt lat="46.63917" lon="5.50193">
        <ele>255</ele>
        <time>2022-07-16T07:17:12Z</time>
      </trkpt>
      <trkpt lat="46.63906" lon="5.50209">
        <ele>255.6</ele>
        <time>2022-07-16T07:17:15Z</time>
      </trkpt>
      <trkpt lat="46.63903" lon="5.50215">
        <ele>255.8</ele>
        <time>2022-07-16T07:17:16Z</time>
      </trkpt>
      <trkpt lat="46.6389" lon="5.50238">
        <ele>256.8</ele>
        <time>2022-07-16T07:17:20Z</time>
      </trkpt>
      <trkpt lat="46.63876" lon="5.5026">
        <ele>258</ele>
        <time>2022-07-16T07:17:24Z</time>
      </trkpt>
      <trkpt lat="46.63854" lon="5.50298">
        <ele>259.2</ele>
        <time>2022-07-16T07:17:31Z</time>
      </trkpt>
      <trkpt lat="46.63847" lon="5.50308">
        <ele>259.4</ele>
        <time>2022-07-16T07:17:33Z</time>
      </trkpt>
      <trkpt lat="46.63835" lon="5.5033">
        <ele>260.2</ele>
        <time>2022-07-16T07:17:37Z</time>
      </trkpt>
      <trkpt lat="46.63823" lon="5.5035">
        <ele>260.8</ele>
        <time>2022-07-16T07:17:41Z</time>
      </trkpt>
      <trkpt lat="46.6382" lon="5.50356">
        <ele>261</ele>
        <time>2022-07-16T07:17:42Z</time>
      </trkpt>
      <trkpt lat="46.63818" lon="5.50361">
        <ele>261.4</ele>
        <time>2022-07-16T07:17:43Z</time>
      </trkpt>
      <trkpt lat="46.63805" lon="5.50382">
        <ele>262.4</ele>
        <time>2022-07-16T07:17:47Z</time>
      </trkpt>
      <trkpt lat="46.63803" lon="5.50388">
        <ele>262.4</ele>
        <time>2022-07-16T07:17:48Z</time>
      </trkpt>
      <trkpt lat="46.63785" lon="5.50427">
        <ele>263.6</ele>
        <time>2022-07-16T07:17:55Z</time>
      </trkpt>
      <trkpt lat="46.63783" lon="5.50433">
        <ele>263.8</ele>
        <time>2022-07-16T07:17:56Z</time>
      </trkpt>
      <trkpt lat="46.63773" lon="5.50463">
        <ele>265</ele>
        <time>2022-07-16T07:18:01Z</time>
      </trkpt>
      <trkpt lat="46.63771" lon="5.50469">
        <ele>265.4</ele>
        <time>2022-07-16T07:18:02Z</time>
      </trkpt>
      <trkpt lat="46.63769" lon="5.50475">
        <ele>265.6</ele>
        <time>2022-07-16T07:18:03Z</time>
      </trkpt>
      <trkpt lat="46.63767" lon="5.5048">
        <ele>266</ele>
        <time>2022-07-16T07:18:04Z</time>
      </trkpt>
      <trkpt lat="46.63757" lon="5.50505">
        <ele>267</ele>
        <time>2022-07-16T07:18:09Z</time>
      </trkpt>
      <trkpt lat="46.63756" lon="5.5051">
        <ele>267</ele>
        <time>2022-07-16T07:18:10Z</time>
      </trkpt>
      <trkpt lat="46.6375" lon="5.50531">
        <ele>268</ele>
        <time>2022-07-16T07:18:14Z</time>
      </trkpt>
      <trkpt lat="46.63749" lon="5.50536">
        <ele>268.2</ele>
        <time>2022-07-16T07:18:15Z</time>
      </trkpt>
      <trkpt lat="46.63738" lon="5.50564">
        <ele>268.8</ele>
        <time>2022-07-16T07:18:20Z</time>
      </trkpt>
      <trkpt lat="46.6373" lon="5.50593">
        <ele>269.2</ele>
        <time>2022-07-16T07:18:24Z</time>
      </trkpt>
      <trkpt lat="46.63728" lon="5.506">
        <ele>269.2</ele>
        <time>2022-07-16T07:18:25Z</time>
      </trkpt>
      <trkpt lat="46.63723" lon="5.5062">
        <ele>269.4</ele>
        <time>2022-07-16T07:18:28Z</time>
      </trkpt>
      <trkpt lat="46.63718" lon="5.50631">
        <ele>269.8</ele>
        <time>2022-07-16T07:18:30Z</time>
      </trkpt>
      <trkpt lat="46.63716" lon="5.50637">
        <ele>270.2</ele>
        <time>2022-07-16T07:18:31Z</time>
      </trkpt>
      <trkpt lat="46.63713" lon="5.50642">
        <ele>270.4</ele>
        <time>2022-07-16T07:18:32Z</time>
      </trkpt>
      <trkpt lat="46.63705" lon="5.50656">
        <ele>270.4</ele>
        <time>2022-07-16T07:18:35Z</time>
      </trkpt>
      <trkpt lat="46.63698" lon="5.5067">
        <ele>270.8</ele>
        <time>2022-07-16T07:18:38Z</time>
      </trkpt>
      <trkpt lat="46.63696" lon="5.50675">
        <ele>271.2</ele>
        <time>2022-07-16T07:18:39Z</time>
      </trkpt>
      <trkpt lat="46.63694" lon="5.5068">
        <ele>271.4</ele>
        <time>2022-07-16T07:18:40Z</time>
      </trkpt>
      <trkpt lat="46.63687" lon="5.50714">
        <ele>272.2</ele>
        <time>2022-07-16T07:18:45Z</time>
      </trkpt>
      <trkpt lat="46.63684" lon="5.5072">
        <ele>272.6</ele>
        <time>2022-07-16T07:18:46Z</time>
      </trkpt>
      <trkpt lat="46.63679" lon="5.50727">
        <ele>273</ele>
        <time>2022-07-16T07:18:48Z</time>
      </trkpt>
      <trkpt lat="46.63675" lon="5.50727">
        <ele>273.2</ele>
        <time>2022-07-16T07:18:49Z</time>
      </trkpt>
      <trkpt lat="46.63664" lon="5.50723">
        <ele>274</ele>
        <time>2022-07-16T07:18:52Z</time>
      </trkpt>
      <trkpt lat="46.63648" lon="5.50719">
        <ele>275</ele>
        <time>2022-07-16T07:18:56Z</time>
      </trkpt>
      <trkpt lat="46.63634" lon="5.50712">
        <ele>275.6</ele>
        <time>2022-07-16T07:19:00Z</time>
      </trkpt>
      <trkpt lat="46.63625" lon="5.50717">
        <ele>275.6</ele>
        <time>2022-07-16T07:19:03Z</time>
      </trkpt>
      <trkpt lat="46.63613" lon="5.50729">
        <ele>276</ele>
        <time>2022-07-16T07:19:07Z</time>
      </trkpt>
      <trkpt lat="46.6361" lon="5.50729">
        <ele>276.2</ele>
        <time>2022-07-16T07:19:08Z</time>
      </trkpt>
      <trkpt lat="46.63607" lon="5.50728">
        <ele>276.6</ele>
        <time>2022-07-16T07:19:09Z</time>
      </trkpt>
      <trkpt lat="46.63602" lon="5.50721">
        <ele>276.8</ele>
        <time>2022-07-16T07:19:11Z</time>
      </trkpt>
      <trkpt lat="46.63597" lon="5.50709">
        <ele>276.8</ele>
        <time>2022-07-16T07:19:13Z</time>
      </trkpt>
      <trkpt lat="46.63594" lon="5.50689">
        <ele>276.8</ele>
        <time>2022-07-16T07:19:16Z</time>
      </trkpt>
      <trkpt lat="46.63594" lon="5.50682">
        <ele>276.6</ele>
        <time>2022-07-16T07:19:17Z</time>
      </trkpt>
      <trkpt lat="46.63594" lon="5.50663">
        <ele>275.8</ele>
        <time>2022-07-16T07:19:20Z</time>
      </trkpt>
      <trkpt lat="46.63595" lon="5.50656">
        <ele>275.4</ele>
        <time>2022-07-16T07:19:21Z</time>
      </trkpt>
      <trkpt lat="46.63596" lon="5.50643">
        <ele>275</ele>
        <time>2022-07-16T07:19:23Z</time>
      </trkpt>
      <trkpt lat="46.63601" lon="5.50617">
        <ele>273.8</ele>
        <time>2022-07-16T07:19:27Z</time>
      </trkpt>
      <trkpt lat="46.63601" lon="5.50611">
        <ele>273.4</ele>
        <time>2022-07-16T07:19:28Z</time>
      </trkpt>
      <trkpt lat="46.636" lon="5.50604">
        <ele>272.8</ele>
        <time>2022-07-16T07:19:30Z</time>
      </trkpt>
      <trkpt lat="46.63597" lon="5.50601">
        <ele>272.6</ele>
        <time>2022-07-16T07:19:31Z</time>
      </trkpt>
      <trkpt lat="46.63585" lon="5.50592">
        <ele>272.2</ele>
        <time>2022-07-16T07:19:34Z</time>
      </trkpt>
      <trkpt lat="46.6358" lon="5.50588">
        <ele>272</ele>
        <time>2022-07-16T07:19:35Z</time>
      </trkpt>
      <trkpt lat="46.63575" lon="5.50584">
        <ele>272</ele>
        <time>2022-07-16T07:19:36Z</time>
      </trkpt>
      <trkpt lat="46.63551" lon="5.50568">
        <ele>271.6</ele>
        <time>2022-07-16T07:19:40Z</time>
      </trkpt>
      <trkpt lat="46.63544" lon="5.50564">
        <ele>271.6</ele>
        <time>2022-07-16T07:19:41Z</time>
      </trkpt>
      <trkpt lat="46.6352" lon="5.50546">
        <ele>271</ele>
        <time>2022-07-16T07:19:45Z</time>
      </trkpt>
      <trkpt lat="46.63513" lon="5.50542">
        <ele>270.6</ele>
        <time>2022-07-16T07:19:46Z</time>
      </trkpt>
      <trkpt lat="46.63491" lon="5.50529">
        <ele>269.4</ele>
        <time>2022-07-16T07:19:49Z</time>
      </trkpt>
      <trkpt lat="46.6347" lon="5.50514">
        <ele>268.4</ele>
        <time>2022-07-16T07:19:52Z</time>
      </trkpt>
      <trkpt lat="46.63463" lon="5.5051">
        <ele>268.2</ele>
        <time>2022-07-16T07:19:53Z</time>
      </trkpt>
      <trkpt lat="46.63433" lon="5.50492">
        <ele>267</ele>
        <time>2022-07-16T07:19:57Z</time>
      </trkpt>
      <trkpt lat="46.63411" lon="5.5048">
        <ele>266</ele>
        <time>2022-07-16T07:20:00Z</time>
      </trkpt>
      <trkpt lat="46.63403" lon="5.50476">
        <ele>265.8</ele>
        <time>2022-07-16T07:20:01Z</time>
      </trkpt>
      <trkpt lat="46.63353" lon="5.50448">
        <ele>265.4</ele>
        <time>2022-07-16T07:20:08Z</time>
      </trkpt>
      <trkpt lat="46.63338" lon="5.50438">
        <ele>265.4</ele>
        <time>2022-07-16T07:20:10Z</time>
      </trkpt>
      <trkpt lat="46.63301" lon="5.50405">
        <ele>265</ele>
        <time>2022-07-16T07:20:16Z</time>
      </trkpt>
      <trkpt lat="46.63275" lon="5.50377">
        <ele>265.2</ele>
        <time>2022-07-16T07:20:21Z</time>
      </trkpt>
      <trkpt lat="46.63245" lon="5.50347">
        <ele>266.6</ele>
        <time>2022-07-16T07:20:27Z</time>
      </trkpt>
      <trkpt lat="46.63235" lon="5.50337">
        <ele>267</ele>
        <time>2022-07-16T07:20:29Z</time>
      </trkpt>
      <trkpt lat="46.63216" lon="5.50319">
        <ele>268</ele>
        <time>2022-07-16T07:20:33Z</time>
      </trkpt>
      <trkpt lat="46.63199" lon="5.50304">
        <ele>268.2</ele>
        <time>2022-07-16T07:20:36Z</time>
      </trkpt>
      <trkpt lat="46.63169" lon="5.50282">
        <ele>268.2</ele>
        <time>2022-07-16T07:20:41Z</time>
      </trkpt>
      <trkpt lat="46.63149" lon="5.50273">
        <ele>268</ele>
        <time>2022-07-16T07:20:44Z</time>
      </trkpt>
      <trkpt lat="46.63135" lon="5.50269">
        <ele>267.6</ele>
        <time>2022-07-16T07:20:46Z</time>
      </trkpt>
      <trkpt lat="46.63084" lon="5.5026">
        <ele>267</ele>
        <time>2022-07-16T07:20:53Z</time>
      </trkpt>
      <trkpt lat="46.63077" lon="5.50258">
        <ele>267</ele>
        <time>2022-07-16T07:20:54Z</time>
      </trkpt>
      <trkpt lat="46.63034" lon="5.50244">
        <ele>266.2</ele>
        <time>2022-07-16T07:21:00Z</time>
      </trkpt>
      <trkpt lat="46.63015" lon="5.50234">
        <ele>266.2</ele>
        <time>2022-07-16T07:21:03Z</time>
      </trkpt>
      <trkpt lat="46.62998" lon="5.50224">
        <ele>266.6</ele>
        <time>2022-07-16T07:21:06Z</time>
      </trkpt>
      <trkpt lat="46.62979" lon="5.50216">
        <ele>268.2</ele>
        <time>2022-07-16T07:21:10Z</time>
      </trkpt>
      <trkpt lat="46.62969" lon="5.50212">
        <ele>269.4</ele>
        <time>2022-07-16T07:21:12Z</time>
      </trkpt>
      <trkpt lat="46.62955" lon="5.50209">
        <ele>270.6</ele>
        <time>2022-07-16T07:21:15Z</time>
      </trkpt>
      <trkpt lat="46.62946" lon="5.50206">
        <ele>271.6</ele>
        <time>2022-07-16T07:21:17Z</time>
      </trkpt>
      <trkpt lat="46.62936" lon="5.50202">
        <ele>272.8</ele>
        <time>2022-07-16T07:21:19Z</time>
      </trkpt>
      <trkpt lat="46.62915" lon="5.50196">
        <ele>273.8</ele>
        <time>2022-07-16T07:21:23Z</time>
      </trkpt>
      <trkpt lat="46.62897" lon="5.50189">
        <ele>275</ele>
        <time>2022-07-16T07:21:27Z</time>
      </trkpt>
      <trkpt lat="46.62892" lon="5.50187">
        <ele>275.4</ele>
        <time>2022-07-16T07:21:28Z</time>
      </trkpt>
      <trkpt lat="46.62875" lon="5.5018">
        <ele>276.4</ele>
        <time>2022-07-16T07:21:32Z</time>
      </trkpt>
      <trkpt lat="46.62871" lon="5.50179">
        <ele>276.8</ele>
        <time>2022-07-16T07:21:33Z</time>
      </trkpt>
      <trkpt lat="46.62858" lon="5.50174">
        <ele>277.4</ele>
        <time>2022-07-16T07:21:36Z</time>
      </trkpt>
      <trkpt lat="46.62854" lon="5.50173">
        <ele>277.8</ele>
        <time>2022-07-16T07:21:37Z</time>
      </trkpt>
      <trkpt lat="46.62838" lon="5.50168">
        <ele>278.8</ele>
        <time>2022-07-16T07:21:41Z</time>
      </trkpt>
      <trkpt lat="46.62834" lon="5.50167">
        <ele>279</ele>
        <time>2022-07-16T07:21:42Z</time>
      </trkpt>
      <trkpt lat="46.62815" lon="5.50159">
        <ele>280</ele>
        <time>2022-07-16T07:21:47Z</time>
      </trkpt>
      <trkpt lat="46.62811" lon="5.50157">
        <ele>280</ele>
        <time>2022-07-16T07:21:48Z</time>
      </trkpt>
      <trkpt lat="46.62801" lon="5.50151">
        <ele>280.4</ele>
        <time>2022-07-16T07:21:50Z</time>
      </trkpt>
      <trkpt lat="46.62793" lon="5.50142">
        <ele>281</ele>
        <time>2022-07-16T07:21:52Z</time>
      </trkpt>
      <trkpt lat="46.62791" lon="5.50136">
        <ele>281.4</ele>
        <time>2022-07-16T07:21:53Z</time>
      </trkpt>
      <trkpt lat="46.62789" lon="5.50131">
        <ele>281.4</ele>
        <time>2022-07-16T07:21:54Z</time>
      </trkpt>
      <trkpt lat="46.62784" lon="5.50117">
        <ele>282</ele>
        <time>2022-07-16T07:21:56Z</time>
      </trkpt>
      <trkpt lat="46.62779" lon="5.50099">
        <ele>282</ele>
        <time>2022-07-16T07:21:59Z</time>
      </trkpt>
      <trkpt lat="46.62769" lon="5.50081">
        <ele>282.2</ele>
        <time>2022-07-16T07:22:02Z</time>
      </trkpt>
      <trkpt lat="46.62766" lon="5.50076">
        <ele>282.2</ele>
        <time>2022-07-16T07:22:03Z</time>
      </trkpt>
      <trkpt lat="46.62757" lon="5.50067">
        <ele>282.6</ele>
        <time>2022-07-16T07:22:05Z</time>
      </trkpt>
      <trkpt lat="46.62751" lon="5.50063">
        <ele>282.6</ele>
        <time>2022-07-16T07:22:06Z</time>
      </trkpt>
      <trkpt lat="46.62739" lon="5.50058">
        <ele>282.6</ele>
        <time>2022-07-16T07:22:08Z</time>
      </trkpt>
      <trkpt lat="46.62726" lon="5.50057">
        <ele>282.2</ele>
        <time>2022-07-16T07:22:10Z</time>
      </trkpt>
      <trkpt lat="46.62701" lon="5.50069">
        <ele>282</ele>
        <time>2022-07-16T07:22:14Z</time>
      </trkpt>
      <trkpt lat="46.62676" lon="5.50087">
        <ele>282</ele>
        <time>2022-07-16T07:22:19Z</time>
      </trkpt>
      <trkpt lat="46.62668" lon="5.50091">
        <ele>282.2</ele>
        <time>2022-07-16T07:22:21Z</time>
      </trkpt>
      <trkpt lat="46.62658" lon="5.50093">
        <ele>283</ele>
        <time>2022-07-16T07:22:23Z</time>
      </trkpt>
      <trkpt lat="46.62654" lon="5.50094">
        <ele>283.2</ele>
        <time>2022-07-16T07:22:24Z</time>
      </trkpt>
      <trkpt lat="46.62649" lon="5.50094">
        <ele>283.6</ele>
        <time>2022-07-16T07:22:25Z</time>
      </trkpt>
      <trkpt lat="46.62633" lon="5.50093">
        <ele>284.6</ele>
        <time>2022-07-16T07:22:28Z</time>
      </trkpt>
      <trkpt lat="46.62624" lon="5.50094">
        <ele>285.2</ele>
        <time>2022-07-16T07:22:30Z</time>
      </trkpt>
      <trkpt lat="46.62618" lon="5.50096">
        <ele>285.2</ele>
        <time>2022-07-16T07:22:31Z</time>
      </trkpt>
      <trkpt lat="46.62602" lon="5.501">
        <ele>286</ele>
        <time>2022-07-16T07:22:34Z</time>
      </trkpt>
      <trkpt lat="46.62595" lon="5.501">
        <ele>286</ele>
        <time>2022-07-16T07:22:35Z</time>
      </trkpt>
      <trkpt lat="46.62589" lon="5.50098">
        <ele>286</ele>
        <time>2022-07-16T07:22:36Z</time>
      </trkpt>
      <trkpt lat="46.62577" lon="5.50088">
        <ele>286</ele>
        <time>2022-07-16T07:22:38Z</time>
      </trkpt>
      <trkpt lat="46.6257" lon="5.5007">
        <ele>285.8</ele>
        <time>2022-07-16T07:22:40Z</time>
      </trkpt>
      <trkpt lat="46.62568" lon="5.5006">
        <ele>285.8</ele>
        <time>2022-07-16T07:22:41Z</time>
      </trkpt>
      <trkpt lat="46.62563" lon="5.50027">
        <ele>284.6</ele>
        <time>2022-07-16T07:22:44Z</time>
      </trkpt>
      <trkpt lat="46.62559" lon="5.50017">
        <ele>284.4</ele>
        <time>2022-07-16T07:22:45Z</time>
      </trkpt>
      <trkpt lat="46.62554" lon="5.50009">
        <ele>283.8</ele>
        <time>2022-07-16T07:22:46Z</time>
      </trkpt>
      <trkpt lat="46.62547" lon="5.50005">
        <ele>283.2</ele>
        <time>2022-07-16T07:22:47Z</time>
      </trkpt>
      <trkpt lat="46.6254" lon="5.50003">
        <ele>283</ele>
        <time>2022-07-16T07:22:48Z</time>
      </trkpt>
      <trkpt lat="46.62533" lon="5.50003">
        <ele>282.6</ele>
        <time>2022-07-16T07:22:49Z</time>
      </trkpt>
      <trkpt lat="46.62526" lon="5.50004">
        <ele>282.4</ele>
        <time>2022-07-16T07:22:50Z</time>
      </trkpt>
      <trkpt lat="46.62505" lon="5.50009">
        <ele>282</ele>
        <time>2022-07-16T07:22:53Z</time>
      </trkpt>
      <trkpt lat="46.62493" lon="5.50016">
        <ele>281.6</ele>
        <time>2022-07-16T07:22:55Z</time>
      </trkpt>
      <trkpt lat="46.62487" lon="5.50021">
        <ele>281.4</ele>
        <time>2022-07-16T07:22:56Z</time>
      </trkpt>
      <trkpt lat="46.6248" lon="5.50025">
        <ele>281</ele>
        <time>2022-07-16T07:22:57Z</time>
      </trkpt>
      <trkpt lat="46.62474" lon="5.50028">
        <ele>280</ele>
        <time>2022-07-16T07:22:58Z</time>
      </trkpt>
      <trkpt lat="46.62467" lon="5.50028">
        <ele>279.8</ele>
        <time>2022-07-16T07:22:59Z</time>
      </trkpt>
      <trkpt lat="46.62455" lon="5.50021">
        <ele>279</ele>
        <time>2022-07-16T07:23:01Z</time>
      </trkpt>
      <trkpt lat="46.62446" lon="5.50009">
        <ele>277.6</ele>
        <time>2022-07-16T07:23:03Z</time>
      </trkpt>
      <trkpt lat="46.62442" lon="5.50004">
        <ele>277.2</ele>
        <time>2022-07-16T07:23:04Z</time>
      </trkpt>
      <trkpt lat="46.62439" lon="5.49998">
        <ele>276.2</ele>
        <time>2022-07-16T07:23:05Z</time>
      </trkpt>
      <trkpt lat="46.62439" lon="5.49991">
        <ele>275.6</ele>
        <time>2022-07-16T07:23:06Z</time>
      </trkpt>
      <trkpt lat="46.62441" lon="5.49983">
        <ele>274.6</ele>
        <time>2022-07-16T07:23:07Z</time>
      </trkpt>
      <trkpt lat="46.62449" lon="5.49966">
        <ele>273.4</ele>
        <time>2022-07-16T07:23:09Z</time>
      </trkpt>
      <trkpt lat="46.62464" lon="5.49942">
        <ele>272.2</ele>
        <time>2022-07-16T07:23:12Z</time>
      </trkpt>
      <trkpt lat="46.62471" lon="5.49927">
        <ele>270.8</ele>
        <time>2022-07-16T07:23:14Z</time>
      </trkpt>
      <trkpt lat="46.62474" lon="5.49919">
        <ele>270.4</ele>
        <time>2022-07-16T07:23:15Z</time>
      </trkpt>
      <trkpt lat="46.6248" lon="5.49904">
        <ele>269.6</ele>
        <time>2022-07-16T07:23:17Z</time>
      </trkpt>
      <trkpt lat="46.62481" lon="5.499">
        <ele>269.2</ele>
        <time>2022-07-16T07:23:18Z</time>
      </trkpt>
      <trkpt lat="46.62485" lon="5.49888">
        <ele>268.4</ele>
        <time>2022-07-16T07:23:20Z</time>
      </trkpt>
      <trkpt lat="46.62491" lon="5.49876">
        <ele>267.6</ele>
        <time>2022-07-16T07:23:22Z</time>
      </trkpt>
      <trkpt lat="46.62494" lon="5.4987">
        <ele>267.2</ele>
        <time>2022-07-16T07:23:23Z</time>
      </trkpt>
      <trkpt lat="46.6251" lon="5.49845">
        <ele>266.6</ele>
        <time>2022-07-16T07:23:27Z</time>
      </trkpt>
      <trkpt lat="46.62518" lon="5.49831">
        <ele>266.2</ele>
        <time>2022-07-16T07:23:29Z</time>
      </trkpt>
      <trkpt lat="46.62521" lon="5.49824">
        <ele>266.2</ele>
        <time>2022-07-16T07:23:30Z</time>
      </trkpt>
      <trkpt lat="46.62525" lon="5.49809">
        <ele>266</ele>
        <time>2022-07-16T07:23:32Z</time>
      </trkpt>
      <trkpt lat="46.62526" lon="5.49802">
        <ele>265.8</ele>
        <time>2022-07-16T07:23:33Z</time>
      </trkpt>
      <trkpt lat="46.62526" lon="5.49794">
        <ele>265.8</ele>
        <time>2022-07-16T07:23:34Z</time>
      </trkpt>
      <trkpt lat="46.62526" lon="5.49781">
        <ele>265.8</ele>
        <time>2022-07-16T07:23:36Z</time>
      </trkpt>
      <trkpt lat="46.62526" lon="5.49778">
        <ele>265.8</ele>
        <time>2022-07-16T07:23:37Z</time>
      </trkpt>
      <trkpt lat="46.62525" lon="5.49778">
        <ele>266</ele>
        <time>2022-07-16T07:23:40Z</time>
      </trkpt>
      <trkpt lat="46.62521" lon="5.49775">
        <ele>266</ele>
        <time>2022-07-16T07:23:43Z</time>
      </trkpt>
      <trkpt lat="46.62516" lon="5.49775">
        <ele>266</ele>
        <time>2022-07-16T07:23:45Z</time>
      </trkpt>
      <trkpt lat="46.62499" lon="5.49778">
        <ele>265.6</ele>
        <time>2022-07-16T07:23:49Z</time>
      </trkpt>
      <trkpt lat="46.62473" lon="5.49776">
        <ele>264.8</ele>
        <time>2022-07-16T07:23:53Z</time>
      </trkpt>
      <trkpt lat="46.62453" lon="5.49774">
        <ele>263.2</ele>
        <time>2022-07-16T07:23:56Z</time>
      </trkpt>
      <trkpt lat="46.62443" lon="5.49768">
        <ele>262</ele>
        <time>2022-07-16T07:23:58Z</time>
      </trkpt>
      <trkpt lat="46.62438" lon="5.49765">
        <ele>261.6</ele>
        <time>2022-07-16T07:23:59Z</time>
      </trkpt>
      <trkpt lat="46.62432" lon="5.49762">
        <ele>260.8</ele>
        <time>2022-07-16T07:24:00Z</time>
      </trkpt>
      <trkpt lat="46.62414" lon="5.49754">
        <ele>259.8</ele>
        <time>2022-07-16T07:24:03Z</time>
      </trkpt>
      <trkpt lat="46.62392" lon="5.49741">
        <ele>258.6</ele>
        <time>2022-07-16T07:24:07Z</time>
      </trkpt>
      <trkpt lat="46.6238" lon="5.49736">
        <ele>258.4</ele>
        <time>2022-07-16T07:24:10Z</time>
      </trkpt>
      <trkpt lat="46.62372" lon="5.49738">
        <ele>258.4</ele>
        <time>2022-07-16T07:24:13Z</time>
      </trkpt>
      <trkpt lat="46.6237" lon="5.49741">
        <ele>258.6</ele>
        <time>2022-07-16T07:24:14Z</time>
      </trkpt>
      <trkpt lat="46.62352" lon="5.49766">
        <ele>259</ele>
        <time>2022-07-16T07:24:20Z</time>
      </trkpt>
      <trkpt lat="46.6233" lon="5.49799">
        <ele>259.4</ele>
        <time>2022-07-16T07:24:26Z</time>
      </trkpt>
      <trkpt lat="46.62314" lon="5.49839">
        <ele>259.4</ele>
        <time>2022-07-16T07:24:31Z</time>
      </trkpt>
      <trkpt lat="46.62293" lon="5.49904">
        <ele>259.4</ele>
        <time>2022-07-16T07:24:39Z</time>
      </trkpt>
      <trkpt lat="46.62278" lon="5.49959">
        <ele>259.6</ele>
        <time>2022-07-16T07:24:46Z</time>
      </trkpt>
      <trkpt lat="46.62276" lon="5.49967">
        <ele>259.8</ele>
        <time>2022-07-16T07:24:47Z</time>
      </trkpt>
      <trkpt lat="46.62264" lon="5.50005">
        <ele>260.6</ele>
        <time>2022-07-16T07:24:52Z</time>
      </trkpt>
      <trkpt lat="46.62262" lon="5.50013">
        <ele>260.8</ele>
        <time>2022-07-16T07:24:53Z</time>
      </trkpt>
      <trkpt lat="46.62254" lon="5.50047">
        <ele>261.6</ele>
        <time>2022-07-16T07:24:57Z</time>
      </trkpt>
      <trkpt lat="46.62251" lon="5.50054">
        <ele>261.6</ele>
        <time>2022-07-16T07:24:58Z</time>
      </trkpt>
      <trkpt lat="46.62242" lon="5.50075">
        <ele>261.8</ele>
        <time>2022-07-16T07:25:01Z</time>
      </trkpt>
      <trkpt lat="46.62239" lon="5.50081">
        <ele>262</ele>
        <time>2022-07-16T07:25:02Z</time>
      </trkpt>
      <trkpt lat="46.62235" lon="5.50087">
        <ele>262</ele>
        <time>2022-07-16T07:25:03Z</time>
      </trkpt>
      <trkpt lat="46.62231" lon="5.50092">
        <ele>262</ele>
        <time>2022-07-16T07:25:04Z</time>
      </trkpt>
      <trkpt lat="46.62223" lon="5.50102">
        <ele>262.4</ele>
        <time>2022-07-16T07:25:06Z</time>
      </trkpt>
      <trkpt lat="46.6222" lon="5.50105">
        <ele>262.6</ele>
        <time>2022-07-16T07:25:07Z</time>
      </trkpt>
      <trkpt lat="46.62216" lon="5.50109">
        <ele>263</ele>
        <time>2022-07-16T07:25:08Z</time>
      </trkpt>
      <trkpt lat="46.62211" lon="5.50112">
        <ele>263.4</ele>
        <time>2022-07-16T07:25:09Z</time>
      </trkpt>
      <trkpt lat="46.62203" lon="5.50113">
        <ele>264</ele>
        <time>2022-07-16T07:25:11Z</time>
      </trkpt>
      <trkpt lat="46.62198" lon="5.50114">
        <ele>264.6</ele>
        <time>2022-07-16T07:25:12Z</time>
      </trkpt>
      <trkpt lat="46.6219" lon="5.50113">
        <ele>265.2</ele>
        <time>2022-07-16T07:25:14Z</time>
      </trkpt>
      <trkpt lat="46.6218" lon="5.50109">
        <ele>265.8</ele>
        <time>2022-07-16T07:25:17Z</time>
      </trkpt>
      <trkpt lat="46.62173" lon="5.50106">
        <ele>266.6</ele>
        <time>2022-07-16T07:25:19Z</time>
      </trkpt>
      <trkpt lat="46.62161" lon="5.50103">
        <ele>267.6</ele>
        <time>2022-07-16T07:25:22Z</time>
      </trkpt>
      <trkpt lat="46.62149" lon="5.50101">
        <ele>268.4</ele>
        <time>2022-07-16T07:25:25Z</time>
      </trkpt>
      <trkpt lat="46.62145" lon="5.501">
        <ele>268.6</ele>
        <time>2022-07-16T07:25:26Z</time>
      </trkpt>
      <trkpt lat="46.62132" lon="5.50102">
        <ele>269.2</ele>
        <time>2022-07-16T07:25:29Z</time>
      </trkpt>
      <trkpt lat="46.62122" lon="5.50107">
        <ele>269.4</ele>
        <time>2022-07-16T07:25:31Z</time>
      </trkpt>
      <trkpt lat="46.62113" lon="5.50114">
        <ele>269.6</ele>
        <time>2022-07-16T07:25:33Z</time>
      </trkpt>
      <trkpt lat="46.62104" lon="5.50122">
        <ele>269.6</ele>
        <time>2022-07-16T07:25:35Z</time>
      </trkpt>
      <trkpt lat="46.62095" lon="5.50132">
        <ele>269.8</ele>
        <time>2022-07-16T07:25:37Z</time>
      </trkpt>
      <trkpt lat="46.62077" lon="5.50149">
        <ele>270</ele>
        <time>2022-07-16T07:25:41Z</time>
      </trkpt>
      <trkpt lat="46.62067" lon="5.50155">
        <ele>270.2</ele>
        <time>2022-07-16T07:25:43Z</time>
      </trkpt>
      <trkpt lat="46.62059" lon="5.50158">
        <ele>270.4</ele>
        <time>2022-07-16T07:25:45Z</time>
      </trkpt>
      <trkpt lat="46.62051" lon="5.50159">
        <ele>270.6</ele>
        <time>2022-07-16T07:25:47Z</time>
      </trkpt>
      <trkpt lat="46.62036" lon="5.50155">
        <ele>272</ele>
        <time>2022-07-16T07:25:51Z</time>
      </trkpt>
      <trkpt lat="46.62026" lon="5.50152">
        <ele>273.2</ele>
        <time>2022-07-16T07:25:54Z</time>
      </trkpt>
      <trkpt lat="46.62013" lon="5.50149">
        <ele>274.8</ele>
        <time>2022-07-16T07:25:58Z</time>
      </trkpt>
      <trkpt lat="46.62002" lon="5.50147">
        <ele>275.8</ele>
        <time>2022-07-16T07:26:01Z</time>
      </trkpt>
      <trkpt lat="46.61999" lon="5.50146">
        <ele>276</ele>
        <time>2022-07-16T07:26:02Z</time>
      </trkpt>
      <trkpt lat="46.61992" lon="5.50145">
        <ele>276.8</ele>
        <time>2022-07-16T07:26:04Z</time>
      </trkpt>
      <trkpt lat="46.61982" lon="5.50142">
        <ele>278</ele>
        <time>2022-07-16T07:26:07Z</time>
      </trkpt>
      <trkpt lat="46.61976" lon="5.5014">
        <ele>278.4</ele>
        <time>2022-07-16T07:26:09Z</time>
      </trkpt>
      <trkpt lat="46.61969" lon="5.50139">
        <ele>279</ele>
        <time>2022-07-16T07:26:11Z</time>
      </trkpt>
      <trkpt lat="46.61959" lon="5.50137">
        <ele>280.4</ele>
        <time>2022-07-16T07:26:14Z</time>
      </trkpt>
      <trkpt lat="46.61949" lon="5.50136">
        <ele>281.2</ele>
        <time>2022-07-16T07:26:17Z</time>
      </trkpt>
      <trkpt lat="46.61942" lon="5.50135">
        <ele>281.4</ele>
        <time>2022-07-16T07:26:19Z</time>
      </trkpt>
      <trkpt lat="46.61923" lon="5.50132">
        <ele>282.4</ele>
        <time>2022-07-16T07:26:24Z</time>
      </trkpt>
      <trkpt lat="46.6192" lon="5.50132">
        <ele>282.4</ele>
        <time>2022-07-16T07:26:25Z</time>
      </trkpt>
      <trkpt lat="46.61905" lon="5.50129">
        <ele>283.6</ele>
        <time>2022-07-16T07:26:29Z</time>
      </trkpt>
      <trkpt lat="46.61891" lon="5.50127">
        <ele>284.4</ele>
        <time>2022-07-16T07:26:33Z</time>
      </trkpt>
      <trkpt lat="46.61885" lon="5.50126">
        <ele>285</ele>
        <time>2022-07-16T07:26:35Z</time>
      </trkpt>
      <trkpt lat="46.61869" lon="5.50124">
        <ele>286</ele>
        <time>2022-07-16T07:26:39Z</time>
      </trkpt>
      <trkpt lat="46.61852" lon="5.50123">
        <ele>286.8</ele>
        <time>2022-07-16T07:26:43Z</time>
      </trkpt>
      <trkpt lat="46.61844" lon="5.50124">
        <ele>287.2</ele>
        <time>2022-07-16T07:26:45Z</time>
      </trkpt>
      <trkpt lat="46.6183" lon="5.50125">
        <ele>287.4</ele>
        <time>2022-07-16T07:26:48Z</time>
      </trkpt>
      <trkpt lat="46.61795" lon="5.50131">
        <ele>287.6</ele>
        <time>2022-07-16T07:26:54Z</time>
      </trkpt>
      <trkpt lat="46.61759" lon="5.50138">
        <ele>286.8</ele>
        <time>2022-07-16T07:26:59Z</time>
      </trkpt>
      <trkpt lat="46.61745" lon="5.50141">
        <ele>286.2</ele>
        <time>2022-07-16T07:27:01Z</time>
      </trkpt>
      <trkpt lat="46.61738" lon="5.50142">
        <ele>286</ele>
        <time>2022-07-16T07:27:02Z</time>
      </trkpt>
      <trkpt lat="46.61688" lon="5.50154">
        <ele>285.6</ele>
        <time>2022-07-16T07:27:09Z</time>
      </trkpt>
      <trkpt lat="46.61647" lon="5.5017">
        <ele>285</ele>
        <time>2022-07-16T07:27:15Z</time>
      </trkpt>
      <trkpt lat="46.61626" lon="5.50177">
        <ele>284.6</ele>
        <time>2022-07-16T07:27:18Z</time>
      </trkpt>
      <trkpt lat="46.61578" lon="5.50191">
        <ele>284.2</ele>
        <time>2022-07-16T07:27:24Z</time>
      </trkpt>
      <trkpt lat="46.6157" lon="5.50194">
        <ele>284</ele>
        <time>2022-07-16T07:27:25Z</time>
      </trkpt>
      <trkpt lat="46.61514" lon="5.50212">
        <ele>283.4</ele>
        <time>2022-07-16T07:27:32Z</time>
      </trkpt>
      <trkpt lat="46.6148" lon="5.50223">
        <ele>283.2</ele>
        <time>2022-07-16T07:27:37Z</time>
      </trkpt>
      <trkpt lat="46.61429" lon="5.50238">
        <ele>284.8</ele>
        <time>2022-07-16T07:27:45Z</time>
      </trkpt>
      <trkpt lat="46.61411" lon="5.50243">
        <ele>285.2</ele>
        <time>2022-07-16T07:27:48Z</time>
      </trkpt>
      <trkpt lat="46.61389" lon="5.50251">
        <ele>286</ele>
        <time>2022-07-16T07:27:52Z</time>
      </trkpt>
      <trkpt lat="46.61378" lon="5.50254">
        <ele>286.4</ele>
        <time>2022-07-16T07:27:54Z</time>
      </trkpt>
      <trkpt lat="46.61372" lon="5.50256">
        <ele>286.6</ele>
        <time>2022-07-16T07:27:55Z</time>
      </trkpt>
      <trkpt lat="46.61361" lon="5.50256">
        <ele>287</ele>
        <time>2022-07-16T07:27:57Z</time>
      </trkpt>
      <trkpt lat="46.61345" lon="5.50253">
        <ele>287.6</ele>
        <time>2022-07-16T07:28:00Z</time>
      </trkpt>
      <trkpt lat="46.61325" lon="5.5025">
        <ele>288</ele>
        <time>2022-07-16T07:28:04Z</time>
      </trkpt>
      <trkpt lat="46.61317" lon="5.50249">
        <ele>288.6</ele>
        <time>2022-07-16T07:28:06Z</time>
      </trkpt>
      <trkpt lat="46.61297" lon="5.50248">
        <ele>289.8</ele>
        <time>2022-07-16T07:28:11Z</time>
      </trkpt>
      <trkpt lat="46.61285" lon="5.50251">
        <ele>291</ele>
        <time>2022-07-16T07:28:14Z</time>
      </trkpt>
      <trkpt lat="46.61274" lon="5.50258">
        <ele>291.8</ele>
        <time>2022-07-16T07:28:17Z</time>
      </trkpt>
      <trkpt lat="46.61268" lon="5.50263">
        <ele>292.2</ele>
        <time>2022-07-16T07:28:19Z</time>
      </trkpt>
      <trkpt lat="46.61257" lon="5.50271">
        <ele>293.8</ele>
        <time>2022-07-16T07:28:22Z</time>
      </trkpt>
      <trkpt lat="46.61228" lon="5.50287">
        <ele>295</ele>
        <time>2022-07-16T07:28:30Z</time>
      </trkpt>
      <trkpt lat="46.61214" lon="5.50295">
        <ele>296</ele>
        <time>2022-07-16T07:28:34Z</time>
      </trkpt>
      <trkpt lat="46.61197" lon="5.50308">
        <ele>297</ele>
        <time>2022-07-16T07:28:39Z</time>
      </trkpt>
      <trkpt lat="46.61194" lon="5.5031">
        <ele>297.2</ele>
        <time>2022-07-16T07:28:40Z</time>
      </trkpt>
      <trkpt lat="46.6118" lon="5.50324">
        <ele>298.2</ele>
        <time>2022-07-16T07:28:44Z</time>
      </trkpt>
      <trkpt lat="46.61167" lon="5.50332">
        <ele>299.4</ele>
        <time>2022-07-16T07:28:48Z</time>
      </trkpt>
      <trkpt lat="46.61145" lon="5.50338">
        <ele>300.6</ele>
        <time>2022-07-16T07:28:54Z</time>
      </trkpt>
      <trkpt lat="46.61133" lon="5.50339">
        <ele>301</ele>
        <time>2022-07-16T07:28:57Z</time>
      </trkpt>
      <trkpt lat="46.61117" lon="5.50341">
        <ele>301.6</ele>
        <time>2022-07-16T07:29:01Z</time>
      </trkpt>
      <trkpt lat="46.61105" lon="5.50343">
        <ele>302.2</ele>
        <time>2022-07-16T07:29:04Z</time>
      </trkpt>
      <trkpt lat="46.61093" lon="5.50344">
        <ele>302.8</ele>
        <time>2022-07-16T07:29:07Z</time>
      </trkpt>
      <trkpt lat="46.6107" lon="5.50346">
        <ele>303.4</ele>
        <time>2022-07-16T07:29:13Z</time>
      </trkpt>
      <trkpt lat="46.6104" lon="5.50344">
        <ele>303.4</ele>
        <time>2022-07-16T07:29:19Z</time>
      </trkpt>
      <trkpt lat="46.61034" lon="5.50342">
        <ele>303.4</ele>
        <time>2022-07-16T07:29:20Z</time>
      </trkpt>
      <trkpt lat="46.60997" lon="5.50327">
        <ele>301.6</ele>
        <time>2022-07-16T07:29:25Z</time>
      </trkpt>
      <trkpt lat="46.6099" lon="5.50323">
        <ele>301</ele>
        <time>2022-07-16T07:29:26Z</time>
      </trkpt>
      <trkpt lat="46.60975" lon="5.50316">
        <ele>300.2</ele>
        <time>2022-07-16T07:29:28Z</time>
      </trkpt>
      <trkpt lat="46.60958" lon="5.50306">
        <ele>298.8</ele>
        <time>2022-07-16T07:29:30Z</time>
      </trkpt>
      <trkpt lat="46.60949" lon="5.50302">
        <ele>298.2</ele>
        <time>2022-07-16T07:29:31Z</time>
      </trkpt>
      <trkpt lat="46.60931" lon="5.50293">
        <ele>297.4</ele>
        <time>2022-07-16T07:29:33Z</time>
      </trkpt>
      <trkpt lat="46.60896" lon="5.50268">
        <ele>296.6</ele>
        <time>2022-07-16T07:29:37Z</time>
      </trkpt>
      <trkpt lat="46.60888" lon="5.50261">
        <ele>296.2</ele>
        <time>2022-07-16T07:29:38Z</time>
      </trkpt>
      <trkpt lat="46.6087" lon="5.50245">
        <ele>295.2</ele>
        <time>2022-07-16T07:29:41Z</time>
      </trkpt>
      <trkpt lat="46.60844" lon="5.50219">
        <ele>294</ele>
        <time>2022-07-16T07:29:43Z</time>
      </trkpt>
      <trkpt lat="46.60821" lon="5.50182">
        <ele>292.8</ele>
        <time>2022-07-16T07:29:46Z</time>
      </trkpt>
      <trkpt lat="46.60814" lon="5.50168">
        <ele>292</ele>
        <time>2022-07-16T07:29:47Z</time>
      </trkpt>
      <trkpt lat="46.60801" lon="5.50142">
        <ele>291.2</ele>
        <time>2022-07-16T07:29:49Z</time>
      </trkpt>
      <trkpt lat="46.60789" lon="5.50118">
        <ele>290</ele>
        <time>2022-07-16T07:29:51Z</time>
      </trkpt>
      <trkpt lat="46.60777" lon="5.50092">
        <ele>289</ele>
        <time>2022-07-16T07:29:53Z</time>
      </trkpt>
      <trkpt lat="46.6077" lon="5.50079">
        <ele>288.2</ele>
        <time>2022-07-16T07:29:54Z</time>
      </trkpt>
      <trkpt lat="46.60756" lon="5.50062">
        <ele>287</ele>
        <time>2022-07-16T07:29:56Z</time>
      </trkpt>
      <trkpt lat="46.60742" lon="5.50054">
        <ele>286.6</ele>
        <time>2022-07-16T07:29:58Z</time>
      </trkpt>
      <trkpt lat="46.60726" lon="5.50048">
        <ele>286.4</ele>
        <time>2022-07-16T07:30:00Z</time>
      </trkpt>
      <trkpt lat="46.60716" lon="5.50045">
        <ele>286.4</ele>
        <time>2022-07-16T07:30:01Z</time>
      </trkpt>
      <trkpt lat="46.607" lon="5.50036">
        <ele>286.6</ele>
        <time>2022-07-16T07:30:03Z</time>
      </trkpt>
      <trkpt lat="46.6069" lon="5.50027">
        <ele>286.8</ele>
        <time>2022-07-16T07:30:04Z</time>
      </trkpt>
      <trkpt lat="46.60675" lon="5.50009">
        <ele>286.8</ele>
        <time>2022-07-16T07:30:06Z</time>
      </trkpt>
      <trkpt lat="46.60643" lon="5.49956">
        <ele>286</ele>
        <time>2022-07-16T07:30:11Z</time>
      </trkpt>
      <trkpt lat="46.60638" lon="5.49945">
        <ele>285.8</ele>
        <time>2022-07-16T07:30:12Z</time>
      </trkpt>
      <trkpt lat="46.60611" lon="5.49893">
        <ele>285.4</ele>
        <time>2022-07-16T07:30:17Z</time>
      </trkpt>
      <trkpt lat="46.60591" lon="5.49852">
        <ele>284.8</ele>
        <time>2022-07-16T07:30:21Z</time>
      </trkpt>
      <trkpt lat="46.6058" lon="5.49836">
        <ele>284.8</ele>
        <time>2022-07-16T07:30:23Z</time>
      </trkpt>
      <trkpt lat="46.60562" lon="5.49816">
        <ele>285</ele>
        <time>2022-07-16T07:30:26Z</time>
      </trkpt>
      <trkpt lat="46.60549" lon="5.49805">
        <ele>285</ele>
        <time>2022-07-16T07:30:28Z</time>
      </trkpt>
      <trkpt lat="46.6053" lon="5.49791">
        <ele>286</ele>
        <time>2022-07-16T07:30:31Z</time>
      </trkpt>
      <trkpt lat="46.60513" lon="5.49779">
        <ele>286.8</ele>
        <time>2022-07-16T07:30:34Z</time>
      </trkpt>
      <trkpt lat="46.605" lon="5.49771">
        <ele>287</ele>
        <time>2022-07-16T07:30:36Z</time>
      </trkpt>
      <trkpt lat="46.60466" lon="5.4975">
        <ele>286.8</ele>
        <time>2022-07-16T07:30:41Z</time>
      </trkpt>
      <trkpt lat="46.60451" lon="5.49739">
        <ele>285.8</ele>
        <time>2022-07-16T07:30:43Z</time>
      </trkpt>
      <trkpt lat="46.60423" lon="5.49721">
        <ele>285.2</ele>
        <time>2022-07-16T07:30:46Z</time>
      </trkpt>
      <trkpt lat="46.60416" lon="5.49718">
        <ele>284.6</ele>
        <time>2022-07-16T07:30:47Z</time>
      </trkpt>
      <trkpt lat="46.60392" lon="5.49711">
        <ele>283.2</ele>
        <time>2022-07-16T07:30:49Z</time>
      </trkpt>
      <trkpt lat="46.60381" lon="5.49708">
        <ele>282.2</ele>
        <time>2022-07-16T07:30:50Z</time>
      </trkpt>
      <trkpt lat="46.60359" lon="5.49703">
        <ele>280.6</ele>
        <time>2022-07-16T07:30:52Z</time>
      </trkpt>
      <trkpt lat="46.60346" lon="5.49697">
        <ele>280</ele>
        <time>2022-07-16T07:30:53Z</time>
      </trkpt>
      <trkpt lat="46.60335" lon="5.49692">
        <ele>279.2</ele>
        <time>2022-07-16T07:30:54Z</time>
      </trkpt>
      <trkpt lat="46.60326" lon="5.49689">
        <ele>278.4</ele>
        <time>2022-07-16T07:30:55Z</time>
      </trkpt>
      <trkpt lat="46.60311" lon="5.49687">
        <ele>277.4</ele>
        <time>2022-07-16T07:30:56Z</time>
      </trkpt>
      <trkpt lat="46.60299" lon="5.49687">
        <ele>275.4</ele>
        <time>2022-07-16T07:30:57Z</time>
      </trkpt>
      <trkpt lat="46.60287" lon="5.49688">
        <ele>274.2</ele>
        <time>2022-07-16T07:30:58Z</time>
      </trkpt>
      <trkpt lat="46.60274" lon="5.4969">
        <ele>271.8</ele>
        <time>2022-07-16T07:30:59Z</time>
      </trkpt>
      <trkpt lat="46.60264" lon="5.49692">
        <ele>270.4</ele>
        <time>2022-07-16T07:31:00Z</time>
      </trkpt>
      <trkpt lat="46.60248" lon="5.49694">
        <ele>268.4</ele>
        <time>2022-07-16T07:31:01Z</time>
      </trkpt>
      <trkpt lat="46.60238" lon="5.49696">
        <ele>267.8</ele>
        <time>2022-07-16T07:31:02Z</time>
      </trkpt>
      <trkpt lat="46.60226" lon="5.49697">
        <ele>266.6</ele>
        <time>2022-07-16T07:31:03Z</time>
      </trkpt>
      <trkpt lat="46.60213" lon="5.49699">
        <ele>264.8</ele>
        <time>2022-07-16T07:31:04Z</time>
      </trkpt>
      <trkpt lat="46.60189" lon="5.49702">
        <ele>263.4</ele>
        <time>2022-07-16T07:31:06Z</time>
      </trkpt>
      <trkpt lat="46.60177" lon="5.49704">
        <ele>262.2</ele>
        <time>2022-07-16T07:31:07Z</time>
      </trkpt>
      <trkpt lat="46.60164" lon="5.49705">
        <ele>260.4</ele>
        <time>2022-07-16T07:31:08Z</time>
      </trkpt>
      <trkpt lat="46.60152" lon="5.49706">
        <ele>259.2</ele>
        <time>2022-07-16T07:31:09Z</time>
      </trkpt>
      <trkpt lat="46.60139" lon="5.49708">
        <ele>257.4</ele>
        <time>2022-07-16T07:31:10Z</time>
      </trkpt>
      <trkpt lat="46.60127" lon="5.49709">
        <ele>256.2</ele>
        <time>2022-07-16T07:31:11Z</time>
      </trkpt>
      <trkpt lat="46.60114" lon="5.4971">
        <ele>255.2</ele>
        <time>2022-07-16T07:31:12Z</time>
      </trkpt>
      <trkpt lat="46.60102" lon="5.49712">
        <ele>253.8</ele>
        <time>2022-07-16T07:31:13Z</time>
      </trkpt>
      <trkpt lat="46.60089" lon="5.49715">
        <ele>252.8</ele>
        <time>2022-07-16T07:31:14Z</time>
      </trkpt>
      <trkpt lat="46.60078" lon="5.49719">
        <ele>251.6</ele>
        <time>2022-07-16T07:31:15Z</time>
      </trkpt>
      <trkpt lat="46.60057" lon="5.49729">
        <ele>250.2</ele>
        <time>2022-07-16T07:31:17Z</time>
      </trkpt>
      <trkpt lat="46.60047" lon="5.49737">
        <ele>249</ele>
        <time>2022-07-16T07:31:18Z</time>
      </trkpt>
      <trkpt lat="46.60039" lon="5.49747">
        <ele>248.4</ele>
        <time>2022-07-16T07:31:19Z</time>
      </trkpt>
      <trkpt lat="46.6003" lon="5.49761">
        <ele>247</ele>
        <time>2022-07-16T07:31:20Z</time>
      </trkpt>
      <trkpt lat="46.60023" lon="5.49774">
        <ele>246.4</ele>
        <time>2022-07-16T07:31:21Z</time>
      </trkpt>
      <trkpt lat="46.60023" lon="5.49774">
        <ele>245.4</ele>
        <time>2022-07-16T07:31:22Z</time>
      </trkpt>
      <trkpt lat="46.60004" lon="5.49813">
        <ele>243.6</ele>
        <time>2022-07-16T07:31:24Z</time>
      </trkpt>
      <trkpt lat="46.59992" lon="5.49838">
        <ele>242.4</ele>
        <time>2022-07-16T07:31:26Z</time>
      </trkpt>
      <trkpt lat="46.59986" lon="5.49849">
        <ele>242</ele>
        <time>2022-07-16T07:31:27Z</time>
      </trkpt>
      <trkpt lat="46.59969" lon="5.49885">
        <ele>241.2</ele>
        <time>2022-07-16T07:31:30Z</time>
      </trkpt>
      <trkpt lat="46.5995" lon="5.49921">
        <ele>240.2</ele>
        <time>2022-07-16T07:31:33Z</time>
      </trkpt>
      <trkpt lat="46.59946" lon="5.4993">
        <ele>239.4</ele>
        <time>2022-07-16T07:31:34Z</time>
      </trkpt>
      <trkpt lat="46.5994" lon="5.49941">
        <ele>238.8</ele>
        <time>2022-07-16T07:31:35Z</time>
      </trkpt>
      <trkpt lat="46.59927" lon="5.49968">
        <ele>237.4</ele>
        <time>2022-07-16T07:31:38Z</time>
      </trkpt>
      <trkpt lat="46.59921" lon="5.49974">
        <ele>236.6</ele>
        <time>2022-07-16T07:31:40Z</time>
      </trkpt>
      <trkpt lat="46.59917" lon="5.49973">
        <ele>236.2</ele>
        <time>2022-07-16T07:31:41Z</time>
      </trkpt>
      <trkpt lat="46.59916" lon="5.49968">
        <ele>236</ele>
        <time>2022-07-16T07:31:42Z</time>
      </trkpt>
      <trkpt lat="46.59918" lon="5.49955">
        <ele>235.6</ele>
        <time>2022-07-16T07:31:44Z</time>
      </trkpt>
      <trkpt lat="46.59919" lon="5.49946">
        <ele>235.4</ele>
        <time>2022-07-16T07:31:45Z</time>
      </trkpt>
      <trkpt lat="46.59919" lon="5.49937">
        <ele>235.2</ele>
        <time>2022-07-16T07:31:46Z</time>
      </trkpt>
      <trkpt lat="46.5992" lon="5.49916">
        <ele>234.4</ele>
        <time>2022-07-16T07:31:48Z</time>
      </trkpt>
      <trkpt lat="46.59922" lon="5.49894">
        <ele>233.8</ele>
        <time>2022-07-16T07:31:50Z</time>
      </trkpt>
      <trkpt lat="46.59924" lon="5.49882">
        <ele>233.4</ele>
        <time>2022-07-16T07:31:51Z</time>
      </trkpt>
      <trkpt lat="46.59929" lon="5.49859">
        <ele>232.8</ele>
        <time>2022-07-16T07:31:53Z</time>
      </trkpt>
      <trkpt lat="46.59931" lon="5.49846">
        <ele>232.4</ele>
        <time>2022-07-16T07:31:54Z</time>
      </trkpt>
      <trkpt lat="46.59944" lon="5.49784">
        <ele>231.2</ele>
        <time>2022-07-16T07:31:59Z</time>
      </trkpt>
      <trkpt lat="46.59946" lon="5.49772">
        <ele>231</ele>
        <time>2022-07-16T07:32:00Z</time>
      </trkpt>
      <trkpt lat="46.59949" lon="5.49746">
        <ele>230</ele>
        <time>2022-07-16T07:32:02Z</time>
      </trkpt>
      <trkpt lat="46.5995" lon="5.49707">
        <ele>229.4</ele>
        <time>2022-07-16T07:32:05Z</time>
      </trkpt>
      <trkpt lat="46.59951" lon="5.49668">
        <ele>229</ele>
        <time>2022-07-16T07:32:08Z</time>
      </trkpt>
      <trkpt lat="46.59949" lon="5.49618">
        <ele>228.6</ele>
        <time>2022-07-16T07:32:12Z</time>
      </trkpt>
      <trkpt lat="46.59947" lon="5.49582">
        <ele>227.8</ele>
        <time>2022-07-16T07:32:16Z</time>
      </trkpt>
      <trkpt lat="46.59942" lon="5.49561">
        <ele>227.8</ele>
        <time>2022-07-16T07:32:17Z</time>
      </trkpt>
      <trkpt lat="46.5994" lon="5.4955">
        <ele>227.6</ele>
        <time>2022-07-16T07:32:18Z</time>
      </trkpt>
      <trkpt lat="46.5993" lon="5.49518">
        <ele>227.2</ele>
        <time>2022-07-16T07:32:21Z</time>
      </trkpt>
      <trkpt lat="46.59926" lon="5.49495">
        <ele>226.8</ele>
        <time>2022-07-16T07:32:23Z</time>
      </trkpt>
      <trkpt lat="46.59925" lon="5.49482">
        <ele>225.8</ele>
        <time>2022-07-16T07:32:25Z</time>
      </trkpt>
      <trkpt lat="46.59926" lon="5.49446">
        <ele>224.6</ele>
        <time>2022-07-16T07:32:27Z</time>
      </trkpt>
      <trkpt lat="46.59927" lon="5.49433">
        <ele>224.4</ele>
        <time>2022-07-16T07:32:28Z</time>
      </trkpt>
      <trkpt lat="46.59926" lon="5.49421">
        <ele>224.2</ele>
        <time>2022-07-16T07:32:29Z</time>
      </trkpt>
      <trkpt lat="46.59921" lon="5.49388">
        <ele>223.6</ele>
        <time>2022-07-16T07:32:32Z</time>
      </trkpt>
      <trkpt lat="46.59916" lon="5.49368">
        <ele>223.4</ele>
        <time>2022-07-16T07:32:34Z</time>
      </trkpt>
      <trkpt lat="46.59908" lon="5.49342">
        <ele>223.4</ele>
        <time>2022-07-16T07:32:37Z</time>
      </trkpt>
      <trkpt lat="46.59903" lon="5.49316">
        <ele>222.8</ele>
        <time>2022-07-16T07:32:40Z</time>
      </trkpt>
      <trkpt lat="46.59902" lon="5.49297">
        <ele>222.8</ele>
        <time>2022-07-16T07:32:42Z</time>
      </trkpt>
      <trkpt lat="46.59904" lon="5.49242">
        <ele>222.8</ele>
        <time>2022-07-16T07:32:47Z</time>
      </trkpt>
      <trkpt lat="46.59902" lon="5.4923">
        <ele>222.8</ele>
        <time>2022-07-16T07:32:48Z</time>
      </trkpt>
      <trkpt lat="46.59896" lon="5.49196">
        <ele>222.6</ele>
        <time>2022-07-16T07:32:51Z</time>
      </trkpt>
      <trkpt lat="46.59892" lon="5.49175">
        <ele>222.6</ele>
        <time>2022-07-16T07:32:53Z</time>
      </trkpt>
      <trkpt lat="46.5989" lon="5.49164">
        <ele>222.4</ele>
        <time>2022-07-16T07:32:54Z</time>
      </trkpt>
      <trkpt lat="46.59878" lon="5.49088">
        <ele>222.4</ele>
        <time>2022-07-16T07:33:01Z</time>
      </trkpt>
      <trkpt lat="46.59873" lon="5.49039">
        <ele>223.2</ele>
        <time>2022-07-16T07:33:06Z</time>
      </trkpt>
      <trkpt lat="46.59874" lon="5.48995">
        <ele>223.8</ele>
        <time>2022-07-16T07:33:10Z</time>
      </trkpt>
      <trkpt lat="46.59876" lon="5.48985">
        <ele>223.8</ele>
        <time>2022-07-16T07:33:11Z</time>
      </trkpt>
      <trkpt lat="46.59889" lon="5.48906">
        <ele>222.8</ele>
        <time>2022-07-16T07:33:18Z</time>
      </trkpt>
      <trkpt lat="46.59894" lon="5.48883">
        <ele>221.8</ele>
        <time>2022-07-16T07:33:20Z</time>
      </trkpt>
      <trkpt lat="46.59904" lon="5.48852">
        <ele>220.6</ele>
        <time>2022-07-16T07:33:23Z</time>
      </trkpt>
      <trkpt lat="46.59927" lon="5.48775">
        <ele>219.6</ele>
        <time>2022-07-16T07:33:30Z</time>
      </trkpt>
      <trkpt lat="46.59928" lon="5.48766">
        <ele>219.6</ele>
        <time>2022-07-16T07:33:31Z</time>
      </trkpt>
      <trkpt lat="46.59928" lon="5.48755">
        <ele>219.6</ele>
        <time>2022-07-16T07:33:32Z</time>
      </trkpt>
      <trkpt lat="46.59928" lon="5.48721">
        <ele>219.6</ele>
        <time>2022-07-16T07:33:35Z</time>
      </trkpt>
      <trkpt lat="46.59933" lon="5.4867">
        <ele>219.2</ele>
        <time>2022-07-16T07:33:40Z</time>
      </trkpt>
      <trkpt lat="46.5993" lon="5.48655">
        <ele>219</ele>
        <time>2022-07-16T07:33:42Z</time>
      </trkpt>
      <trkpt lat="46.59926" lon="5.48649">
        <ele>219</ele>
        <time>2022-07-16T07:33:43Z</time>
      </trkpt>
      <trkpt lat="46.5992" lon="5.48645">
        <ele>218.8</ele>
        <time>2022-07-16T07:33:44Z</time>
      </trkpt>
      <trkpt lat="46.59914" lon="5.48643">
        <ele>218.6</ele>
        <time>2022-07-16T07:33:46Z</time>
      </trkpt>
      <trkpt lat="46.59896" lon="5.48639">
        <ele>218.4</ele>
        <time>2022-07-16T07:33:48Z</time>
      </trkpt>
      <trkpt lat="46.59886" lon="5.48637">
        <ele>218</ele>
        <time>2022-07-16T07:33:50Z</time>
      </trkpt>
      <trkpt lat="46.59876" lon="5.48636">
        <ele>217.8</ele>
        <time>2022-07-16T07:33:52Z</time>
      </trkpt>
      <trkpt lat="46.59857" lon="5.48641">
        <ele>217.4</ele>
        <time>2022-07-16T07:33:55Z</time>
      </trkpt>
      <trkpt lat="46.5985" lon="5.48644">
        <ele>217.2</ele>
        <time>2022-07-16T07:33:56Z</time>
      </trkpt>
      <trkpt lat="46.59837" lon="5.48649">
        <ele>217.2</ele>
        <time>2022-07-16T07:33:58Z</time>
      </trkpt>
      <trkpt lat="46.59825" lon="5.48655">
        <ele>217.2</ele>
        <time>2022-07-16T07:34:00Z</time>
      </trkpt>
      <trkpt lat="46.59807" lon="5.48663">
        <ele>217.4</ele>
        <time>2022-07-16T07:34:03Z</time>
      </trkpt>
      <trkpt lat="46.59801" lon="5.4866">
        <ele>217.4</ele>
        <time>2022-07-16T07:34:04Z</time>
      </trkpt>
      <trkpt lat="46.59797" lon="5.48654">
        <ele>217.4</ele>
        <time>2022-07-16T07:34:05Z</time>
      </trkpt>
      <trkpt lat="46.59793" lon="5.4864">
        <ele>217.8</ele>
        <time>2022-07-16T07:34:07Z</time>
      </trkpt>
      <trkpt lat="46.59785" lon="5.48598">
        <ele>218.4</ele>
        <time>2022-07-16T07:34:12Z</time>
      </trkpt>
      <trkpt lat="46.59781" lon="5.48582">
        <ele>218.6</ele>
        <time>2022-07-16T07:34:14Z</time>
      </trkpt>
      <trkpt lat="46.59779" lon="5.48564">
        <ele>218.8</ele>
        <time>2022-07-16T07:34:16Z</time>
      </trkpt>
      <trkpt lat="46.59779" lon="5.48554">
        <ele>218.8</ele>
        <time>2022-07-16T07:34:18Z</time>
      </trkpt>
      <trkpt lat="46.59779" lon="5.48537">
        <ele>218.8</ele>
        <time>2022-07-16T07:34:19Z</time>
      </trkpt>
      <trkpt lat="46.59777" lon="5.48498">
        <ele>219</ele>
        <time>2022-07-16T07:34:23Z</time>
      </trkpt>
      <trkpt lat="46.59768" lon="5.48441">
        <ele>218.8</ele>
        <time>2022-07-16T07:34:29Z</time>
      </trkpt>
      <trkpt lat="46.59761" lon="5.48412">
        <ele>218.6</ele>
        <time>2022-07-16T07:34:32Z</time>
      </trkpt>
      <trkpt lat="46.59755" lon="5.48395">
        <ele>218.6</ele>
        <time>2022-07-16T07:34:34Z</time>
      </trkpt>
      <trkpt lat="46.59741" lon="5.48335">
        <ele>218.4</ele>
        <time>2022-07-16T07:34:40Z</time>
      </trkpt>
      <trkpt lat="46.59735" lon="5.48274">
        <ele>217.8</ele>
        <time>2022-07-16T07:34:46Z</time>
      </trkpt>
      <trkpt lat="46.5973" lon="5.48182">
        <ele>217.8</ele>
        <time>2022-07-16T07:34:55Z</time>
      </trkpt>
      <trkpt lat="46.59729" lon="5.48163">
        <ele>218</ele>
        <time>2022-07-16T07:34:57Z</time>
      </trkpt>
      <trkpt lat="46.59731" lon="5.48133">
        <ele>218</ele>
        <time>2022-07-16T07:35:00Z</time>
      </trkpt>
      <trkpt lat="46.59737" lon="5.4808">
        <ele>218</ele>
        <time>2022-07-16T07:35:05Z</time>
      </trkpt>
      <trkpt lat="46.5974" lon="5.48059">
        <ele>217.2</ele>
        <time>2022-07-16T07:35:07Z</time>
      </trkpt>
      <trkpt lat="46.59743" lon="5.48049">
        <ele>216.8</ele>
        <time>2022-07-16T07:35:09Z</time>
      </trkpt>
      <trkpt lat="46.59749" lon="5.48028">
        <ele>216.8</ele>
        <time>2022-07-16T07:35:10Z</time>
      </trkpt>
      <trkpt lat="46.59751" lon="5.4802">
        <ele>216.4</ele>
        <time>2022-07-16T07:35:11Z</time>
      </trkpt>
      <trkpt lat="46.59749" lon="5.48">
        <ele>216</ele>
        <time>2022-07-16T07:35:13Z</time>
      </trkpt>
      <trkpt lat="46.59737" lon="5.47952">
        <ele>214.8</ele>
        <time>2022-07-16T07:35:17Z</time>
      </trkpt>
      <trkpt lat="46.59733" lon="5.47931">
        <ele>214</ele>
        <time>2022-07-16T07:35:19Z</time>
      </trkpt>
      <trkpt lat="46.5973" lon="5.47919">
        <ele>213.6</ele>
        <time>2022-07-16T07:35:20Z</time>
      </trkpt>
      <trkpt lat="46.59725" lon="5.47885">
        <ele>213.4</ele>
        <time>2022-07-16T07:35:23Z</time>
      </trkpt>
      <trkpt lat="46.59722" lon="5.47875">
        <ele>213.4</ele>
        <time>2022-07-16T07:35:24Z</time>
      </trkpt>
      <trkpt lat="46.59714" lon="5.4783">
        <ele>213.2</ele>
        <time>2022-07-16T07:35:28Z</time>
      </trkpt>
      <trkpt lat="46.59714" lon="5.47821">
        <ele>213</ele>
        <time>2022-07-16T07:35:29Z</time>
      </trkpt>
      <trkpt lat="46.59707" lon="5.47771">
        <ele>213.4</ele>
        <time>2022-07-16T07:35:34Z</time>
      </trkpt>
      <trkpt lat="46.59692" lon="5.47733">
        <ele>213.2</ele>
        <time>2022-07-16T07:35:38Z</time>
      </trkpt>
      <trkpt lat="46.59664" lon="5.47683">
        <ele>213.2</ele>
        <time>2022-07-16T07:35:44Z</time>
      </trkpt>
      <trkpt lat="46.59662" lon="5.47661">
        <ele>213</ele>
        <time>2022-07-16T07:35:46Z</time>
      </trkpt>
      <trkpt lat="46.59663" lon="5.4765">
        <ele>213</ele>
        <time>2022-07-16T07:35:47Z</time>
      </trkpt>
      <trkpt lat="46.59665" lon="5.4764">
        <ele>213</ele>
        <time>2022-07-16T07:35:48Z</time>
      </trkpt>
      <trkpt lat="46.59665" lon="5.47623">
        <ele>213</ele>
        <time>2022-07-16T07:35:50Z</time>
      </trkpt>
      <trkpt lat="46.59663" lon="5.47611">
        <ele>213</ele>
        <time>2022-07-16T07:35:51Z</time>
      </trkpt>
      <trkpt lat="46.59658" lon="5.47594">
        <ele>213.2</ele>
        <time>2022-07-16T07:35:53Z</time>
      </trkpt>
      <trkpt lat="46.59651" lon="5.47581">
        <ele>213.4</ele>
        <time>2022-07-16T07:35:55Z</time>
      </trkpt>
      <trkpt lat="46.59634" lon="5.4756">
        <ele>214.4</ele>
        <time>2022-07-16T07:36:00Z</time>
      </trkpt>
      <trkpt lat="46.59629" lon="5.47553">
        <ele>215.2</ele>
        <time>2022-07-16T07:36:02Z</time>
      </trkpt>
      <trkpt lat="46.59621" lon="5.47534">
        <ele>216.8</ele>
        <time>2022-07-16T07:36:06Z</time>
      </trkpt>
      <trkpt lat="46.5962" lon="5.47508">
        <ele>218</ele>
        <time>2022-07-16T07:36:10Z</time>
      </trkpt>
      <trkpt lat="46.59624" lon="5.47477">
        <ele>218.8</ele>
        <time>2022-07-16T07:36:15Z</time>
      </trkpt>
      <trkpt lat="46.59625" lon="5.47471">
        <ele>219.2</ele>
        <time>2022-07-16T07:36:16Z</time>
      </trkpt>
      <trkpt lat="46.59626" lon="5.4746">
        <ele>219.6</ele>
        <time>2022-07-16T07:36:18Z</time>
      </trkpt>
      <trkpt lat="46.59626" lon="5.47445">
        <ele>220.4</ele>
        <time>2022-07-16T07:36:21Z</time>
      </trkpt>
      <trkpt lat="46.59625" lon="5.47429">
        <ele>221.6</ele>
        <time>2022-07-16T07:36:24Z</time>
      </trkpt>
      <trkpt lat="46.59622" lon="5.47415">
        <ele>222.8</ele>
        <time>2022-07-16T07:36:27Z</time>
      </trkpt>
      <trkpt lat="46.59619" lon="5.47406">
        <ele>223.2</ele>
        <time>2022-07-16T07:36:29Z</time>
      </trkpt>
      <trkpt lat="46.59614" lon="5.47393">
        <ele>224.4</ele>
        <time>2022-07-16T07:36:32Z</time>
      </trkpt>
      <trkpt lat="46.59608" lon="5.47382">
        <ele>225.6</ele>
        <time>2022-07-16T07:36:35Z</time>
      </trkpt>
      <trkpt lat="46.59606" lon="5.47378">
        <ele>225.8</ele>
        <time>2022-07-16T07:36:36Z</time>
      </trkpt>
      <trkpt lat="46.59594" lon="5.47361">
        <ele>227</ele>
        <time>2022-07-16T07:36:41Z</time>
      </trkpt>
      <trkpt lat="46.59585" lon="5.4735">
        <ele>228</ele>
        <time>2022-07-16T07:36:45Z</time>
      </trkpt>
      <trkpt lat="46.59576" lon="5.47332">
        <ele>229</ele>
        <time>2022-07-16T07:36:50Z</time>
      </trkpt>
      <trkpt lat="46.59575" lon="5.47326">
        <ele>229.4</ele>
        <time>2022-07-16T07:36:51Z</time>
      </trkpt>
      <trkpt lat="46.59576" lon="5.4729">
        <ele>229.8</ele>
        <time>2022-07-16T07:36:56Z</time>
      </trkpt>
      <trkpt lat="46.59575" lon="5.47265">
        <ele>229.4</ele>
        <time>2022-07-16T07:36:59Z</time>
      </trkpt>
      <trkpt lat="46.5957" lon="5.47254">
        <ele>229</ele>
        <time>2022-07-16T07:37:01Z</time>
      </trkpt>
      <trkpt lat="46.59561" lon="5.47249">
        <ele>228.8</ele>
        <time>2022-07-16T07:37:03Z</time>
      </trkpt>
      <trkpt lat="46.59556" lon="5.47248">
        <ele>228.6</ele>
        <time>2022-07-16T07:37:04Z</time>
      </trkpt>
      <trkpt lat="46.59532" lon="5.4725">
        <ele>228.4</ele>
        <time>2022-07-16T07:37:09Z</time>
      </trkpt>
      <trkpt lat="46.59527" lon="5.4725">
        <ele>228.4</ele>
        <time>2022-07-16T07:37:10Z</time>
      </trkpt>
      <trkpt lat="46.59518" lon="5.47248">
        <ele>229.2</ele>
        <time>2022-07-16T07:37:12Z</time>
      </trkpt>
      <trkpt lat="46.59509" lon="5.47244">
        <ele>230</ele>
        <time>2022-07-16T07:37:14Z</time>
      </trkpt>
      <trkpt lat="46.59505" lon="5.47242">
        <ele>230.2</ele>
        <time>2022-07-16T07:37:15Z</time>
      </trkpt>
      <trkpt lat="46.59501" lon="5.47239">
        <ele>230.4</ele>
        <time>2022-07-16T07:37:16Z</time>
      </trkpt>
      <trkpt lat="46.5949" lon="5.47229">
        <ele>231.6</ele>
        <time>2022-07-16T07:37:19Z</time>
      </trkpt>
      <trkpt lat="46.5948" lon="5.4722">
        <ele>232.2</ele>
        <time>2022-07-16T07:37:22Z</time>
      </trkpt>
      <trkpt lat="46.59473" lon="5.47214">
        <ele>232.8</ele>
        <time>2022-07-16T07:37:24Z</time>
      </trkpt>
      <trkpt lat="46.59459" lon="5.47201">
        <ele>233.8</ele>
        <time>2022-07-16T07:37:28Z</time>
      </trkpt>
      <trkpt lat="46.59446" lon="5.4719">
        <ele>235</ele>
        <time>2022-07-16T07:37:32Z</time>
      </trkpt>
      <trkpt lat="46.5943" lon="5.47165">
        <ele>236</ele>
        <time>2022-07-16T07:37:38Z</time>
      </trkpt>
      <trkpt lat="46.59429" lon="5.47143">
        <ele>236.4</ele>
        <time>2022-07-16T07:37:42Z</time>
      </trkpt>
      <trkpt lat="46.59434" lon="5.47128">
        <ele>237</ele>
        <time>2022-07-16T07:37:45Z</time>
      </trkpt>
      <trkpt lat="46.59439" lon="5.47119">
        <ele>237.6</ele>
        <time>2022-07-16T07:37:47Z</time>
      </trkpt>
      <trkpt lat="46.59444" lon="5.47111">
        <ele>238.6</ele>
        <time>2022-07-16T07:37:49Z</time>
      </trkpt>
      <trkpt lat="46.59454" lon="5.47091">
        <ele>239.6</ele>
        <time>2022-07-16T07:37:53Z</time>
      </trkpt>
      <trkpt lat="46.59455" lon="5.47086">
        <ele>239.6</ele>
        <time>2022-07-16T07:37:54Z</time>
      </trkpt>
      <trkpt lat="46.59456" lon="5.47063">
        <ele>240.6</ele>
        <time>2022-07-16T07:37:58Z</time>
      </trkpt>
      <trkpt lat="46.59454" lon="5.47058">
        <ele>240.8</ele>
        <time>2022-07-16T07:37:59Z</time>
      </trkpt>
      <trkpt lat="46.59447" lon="5.47045">
        <ele>241.6</ele>
        <time>2022-07-16T07:38:02Z</time>
      </trkpt>
      <trkpt lat="46.5944" lon="5.4704">
        <ele>242</ele>
        <time>2022-07-16T07:38:04Z</time>
      </trkpt>
      <trkpt lat="46.59426" lon="5.47032">
        <ele>242.6</ele>
        <time>2022-07-16T07:38:08Z</time>
      </trkpt>
      <trkpt lat="46.59422" lon="5.4703">
        <ele>243</ele>
        <time>2022-07-16T07:38:09Z</time>
      </trkpt>
      <trkpt lat="46.59397" lon="5.47018">
        <ele>244.4</ele>
        <time>2022-07-16T07:38:16Z</time>
      </trkpt>
      <trkpt lat="46.5939" lon="5.47015">
        <ele>244.8</ele>
        <time>2022-07-16T07:38:18Z</time>
      </trkpt>
      <trkpt lat="46.59378" lon="5.47009">
        <ele>245.4</ele>
        <time>2022-07-16T07:38:21Z</time>
      </trkpt>
      <trkpt lat="46.5936" lon="5.46996">
        <ele>246.8</ele>
        <time>2022-07-16T07:38:26Z</time>
      </trkpt>
      <trkpt lat="46.59346" lon="5.4697">
        <ele>247.8</ele>
        <time>2022-07-16T07:38:32Z</time>
      </trkpt>
      <trkpt lat="46.59341" lon="5.46953">
        <ele>249</ele>
        <time>2022-07-16T07:38:35Z</time>
      </trkpt>
      <trkpt lat="46.59334" lon="5.46932">
        <ele>250</ele>
        <time>2022-07-16T07:38:39Z</time>
      </trkpt>
      <trkpt lat="46.59332" lon="5.46927">
        <ele>250</ele>
        <time>2022-07-16T07:38:40Z</time>
      </trkpt>
      <trkpt lat="46.5933" lon="5.46923">
        <ele>250.2</ele>
        <time>2022-07-16T07:38:41Z</time>
      </trkpt>
      <trkpt lat="46.59319" lon="5.46914">
        <ele>251</ele>
        <time>2022-07-16T07:38:44Z</time>
      </trkpt>
      <trkpt lat="46.59316" lon="5.46912">
        <ele>251</ele>
        <time>2022-07-16T07:38:45Z</time>
      </trkpt>
      <trkpt lat="46.59311" lon="5.46904">
        <ele>251.6</ele>
        <time>2022-07-16T07:38:47Z</time>
      </trkpt>
      <trkpt lat="46.59311" lon="5.46899">
        <ele>251.8</ele>
        <time>2022-07-16T07:38:48Z</time>
      </trkpt>
      <trkpt lat="46.59311" lon="5.46892">
        <ele>252</ele>
        <time>2022-07-16T07:38:49Z</time>
      </trkpt>
      <trkpt lat="46.59307" lon="5.46868">
        <ele>252</ele>
        <time>2022-07-16T07:38:52Z</time>
      </trkpt>
      <trkpt lat="46.593" lon="5.46841">
        <ele>252.2</ele>
        <time>2022-07-16T07:38:55Z</time>
      </trkpt>
      <trkpt lat="46.59299" lon="5.46831">
        <ele>252.2</ele>
        <time>2022-07-16T07:38:56Z</time>
      </trkpt>
      <trkpt lat="46.59299" lon="5.4682">
        <ele>252</ele>
        <time>2022-07-16T07:38:57Z</time>
      </trkpt>
      <trkpt lat="46.59301" lon="5.46797">
        <ele>251.6</ele>
        <time>2022-07-16T07:38:59Z</time>
      </trkpt>
      <trkpt lat="46.59309" lon="5.46776">
        <ele>250.8</ele>
        <time>2022-07-16T07:39:01Z</time>
      </trkpt>
      <trkpt lat="46.59315" lon="5.46766">
        <ele>250</ele>
        <time>2022-07-16T07:39:02Z</time>
      </trkpt>
      <trkpt lat="46.59321" lon="5.46757">
        <ele>249.4</ele>
        <time>2022-07-16T07:39:03Z</time>
      </trkpt>
      <trkpt lat="46.59335" lon="5.46741">
        <ele>248.6</ele>
        <time>2022-07-16T07:39:05Z</time>
      </trkpt>
      <trkpt lat="46.59343" lon="5.46734">
        <ele>248.4</ele>
        <time>2022-07-16T07:39:06Z</time>
      </trkpt>
      <trkpt lat="46.59371" lon="5.4672">
        <ele>247</ele>
        <time>2022-07-16T07:39:09Z</time>
      </trkpt>
      <trkpt lat="46.5939" lon="5.46712">
        <ele>246.2</ele>
        <time>2022-07-16T07:39:11Z</time>
      </trkpt>
      <trkpt lat="46.59399" lon="5.46707">
        <ele>245.2</ele>
        <time>2022-07-16T07:39:12Z</time>
      </trkpt>
      <trkpt lat="46.59407" lon="5.46702">
        <ele>244.8</ele>
        <time>2022-07-16T07:39:13Z</time>
      </trkpt>
      <trkpt lat="46.59415" lon="5.46693">
        <ele>244.4</ele>
        <time>2022-07-16T07:39:14Z</time>
      </trkpt>
      <trkpt lat="46.59421" lon="5.46683">
        <ele>244</ele>
        <time>2022-07-16T07:39:15Z</time>
      </trkpt>
      <trkpt lat="46.59434" lon="5.46662">
        <ele>242.2</ele>
        <time>2022-07-16T07:39:17Z</time>
      </trkpt>
      <trkpt lat="46.59439" lon="5.46651">
        <ele>241.6</ele>
        <time>2022-07-16T07:39:18Z</time>
      </trkpt>
      <trkpt lat="46.59441" lon="5.46645">
        <ele>241.2</ele>
        <time>2022-07-16T07:39:19Z</time>
      </trkpt>
      <trkpt lat="46.59442" lon="5.46638">
        <ele>240.8</ele>
        <time>2022-07-16T07:39:20Z</time>
      </trkpt>
      <trkpt lat="46.59441" lon="5.46631">
        <ele>240</ele>
        <time>2022-07-16T07:39:21Z</time>
      </trkpt>
      <trkpt lat="46.59438" lon="5.46625">
        <ele>239.6</ele>
        <time>2022-07-16T07:39:22Z</time>
      </trkpt>
      <trkpt lat="46.5943" lon="5.46615">
        <ele>239.4</ele>
        <time>2022-07-16T07:39:24Z</time>
      </trkpt>
      <trkpt lat="46.59401" lon="5.46579">
        <ele>239.6</ele>
        <time>2022-07-16T07:39:31Z</time>
      </trkpt>
      <trkpt lat="46.59383" lon="5.4654">
        <ele>241.2</ele>
        <time>2022-07-16T07:39:37Z</time>
      </trkpt>
      <trkpt lat="46.5938" lon="5.46534">
        <ele>241.6</ele>
        <time>2022-07-16T07:39:38Z</time>
      </trkpt>
      <trkpt lat="46.59372" lon="5.46514">
        <ele>242.2</ele>
        <time>2022-07-16T07:39:41Z</time>
      </trkpt>
      <trkpt lat="46.59363" lon="5.46496">
        <ele>243</ele>
        <time>2022-07-16T07:39:44Z</time>
      </trkpt>
      <trkpt lat="46.5936" lon="5.4649">
        <ele>243.4</ele>
        <time>2022-07-16T07:39:45Z</time>
      </trkpt>
      <trkpt lat="46.59336" lon="5.4646">
        <ele>244</ele>
        <time>2022-07-16T07:39:51Z</time>
      </trkpt>
      <trkpt lat="46.59321" lon="5.46443">
        <ele>244.4</ele>
        <time>2022-07-16T07:39:55Z</time>
      </trkpt>
      <trkpt lat="46.59311" lon="5.46428">
        <ele>244.6</ele>
        <time>2022-07-16T07:39:58Z</time>
      </trkpt>
      <trkpt lat="46.59304" lon="5.4641">
        <ele>245.4</ele>
        <time>2022-07-16T07:40:01Z</time>
      </trkpt>
      <trkpt lat="46.59299" lon="5.46392">
        <ele>246.2</ele>
        <time>2022-07-16T07:40:04Z</time>
      </trkpt>
      <trkpt lat="46.59297" lon="5.46386">
        <ele>246.6</ele>
        <time>2022-07-16T07:40:05Z</time>
      </trkpt>
      <trkpt lat="46.59288" lon="5.46354">
        <ele>247.6</ele>
        <time>2022-07-16T07:40:10Z</time>
      </trkpt>
      <trkpt lat="46.59284" lon="5.46342">
        <ele>248</ele>
        <time>2022-07-16T07:40:12Z</time>
      </trkpt>
      <trkpt lat="46.59276" lon="5.46309">
        <ele>248.8</ele>
        <time>2022-07-16T07:40:17Z</time>
      </trkpt>
      <trkpt lat="46.59272" lon="5.46286">
        <ele>249.4</ele>
        <time>2022-07-16T07:40:20Z</time>
      </trkpt>
      <trkpt lat="46.59259" lon="5.46229">
        <ele>249.2</ele>
        <time>2022-07-16T07:40:26Z</time>
      </trkpt>
      <trkpt lat="46.59248" lon="5.462">
        <ele>248.2</ele>
        <time>2022-07-16T07:40:29Z</time>
      </trkpt>
      <trkpt lat="46.5924" lon="5.46183">
        <ele>247.6</ele>
        <time>2022-07-16T07:40:31Z</time>
      </trkpt>
      <trkpt lat="46.59226" lon="5.46162">
        <ele>247.2</ele>
        <time>2022-07-16T07:40:34Z</time>
      </trkpt>
      <trkpt lat="46.59215" lon="5.4615">
        <ele>247</ele>
        <time>2022-07-16T07:40:36Z</time>
      </trkpt>
      <trkpt lat="46.59177" lon="5.4611">
        <ele>247</ele>
        <time>2022-07-16T07:40:43Z</time>
      </trkpt>
      <trkpt lat="46.5916" lon="5.46086">
        <ele>246.8</ele>
        <time>2022-07-16T07:40:46Z</time>
      </trkpt>
      <trkpt lat="46.59151" lon="5.46067">
        <ele>246.4</ele>
        <time>2022-07-16T07:40:48Z</time>
      </trkpt>
      <trkpt lat="46.59146" lon="5.46059">
        <ele>246</ele>
        <time>2022-07-16T07:40:49Z</time>
      </trkpt>
      <trkpt lat="46.59133" lon="5.46047">
        <ele>245.2</ele>
        <time>2022-07-16T07:40:51Z</time>
      </trkpt>
      <trkpt lat="46.59119" lon="5.46036">
        <ele>244.4</ele>
        <time>2022-07-16T07:40:53Z</time>
      </trkpt>
      <trkpt lat="46.59105" lon="5.46022">
        <ele>244</ele>
        <time>2022-07-16T07:40:55Z</time>
      </trkpt>
      <trkpt lat="46.59098" lon="5.46016">
        <ele>243.4</ele>
        <time>2022-07-16T07:40:56Z</time>
      </trkpt>
      <trkpt lat="46.59083" lon="5.46006">
        <ele>242.4</ele>
        <time>2022-07-16T07:40:58Z</time>
      </trkpt>
      <trkpt lat="46.59059" lon="5.45991">
        <ele>241</ele>
        <time>2022-07-16T07:41:01Z</time>
      </trkpt>
      <trkpt lat="46.59051" lon="5.45987">
        <ele>240.8</ele>
        <time>2022-07-16T07:41:02Z</time>
      </trkpt>
      <trkpt lat="46.59036" lon="5.45979">
        <ele>240</ele>
        <time>2022-07-16T07:41:04Z</time>
      </trkpt>
      <trkpt lat="46.59021" lon="5.45973">
        <ele>238.6</ele>
        <time>2022-07-16T07:41:06Z</time>
      </trkpt>
      <trkpt lat="46.59014" lon="5.4597">
        <ele>238.2</ele>
        <time>2022-07-16T07:41:07Z</time>
      </trkpt>
      <trkpt lat="46.59007" lon="5.45965">
        <ele>238</ele>
        <time>2022-07-16T07:41:08Z</time>
      </trkpt>
      <trkpt lat="46.59002" lon="5.45959">
        <ele>237.8</ele>
        <time>2022-07-16T07:41:09Z</time>
      </trkpt>
      <trkpt lat="46.59" lon="5.4595">
        <ele>237.2</ele>
        <time>2022-07-16T07:41:10Z</time>
      </trkpt>
      <trkpt lat="46.59" lon="5.4594">
        <ele>236.6</ele>
        <time>2022-07-16T07:41:11Z</time>
      </trkpt>
      <trkpt lat="46.59002" lon="5.45929">
        <ele>235.8</ele>
        <time>2022-07-16T07:41:12Z</time>
      </trkpt>
      <trkpt lat="46.59003" lon="5.45918">
        <ele>235.2</ele>
        <time>2022-07-16T07:41:13Z</time>
      </trkpt>
      <trkpt lat="46.59005" lon="5.45897">
        <ele>234.2</ele>
        <time>2022-07-16T07:41:15Z</time>
      </trkpt>
      <trkpt lat="46.59005" lon="5.45889">
        <ele>233.6</ele>
        <time>2022-07-16T07:41:16Z</time>
      </trkpt>
      <trkpt lat="46.59003" lon="5.45882">
        <ele>232.6</ele>
        <time>2022-07-16T07:41:17Z</time>
      </trkpt>
      <trkpt lat="46.59001" lon="5.45878">
        <ele>232.4</ele>
        <time>2022-07-16T07:41:18Z</time>
      </trkpt>
      <trkpt lat="46.58998" lon="5.45878">
        <ele>231.6</ele>
        <time>2022-07-16T07:41:19Z</time>
      </trkpt>
      <trkpt lat="46.58993" lon="5.45888">
        <ele>230.6</ele>
        <time>2022-07-16T07:41:21Z</time>
      </trkpt>
      <trkpt lat="46.58991" lon="5.45896">
        <ele>230</ele>
        <time>2022-07-16T07:41:22Z</time>
      </trkpt>
      <trkpt lat="46.58987" lon="5.45913">
        <ele>229.2</ele>
        <time>2022-07-16T07:41:24Z</time>
      </trkpt>
      <trkpt lat="46.58984" lon="5.45921">
        <ele>229</ele>
        <time>2022-07-16T07:41:25Z</time>
      </trkpt>
      <trkpt lat="46.58977" lon="5.45939">
        <ele>228.2</ele>
        <time>2022-07-16T07:41:27Z</time>
      </trkpt>
      <trkpt lat="46.58974" lon="5.45948">
        <ele>228</ele>
        <time>2022-07-16T07:41:28Z</time>
      </trkpt>
      <trkpt lat="46.58958" lon="5.46">
        <ele>226.6</ele>
        <time>2022-07-16T07:41:33Z</time>
      </trkpt>
      <trkpt lat="46.58957" lon="5.46012">
        <ele>226.4</ele>
        <time>2022-07-16T07:41:34Z</time>
      </trkpt>
      <trkpt lat="46.58956" lon="5.46036">
        <ele>225.2</ele>
        <time>2022-07-16T07:41:36Z</time>
      </trkpt>
      <trkpt lat="46.58955" lon="5.46047">
        <ele>225.2</ele>
        <time>2022-07-16T07:41:37Z</time>
      </trkpt>
      <trkpt lat="46.58953" lon="5.4607">
        <ele>224.2</ele>
        <time>2022-07-16T07:41:39Z</time>
      </trkpt>
      <trkpt lat="46.5895" lon="5.46093">
        <ele>223.6</ele>
        <time>2022-07-16T07:41:41Z</time>
      </trkpt>
      <trkpt lat="46.58946" lon="5.46114">
        <ele>223.2</ele>
        <time>2022-07-16T07:41:43Z</time>
      </trkpt>
      <trkpt lat="46.58944" lon="5.46125">
        <ele>223</ele>
        <time>2022-07-16T07:41:44Z</time>
      </trkpt>
      <trkpt lat="46.58926" lon="5.46183">
        <ele>223</ele>
        <time>2022-07-16T07:41:50Z</time>
      </trkpt>
      <trkpt lat="46.58906" lon="5.46224">
        <ele>223.2</ele>
        <time>2022-07-16T07:41:55Z</time>
      </trkpt>
      <trkpt lat="46.58877" lon="5.46263">
        <ele>223.6</ele>
        <time>2022-07-16T07:42:01Z</time>
      </trkpt>
      <trkpt lat="46.58858" lon="5.463">
        <ele>224.4</ele>
        <time>2022-07-16T07:42:06Z</time>
      </trkpt>
      <trkpt lat="46.58855" lon="5.46309">
        <ele>224.4</ele>
        <time>2022-07-16T07:42:07Z</time>
      </trkpt>
      <trkpt lat="46.58842" lon="5.46342">
        <ele>225.2</ele>
        <time>2022-07-16T07:42:11Z</time>
      </trkpt>
      <trkpt lat="46.58834" lon="5.46365">
        <ele>225</ele>
        <time>2022-07-16T07:42:14Z</time>
      </trkpt>
      <trkpt lat="46.5882" lon="5.46407">
        <ele>226</ele>
        <time>2022-07-16T07:42:19Z</time>
      </trkpt>
      <trkpt lat="46.58818" lon="5.46415">
        <ele>226.2</ele>
        <time>2022-07-16T07:42:20Z</time>
      </trkpt>
      <trkpt lat="46.58809" lon="5.4645">
        <ele>226.6</ele>
        <time>2022-07-16T07:42:24Z</time>
      </trkpt>
      <trkpt lat="46.58805" lon="5.46464">
        <ele>226.6</ele>
        <time>2022-07-16T07:42:26Z</time>
      </trkpt>
      <trkpt lat="46.588" lon="5.46496">
        <ele>227.2</ele>
        <time>2022-07-16T07:42:30Z</time>
      </trkpt>
      <trkpt lat="46.58797" lon="5.46503">
        <ele>227.6</ele>
        <time>2022-07-16T07:42:31Z</time>
      </trkpt>
      <trkpt lat="46.58795" lon="5.46511">
        <ele>227.8</ele>
        <time>2022-07-16T07:42:32Z</time>
      </trkpt>
      <trkpt lat="46.58789" lon="5.46532">
        <ele>228</ele>
        <time>2022-07-16T07:42:35Z</time>
      </trkpt>
      <trkpt lat="46.58787" lon="5.46538">
        <ele>228.2</ele>
        <time>2022-07-16T07:42:36Z</time>
      </trkpt>
      <trkpt lat="46.58783" lon="5.46556">
        <ele>228.6</ele>
        <time>2022-07-16T07:42:39Z</time>
      </trkpt>
      <trkpt lat="46.5878" lon="5.46567">
        <ele>229.8</ele>
        <time>2022-07-16T07:42:41Z</time>
      </trkpt>
      <trkpt lat="46.58777" lon="5.46573">
        <ele>230</ele>
        <time>2022-07-16T07:42:42Z</time>
      </trkpt>
      <trkpt lat="46.58776" lon="5.46579">
        <ele>230.2</ele>
        <time>2022-07-16T07:42:43Z</time>
      </trkpt>
      <trkpt lat="46.58773" lon="5.46591">
        <ele>231</ele>
        <time>2022-07-16T07:42:45Z</time>
      </trkpt>
      <trkpt lat="46.58772" lon="5.46597">
        <ele>231.2</ele>
        <time>2022-07-16T07:42:46Z</time>
      </trkpt>
      <trkpt lat="46.58771" lon="5.46614">
        <ele>232.2</ele>
        <time>2022-07-16T07:42:49Z</time>
      </trkpt>
      <trkpt lat="46.58769" lon="5.4662">
        <ele>232.4</ele>
        <time>2022-07-16T07:42:50Z</time>
      </trkpt>
      <trkpt lat="46.58765" lon="5.46632">
        <ele>232.8</ele>
        <time>2022-07-16T07:42:52Z</time>
      </trkpt>
      <trkpt lat="46.5876" lon="5.4665">
        <ele>233.2</ele>
        <time>2022-07-16T07:42:55Z</time>
      </trkpt>
      <trkpt lat="46.58753" lon="5.46671">
        <ele>233.4</ele>
        <time>2022-07-16T07:42:58Z</time>
      </trkpt>
      <trkpt lat="46.58747" lon="5.46684">
        <ele>233.6</ele>
        <time>2022-07-16T07:43:00Z</time>
      </trkpt>
      <trkpt lat="46.58725" lon="5.46725">
        <ele>233.6</ele>
        <time>2022-07-16T07:43:07Z</time>
      </trkpt>
      <trkpt lat="46.58719" lon="5.46737">
        <ele>233.8</ele>
        <time>2022-07-16T07:43:09Z</time>
      </trkpt>
      <trkpt lat="46.58716" lon="5.46742">
        <ele>234</ele>
        <time>2022-07-16T07:43:10Z</time>
      </trkpt>
      <trkpt lat="46.58709" lon="5.46752">
        <ele>234.2</ele>
        <time>2022-07-16T07:43:12Z</time>
      </trkpt>
      <trkpt lat="46.58704" lon="5.46758">
        <ele>234.4</ele>
        <time>2022-07-16T07:43:13Z</time>
      </trkpt>
      <trkpt lat="46.58699" lon="5.46763">
        <ele>234.4</ele>
        <time>2022-07-16T07:43:14Z</time>
      </trkpt>
      <trkpt lat="46.58682" lon="5.46778">
        <ele>235</ele>
        <time>2022-07-16T07:43:18Z</time>
      </trkpt>
      <trkpt lat="46.58672" lon="5.46782">
        <ele>235.4</ele>
        <time>2022-07-16T07:43:20Z</time>
      </trkpt>
      <trkpt lat="46.58643" lon="5.46793">
        <ele>235.6</ele>
        <time>2022-07-16T07:43:25Z</time>
      </trkpt>
      <trkpt lat="46.58637" lon="5.46795">
        <ele>235.6</ele>
        <time>2022-07-16T07:43:26Z</time>
      </trkpt>
      <trkpt lat="46.58627" lon="5.46798">
        <ele>235.6</ele>
        <time>2022-07-16T07:43:28Z</time>
      </trkpt>
      <trkpt lat="46.58618" lon="5.46807">
        <ele>236</ele>
        <time>2022-07-16T07:43:30Z</time>
      </trkpt>
      <trkpt lat="46.58615" lon="5.46811">
        <ele>236.2</ele>
        <time>2022-07-16T07:43:31Z</time>
      </trkpt>
      <trkpt lat="46.58612" lon="5.46816">
        <ele>236.6</ele>
        <time>2022-07-16T07:43:32Z</time>
      </trkpt>
      <trkpt lat="46.58608" lon="5.46835">
        <ele>236.8</ele>
        <time>2022-07-16T07:43:34Z</time>
      </trkpt>
      <trkpt lat="46.58603" lon="5.46848">
        <ele>236.8</ele>
        <time>2022-07-16T07:43:36Z</time>
      </trkpt>
      <trkpt lat="46.58601" lon="5.46854">
        <ele>237</ele>
        <time>2022-07-16T07:43:37Z</time>
      </trkpt>
      <trkpt lat="46.58598" lon="5.46865">
        <ele>237.2</ele>
        <time>2022-07-16T07:43:38Z</time>
      </trkpt>
      <trkpt lat="46.58592" lon="5.46862">
        <ele>237.6</ele>
        <time>2022-07-16T07:43:40Z</time>
      </trkpt>
      <trkpt lat="46.58586" lon="5.46867">
        <ele>238</ele>
        <time>2022-07-16T07:43:42Z</time>
      </trkpt>
      <trkpt lat="46.58578" lon="5.46877">
        <ele>238.4</ele>
        <time>2022-07-16T07:43:44Z</time>
      </trkpt>
      <trkpt lat="46.58575" lon="5.46882">
        <ele>238.4</ele>
        <time>2022-07-16T07:43:45Z</time>
      </trkpt>
      <trkpt lat="46.58569" lon="5.46893">
        <ele>239</ele>
        <time>2022-07-16T07:43:47Z</time>
      </trkpt>
      <trkpt lat="46.58567" lon="5.46898">
        <ele>239.4</ele>
        <time>2022-07-16T07:43:48Z</time>
      </trkpt>
      <trkpt lat="46.5856" lon="5.46919">
        <ele>239.8</ele>
        <time>2022-07-16T07:43:52Z</time>
      </trkpt>
      <trkpt lat="46.58557" lon="5.4693">
        <ele>240.4</ele>
        <time>2022-07-16T07:43:54Z</time>
      </trkpt>
      <trkpt lat="46.58549" lon="5.46955">
        <ele>241.6</ele>
        <time>2022-07-16T07:43:58Z</time>
      </trkpt>
      <trkpt lat="46.58542" lon="5.46957">
        <ele>242.6</ele>
        <time>2022-07-16T07:44:00Z</time>
      </trkpt>
      <trkpt lat="46.58528" lon="5.46938">
        <ele>243.2</ele>
        <time>2022-07-16T07:44:04Z</time>
      </trkpt>
      <trkpt lat="46.58521" lon="5.46931">
        <ele>243.4</ele>
        <time>2022-07-16T07:44:06Z</time>
      </trkpt>
      <trkpt lat="46.58509" lon="5.46912">
        <ele>244.2</ele>
        <time>2022-07-16T07:44:10Z</time>
      </trkpt>
      <trkpt lat="46.58506" lon="5.46908">
        <ele>244.6</ele>
        <time>2022-07-16T07:44:11Z</time>
      </trkpt>
      <trkpt lat="46.58504" lon="5.46904">
        <ele>244.8</ele>
        <time>2022-07-16T07:44:12Z</time>
      </trkpt>
      <trkpt lat="46.58498" lon="5.46891">
        <ele>245.8</ele>
        <time>2022-07-16T07:44:15Z</time>
      </trkpt>
      <trkpt lat="46.5849" lon="5.46872">
        <ele>246.6</ele>
        <time>2022-07-16T07:44:19Z</time>
      </trkpt>
      <trkpt lat="46.58488" lon="5.46867">
        <ele>247</ele>
        <time>2022-07-16T07:44:20Z</time>
      </trkpt>
      <trkpt lat="46.5848" lon="5.46851">
        <ele>248.2</ele>
        <time>2022-07-16T07:44:24Z</time>
      </trkpt>
      <trkpt lat="46.58475" lon="5.46839">
        <ele>249</ele>
        <time>2022-07-16T07:44:27Z</time>
      </trkpt>
      <trkpt lat="46.58473" lon="5.46836">
        <ele>249.2</ele>
        <time>2022-07-16T07:44:28Z</time>
      </trkpt>
      <trkpt lat="46.58466" lon="5.46818">
        <ele>250.2</ele>
        <time>2022-07-16T07:44:32Z</time>
      </trkpt>
      <trkpt lat="46.58459" lon="5.46801">
        <ele>251.4</ele>
        <time>2022-07-16T07:44:36Z</time>
      </trkpt>
      <trkpt lat="46.58457" lon="5.46796">
        <ele>251.6</ele>
        <time>2022-07-16T07:44:37Z</time>
      </trkpt>
      <trkpt lat="46.58453" lon="5.46777">
        <ele>252.6</ele>
        <time>2022-07-16T07:44:41Z</time>
      </trkpt>
      <trkpt lat="46.58453" lon="5.46767">
        <ele>253</ele>
        <time>2022-07-16T07:44:43Z</time>
      </trkpt>
      <trkpt lat="46.58457" lon="5.46752">
        <ele>253.8</ele>
        <time>2022-07-16T07:44:46Z</time>
      </trkpt>
      <trkpt lat="46.58458" lon="5.46748">
        <ele>254</ele>
        <time>2022-07-16T07:44:47Z</time>
      </trkpt>
      <trkpt lat="46.58466" lon="5.46737">
        <ele>255</ele>
        <time>2022-07-16T07:44:50Z</time>
      </trkpt>
      <trkpt lat="46.58475" lon="5.46728">
        <ele>255.4</ele>
        <time>2022-07-16T07:44:53Z</time>
      </trkpt>
      <trkpt lat="46.58487" lon="5.46716">
        <ele>256.2</ele>
        <time>2022-07-16T07:44:57Z</time>
      </trkpt>
      <trkpt lat="46.58505" lon="5.467">
        <ele>257.2</ele>
        <time>2022-07-16T07:45:02Z</time>
      </trkpt>
      <trkpt lat="46.58524" lon="5.4668">
        <ele>258.2</ele>
        <time>2022-07-16T07:45:08Z</time>
      </trkpt>
      <trkpt lat="46.58533" lon="5.4667">
        <ele>258.8</ele>
        <time>2022-07-16T07:45:11Z</time>
      </trkpt>
      <trkpt lat="46.58541" lon="5.46655">
        <ele>259.4</ele>
        <time>2022-07-16T07:45:14Z</time>
      </trkpt>
      <trkpt lat="46.58546" lon="5.46642">
        <ele>259.8</ele>
        <time>2022-07-16T07:45:16Z</time>
      </trkpt>
      <trkpt lat="46.58548" lon="5.46635">
        <ele>259.8</ele>
        <time>2022-07-16T07:45:17Z</time>
      </trkpt>
      <trkpt lat="46.5855" lon="5.46629">
        <ele>260.2</ele>
        <time>2022-07-16T07:45:18Z</time>
      </trkpt>
      <trkpt lat="46.58553" lon="5.46611">
        <ele>260.4</ele>
        <time>2022-07-16T07:45:20Z</time>
      </trkpt>
      <trkpt lat="46.58555" lon="5.46594">
        <ele>260.6</ele>
        <time>2022-07-16T07:45:22Z</time>
      </trkpt>
      <trkpt lat="46.58562" lon="5.46534">
        <ele>261.4</ele>
        <time>2022-07-16T07:45:29Z</time>
      </trkpt>
      <trkpt lat="46.58569" lon="5.46473">
        <ele>262.2</ele>
        <time>2022-07-16T07:45:36Z</time>
      </trkpt>
      <trkpt lat="46.5857" lon="5.46446">
        <ele>262.6</ele>
        <time>2022-07-16T07:45:39Z</time>
      </trkpt>
      <trkpt lat="46.58571" lon="5.46413">
        <ele>263</ele>
        <time>2022-07-16T07:45:43Z</time>
      </trkpt>
      <trkpt lat="46.58571" lon="5.46399">
        <ele>263.8</ele>
        <time>2022-07-16T07:45:45Z</time>
      </trkpt>
      <trkpt lat="46.58576" lon="5.46358">
        <ele>264.8</ele>
        <time>2022-07-16T07:45:50Z</time>
      </trkpt>
      <trkpt lat="46.5858" lon="5.46344">
        <ele>264.8</ele>
        <time>2022-07-16T07:45:52Z</time>
      </trkpt>
      <trkpt lat="46.58594" lon="5.46307">
        <ele>265.4</ele>
        <time>2022-07-16T07:45:57Z</time>
      </trkpt>
      <trkpt lat="46.58603" lon="5.46285">
        <ele>266</ele>
        <time>2022-07-16T07:46:00Z</time>
      </trkpt>
      <trkpt lat="46.58609" lon="5.46261">
        <ele>266.4</ele>
        <time>2022-07-16T07:46:03Z</time>
      </trkpt>
      <trkpt lat="46.58611" lon="5.46253">
        <ele>266.4</ele>
        <time>2022-07-16T07:46:04Z</time>
      </trkpt>
      <trkpt lat="46.58612" lon="5.46244">
        <ele>266.6</ele>
        <time>2022-07-16T07:46:05Z</time>
      </trkpt>
      <trkpt lat="46.58611" lon="5.46227">
        <ele>266.6</ele>
        <time>2022-07-16T07:46:07Z</time>
      </trkpt>
      <trkpt lat="46.5861" lon="5.46219">
        <ele>266.6</ele>
        <time>2022-07-16T07:46:08Z</time>
      </trkpt>
      <trkpt lat="46.58607" lon="5.4621">
        <ele>266.8</ele>
        <time>2022-07-16T07:46:09Z</time>
      </trkpt>
      <trkpt lat="46.58598" lon="5.46186">
        <ele>267</ele>
        <time>2022-07-16T07:46:12Z</time>
      </trkpt>
      <trkpt lat="46.58595" lon="5.46177">
        <ele>267</ele>
        <time>2022-07-16T07:46:13Z</time>
      </trkpt>
      <trkpt lat="46.5857" lon="5.46103">
        <ele>267</ele>
        <time>2022-07-16T07:46:21Z</time>
      </trkpt>
      <trkpt lat="46.58543" lon="5.46026">
        <ele>266.2</ele>
        <time>2022-07-16T07:46:29Z</time>
      </trkpt>
      <trkpt lat="46.58536" lon="5.46007">
        <ele>266</ele>
        <time>2022-07-16T07:46:31Z</time>
      </trkpt>
      <trkpt lat="46.58521" lon="5.45968">
        <ele>264.6</ele>
        <time>2022-07-16T07:46:35Z</time>
      </trkpt>
      <trkpt lat="46.58502" lon="5.45927">
        <ele>263.4</ele>
        <time>2022-07-16T07:46:39Z</time>
      </trkpt>
      <trkpt lat="46.58497" lon="5.45918">
        <ele>263.2</ele>
        <time>2022-07-16T07:46:40Z</time>
      </trkpt>
      <trkpt lat="46.58491" lon="5.45909">
        <ele>263</ele>
        <time>2022-07-16T07:46:41Z</time>
      </trkpt>
      <trkpt lat="46.58471" lon="5.45883">
        <ele>262.2</ele>
        <time>2022-07-16T07:46:44Z</time>
      </trkpt>
      <trkpt lat="46.58463" lon="5.45875">
        <ele>262</ele>
        <time>2022-07-16T07:46:45Z</time>
      </trkpt>
      <trkpt lat="46.58445" lon="5.45862">
        <ele>260.4</ele>
        <time>2022-07-16T07:46:47Z</time>
      </trkpt>
      <trkpt lat="46.58436" lon="5.45856">
        <ele>260</ele>
        <time>2022-07-16T07:46:48Z</time>
      </trkpt>
      <trkpt lat="46.58427" lon="5.45851">
        <ele>259.2</ele>
        <time>2022-07-16T07:46:49Z</time>
      </trkpt>
      <trkpt lat="46.5841" lon="5.45838">
        <ele>257.6</ele>
        <time>2022-07-16T07:46:51Z</time>
      </trkpt>
      <trkpt lat="46.58403" lon="5.45829">
        <ele>257.2</ele>
        <time>2022-07-16T07:46:52Z</time>
      </trkpt>
      <trkpt lat="46.58397" lon="5.45819">
        <ele>257</ele>
        <time>2022-07-16T07:46:53Z</time>
      </trkpt>
      <trkpt lat="46.58388" lon="5.45796">
        <ele>256.8</ele>
        <time>2022-07-16T07:46:55Z</time>
      </trkpt>
      <trkpt lat="46.58376" lon="5.45765">
        <ele>257</ele>
        <time>2022-07-16T07:46:58Z</time>
      </trkpt>
      <trkpt lat="46.58374" lon="5.45755">
        <ele>257</ele>
        <time>2022-07-16T07:46:59Z</time>
      </trkpt>
      <trkpt lat="46.58371" lon="5.45735">
        <ele>257.4</ele>
        <time>2022-07-16T07:47:01Z</time>
      </trkpt>
      <trkpt lat="46.58364" lon="5.45713">
        <ele>258.2</ele>
        <time>2022-07-16T07:47:03Z</time>
      </trkpt>
      <trkpt lat="46.58354" lon="5.45692">
        <ele>258.6</ele>
        <time>2022-07-16T07:47:05Z</time>
      </trkpt>
      <trkpt lat="46.58336" lon="5.4566">
        <ele>258.8</ele>
        <time>2022-07-16T07:47:08Z</time>
      </trkpt>
      <trkpt lat="46.58301" lon="5.45594">
        <ele>258.6</ele>
        <time>2022-07-16T07:47:15Z</time>
      </trkpt>
      <trkpt lat="46.58272" lon="5.45518">
        <ele>258.2</ele>
        <time>2022-07-16T07:47:22Z</time>
      </trkpt>
      <trkpt lat="46.58267" lon="5.45506">
        <ele>258</ele>
        <time>2022-07-16T07:47:23Z</time>
      </trkpt>
      <trkpt lat="46.58262" lon="5.45495">
        <ele>257.6</ele>
        <time>2022-07-16T07:47:24Z</time>
      </trkpt>
      <trkpt lat="46.58238" lon="5.45453">
        <ele>256.6</ele>
        <time>2022-07-16T07:47:28Z</time>
      </trkpt>
      <trkpt lat="46.5823" lon="5.45442">
        <ele>256.2</ele>
        <time>2022-07-16T07:47:29Z</time>
      </trkpt>
      <trkpt lat="46.58208" lon="5.4542">
        <ele>255.2</ele>
        <time>2022-07-16T07:47:32Z</time>
      </trkpt>
      <trkpt lat="46.58188" lon="5.45399">
        <ele>253.8</ele>
        <time>2022-07-16T07:47:35Z</time>
      </trkpt>
      <trkpt lat="46.5816" lon="5.45366">
        <ele>253</ele>
        <time>2022-07-16T07:47:39Z</time>
      </trkpt>
      <trkpt lat="46.58147" lon="5.45351">
        <ele>252.6</ele>
        <time>2022-07-16T07:47:41Z</time>
      </trkpt>
      <trkpt lat="46.58128" lon="5.4533">
        <ele>252</ele>
        <time>2022-07-16T07:47:44Z</time>
      </trkpt>
      <trkpt lat="46.58122" lon="5.45323">
        <ele>251.6</ele>
        <time>2022-07-16T07:47:45Z</time>
      </trkpt>
      <trkpt lat="46.58115" lon="5.45311">
        <ele>250.8</ele>
        <time>2022-07-16T07:47:47Z</time>
      </trkpt>
      <trkpt lat="46.58114" lon="5.45304">
        <ele>250.8</ele>
        <time>2022-07-16T07:47:48Z</time>
      </trkpt>
      <trkpt lat="46.5812" lon="5.4529">
        <ele>250.4</ele>
        <time>2022-07-16T07:47:50Z</time>
      </trkpt>
      <trkpt lat="46.58125" lon="5.45283">
        <ele>250.4</ele>
        <time>2022-07-16T07:47:51Z</time>
      </trkpt>
      <trkpt lat="46.58145" lon="5.45256">
        <ele>249.4</ele>
        <time>2022-07-16T07:47:55Z</time>
      </trkpt>
      <trkpt lat="46.58147" lon="5.45248">
        <ele>248.4</ele>
        <time>2022-07-16T07:47:56Z</time>
      </trkpt>
      <trkpt lat="46.58145" lon="5.45239">
        <ele>248</ele>
        <time>2022-07-16T07:47:57Z</time>
      </trkpt>
      <trkpt lat="46.5814" lon="5.45233">
        <ele>247.4</ele>
        <time>2022-07-16T07:47:58Z</time>
      </trkpt>
      <trkpt lat="46.58133" lon="5.45228">
        <ele>246.8</ele>
        <time>2022-07-16T07:47:59Z</time>
      </trkpt>
      <trkpt lat="46.5812" lon="5.45221">
        <ele>245.6</ele>
        <time>2022-07-16T07:48:01Z</time>
      </trkpt>
      <trkpt lat="46.58115" lon="5.45216">
        <ele>245.4</ele>
        <time>2022-07-16T07:48:02Z</time>
      </trkpt>
      <trkpt lat="46.5811" lon="5.45208">
        <ele>244.8</ele>
        <time>2022-07-16T07:48:04Z</time>
      </trkpt>
      <trkpt lat="46.58109" lon="5.45206">
        <ele>243.6</ele>
        <time>2022-07-16T07:48:05Z</time>
      </trkpt>
      <trkpt lat="46.58114" lon="5.45203">
        <ele>243.4</ele>
        <time>2022-07-16T07:48:06Z</time>
      </trkpt>
      <trkpt lat="46.58121" lon="5.45199">
        <ele>242.8</ele>
        <time>2022-07-16T07:48:07Z</time>
      </trkpt>
      <trkpt lat="46.5813" lon="5.45196">
        <ele>242</ele>
        <time>2022-07-16T07:48:08Z</time>
      </trkpt>
      <trkpt lat="46.58147" lon="5.45189">
        <ele>240.8</ele>
        <time>2022-07-16T07:48:10Z</time>
      </trkpt>
      <trkpt lat="46.58156" lon="5.45184">
        <ele>240.6</ele>
        <time>2022-07-16T07:48:11Z</time>
      </trkpt>
      <trkpt lat="46.58164" lon="5.45179">
        <ele>239.8</ele>
        <time>2022-07-16T07:48:12Z</time>
      </trkpt>
      <trkpt lat="46.58173" lon="5.45173">
        <ele>239.4</ele>
        <time>2022-07-16T07:48:13Z</time>
      </trkpt>
      <trkpt lat="46.58191" lon="5.45159">
        <ele>237.6</ele>
        <time>2022-07-16T07:48:15Z</time>
      </trkpt>
      <trkpt lat="46.58201" lon="5.45148">
        <ele>237.2</ele>
        <time>2022-07-16T07:48:16Z</time>
      </trkpt>
      <trkpt lat="46.58208" lon="5.45138">
        <ele>236.2</ele>
        <time>2022-07-16T07:48:17Z</time>
      </trkpt>
      <trkpt lat="46.58212" lon="5.4513">
        <ele>235.6</ele>
        <time>2022-07-16T07:48:18Z</time>
      </trkpt>
      <trkpt lat="46.58217" lon="5.45119">
        <ele>234.6</ele>
        <time>2022-07-16T07:48:19Z</time>
      </trkpt>
      <trkpt lat="46.5822" lon="5.45108">
        <ele>234.2</ele>
        <time>2022-07-16T07:48:20Z</time>
      </trkpt>
      <trkpt lat="46.58219" lon="5.45097">
        <ele>233.4</ele>
        <time>2022-07-16T07:48:21Z</time>
      </trkpt>
      <trkpt lat="46.58216" lon="5.45086">
        <ele>232.6</ele>
        <time>2022-07-16T07:48:22Z</time>
      </trkpt>
      <trkpt lat="46.58211" lon="5.45079">
        <ele>232.4</ele>
        <time>2022-07-16T07:48:23Z</time>
      </trkpt>
      <trkpt lat="46.58204" lon="5.45073">
        <ele>231.8</ele>
        <time>2022-07-16T07:48:24Z</time>
      </trkpt>
      <trkpt lat="46.58189" lon="5.45067">
        <ele>231.4</ele>
        <time>2022-07-16T07:48:26Z</time>
      </trkpt>
      <trkpt lat="46.58174" lon="5.45058">
        <ele>230.8</ele>
        <time>2022-07-16T07:48:28Z</time>
      </trkpt>
      <trkpt lat="46.58158" lon="5.45044">
        <ele>230</ele>
        <time>2022-07-16T07:48:30Z</time>
      </trkpt>
      <trkpt lat="46.58147" lon="5.45031">
        <ele>229.6</ele>
        <time>2022-07-16T07:48:32Z</time>
      </trkpt>
      <trkpt lat="46.5813" lon="5.45004">
        <ele>228.8</ele>
        <time>2022-07-16T07:48:35Z</time>
      </trkpt>
      <trkpt lat="46.58118" lon="5.44992">
        <ele>228.4</ele>
        <time>2022-07-16T07:48:37Z</time>
      </trkpt>
      <trkpt lat="46.58097" lon="5.44973">
        <ele>227.8</ele>
        <time>2022-07-16T07:48:40Z</time>
      </trkpt>
      <trkpt lat="46.58091" lon="5.44966">
        <ele>227.8</ele>
        <time>2022-07-16T07:48:41Z</time>
      </trkpt>
      <trkpt lat="46.58084" lon="5.44956">
        <ele>227.4</ele>
        <time>2022-07-16T07:48:42Z</time>
      </trkpt>
      <trkpt lat="46.5808" lon="5.44946">
        <ele>227.2</ele>
        <time>2022-07-16T07:48:43Z</time>
      </trkpt>
      <trkpt lat="46.58049" lon="5.44881">
        <ele>226.8</ele>
        <time>2022-07-16T07:48:50Z</time>
      </trkpt>
      <trkpt lat="46.58039" lon="5.4486">
        <ele>226.8</ele>
        <time>2022-07-16T07:48:52Z</time>
      </trkpt>
      <trkpt lat="46.58" lon="5.44787">
        <ele>227.4</ele>
        <time>2022-07-16T07:49:00Z</time>
      </trkpt>
      <trkpt lat="46.57956" lon="5.44722">
        <ele>227.2</ele>
        <time>2022-07-16T07:49:08Z</time>
      </trkpt>
      <trkpt lat="46.57921" lon="5.44659">
        <ele>226.8</ele>
        <time>2022-07-16T07:49:15Z</time>
      </trkpt>
      <trkpt lat="46.57909" lon="5.44638">
        <ele>226</ele>
        <time>2022-07-16T07:49:17Z</time>
      </trkpt>
      <trkpt lat="46.57882" lon="5.44591">
        <ele>225.2</ele>
        <time>2022-07-16T07:49:22Z</time>
      </trkpt>
      <trkpt lat="46.57869" lon="5.44571">
        <ele>225</ele>
        <time>2022-07-16T07:49:24Z</time>
      </trkpt>
      <trkpt lat="46.57864" lon="5.44564">
        <ele>225</ele>
        <time>2022-07-16T07:49:25Z</time>
      </trkpt>
      <trkpt lat="46.57843" lon="5.44543">
        <ele>224.6</ele>
        <time>2022-07-16T07:49:28Z</time>
      </trkpt>
      <trkpt lat="46.5781" lon="5.44514">
        <ele>224.4</ele>
        <time>2022-07-16T07:49:33Z</time>
      </trkpt>
      <trkpt lat="46.57778" lon="5.4448">
        <ele>225</ele>
        <time>2022-07-16T07:49:39Z</time>
      </trkpt>
      <trkpt lat="46.57759" lon="5.44455">
        <ele>226.4</ele>
        <time>2022-07-16T07:49:43Z</time>
      </trkpt>
      <trkpt lat="46.57746" lon="5.44436">
        <ele>226.8</ele>
        <time>2022-07-16T07:49:46Z</time>
      </trkpt>
      <trkpt lat="46.57715" lon="5.44391">
        <ele>227.4</ele>
        <time>2022-07-16T07:49:53Z</time>
      </trkpt>
      <trkpt lat="46.5771" lon="5.44383">
        <ele>227.6</ele>
        <time>2022-07-16T07:49:54Z</time>
      </trkpt>
      <trkpt lat="46.57678" lon="5.44334">
        <ele>228.6</ele>
        <time>2022-07-16T07:50:02Z</time>
      </trkpt>
      <trkpt lat="46.5767" lon="5.44322">
        <ele>229</ele>
        <time>2022-07-16T07:50:04Z</time>
      </trkpt>
      <trkpt lat="46.57653" lon="5.443">
        <ele>229.6</ele>
        <time>2022-07-16T07:50:08Z</time>
      </trkpt>
      <trkpt lat="46.57628" lon="5.4427">
        <ele>230.8</ele>
        <time>2022-07-16T07:50:14Z</time>
      </trkpt>
      <trkpt lat="46.57624" lon="5.44265">
        <ele>231</ele>
        <time>2022-07-16T07:50:15Z</time>
      </trkpt>
      <trkpt lat="46.57608" lon="5.44246">
        <ele>231.8</ele>
        <time>2022-07-16T07:50:19Z</time>
      </trkpt>
      <trkpt lat="46.57592" lon="5.44228">
        <ele>232.6</ele>
        <time>2022-07-16T07:50:23Z</time>
      </trkpt>
      <trkpt lat="46.57589" lon="5.44225">
        <ele>232.6</ele>
        <time>2022-07-16T07:50:24Z</time>
      </trkpt>
      <trkpt lat="46.57578" lon="5.44211">
        <ele>233.6</ele>
        <time>2022-07-16T07:50:27Z</time>
      </trkpt>
      <trkpt lat="46.5756" lon="5.44189">
        <ele>234.8</ele>
        <time>2022-07-16T07:50:32Z</time>
      </trkpt>
      <trkpt lat="46.57557" lon="5.44186">
        <ele>235.2</ele>
        <time>2022-07-16T07:50:33Z</time>
      </trkpt>
      <trkpt lat="46.57551" lon="5.4418">
        <ele>235.8</ele>
        <time>2022-07-16T07:50:35Z</time>
      </trkpt>
      <trkpt lat="46.57547" lon="5.44177">
        <ele>236.2</ele>
        <time>2022-07-16T07:50:36Z</time>
      </trkpt>
      <trkpt lat="46.57543" lon="5.44175">
        <ele>236.4</ele>
        <time>2022-07-16T07:50:37Z</time>
      </trkpt>
      <trkpt lat="46.5754" lon="5.44174">
        <ele>237.2</ele>
        <time>2022-07-16T07:50:38Z</time>
      </trkpt>
      <trkpt lat="46.57528" lon="5.44173">
        <ele>238.4</ele>
        <time>2022-07-16T07:50:41Z</time>
      </trkpt>
      <trkpt lat="46.57522" lon="5.44175">
        <ele>238.8</ele>
        <time>2022-07-16T07:50:43Z</time>
      </trkpt>
      <trkpt lat="46.57515" lon="5.44178">
        <ele>239.6</ele>
        <time>2022-07-16T07:50:45Z</time>
      </trkpt>
      <trkpt lat="46.57499" lon="5.44184">
        <ele>241</ele>
        <time>2022-07-16T07:50:49Z</time>
      </trkpt>
      <trkpt lat="46.57491" lon="5.44184">
        <ele>241.6</ele>
        <time>2022-07-16T07:50:51Z</time>
      </trkpt>
      <trkpt lat="46.57477" lon="5.44183">
        <ele>242.2</ele>
        <time>2022-07-16T07:50:54Z</time>
      </trkpt>
      <trkpt lat="46.57468" lon="5.44182">
        <ele>242.6</ele>
        <time>2022-07-16T07:50:56Z</time>
      </trkpt>
      <trkpt lat="46.57457" lon="5.44179">
        <ele>242.8</ele>
        <time>2022-07-16T07:50:58Z</time>
      </trkpt>
      <trkpt lat="46.57427" lon="5.44173">
        <ele>243.2</ele>
        <time>2022-07-16T07:51:05Z</time>
      </trkpt>
      <trkpt lat="46.57415" lon="5.4417">
        <ele>243.6</ele>
        <time>2022-07-16T07:51:08Z</time>
      </trkpt>
      <trkpt lat="46.57402" lon="5.44163">
        <ele>244.2</ele>
        <time>2022-07-16T07:51:11Z</time>
      </trkpt>
      <trkpt lat="46.574" lon="5.4416">
        <ele>244.4</ele>
        <time>2022-07-16T07:51:12Z</time>
      </trkpt>
      <trkpt lat="46.57391" lon="5.44154">
        <ele>245</ele>
        <time>2022-07-16T07:51:14Z</time>
      </trkpt>
      <trkpt lat="46.57388" lon="5.44152">
        <ele>245.6</ele>
        <time>2022-07-16T07:51:15Z</time>
      </trkpt>
      <trkpt lat="46.57377" lon="5.44143">
        <ele>246.8</ele>
        <time>2022-07-16T07:51:18Z</time>
      </trkpt>
      <trkpt lat="46.57373" lon="5.44141">
        <ele>247</ele>
        <time>2022-07-16T07:51:19Z</time>
      </trkpt>
      <trkpt lat="46.57364" lon="5.44136">
        <ele>247.2</ele>
        <time>2022-07-16T07:51:21Z</time>
      </trkpt>
      <trkpt lat="46.5736" lon="5.44135">
        <ele>247.2</ele>
        <time>2022-07-16T07:51:22Z</time>
      </trkpt>
      <trkpt lat="46.57334" lon="5.4414">
        <ele>247.2</ele>
        <time>2022-07-16T07:51:26Z</time>
      </trkpt>
      <trkpt lat="46.57313" lon="5.44156">
        <ele>246.4</ele>
        <time>2022-07-16T07:51:29Z</time>
      </trkpt>
      <trkpt lat="46.57302" lon="5.44165">
        <ele>246</ele>
        <time>2022-07-16T07:51:31Z</time>
      </trkpt>
      <trkpt lat="46.57294" lon="5.44168">
        <ele>245.8</ele>
        <time>2022-07-16T07:51:32Z</time>
      </trkpt>
      <trkpt lat="46.57287" lon="5.44169">
        <ele>245.6</ele>
        <time>2022-07-16T07:51:33Z</time>
      </trkpt>
      <trkpt lat="46.57272" lon="5.44165">
        <ele>245.4</ele>
        <time>2022-07-16T07:51:35Z</time>
      </trkpt>
      <trkpt lat="46.57268" lon="5.44162">
        <ele>245.4</ele>
        <time>2022-07-16T07:51:36Z</time>
      </trkpt>
      <trkpt lat="46.57257" lon="5.44151">
        <ele>245.2</ele>
        <time>2022-07-16T07:51:38Z</time>
      </trkpt>
      <trkpt lat="46.57252" lon="5.44139">
        <ele>245.4</ele>
        <time>2022-07-16T07:51:40Z</time>
      </trkpt>
      <trkpt lat="46.57251" lon="5.44125">
        <ele>246</ele>
        <time>2022-07-16T07:51:42Z</time>
      </trkpt>
      <trkpt lat="46.57252" lon="5.44118">
        <ele>246.6</ele>
        <time>2022-07-16T07:51:43Z</time>
      </trkpt>
      <trkpt lat="46.57254" lon="5.44104">
        <ele>247.4</ele>
        <time>2022-07-16T07:51:45Z</time>
      </trkpt>
      <trkpt lat="46.5726" lon="5.44085">
        <ele>248.8</ele>
        <time>2022-07-16T07:51:48Z</time>
      </trkpt>
      <trkpt lat="46.57263" lon="5.44072">
        <ele>249.8</ele>
        <time>2022-07-16T07:51:50Z</time>
      </trkpt>
      <trkpt lat="46.57266" lon="5.44057">
        <ele>250.6</ele>
        <time>2022-07-16T07:51:52Z</time>
      </trkpt>
      <trkpt lat="46.57268" lon="5.44051">
        <ele>250.8</ele>
        <time>2022-07-16T07:51:53Z</time>
      </trkpt>
      <trkpt lat="46.57268" lon="5.44043">
        <ele>251.4</ele>
        <time>2022-07-16T07:51:54Z</time>
      </trkpt>
      <trkpt lat="46.57267" lon="5.44036">
        <ele>252</ele>
        <time>2022-07-16T07:51:55Z</time>
      </trkpt>
      <trkpt lat="46.57262" lon="5.44002">
        <ele>253</ele>
        <time>2022-07-16T07:51:59Z</time>
      </trkpt>
      <trkpt lat="46.5726" lon="5.43993">
        <ele>253.2</ele>
        <time>2022-07-16T07:52:00Z</time>
      </trkpt>
      <trkpt lat="46.57256" lon="5.43975">
        <ele>253.2</ele>
        <time>2022-07-16T07:52:02Z</time>
      </trkpt>
      <trkpt lat="46.57256" lon="5.43957">
        <ele>253.4</ele>
        <time>2022-07-16T07:52:04Z</time>
      </trkpt>
      <trkpt lat="46.57266" lon="5.43916">
        <ele>253.4</ele>
        <time>2022-07-16T07:52:09Z</time>
      </trkpt>
      <trkpt lat="46.57271" lon="5.43879">
        <ele>254</ele>
        <time>2022-07-16T07:52:14Z</time>
      </trkpt>
      <trkpt lat="46.57272" lon="5.43872">
        <ele>254.2</ele>
        <time>2022-07-16T07:52:15Z</time>
      </trkpt>
      <trkpt lat="46.57272" lon="5.43865">
        <ele>254.6</ele>
        <time>2022-07-16T07:52:16Z</time>
      </trkpt>
      <trkpt lat="46.57273" lon="5.43852">
        <ele>255</ele>
        <time>2022-07-16T07:52:18Z</time>
      </trkpt>
      <trkpt lat="46.57272" lon="5.43837">
        <ele>255.6</ele>
        <time>2022-07-16T07:52:20Z</time>
      </trkpt>
      <trkpt lat="46.57269" lon="5.43831">
        <ele>255.8</ele>
        <time>2022-07-16T07:52:21Z</time>
      </trkpt>
      <trkpt lat="46.57239" lon="5.43787">
        <ele>256.4</ele>
        <time>2022-07-16T07:52:29Z</time>
      </trkpt>
      <trkpt lat="46.57235" lon="5.43782">
        <ele>256.6</ele>
        <time>2022-07-16T07:52:30Z</time>
      </trkpt>
      <trkpt lat="46.5723" lon="5.43776">
        <ele>256.6</ele>
        <time>2022-07-16T07:52:31Z</time>
      </trkpt>
      <trkpt lat="46.57225" lon="5.43773">
        <ele>256.6</ele>
        <time>2022-07-16T07:52:32Z</time>
      </trkpt>
      <trkpt lat="46.5722" lon="5.4377">
        <ele>256.8</ele>
        <time>2022-07-16T07:52:33Z</time>
      </trkpt>
      <trkpt lat="46.57186" lon="5.43739">
        <ele>257.2</ele>
        <time>2022-07-16T07:52:40Z</time>
      </trkpt>
      <trkpt lat="46.57156" lon="5.43713">
        <ele>257</ele>
        <time>2022-07-16T07:52:45Z</time>
      </trkpt>
      <trkpt lat="46.57114" lon="5.43682">
        <ele>256.2</ele>
        <time>2022-07-16T07:52:51Z</time>
      </trkpt>
      <trkpt lat="46.57084" lon="5.43659">
        <ele>255.6</ele>
        <time>2022-07-16T07:52:55Z</time>
      </trkpt>
      <trkpt lat="46.57055" lon="5.43637">
        <ele>254.8</ele>
        <time>2022-07-16T07:52:59Z</time>
      </trkpt>
      <trkpt lat="46.57011" lon="5.43604">
        <ele>255</ele>
        <time>2022-07-16T07:53:06Z</time>
      </trkpt>
      <trkpt lat="46.56978" lon="5.43575">
        <ele>256.2</ele>
        <time>2022-07-16T07:53:12Z</time>
      </trkpt>
      <trkpt lat="46.56974" lon="5.43571">
        <ele>256.6</ele>
        <time>2022-07-16T07:53:13Z</time>
      </trkpt>
      <trkpt lat="46.5697" lon="5.43566">
        <ele>256.6</ele>
        <time>2022-07-16T07:53:14Z</time>
      </trkpt>
      <trkpt lat="46.56955" lon="5.43552">
        <ele>257.8</ele>
        <time>2022-07-16T07:53:17Z</time>
      </trkpt>
      <trkpt lat="46.56935" lon="5.43532">
        <ele>258.8</ele>
        <time>2022-07-16T07:53:21Z</time>
      </trkpt>
      <trkpt lat="46.5693" lon="5.43528">
        <ele>259</ele>
        <time>2022-07-16T07:53:22Z</time>
      </trkpt>
      <trkpt lat="46.56923" lon="5.43524">
        <ele>259.2</ele>
        <time>2022-07-16T07:53:23Z</time>
      </trkpt>
      <trkpt lat="46.56906" lon="5.43507">
        <ele>260</ele>
        <time>2022-07-16T07:53:27Z</time>
      </trkpt>
      <trkpt lat="46.56901" lon="5.43502">
        <ele>260.2</ele>
        <time>2022-07-16T07:53:28Z</time>
      </trkpt>
      <trkpt lat="46.56884" lon="5.43483">
        <ele>261.4</ele>
        <time>2022-07-16T07:53:32Z</time>
      </trkpt>
      <trkpt lat="46.56872" lon="5.43469">
        <ele>262</ele>
        <time>2022-07-16T07:53:35Z</time>
      </trkpt>
      <trkpt lat="46.56863" lon="5.43458">
        <ele>262.6</ele>
        <time>2022-07-16T07:53:37Z</time>
      </trkpt>
      <trkpt lat="46.56854" lon="5.43444">
        <ele>262.8</ele>
        <time>2022-07-16T07:53:39Z</time>
      </trkpt>
      <trkpt lat="46.56846" lon="5.43429">
        <ele>263</ele>
        <time>2022-07-16T07:53:41Z</time>
      </trkpt>
      <trkpt lat="46.56826" lon="5.43384">
        <ele>262.8</ele>
        <time>2022-07-16T07:53:46Z</time>
      </trkpt>
      <trkpt lat="46.568" lon="5.43336">
        <ele>261.4</ele>
        <time>2022-07-16T07:53:51Z</time>
      </trkpt>
      <trkpt lat="46.56773" lon="5.43305">
        <ele>260.4</ele>
        <time>2022-07-16T07:53:55Z</time>
      </trkpt>
      <trkpt lat="46.56752" lon="5.43281">
        <ele>259.6</ele>
        <time>2022-07-16T07:53:58Z</time>
      </trkpt>
      <trkpt lat="46.56731" lon="5.43248">
        <ele>259.4</ele>
        <time>2022-07-16T07:54:02Z</time>
      </trkpt>
      <trkpt lat="46.567" lon="5.43179">
        <ele>260</ele>
        <time>2022-07-16T07:54:09Z</time>
      </trkpt>
      <trkpt lat="46.56672" lon="5.43107">
        <ele>260</ele>
        <time>2022-07-16T07:54:16Z</time>
      </trkpt>
      <trkpt lat="46.56663" lon="5.43086">
        <ele>260</ele>
        <time>2022-07-16T07:54:18Z</time>
      </trkpt>
      <trkpt lat="46.56642" lon="5.43037">
        <ele>259.2</ele>
        <time>2022-07-16T07:54:23Z</time>
      </trkpt>
      <trkpt lat="46.5663" lon="5.43015">
        <ele>259.2</ele>
        <time>2022-07-16T07:54:25Z</time>
      </trkpt>
      <trkpt lat="46.56624" lon="5.43007">
        <ele>259.2</ele>
        <time>2022-07-16T07:54:26Z</time>
      </trkpt>
      <trkpt lat="46.56605" lon="5.42986">
        <ele>259</ele>
        <time>2022-07-16T07:54:29Z</time>
      </trkpt>
      <trkpt lat="46.56557" lon="5.42935">
        <ele>258.6</ele>
        <time>2022-07-16T07:54:36Z</time>
      </trkpt>
      <trkpt lat="46.56515" lon="5.42876">
        <ele>258.8</ele>
        <time>2022-07-16T07:54:43Z</time>
      </trkpt>
      <trkpt lat="46.5651" lon="5.42866">
        <ele>258.8</ele>
        <time>2022-07-16T07:54:44Z</time>
      </trkpt>
      <trkpt lat="46.5649" lon="5.42825">
        <ele>258.4</ele>
        <time>2022-07-16T07:54:48Z</time>
      </trkpt>
      <trkpt lat="46.56485" lon="5.42814">
        <ele>258</ele>
        <time>2022-07-16T07:54:49Z</time>
      </trkpt>
      <trkpt lat="46.56475" lon="5.42794">
        <ele>257.8</ele>
        <time>2022-07-16T07:54:51Z</time>
      </trkpt>
      <trkpt lat="46.56461" lon="5.42773">
        <ele>257.2</ele>
        <time>2022-07-16T07:54:53Z</time>
      </trkpt>
      <trkpt lat="46.56446" lon="5.42755">
        <ele>256</ele>
        <time>2022-07-16T07:54:55Z</time>
      </trkpt>
      <trkpt lat="46.5642" lon="5.4273">
        <ele>254.8</ele>
        <time>2022-07-16T07:54:58Z</time>
      </trkpt>
      <trkpt lat="46.56374" lon="5.42678">
        <ele>253.6</ele>
        <time>2022-07-16T07:55:04Z</time>
      </trkpt>
      <trkpt lat="46.56367" lon="5.42669">
        <ele>253.2</ele>
        <time>2022-07-16T07:55:05Z</time>
      </trkpt>
      <trkpt lat="46.56332" lon="5.42607">
        <ele>252.8</ele>
        <time>2022-07-16T07:55:11Z</time>
      </trkpt>
      <trkpt lat="46.56314" lon="5.42571">
        <ele>252.8</ele>
        <time>2022-07-16T07:55:15Z</time>
      </trkpt>
      <trkpt lat="46.5629" lon="5.42539">
        <ele>254</ele>
        <time>2022-07-16T07:55:20Z</time>
      </trkpt>
      <trkpt lat="46.56274" lon="5.42522">
        <ele>255.2</ele>
        <time>2022-07-16T07:55:23Z</time>
      </trkpt>
      <trkpt lat="46.56257" lon="5.42504">
        <ele>255.8</ele>
        <time>2022-07-16T07:55:26Z</time>
      </trkpt>
      <trkpt lat="46.56248" lon="5.42488">
        <ele>256.2</ele>
        <time>2022-07-16T07:55:28Z</time>
      </trkpt>
      <trkpt lat="46.56244" lon="5.4248">
        <ele>256.4</ele>
        <time>2022-07-16T07:55:29Z</time>
      </trkpt>
      <trkpt lat="46.56241" lon="5.42472">
        <ele>256.4</ele>
        <time>2022-07-16T07:55:30Z</time>
      </trkpt>
      <trkpt lat="46.56239" lon="5.42463">
        <ele>256.6</ele>
        <time>2022-07-16T07:55:31Z</time>
      </trkpt>
      <trkpt lat="46.56235" lon="5.42438">
        <ele>256.8</ele>
        <time>2022-07-16T07:55:34Z</time>
      </trkpt>
      <trkpt lat="46.56234" lon="5.4242">
        <ele>257.4</ele>
        <time>2022-07-16T07:55:36Z</time>
      </trkpt>
      <trkpt lat="46.56232" lon="5.42401">
        <ele>258</ele>
        <time>2022-07-16T07:55:38Z</time>
      </trkpt>
      <trkpt lat="46.56227" lon="5.42381">
        <ele>258.4</ele>
        <time>2022-07-16T07:55:40Z</time>
      </trkpt>
      <trkpt lat="46.56222" lon="5.42371">
        <ele>258.4</ele>
        <time>2022-07-16T07:55:41Z</time>
      </trkpt>
      <trkpt lat="46.56206" lon="5.42342">
        <ele>258.4</ele>
        <time>2022-07-16T07:55:44Z</time>
      </trkpt>
      <trkpt lat="46.56196" lon="5.42323">
        <ele>257.8</ele>
        <time>2022-07-16T07:55:46Z</time>
      </trkpt>
      <trkpt lat="46.56183" lon="5.42309">
        <ele>257.2</ele>
        <time>2022-07-16T07:55:48Z</time>
      </trkpt>
      <trkpt lat="46.56176" lon="5.42303">
        <ele>257</ele>
        <time>2022-07-16T07:55:49Z</time>
      </trkpt>
      <trkpt lat="46.5615" lon="5.42286">
        <ele>257</ele>
        <time>2022-07-16T07:55:53Z</time>
      </trkpt>
      <trkpt lat="46.56115" lon="5.42275">
        <ele>258</ele>
        <time>2022-07-16T07:55:59Z</time>
      </trkpt>
      <trkpt lat="46.56105" lon="5.42273">
        <ele>258.6</ele>
        <time>2022-07-16T07:56:01Z</time>
      </trkpt>
      <trkpt lat="46.56091" lon="5.42271">
        <ele>259.8</ele>
        <time>2022-07-16T07:56:04Z</time>
      </trkpt>
      <trkpt lat="46.5608" lon="5.42269">
        <ele>260.6</ele>
        <time>2022-07-16T07:56:06Z</time>
      </trkpt>
      <trkpt lat="46.56076" lon="5.42268">
        <ele>260.8</ele>
        <time>2022-07-16T07:56:07Z</time>
      </trkpt>
      <trkpt lat="46.56068" lon="5.42264">
        <ele>261.4</ele>
        <time>2022-07-16T07:56:09Z</time>
      </trkpt>
      <trkpt lat="46.56064" lon="5.4226">
        <ele>261.8</ele>
        <time>2022-07-16T07:56:10Z</time>
      </trkpt>
      <trkpt lat="46.56058" lon="5.42253">
        <ele>262.6</ele>
        <time>2022-07-16T07:56:12Z</time>
      </trkpt>
      <trkpt lat="46.56052" lon="5.42244">
        <ele>263</ele>
        <time>2022-07-16T07:56:14Z</time>
      </trkpt>
      <trkpt lat="46.56051" lon="5.42239">
        <ele>263.4</ele>
        <time>2022-07-16T07:56:15Z</time>
      </trkpt>
      <trkpt lat="46.56053" lon="5.42228">
        <ele>264.2</ele>
        <time>2022-07-16T07:56:17Z</time>
      </trkpt>
      <trkpt lat="46.56056" lon="5.42215">
        <ele>265</ele>
        <time>2022-07-16T07:56:19Z</time>
      </trkpt>
      <trkpt lat="46.56057" lon="5.42208">
        <ele>265.2</ele>
        <time>2022-07-16T07:56:20Z</time>
      </trkpt>
      <trkpt lat="46.56058" lon="5.422">
        <ele>265.6</ele>
        <time>2022-07-16T07:56:21Z</time>
      </trkpt>
      <trkpt lat="46.56055" lon="5.42187">
        <ele>266.2</ele>
        <time>2022-07-16T07:56:23Z</time>
      </trkpt>
      <trkpt lat="46.56052" lon="5.42181">
        <ele>266.4</ele>
        <time>2022-07-16T07:56:24Z</time>
      </trkpt>
      <trkpt lat="46.56036" lon="5.42164">
        <ele>267</ele>
        <time>2022-07-16T07:56:28Z</time>
      </trkpt>
      <trkpt lat="46.56017" lon="5.4214">
        <ele>267.2</ele>
        <time>2022-07-16T07:56:33Z</time>
      </trkpt>
      <trkpt lat="46.5601" lon="5.4213">
        <ele>267.4</ele>
        <time>2022-07-16T07:56:35Z</time>
      </trkpt>
      <trkpt lat="46.56006" lon="5.42127">
        <ele>267.4</ele>
        <time>2022-07-16T07:56:36Z</time>
      </trkpt>
      <trkpt lat="46.56001" lon="5.42124">
        <ele>267.6</ele>
        <time>2022-07-16T07:56:37Z</time>
      </trkpt>
      <trkpt lat="46.55982" lon="5.4212">
        <ele>268.4</ele>
        <time>2022-07-16T07:56:41Z</time>
      </trkpt>
      <trkpt lat="46.55978" lon="5.42119">
        <ele>268.8</ele>
        <time>2022-07-16T07:56:42Z</time>
      </trkpt>
      <trkpt lat="46.55958" lon="5.42114">
        <ele>269.4</ele>
        <time>2022-07-16T07:56:46Z</time>
      </trkpt>
      <trkpt lat="46.55948" lon="5.42111">
        <ele>269.8</ele>
        <time>2022-07-16T07:56:48Z</time>
      </trkpt>
      <trkpt lat="46.55939" lon="5.42104">
        <ele>270</ele>
        <time>2022-07-16T07:56:50Z</time>
      </trkpt>
      <trkpt lat="46.5593" lon="5.4209">
        <ele>270</ele>
        <time>2022-07-16T07:56:52Z</time>
      </trkpt>
      <trkpt lat="46.55926" lon="5.42083">
        <ele>270</ele>
        <time>2022-07-16T07:56:53Z</time>
      </trkpt>
      <trkpt lat="46.55909" lon="5.42061">
        <ele>269.8</ele>
        <time>2022-07-16T07:56:56Z</time>
      </trkpt>
      <trkpt lat="46.55902" lon="5.42053">
        <ele>269.6</ele>
        <time>2022-07-16T07:56:57Z</time>
      </trkpt>
      <trkpt lat="46.55881" lon="5.42037">
        <ele>268.6</ele>
        <time>2022-07-16T07:57:00Z</time>
      </trkpt>
      <trkpt lat="46.55873" lon="5.42032">
        <ele>268</ele>
        <time>2022-07-16T07:57:01Z</time>
      </trkpt>
      <trkpt lat="46.55849" lon="5.42012">
        <ele>267</ele>
        <time>2022-07-16T07:57:04Z</time>
      </trkpt>
      <trkpt lat="46.55841" lon="5.42004">
        <ele>266.6</ele>
        <time>2022-07-16T07:57:05Z</time>
      </trkpt>
      <trkpt lat="46.55824" lon="5.41987">
        <ele>265.8</ele>
        <time>2022-07-16T07:57:07Z</time>
      </trkpt>
      <trkpt lat="46.55807" lon="5.41967">
        <ele>264.8</ele>
        <time>2022-07-16T07:57:09Z</time>
      </trkpt>
      <trkpt lat="46.558" lon="5.41956">
        <ele>264.2</ele>
        <time>2022-07-16T07:57:10Z</time>
      </trkpt>
      <trkpt lat="46.5579" lon="5.41929">
        <ele>262.6</ele>
        <time>2022-07-16T07:57:12Z</time>
      </trkpt>
      <trkpt lat="46.55786" lon="5.41898">
        <ele>261.2</ele>
        <time>2022-07-16T07:57:14Z</time>
      </trkpt>
      <trkpt lat="46.55785" lon="5.41882">
        <ele>260.2</ele>
        <time>2022-07-16T07:57:15Z</time>
      </trkpt>
      <trkpt lat="46.55785" lon="5.41866">
        <ele>259.6</ele>
        <time>2022-07-16T07:57:16Z</time>
      </trkpt>
      <trkpt lat="46.55785" lon="5.41849">
        <ele>258.4</ele>
        <time>2022-07-16T07:57:17Z</time>
      </trkpt>
      <trkpt lat="46.55786" lon="5.41815">
        <ele>256</ele>
        <time>2022-07-16T07:57:19Z</time>
      </trkpt>
      <trkpt lat="46.55789" lon="5.41782">
        <ele>254</ele>
        <time>2022-07-16T07:57:21Z</time>
      </trkpt>
      <trkpt lat="46.55791" lon="5.41767">
        <ele>253.2</ele>
        <time>2022-07-16T07:57:22Z</time>
      </trkpt>
      <trkpt lat="46.55792" lon="5.41752">
        <ele>252.8</ele>
        <time>2022-07-16T07:57:23Z</time>
      </trkpt>
      <trkpt lat="46.55793" lon="5.41738">
        <ele>251.8</ele>
        <time>2022-07-16T07:57:24Z</time>
      </trkpt>
      <trkpt lat="46.55794" lon="5.41725">
        <ele>251.4</ele>
        <time>2022-07-16T07:57:25Z</time>
      </trkpt>
      <trkpt lat="46.55796" lon="5.41713">
        <ele>250.8</ele>
        <time>2022-07-16T07:57:26Z</time>
      </trkpt>
      <trkpt lat="46.55804" lon="5.41695">
        <ele>250.4</ele>
        <time>2022-07-16T07:57:28Z</time>
      </trkpt>
      <trkpt lat="46.55808" lon="5.41689">
        <ele>250.4</ele>
        <time>2022-07-16T07:57:29Z</time>
      </trkpt>
      <trkpt lat="46.55813" lon="5.41681">
        <ele>250.2</ele>
        <time>2022-07-16T07:57:30Z</time>
      </trkpt>
      <trkpt lat="46.5582" lon="5.41663">
        <ele>250.2</ele>
        <time>2022-07-16T07:57:32Z</time>
      </trkpt>
      <trkpt lat="46.55819" lon="5.41645">
        <ele>250.6</ele>
        <time>2022-07-16T07:57:34Z</time>
      </trkpt>
      <trkpt lat="46.55811" lon="5.4163">
        <ele>251.2</ele>
        <time>2022-07-16T07:57:36Z</time>
      </trkpt>
      <trkpt lat="46.55805" lon="5.41624">
        <ele>251.2</ele>
        <time>2022-07-16T07:57:37Z</time>
      </trkpt>
      <trkpt lat="46.55799" lon="5.41619">
        <ele>251.6</ele>
        <time>2022-07-16T07:57:38Z</time>
      </trkpt>
      <trkpt lat="46.55788" lon="5.41608">
        <ele>252.8</ele>
        <time>2022-07-16T07:57:40Z</time>
      </trkpt>
      <trkpt lat="46.55765" lon="5.41583">
        <ele>253.6</ele>
        <time>2022-07-16T07:57:44Z</time>
      </trkpt>
      <trkpt lat="46.55761" lon="5.41578">
        <ele>253.8</ele>
        <time>2022-07-16T07:57:45Z</time>
      </trkpt>
      <trkpt lat="46.55757" lon="5.41572">
        <ele>254</ele>
        <time>2022-07-16T07:57:46Z</time>
      </trkpt>
      <trkpt lat="46.55745" lon="5.41546">
        <ele>255.2</ele>
        <time>2022-07-16T07:57:49Z</time>
      </trkpt>
      <trkpt lat="46.55734" lon="5.41518">
        <ele>255.8</ele>
        <time>2022-07-16T07:57:52Z</time>
      </trkpt>
      <trkpt lat="46.55724" lon="5.41503">
        <ele>256</ele>
        <time>2022-07-16T07:57:54Z</time>
      </trkpt>
      <trkpt lat="46.55687" lon="5.41467">
        <ele>256</ele>
        <time>2022-07-16T07:58:00Z</time>
      </trkpt>
      <trkpt lat="46.55669" lon="5.41448">
        <ele>256</ele>
        <time>2022-07-16T07:58:03Z</time>
      </trkpt>
      <trkpt lat="46.55661" lon="5.41431">
        <ele>256.2</ele>
        <time>2022-07-16T07:58:05Z</time>
      </trkpt>
      <trkpt lat="46.55659" lon="5.4141">
        <ele>256.2</ele>
        <time>2022-07-16T07:58:07Z</time>
      </trkpt>
      <trkpt lat="46.55661" lon="5.414">
        <ele>256.2</ele>
        <time>2022-07-16T07:58:08Z</time>
      </trkpt>
      <trkpt lat="46.55662" lon="5.41389">
        <ele>256.4</ele>
        <time>2022-07-16T07:58:09Z</time>
      </trkpt>
      <trkpt lat="46.55663" lon="5.41357">
        <ele>256.4</ele>
        <time>2022-07-16T07:58:12Z</time>
      </trkpt>
      <trkpt lat="46.55662" lon="5.41315">
        <ele>256.6</ele>
        <time>2022-07-16T07:58:16Z</time>
      </trkpt>
      <trkpt lat="46.55657" lon="5.41296">
        <ele>256.8</ele>
        <time>2022-07-16T07:58:18Z</time>
      </trkpt>
      <trkpt lat="46.55641" lon="5.41275">
        <ele>256.6</ele>
        <time>2022-07-16T07:58:21Z</time>
      </trkpt>
      <trkpt lat="46.55594" lon="5.41227">
        <ele>256.8</ele>
        <time>2022-07-16T07:58:29Z</time>
      </trkpt>
      <trkpt lat="46.55567" lon="5.41197">
        <ele>257.4</ele>
        <time>2022-07-16T07:58:34Z</time>
      </trkpt>
      <trkpt lat="46.55564" lon="5.41193">
        <ele>257.6</ele>
        <time>2022-07-16T07:58:35Z</time>
      </trkpt>
      <trkpt lat="46.55559" lon="5.41178">
        <ele>257.8</ele>
        <time>2022-07-16T07:58:37Z</time>
      </trkpt>
      <trkpt lat="46.55565" lon="5.4116">
        <ele>257.8</ele>
        <time>2022-07-16T07:58:39Z</time>
      </trkpt>
      <trkpt lat="46.5557" lon="5.41151">
        <ele>257.8</ele>
        <time>2022-07-16T07:58:40Z</time>
      </trkpt>
      <trkpt lat="46.55585" lon="5.41121">
        <ele>257.4</ele>
        <time>2022-07-16T07:58:43Z</time>
      </trkpt>
      <trkpt lat="46.5559" lon="5.41109">
        <ele>257.2</ele>
        <time>2022-07-16T07:58:44Z</time>
      </trkpt>
      <trkpt lat="46.55598" lon="5.41083">
        <ele>256.4</ele>
        <time>2022-07-16T07:58:46Z</time>
      </trkpt>
      <trkpt lat="46.55603" lon="5.41071">
        <ele>255.2</ele>
        <time>2022-07-16T07:58:47Z</time>
      </trkpt>
      <trkpt lat="46.55611" lon="5.41047">
        <ele>253.8</ele>
        <time>2022-07-16T07:58:49Z</time>
      </trkpt>
      <trkpt lat="46.55615" lon="5.41038">
        <ele>252.8</ele>
        <time>2022-07-16T07:58:50Z</time>
      </trkpt>
      <trkpt lat="46.55626" lon="5.41027">
        <ele>251.2</ele>
        <time>2022-07-16T07:58:52Z</time>
      </trkpt>
      <trkpt lat="46.55642" lon="5.41015">
        <ele>250.4</ele>
        <time>2022-07-16T07:58:54Z</time>
      </trkpt>
      <trkpt lat="46.5565" lon="5.41008">
        <ele>250</ele>
        <time>2022-07-16T07:58:55Z</time>
      </trkpt>
      <trkpt lat="46.55656" lon="5.41002">
        <ele>249</ele>
        <time>2022-07-16T07:58:56Z</time>
      </trkpt>
      <trkpt lat="46.55664" lon="5.40992">
        <ele>247.8</ele>
        <time>2022-07-16T07:58:57Z</time>
      </trkpt>
      <trkpt lat="46.5568" lon="5.40977">
        <ele>246.2</ele>
        <time>2022-07-16T07:58:59Z</time>
      </trkpt>
      <trkpt lat="46.55689" lon="5.40974">
        <ele>246.2</ele>
        <time>2022-07-16T07:59:00Z</time>
      </trkpt>
      <trkpt lat="46.55696" lon="5.40973">
        <ele>245.6</ele>
        <time>2022-07-16T07:59:01Z</time>
      </trkpt>
      <trkpt lat="46.55707" lon="5.40973">
        <ele>245.2</ele>
        <time>2022-07-16T07:59:02Z</time>
      </trkpt>
      <trkpt lat="46.55716" lon="5.40973">
        <ele>243.4</ele>
        <time>2022-07-16T07:59:03Z</time>
      </trkpt>
      <trkpt lat="46.55724" lon="5.40971">
        <ele>242.6</ele>
        <time>2022-07-16T07:59:04Z</time>
      </trkpt>
      <trkpt lat="46.55733" lon="5.40966">
        <ele>242.4</ele>
        <time>2022-07-16T07:59:05Z</time>
      </trkpt>
      <trkpt lat="46.55748" lon="5.40952">
        <ele>241.6</ele>
        <time>2022-07-16T07:59:07Z</time>
      </trkpt>
      <trkpt lat="46.55754" lon="5.40943">
        <ele>241</ele>
        <time>2022-07-16T07:59:08Z</time>
      </trkpt>
      <trkpt lat="46.55766" lon="5.40923">
        <ele>239.8</ele>
        <time>2022-07-16T07:59:10Z</time>
      </trkpt>
      <trkpt lat="46.55771" lon="5.40912">
        <ele>239.2</ele>
        <time>2022-07-16T07:59:11Z</time>
      </trkpt>
      <trkpt lat="46.55782" lon="5.40887">
        <ele>238.4</ele>
        <time>2022-07-16T07:59:13Z</time>
      </trkpt>
      <trkpt lat="46.55792" lon="5.40859">
        <ele>238.2</ele>
        <time>2022-07-16T07:59:15Z</time>
      </trkpt>
      <trkpt lat="46.55807" lon="5.40824">
        <ele>236.8</ele>
        <time>2022-07-16T07:59:18Z</time>
      </trkpt>
      <trkpt lat="46.55812" lon="5.40812">
        <ele>236</ele>
        <time>2022-07-16T07:59:19Z</time>
      </trkpt>
      <trkpt lat="46.55817" lon="5.40798">
        <ele>234.4</ele>
        <time>2022-07-16T07:59:20Z</time>
      </trkpt>
      <trkpt lat="46.55829" lon="5.40786">
        <ele>233.2</ele>
        <time>2022-07-16T07:59:22Z</time>
      </trkpt>
      <trkpt lat="46.55843" lon="5.40783">
        <ele>232.6</ele>
        <time>2022-07-16T07:59:24Z</time>
      </trkpt>
      <trkpt lat="46.55851" lon="5.40783">
        <ele>232.4</ele>
        <time>2022-07-16T07:59:25Z</time>
      </trkpt>
      <trkpt lat="46.55867" lon="5.40782">
        <ele>232</ele>
        <time>2022-07-16T07:59:27Z</time>
      </trkpt>
      <trkpt lat="46.55903" lon="5.40781">
        <ele>231.4</ele>
        <time>2022-07-16T07:59:31Z</time>
      </trkpt>
      <trkpt lat="46.55929" lon="5.40781">
        <ele>231</ele>
        <time>2022-07-16T07:59:34Z</time>
      </trkpt>
      <trkpt lat="46.55946" lon="5.40776">
        <ele>230.4</ele>
        <time>2022-07-16T07:59:36Z</time>
      </trkpt>
      <trkpt lat="46.55963" lon="5.4077">
        <ele>229.6</ele>
        <time>2022-07-16T07:59:38Z</time>
      </trkpt>
      <trkpt lat="46.5598" lon="5.40763">
        <ele>229.4</ele>
        <time>2022-07-16T07:59:40Z</time>
      </trkpt>
      <trkpt lat="46.55988" lon="5.40762">
        <ele>229.4</ele>
        <time>2022-07-16T07:59:41Z</time>
      </trkpt>
      <trkpt lat="46.55996" lon="5.4076">
        <ele>229.4</ele>
        <time>2022-07-16T07:59:42Z</time>
      </trkpt>
      <trkpt lat="46.56011" lon="5.40751">
        <ele>229.4</ele>
        <time>2022-07-16T07:59:44Z</time>
      </trkpt>
      <trkpt lat="46.56028" lon="5.40722">
        <ele>229</ele>
        <time>2022-07-16T07:59:47Z</time>
      </trkpt>
      <trkpt lat="46.56043" lon="5.40687">
        <ele>228.2</ele>
        <time>2022-07-16T07:59:50Z</time>
      </trkpt>
      <trkpt lat="46.56052" lon="5.40661">
        <ele>227.6</ele>
        <time>2022-07-16T07:59:52Z</time>
      </trkpt>
      <trkpt lat="46.56061" lon="5.40634">
        <ele>227</ele>
        <time>2022-07-16T07:59:54Z</time>
      </trkpt>
      <trkpt lat="46.56074" lon="5.40593">
        <ele>225.4</ele>
        <time>2022-07-16T07:59:57Z</time>
      </trkpt>
      <trkpt lat="46.56083" lon="5.40566">
        <ele>224.4</ele>
        <time>2022-07-16T07:59:59Z</time>
      </trkpt>
      <trkpt lat="46.56095" lon="5.40527">
        <ele>223.2</ele>
        <time>2022-07-16T08:00:02Z</time>
      </trkpt>
      <trkpt lat="46.56114" lon="5.40463">
        <ele>222</ele>
        <time>2022-07-16T08:00:07Z</time>
      </trkpt>
      <trkpt lat="46.56137" lon="5.40407">
        <ele>221.6</ele>
        <time>2022-07-16T08:00:12Z</time>
      </trkpt>
      <trkpt lat="46.5614" lon="5.40395">
        <ele>221.4</ele>
        <time>2022-07-16T08:00:13Z</time>
      </trkpt>
      <trkpt lat="46.56141" lon="5.40371">
        <ele>221.2</ele>
        <time>2022-07-16T08:00:15Z</time>
      </trkpt>
      <trkpt lat="46.56139" lon="5.40359">
        <ele>221</ele>
        <time>2022-07-16T08:00:16Z</time>
      </trkpt>
      <trkpt lat="46.56134" lon="5.40348">
        <ele>221</ele>
        <time>2022-07-16T08:00:17Z</time>
      </trkpt>
      <trkpt lat="46.56128" lon="5.40338">
        <ele>220.8</ele>
        <time>2022-07-16T08:00:18Z</time>
      </trkpt>
      <trkpt lat="46.56119" lon="5.40331">
        <ele>220.8</ele>
        <time>2022-07-16T08:00:19Z</time>
      </trkpt>
      <trkpt lat="46.5611" lon="5.40327">
        <ele>220.6</ele>
        <time>2022-07-16T08:00:20Z</time>
      </trkpt>
      <trkpt lat="46.56091" lon="5.40324">
        <ele>220</ele>
        <time>2022-07-16T08:00:22Z</time>
      </trkpt>
      <trkpt lat="46.56073" lon="5.40322">
        <ele>219.4</ele>
        <time>2022-07-16T08:00:24Z</time>
      </trkpt>
      <trkpt lat="46.56065" lon="5.40318">
        <ele>218.8</ele>
        <time>2022-07-16T08:00:25Z</time>
      </trkpt>
      <trkpt lat="46.56057" lon="5.40313">
        <ele>218.6</ele>
        <time>2022-07-16T08:00:26Z</time>
      </trkpt>
      <trkpt lat="46.56049" lon="5.40307">
        <ele>218.4</ele>
        <time>2022-07-16T08:00:27Z</time>
      </trkpt>
      <trkpt lat="46.56007" lon="5.40274">
        <ele>217.8</ele>
        <time>2022-07-16T08:00:32Z</time>
      </trkpt>
      <trkpt lat="46.5599" lon="5.4026">
        <ele>217.4</ele>
        <time>2022-07-16T08:00:34Z</time>
      </trkpt>
      <trkpt lat="46.55952" lon="5.4023">
        <ele>216.4</ele>
        <time>2022-07-16T08:00:38Z</time>
      </trkpt>
      <trkpt lat="46.55921" lon="5.40207">
        <ele>214.8</ele>
        <time>2022-07-16T08:00:41Z</time>
      </trkpt>
      <trkpt lat="46.559" lon="5.40195">
        <ele>213.4</ele>
        <time>2022-07-16T08:00:43Z</time>
      </trkpt>
      <trkpt lat="46.5588" lon="5.40183">
        <ele>212.2</ele>
        <time>2022-07-16T08:00:45Z</time>
      </trkpt>
      <trkpt lat="46.55861" lon="5.40172">
        <ele>211.2</ele>
        <time>2022-07-16T08:00:47Z</time>
      </trkpt>
      <trkpt lat="46.55851" lon="5.40166">
        <ele>210.8</ele>
        <time>2022-07-16T08:00:48Z</time>
      </trkpt>
      <trkpt lat="46.55826" lon="5.40146">
        <ele>210.6</ele>
        <time>2022-07-16T08:00:51Z</time>
      </trkpt>
      <trkpt lat="46.55793" lon="5.40126">
        <ele>211.2</ele>
        <time>2022-07-16T08:00:55Z</time>
      </trkpt>
      <trkpt lat="46.55765" lon="5.40113">
        <ele>212.2</ele>
        <time>2022-07-16T08:00:59Z</time>
      </trkpt>
      <trkpt lat="46.55759" lon="5.4011">
        <ele>212.4</ele>
        <time>2022-07-16T08:01:00Z</time>
      </trkpt>
      <trkpt lat="46.55754" lon="5.40104">
        <ele>213.2</ele>
        <time>2022-07-16T08:01:01Z</time>
      </trkpt>
      <trkpt lat="46.55752" lon="5.40097">
        <ele>213.6</ele>
        <time>2022-07-16T08:01:02Z</time>
      </trkpt>
      <trkpt lat="46.55751" lon="5.40088">
        <ele>213.8</ele>
        <time>2022-07-16T08:01:03Z</time>
      </trkpt>
      <trkpt lat="46.55752" lon="5.40078">
        <ele>214</ele>
        <time>2022-07-16T08:01:04Z</time>
      </trkpt>
      <trkpt lat="46.55758" lon="5.40058">
        <ele>214.2</ele>
        <time>2022-07-16T08:01:06Z</time>
      </trkpt>
      <trkpt lat="46.55776" lon="5.40003">
        <ele>214.2</ele>
        <time>2022-07-16T08:01:11Z</time>
      </trkpt>
      <trkpt lat="46.55797" lon="5.39944">
        <ele>213.8</ele>
        <time>2022-07-16T08:01:17Z</time>
      </trkpt>
      <trkpt lat="46.55803" lon="5.3993">
        <ele>213.8</ele>
        <time>2022-07-16T08:01:19Z</time>
      </trkpt>
      <trkpt lat="46.55802" lon="5.39915">
        <ele>213.8</ele>
        <time>2022-07-16T08:01:21Z</time>
      </trkpt>
      <trkpt lat="46.55792" lon="5.39904">
        <ele>213.8</ele>
        <time>2022-07-16T08:01:23Z</time>
      </trkpt>
      <trkpt lat="46.55786" lon="5.399">
        <ele>214</ele>
        <time>2022-07-16T08:01:24Z</time>
      </trkpt>
      <trkpt lat="46.55753" lon="5.39876">
        <ele>214.4</ele>
        <time>2022-07-16T08:01:29Z</time>
      </trkpt>
      <trkpt lat="46.55713" lon="5.3984">
        <ele>215.6</ele>
        <time>2022-07-16T08:01:36Z</time>
      </trkpt>
      <trkpt lat="46.55703" lon="5.3983">
        <ele>216.2</ele>
        <time>2022-07-16T08:01:38Z</time>
      </trkpt>
      <trkpt lat="46.55698" lon="5.39825">
        <ele>216.6</ele>
        <time>2022-07-16T08:01:39Z</time>
      </trkpt>
      <trkpt lat="46.55677" lon="5.39806">
        <ele>217.6</ele>
        <time>2022-07-16T08:01:43Z</time>
      </trkpt>
      <trkpt lat="46.55665" lon="5.39798">
        <ele>218</ele>
        <time>2022-07-16T08:01:45Z</time>
      </trkpt>
      <trkpt lat="46.55626" lon="5.39771">
        <ele>218.6</ele>
        <time>2022-07-16T08:01:51Z</time>
      </trkpt>
      <trkpt lat="46.55579" lon="5.39737">
        <ele>218.2</ele>
        <time>2022-07-16T08:01:57Z</time>
      </trkpt>
      <trkpt lat="46.55535" lon="5.39699">
        <ele>216.6</ele>
        <time>2022-07-16T08:02:03Z</time>
      </trkpt>
      <trkpt lat="46.55529" lon="5.39693">
        <ele>216.2</ele>
        <time>2022-07-16T08:02:04Z</time>
      </trkpt>
      <trkpt lat="46.5548" lon="5.39655">
        <ele>216.8</ele>
        <time>2022-07-16T08:02:11Z</time>
      </trkpt>
      <trkpt lat="46.55427" lon="5.3961">
        <ele>217.2</ele>
        <time>2022-07-16T08:02:19Z</time>
      </trkpt>
      <trkpt lat="46.55421" lon="5.39605">
        <ele>217.6</ele>
        <time>2022-07-16T08:02:20Z</time>
      </trkpt>
      <trkpt lat="46.55416" lon="5.396">
        <ele>217.8</ele>
        <time>2022-07-16T08:02:21Z</time>
      </trkpt>
      <trkpt lat="46.55386" lon="5.39576">
        <ele>219</ele>
        <time>2022-07-16T08:02:26Z</time>
      </trkpt>
      <trkpt lat="46.55362" lon="5.39555">
        <ele>220.2</ele>
        <time>2022-07-16T08:02:30Z</time>
      </trkpt>
      <trkpt lat="46.55337" lon="5.39536">
        <ele>220.6</ele>
        <time>2022-07-16T08:02:34Z</time>
      </trkpt>
      <trkpt lat="46.55286" lon="5.39496">
        <ele>221</ele>
        <time>2022-07-16T08:02:42Z</time>
      </trkpt>
      <trkpt lat="46.55266" lon="5.39481">
        <ele>220.8</ele>
        <time>2022-07-16T08:02:45Z</time>
      </trkpt>
      <trkpt lat="46.55234" lon="5.3945">
        <ele>220.6</ele>
        <time>2022-07-16T08:02:50Z</time>
      </trkpt>
      <trkpt lat="46.55229" lon="5.39442">
        <ele>220.4</ele>
        <time>2022-07-16T08:02:51Z</time>
      </trkpt>
      <trkpt lat="46.55222" lon="5.39435">
        <ele>220.4</ele>
        <time>2022-07-16T08:02:52Z</time>
      </trkpt>
      <trkpt lat="46.55207" lon="5.39427">
        <ele>220.2</ele>
        <time>2022-07-16T08:02:54Z</time>
      </trkpt>
      <trkpt lat="46.55167" lon="5.39423">
        <ele>220</ele>
        <time>2022-07-16T08:02:59Z</time>
      </trkpt>
      <trkpt lat="46.55124" lon="5.39406">
        <ele>220.6</ele>
        <time>2022-07-16T08:03:05Z</time>
      </trkpt>
      <trkpt lat="46.55117" lon="5.39403">
        <ele>220.8</ele>
        <time>2022-07-16T08:03:06Z</time>
      </trkpt>
      <trkpt lat="46.55066" lon="5.39378">
        <ele>220.8</ele>
        <time>2022-07-16T08:03:13Z</time>
      </trkpt>
      <trkpt lat="46.55041" lon="5.39364">
        <ele>220.4</ele>
        <time>2022-07-16T08:03:16Z</time>
      </trkpt>
      <trkpt lat="46.55006" lon="5.39342">
        <ele>219</ele>
        <time>2022-07-16T08:03:20Z</time>
      </trkpt>
      <trkpt lat="46.54987" lon="5.3933">
        <ele>218.2</ele>
        <time>2022-07-16T08:03:22Z</time>
      </trkpt>
      <trkpt lat="46.54977" lon="5.39326">
        <ele>218</ele>
        <time>2022-07-16T08:03:23Z</time>
      </trkpt>
      <trkpt lat="46.54957" lon="5.39318">
        <ele>216.6</ele>
        <time>2022-07-16T08:03:25Z</time>
      </trkpt>
      <trkpt lat="46.54937" lon="5.3931">
        <ele>215.6</ele>
        <time>2022-07-16T08:03:27Z</time>
      </trkpt>
      <trkpt lat="46.54928" lon="5.39307">
        <ele>215.4</ele>
        <time>2022-07-16T08:03:28Z</time>
      </trkpt>
      <trkpt lat="46.54878" lon="5.3929">
        <ele>216</ele>
        <time>2022-07-16T08:03:34Z</time>
      </trkpt>
      <trkpt lat="46.54855" lon="5.3928">
        <ele>217.2</ele>
        <time>2022-07-16T08:03:37Z</time>
      </trkpt>
      <trkpt lat="46.54825" lon="5.39267">
        <ele>218.6</ele>
        <time>2022-07-16T08:03:41Z</time>
      </trkpt>
      <trkpt lat="46.54804" lon="5.39257">
        <ele>220</ele>
        <time>2022-07-16T08:03:44Z</time>
      </trkpt>
      <trkpt lat="46.54783" lon="5.39247">
        <ele>221.2</ele>
        <time>2022-07-16T08:03:47Z</time>
      </trkpt>
      <trkpt lat="46.5477" lon="5.39239">
        <ele>221.6</ele>
        <time>2022-07-16T08:03:49Z</time>
      </trkpt>
      <trkpt lat="46.5475" lon="5.39229">
        <ele>222.4</ele>
        <time>2022-07-16T08:03:52Z</time>
      </trkpt>
      <trkpt lat="46.54724" lon="5.39216">
        <ele>223.4</ele>
        <time>2022-07-16T08:03:56Z</time>
      </trkpt>
      <trkpt lat="46.54704" lon="5.39206">
        <ele>223.6</ele>
        <time>2022-07-16T08:03:59Z</time>
      </trkpt>
      <trkpt lat="46.54671" lon="5.3919">
        <ele>224.4</ele>
        <time>2022-07-16T08:04:04Z</time>
      </trkpt>
      <trkpt lat="46.54626" lon="5.39171">
        <ele>224.6</ele>
        <time>2022-07-16T08:04:10Z</time>
      </trkpt>
      <trkpt lat="46.54574" lon="5.39146">
        <ele>224.6</ele>
        <time>2022-07-16T08:04:17Z</time>
      </trkpt>
      <trkpt lat="46.5456" lon="5.39139">
        <ele>224.6</ele>
        <time>2022-07-16T08:04:19Z</time>
      </trkpt>
      <trkpt lat="46.54524" lon="5.39117">
        <ele>225.4</ele>
        <time>2022-07-16T08:04:25Z</time>
      </trkpt>
      <trkpt lat="46.54518" lon="5.39114">
        <ele>225.8</ele>
        <time>2022-07-16T08:04:26Z</time>
      </trkpt>
      <trkpt lat="46.54508" lon="5.39114">
        <ele>226.2</ele>
        <time>2022-07-16T08:04:28Z</time>
      </trkpt>
      <trkpt lat="46.54501" lon="5.39123">
        <ele>226.6</ele>
        <time>2022-07-16T08:04:30Z</time>
      </trkpt>
      <trkpt lat="46.545" lon="5.39129">
        <ele>227.2</ele>
        <time>2022-07-16T08:04:31Z</time>
      </trkpt>
      <trkpt lat="46.54499" lon="5.39135">
        <ele>227.4</ele>
        <time>2022-07-16T08:04:32Z</time>
      </trkpt>
      <trkpt lat="46.54497" lon="5.39141">
        <ele>227.8</ele>
        <time>2022-07-16T08:04:33Z</time>
      </trkpt>
      <trkpt lat="46.54493" lon="5.39146">
        <ele>228</ele>
        <time>2022-07-16T08:04:34Z</time>
      </trkpt>
      <trkpt lat="46.54487" lon="5.39148">
        <ele>228.4</ele>
        <time>2022-07-16T08:04:35Z</time>
      </trkpt>
      <trkpt lat="46.54479" lon="5.39147">
        <ele>228.4</ele>
        <time>2022-07-16T08:04:36Z</time>
      </trkpt>
      <trkpt lat="46.54465" lon="5.3914">
        <ele>228.6</ele>
        <time>2022-07-16T08:04:38Z</time>
      </trkpt>
      <trkpt lat="46.54457" lon="5.39136">
        <ele>228.6</ele>
        <time>2022-07-16T08:04:39Z</time>
      </trkpt>
      <trkpt lat="46.5443" lon="5.39128">
        <ele>227.6</ele>
        <time>2022-07-16T08:04:42Z</time>
      </trkpt>
      <trkpt lat="46.54411" lon="5.39124">
        <ele>226.8</ele>
        <time>2022-07-16T08:04:44Z</time>
      </trkpt>
      <trkpt lat="46.54382" lon="5.39113">
        <ele>224.8</ele>
        <time>2022-07-16T08:04:47Z</time>
      </trkpt>
      <trkpt lat="46.54372" lon="5.39109">
        <ele>224.4</ele>
        <time>2022-07-16T08:04:48Z</time>
      </trkpt>
      <trkpt lat="46.54362" lon="5.39105">
        <ele>223.8</ele>
        <time>2022-07-16T08:04:49Z</time>
      </trkpt>
      <trkpt lat="46.54333" lon="5.39094">
        <ele>222.8</ele>
        <time>2022-07-16T08:04:52Z</time>
      </trkpt>
      <trkpt lat="46.54314" lon="5.39084">
        <ele>221.8</ele>
        <time>2022-07-16T08:04:54Z</time>
      </trkpt>
      <trkpt lat="46.54305" lon="5.39079">
        <ele>221.6</ele>
        <time>2022-07-16T08:04:55Z</time>
      </trkpt>
      <trkpt lat="46.54251" lon="5.3905">
        <ele>220.8</ele>
        <time>2022-07-16T08:05:01Z</time>
      </trkpt>
      <trkpt lat="46.54235" lon="5.39041">
        <ele>220.8</ele>
        <time>2022-07-16T08:05:03Z</time>
      </trkpt>
      <trkpt lat="46.54194" lon="5.39021">
        <ele>221.2</ele>
        <time>2022-07-16T08:05:08Z</time>
      </trkpt>
      <trkpt lat="46.54154" lon="5.39005">
        <ele>221.8</ele>
        <time>2022-07-16T08:05:13Z</time>
      </trkpt>
      <trkpt lat="46.5413" lon="5.38995">
        <ele>222</ele>
        <time>2022-07-16T08:05:16Z</time>
      </trkpt>
      <trkpt lat="46.54091" lon="5.38981">
        <ele>223</ele>
        <time>2022-07-16T08:05:21Z</time>
      </trkpt>
      <trkpt lat="46.54052" lon="5.38963">
        <ele>222.8</ele>
        <time>2022-07-16T08:05:26Z</time>
      </trkpt>
      <trkpt lat="46.54005" lon="5.38949">
        <ele>222.8</ele>
        <time>2022-07-16T08:05:32Z</time>
      </trkpt>
      <trkpt lat="46.5395" lon="5.38938">
        <ele>223.4</ele>
        <time>2022-07-16T08:05:39Z</time>
      </trkpt>
      <trkpt lat="46.53894" lon="5.38934">
        <ele>223.8</ele>
        <time>2022-07-16T08:05:46Z</time>
      </trkpt>
      <trkpt lat="46.53888" lon="5.38934">
        <ele>224</ele>
        <time>2022-07-16T08:05:47Z</time>
      </trkpt>
      <trkpt lat="46.53873" lon="5.38933">
        <ele>224.2</ele>
        <time>2022-07-16T08:05:49Z</time>
      </trkpt>
      <trkpt lat="46.53851" lon="5.3893">
        <ele>224.8</ele>
        <time>2022-07-16T08:05:52Z</time>
      </trkpt>
      <trkpt lat="46.53835" lon="5.38924">
        <ele>225</ele>
        <time>2022-07-16T08:05:54Z</time>
      </trkpt>
      <trkpt lat="46.53784" lon="5.38905">
        <ele>225.4</ele>
        <time>2022-07-16T08:06:01Z</time>
      </trkpt>
      <trkpt lat="46.5373" lon="5.38887">
        <ele>225.2</ele>
        <time>2022-07-16T08:06:08Z</time>
      </trkpt>
      <trkpt lat="46.53678" lon="5.38867">
        <ele>225.2</ele>
        <time>2022-07-16T08:06:15Z</time>
      </trkpt>
      <trkpt lat="46.5367" lon="5.38864">
        <ele>225.2</ele>
        <time>2022-07-16T08:06:16Z</time>
      </trkpt>
      <trkpt lat="46.53635" lon="5.38845">
        <ele>225.4</ele>
        <time>2022-07-16T08:06:21Z</time>
      </trkpt>
      <trkpt lat="46.53595" lon="5.38824">
        <ele>225.8</ele>
        <time>2022-07-16T08:06:27Z</time>
      </trkpt>
      <trkpt lat="46.53589" lon="5.3882">
        <ele>225.8</ele>
        <time>2022-07-16T08:06:28Z</time>
      </trkpt>
      <trkpt lat="46.53563" lon="5.38802">
        <ele>225.8</ele>
        <time>2022-07-16T08:06:32Z</time>
      </trkpt>
      <trkpt lat="46.53557" lon="5.38796">
        <ele>225.8</ele>
        <time>2022-07-16T08:06:33Z</time>
      </trkpt>
      <trkpt lat="46.53551" lon="5.38787">
        <ele>225.8</ele>
        <time>2022-07-16T08:06:34Z</time>
      </trkpt>
      <trkpt lat="46.53541" lon="5.38771">
        <ele>225.8</ele>
        <time>2022-07-16T08:06:36Z</time>
      </trkpt>
      <trkpt lat="46.53529" lon="5.38753">
        <ele>225.4</ele>
        <time>2022-07-16T08:06:38Z</time>
      </trkpt>
      <trkpt lat="46.53516" lon="5.38745">
        <ele>224.8</ele>
        <time>2022-07-16T08:06:40Z</time>
      </trkpt>
      <trkpt lat="46.53508" lon="5.38745">
        <ele>224.4</ele>
        <time>2022-07-16T08:06:41Z</time>
      </trkpt>
      <trkpt lat="46.53501" lon="5.38747">
        <ele>224.2</ele>
        <time>2022-07-16T08:06:42Z</time>
      </trkpt>
      <trkpt lat="46.53493" lon="5.38747">
        <ele>224</ele>
        <time>2022-07-16T08:06:43Z</time>
      </trkpt>
      <trkpt lat="46.53488" lon="5.38743">
        <ele>224</ele>
        <time>2022-07-16T08:06:44Z</time>
      </trkpt>
      <trkpt lat="46.53479" lon="5.38728">
        <ele>223.8</ele>
        <time>2022-07-16T08:06:46Z</time>
      </trkpt>
      <trkpt lat="46.53477" lon="5.38719">
        <ele>223.8</ele>
        <time>2022-07-16T08:06:47Z</time>
      </trkpt>
      <trkpt lat="46.53475" lon="5.38708">
        <ele>223.6</ele>
        <time>2022-07-16T08:06:48Z</time>
      </trkpt>
      <trkpt lat="46.53469" lon="5.38661">
        <ele>223.2</ele>
        <time>2022-07-16T08:06:52Z</time>
      </trkpt>
      <trkpt lat="46.53467" lon="5.38639">
        <ele>223</ele>
        <time>2022-07-16T08:06:54Z</time>
      </trkpt>
      <trkpt lat="46.53464" lon="5.38588">
        <ele>222.6</ele>
        <time>2022-07-16T08:06:58Z</time>
      </trkpt>
      <trkpt lat="46.53457" lon="5.38509">
        <ele>222</ele>
        <time>2022-07-16T08:07:04Z</time>
      </trkpt>
      <trkpt lat="46.53455" lon="5.38484">
        <ele>221.6</ele>
        <time>2022-07-16T08:07:06Z</time>
      </trkpt>
      <trkpt lat="46.53451" lon="5.38435">
        <ele>220.8</ele>
        <time>2022-07-16T08:07:10Z</time>
      </trkpt>
      <trkpt lat="46.53443" lon="5.38389">
        <ele>220.6</ele>
        <time>2022-07-16T08:07:14Z</time>
      </trkpt>
      <trkpt lat="46.53428" lon="5.38306">
        <ele>221</ele>
        <time>2022-07-16T08:07:21Z</time>
      </trkpt>
      <trkpt lat="46.5341" lon="5.38219">
        <ele>220.4</ele>
        <time>2022-07-16T08:07:28Z</time>
      </trkpt>
      <trkpt lat="46.53408" lon="5.38206">
        <ele>220.2</ele>
        <time>2022-07-16T08:07:29Z</time>
      </trkpt>
      <trkpt lat="46.53404" lon="5.38181">
        <ele>219.8</ele>
        <time>2022-07-16T08:07:31Z</time>
      </trkpt>
      <trkpt lat="46.53391" lon="5.38106">
        <ele>219.2</ele>
        <time>2022-07-16T08:07:37Z</time>
      </trkpt>
      <trkpt lat="46.53388" lon="5.38081">
        <ele>219</ele>
        <time>2022-07-16T08:07:39Z</time>
      </trkpt>
      <trkpt lat="46.53378" lon="5.38018">
        <ele>218.6</ele>
        <time>2022-07-16T08:07:44Z</time>
      </trkpt>
      <trkpt lat="46.53376" lon="5.37965">
        <ele>217.6</ele>
        <time>2022-07-16T08:07:48Z</time>
      </trkpt>
      <trkpt lat="46.53376" lon="5.37952">
        <ele>217.4</ele>
        <time>2022-07-16T08:07:49Z</time>
      </trkpt>
      <trkpt lat="46.53382" lon="5.37868">
        <ele>216.8</ele>
        <time>2022-07-16T08:07:56Z</time>
      </trkpt>
      <trkpt lat="46.53383" lon="5.37787">
        <ele>216.8</ele>
        <time>2022-07-16T08:08:03Z</time>
      </trkpt>
      <trkpt lat="46.53379" lon="5.37724">
        <ele>216.4</ele>
        <time>2022-07-16T08:08:08Z</time>
      </trkpt>
      <trkpt lat="46.53378" lon="5.37698">
        <ele>216.2</ele>
        <time>2022-07-16T08:08:10Z</time>
      </trkpt>
      <trkpt lat="46.53378" lon="5.37686">
        <ele>216</ele>
        <time>2022-07-16T08:08:11Z</time>
      </trkpt>
      <trkpt lat="46.53379" lon="5.37637">
        <ele>215.4</ele>
        <time>2022-07-16T08:08:15Z</time>
      </trkpt>
      <trkpt lat="46.53381" lon="5.37578">
        <ele>215.6</ele>
        <time>2022-07-16T08:08:20Z</time>
      </trkpt>
      <trkpt lat="46.53389" lon="5.37508">
        <ele>216</ele>
        <time>2022-07-16T08:08:26Z</time>
      </trkpt>
      <trkpt lat="46.53401" lon="5.37425">
        <ele>215.4</ele>
        <time>2022-07-16T08:08:33Z</time>
      </trkpt>
      <trkpt lat="46.53403" lon="5.37402">
        <ele>215.2</ele>
        <time>2022-07-16T08:08:35Z</time>
      </trkpt>
      <trkpt lat="46.53413" lon="5.37319">
        <ele>214.8</ele>
        <time>2022-07-16T08:08:42Z</time>
      </trkpt>
      <trkpt lat="46.53414" lon="5.37307">
        <ele>214.8</ele>
        <time>2022-07-16T08:08:43Z</time>
      </trkpt>
      <trkpt lat="46.53425" lon="5.37229">
        <ele>214.8</ele>
        <time>2022-07-16T08:08:50Z</time>
      </trkpt>
      <trkpt lat="46.53428" lon="5.37208">
        <ele>215</ele>
        <time>2022-07-16T08:08:52Z</time>
      </trkpt>
      <trkpt lat="46.53428" lon="5.37198">
        <ele>215</ele>
        <time>2022-07-16T08:08:53Z</time>
      </trkpt>
      <trkpt lat="46.53426" lon="5.37177">
        <ele>215.4</ele>
        <time>2022-07-16T08:08:55Z</time>
      </trkpt>
      <trkpt lat="46.53425" lon="5.37167">
        <ele>215.4</ele>
        <time>2022-07-16T08:08:56Z</time>
      </trkpt>
      <trkpt lat="46.53423" lon="5.37157">
        <ele>215.8</ele>
        <time>2022-07-16T08:08:57Z</time>
      </trkpt>
      <trkpt lat="46.53413" lon="5.37111">
        <ele>216.4</ele>
        <time>2022-07-16T08:09:02Z</time>
      </trkpt>
      <trkpt lat="46.53411" lon="5.37101">
        <ele>216.4</ele>
        <time>2022-07-16T08:09:03Z</time>
      </trkpt>
      <trkpt lat="46.53403" lon="5.37055">
        <ele>217</ele>
        <time>2022-07-16T08:09:08Z</time>
      </trkpt>
      <trkpt lat="46.53399" lon="5.37027">
        <ele>217.4</ele>
        <time>2022-07-16T08:09:11Z</time>
      </trkpt>
      <trkpt lat="46.53393" lon="5.37">
        <ele>217.6</ele>
        <time>2022-07-16T08:09:14Z</time>
      </trkpt>
      <trkpt lat="46.53384" lon="5.36946">
        <ele>217.8</ele>
        <time>2022-07-16T08:09:20Z</time>
      </trkpt>
      <trkpt lat="46.53384" lon="5.36938">
        <ele>217.8</ele>
        <time>2022-07-16T08:09:21Z</time>
      </trkpt>
      <trkpt lat="46.53384" lon="5.36851">
        <ele>217.6</ele>
        <time>2022-07-16T08:09:30Z</time>
      </trkpt>
      <trkpt lat="46.53382" lon="5.3677">
        <ele>217.6</ele>
        <time>2022-07-16T08:09:38Z</time>
      </trkpt>
      <trkpt lat="46.53381" lon="5.3676">
        <ele>217.6</ele>
        <time>2022-07-16T08:09:39Z</time>
      </trkpt>
      <trkpt lat="46.53378" lon="5.36689">
        <ele>217.6</ele>
        <time>2022-07-16T08:09:46Z</time>
      </trkpt>
      <trkpt lat="46.53374" lon="5.36604">
        <ele>217.2</ele>
        <time>2022-07-16T08:09:54Z</time>
      </trkpt>
      <trkpt lat="46.53377" lon="5.36572">
        <ele>216.6</ele>
        <time>2022-07-16T08:09:57Z</time>
      </trkpt>
      <trkpt lat="46.53381" lon="5.36551">
        <ele>216.4</ele>
        <time>2022-07-16T08:09:59Z</time>
      </trkpt>
      <trkpt lat="46.53383" lon="5.36541">
        <ele>216.2</ele>
        <time>2022-07-16T08:10:00Z</time>
      </trkpt>
      <trkpt lat="46.534" lon="5.36457">
        <ele>215.4</ele>
        <time>2022-07-16T08:10:08Z</time>
      </trkpt>
      <trkpt lat="46.53403" lon="5.36446">
        <ele>215.4</ele>
        <time>2022-07-16T08:10:09Z</time>
      </trkpt>
      <trkpt lat="46.53413" lon="5.36392">
        <ele>215.2</ele>
        <time>2022-07-16T08:10:14Z</time>
      </trkpt>
      <trkpt lat="46.5342" lon="5.36361">
        <ele>215.2</ele>
        <time>2022-07-16T08:10:17Z</time>
      </trkpt>
      <trkpt lat="46.53434" lon="5.36281">
        <ele>215.8</ele>
        <time>2022-07-16T08:10:25Z</time>
      </trkpt>
      <trkpt lat="46.53444" lon="5.36215">
        <ele>216.4</ele>
        <time>2022-07-16T08:10:32Z</time>
      </trkpt>
      <trkpt lat="46.53445" lon="5.36206">
        <ele>216.4</ele>
        <time>2022-07-16T08:10:33Z</time>
      </trkpt>
      <trkpt lat="46.5345" lon="5.36123">
        <ele>217.2</ele>
        <time>2022-07-16T08:10:42Z</time>
      </trkpt>
      <trkpt lat="46.53452" lon="5.36095">
        <ele>217.4</ele>
        <time>2022-07-16T08:10:45Z</time>
      </trkpt>
      <trkpt lat="46.53454" lon="5.36086">
        <ele>217.4</ele>
        <time>2022-07-16T08:10:46Z</time>
      </trkpt>
      <trkpt lat="46.53459" lon="5.36069">
        <ele>217.6</ele>
        <time>2022-07-16T08:10:48Z</time>
      </trkpt>
      <trkpt lat="46.53467" lon="5.36054">
        <ele>218</ele>
        <time>2022-07-16T08:10:50Z</time>
      </trkpt>
      <trkpt lat="46.53476" lon="5.3604">
        <ele>218.2</ele>
        <time>2022-07-16T08:10:52Z</time>
      </trkpt>
      <trkpt lat="46.5348" lon="5.36033">
        <ele>218.4</ele>
        <time>2022-07-16T08:10:53Z</time>
      </trkpt>
      <trkpt lat="46.53484" lon="5.36026">
        <ele>218.6</ele>
        <time>2022-07-16T08:10:54Z</time>
      </trkpt>
      <trkpt lat="46.5349" lon="5.3601">
        <ele>218.8</ele>
        <time>2022-07-16T08:10:56Z</time>
      </trkpt>
      <trkpt lat="46.5349" lon="5.3597">
        <ele>219</ele>
        <time>2022-07-16T08:11:00Z</time>
      </trkpt>
      <trkpt lat="46.53487" lon="5.35939">
        <ele>219</ele>
        <time>2022-07-16T08:11:03Z</time>
      </trkpt>
      <trkpt lat="46.53483" lon="5.35918">
        <ele>218.8</ele>
        <time>2022-07-16T08:11:05Z</time>
      </trkpt>
      <trkpt lat="46.53474" lon="5.35887">
        <ele>218.6</ele>
        <time>2022-07-16T08:11:08Z</time>
      </trkpt>
      <trkpt lat="46.53468" lon="5.35879">
        <ele>218.4</ele>
        <time>2022-07-16T08:11:09Z</time>
      </trkpt>
      <trkpt lat="46.53462" lon="5.35872">
        <ele>218.4</ele>
        <time>2022-07-16T08:11:10Z</time>
      </trkpt>
      <trkpt lat="46.53446" lon="5.35867">
        <ele>217.8</ele>
        <time>2022-07-16T08:11:12Z</time>
      </trkpt>
      <trkpt lat="46.5343" lon="5.35865">
        <ele>217.2</ele>
        <time>2022-07-16T08:11:14Z</time>
      </trkpt>
      <trkpt lat="46.53387" lon="5.35861">
        <ele>216</ele>
        <time>2022-07-16T08:11:19Z</time>
      </trkpt>
      <trkpt lat="46.53369" lon="5.3586">
        <ele>215.4</ele>
        <time>2022-07-16T08:11:21Z</time>
      </trkpt>
      <trkpt lat="46.53351" lon="5.35863">
        <ele>214.8</ele>
        <time>2022-07-16T08:11:23Z</time>
      </trkpt>
      <trkpt lat="46.53322" lon="5.35872">
        <ele>213.6</ele>
        <time>2022-07-16T08:11:26Z</time>
      </trkpt>
      <trkpt lat="46.53283" lon="5.35889">
        <ele>212.4</ele>
        <time>2022-07-16T08:11:30Z</time>
      </trkpt>
      <trkpt lat="46.53256" lon="5.35901">
        <ele>211.6</ele>
        <time>2022-07-16T08:11:33Z</time>
      </trkpt>
      <trkpt lat="46.53238" lon="5.35908">
        <ele>211.2</ele>
        <time>2022-07-16T08:11:35Z</time>
      </trkpt>
      <trkpt lat="46.53196" lon="5.35925">
        <ele>211</ele>
        <time>2022-07-16T08:11:40Z</time>
      </trkpt>
      <trkpt lat="46.53183" lon="5.35937">
        <ele>211</ele>
        <time>2022-07-16T08:11:42Z</time>
      </trkpt>
      <trkpt lat="46.53178" lon="5.35945">
        <ele>211</ele>
        <time>2022-07-16T08:11:43Z</time>
      </trkpt>
      <trkpt lat="46.53147" lon="5.36005">
        <ele>211.2</ele>
        <time>2022-07-16T08:11:49Z</time>
      </trkpt>
      <trkpt lat="46.53113" lon="5.3606">
        <ele>210</ele>
        <time>2022-07-16T08:11:55Z</time>
      </trkpt>
      <trkpt lat="46.53094" lon="5.361">
        <ele>209.2</ele>
        <time>2022-07-16T08:11:59Z</time>
      </trkpt>
      <trkpt lat="46.53088" lon="5.36109">
        <ele>209</ele>
        <time>2022-07-16T08:12:00Z</time>
      </trkpt>
      <trkpt lat="46.5308" lon="5.3612">
        <ele>208.8</ele>
        <time>2022-07-16T08:12:01Z</time>
      </trkpt>
      <trkpt lat="46.53064" lon="5.36135">
        <ele>208.4</ele>
        <time>2022-07-16T08:12:03Z</time>
      </trkpt>
      <trkpt lat="46.53057" lon="5.36139">
        <ele>208.4</ele>
        <time>2022-07-16T08:12:04Z</time>
      </trkpt>
      <trkpt lat="46.53046" lon="5.36143">
        <ele>208</ele>
        <time>2022-07-16T08:12:05Z</time>
      </trkpt>
      <trkpt lat="46.53037" lon="5.36145">
        <ele>207.8</ele>
        <time>2022-07-16T08:12:06Z</time>
      </trkpt>
      <trkpt lat="46.53027" lon="5.36144">
        <ele>207</ele>
        <time>2022-07-16T08:12:07Z</time>
      </trkpt>
      <trkpt lat="46.53018" lon="5.36143">
        <ele>206.6</ele>
        <time>2022-07-16T08:12:08Z</time>
      </trkpt>
      <trkpt lat="46.53001" lon="5.36141">
        <ele>205.4</ele>
        <time>2022-07-16T08:12:10Z</time>
      </trkpt>
      <trkpt lat="46.52992" lon="5.36138">
        <ele>205.2</ele>
        <time>2022-07-16T08:12:11Z</time>
      </trkpt>
      <trkpt lat="46.52983" lon="5.36133">
        <ele>205</ele>
        <time>2022-07-16T08:12:12Z</time>
      </trkpt>
      <trkpt lat="46.52975" lon="5.36125">
        <ele>205</ele>
        <time>2022-07-16T08:12:13Z</time>
      </trkpt>
      <trkpt lat="46.52962" lon="5.36103">
        <ele>204.4</ele>
        <time>2022-07-16T08:12:15Z</time>
      </trkpt>
      <trkpt lat="46.52956" lon="5.36092">
        <ele>204</ele>
        <time>2022-07-16T08:12:16Z</time>
      </trkpt>
      <trkpt lat="46.52938" lon="5.36078">
        <ele>203.4</ele>
        <time>2022-07-16T08:12:18Z</time>
      </trkpt>
      <trkpt lat="46.52928" lon="5.36074">
        <ele>202.4</ele>
        <time>2022-07-16T08:12:19Z</time>
      </trkpt>
      <trkpt lat="46.52918" lon="5.36072">
        <ele>202.2</ele>
        <time>2022-07-16T08:12:20Z</time>
      </trkpt>
      <trkpt lat="46.52899" lon="5.36068">
        <ele>201.2</ele>
        <time>2022-07-16T08:12:22Z</time>
      </trkpt>
      <trkpt lat="46.5287" lon="5.36065">
        <ele>199.8</ele>
        <time>2022-07-16T08:12:25Z</time>
      </trkpt>
      <trkpt lat="46.52864" lon="5.36064">
        <ele>199.4</ele>
        <time>2022-07-16T08:12:26Z</time>
      </trkpt>
      <trkpt lat="46.52842" lon="5.36061">
        <ele>199</ele>
        <time>2022-07-16T08:12:30Z</time>
      </trkpt>
      <trkpt lat="46.52837" lon="5.36059">
        <ele>198.8</ele>
        <time>2022-07-16T08:12:32Z</time>
      </trkpt>
      <trkpt lat="46.52832" lon="5.36058">
        <ele>198.8</ele>
        <time>2022-07-16T08:12:34Z</time>
      </trkpt>
      <trkpt lat="46.52818" lon="5.36059">
        <ele>198.6</ele>
        <time>2022-07-16T08:12:37Z</time>
      </trkpt>
      <trkpt lat="46.52811" lon="5.36057">
        <ele>198.6</ele>
        <time>2022-07-16T08:12:38Z</time>
      </trkpt>
      <trkpt lat="46.52788" lon="5.36049">
        <ele>198.2</ele>
        <time>2022-07-16T08:12:41Z</time>
      </trkpt>
      <trkpt lat="46.5278" lon="5.36046">
        <ele>197.6</ele>
        <time>2022-07-16T08:12:42Z</time>
      </trkpt>
      <trkpt lat="46.52771" lon="5.36046">
        <ele>197.2</ele>
        <time>2022-07-16T08:12:43Z</time>
      </trkpt>
      <trkpt lat="46.52756" lon="5.36055">
        <ele>196.4</ele>
        <time>2022-07-16T08:12:45Z</time>
      </trkpt>
      <trkpt lat="46.52743" lon="5.36088">
        <ele>196</ele>
        <time>2022-07-16T08:12:48Z</time>
      </trkpt>
      <trkpt lat="46.52732" lon="5.36122">
        <ele>195.2</ele>
        <time>2022-07-16T08:12:51Z</time>
      </trkpt>
      <trkpt lat="46.52715" lon="5.36178">
        <ele>194.4</ele>
        <time>2022-07-16T08:12:56Z</time>
      </trkpt>
      <trkpt lat="46.5271" lon="5.36189">
        <ele>194.4</ele>
        <time>2022-07-16T08:12:57Z</time>
      </trkpt>
      <trkpt lat="46.527" lon="5.36209">
        <ele>194.4</ele>
        <time>2022-07-16T08:12:59Z</time>
      </trkpt>
      <trkpt lat="46.52694" lon="5.36217">
        <ele>194.4</ele>
        <time>2022-07-16T08:13:00Z</time>
      </trkpt>
      <trkpt lat="46.52659" lon="5.36247">
        <ele>194.2</ele>
        <time>2022-07-16T08:13:05Z</time>
      </trkpt>
      <trkpt lat="46.52607" lon="5.36279">
        <ele>193.8</ele>
        <time>2022-07-16T08:13:12Z</time>
      </trkpt>
      <trkpt lat="46.52601" lon="5.36285">
        <ele>193.8</ele>
        <time>2022-07-16T08:13:13Z</time>
      </trkpt>
      <trkpt lat="46.52576" lon="5.36312">
        <ele>193.6</ele>
        <time>2022-07-16T08:13:17Z</time>
      </trkpt>
      <trkpt lat="46.5257" lon="5.36317">
        <ele>193.8</ele>
        <time>2022-07-16T08:13:18Z</time>
      </trkpt>
      <trkpt lat="46.52563" lon="5.36319">
        <ele>194</ele>
        <time>2022-07-16T08:13:19Z</time>
      </trkpt>
      <trkpt lat="46.52549" lon="5.36317">
        <ele>194.2</ele>
        <time>2022-07-16T08:13:21Z</time>
      </trkpt>
      <trkpt lat="46.52542" lon="5.36317">
        <ele>194.2</ele>
        <time>2022-07-16T08:13:22Z</time>
      </trkpt>
      <trkpt lat="46.52527" lon="5.36322">
        <ele>194.2</ele>
        <time>2022-07-16T08:13:24Z</time>
      </trkpt>
      <trkpt lat="46.52512" lon="5.36335">
        <ele>194.2</ele>
        <time>2022-07-16T08:13:26Z</time>
      </trkpt>
      <trkpt lat="46.52507" lon="5.36343">
        <ele>194.2</ele>
        <time>2022-07-16T08:13:27Z</time>
      </trkpt>
      <trkpt lat="46.52503" lon="5.36352">
        <ele>194.2</ele>
        <time>2022-07-16T08:13:28Z</time>
      </trkpt>
      <trkpt lat="46.52497" lon="5.36372">
        <ele>194.2</ele>
        <time>2022-07-16T08:13:30Z</time>
      </trkpt>
      <trkpt lat="46.52487" lon="5.36431">
        <ele>193.8</ele>
        <time>2022-07-16T08:13:36Z</time>
      </trkpt>
      <trkpt lat="46.52478" lon="5.36517">
        <ele>194.6</ele>
        <time>2022-07-16T08:13:45Z</time>
      </trkpt>
      <trkpt lat="46.52478" lon="5.36527">
        <ele>194.8</ele>
        <time>2022-07-16T08:13:46Z</time>
      </trkpt>
      <trkpt lat="46.52474" lon="5.36587">
        <ele>195</ele>
        <time>2022-07-16T08:13:53Z</time>
      </trkpt>
      <trkpt lat="46.52471" lon="5.36644">
        <ele>195.2</ele>
        <time>2022-07-16T08:13:59Z</time>
      </trkpt>
      <trkpt lat="46.52469" lon="5.36691">
        <ele>195.6</ele>
        <time>2022-07-16T08:14:04Z</time>
      </trkpt>
      <trkpt lat="46.52467" lon="5.36756">
        <ele>196.4</ele>
        <time>2022-07-16T08:14:11Z</time>
      </trkpt>
      <trkpt lat="46.52466" lon="5.36766">
        <ele>196.6</ele>
        <time>2022-07-16T08:14:12Z</time>
      </trkpt>
      <trkpt lat="46.52464" lon="5.36814">
        <ele>197</ele>
        <time>2022-07-16T08:14:17Z</time>
      </trkpt>
      <trkpt lat="46.52455" lon="5.36882">
        <ele>197</ele>
        <time>2022-07-16T08:14:24Z</time>
      </trkpt>
      <trkpt lat="46.52443" lon="5.3696">
        <ele>196.6</ele>
        <time>2022-07-16T08:14:32Z</time>
      </trkpt>
      <trkpt lat="46.52441" lon="5.36969">
        <ele>196.4</ele>
        <time>2022-07-16T08:14:33Z</time>
      </trkpt>
      <trkpt lat="46.5243" lon="5.37006">
        <ele>196.4</ele>
        <time>2022-07-16T08:14:38Z</time>
      </trkpt>
      <trkpt lat="46.52421" lon="5.37021">
        <ele>196.6</ele>
        <time>2022-07-16T08:14:42Z</time>
      </trkpt>
      <trkpt lat="46.5242" lon="5.37023">
        <ele>197.6</ele>
        <time>2022-07-16T08:14:45Z</time>
      </trkpt>
      <trkpt lat="46.5242" lon="5.37023">
        <ele>197.6</ele>
        <time>2022-07-16T08:14:46Z</time>
      </trkpt>
      <trkpt lat="46.52418" lon="5.37028">
        <ele>197.6</ele>
        <time>2022-07-16T08:15:24Z</time>
      </trkpt>
      <trkpt lat="46.52413" lon="5.37036">
        <ele>197.6</ele>
        <time>2022-07-16T08:15:26Z</time>
      </trkpt>
      <trkpt lat="46.52398" lon="5.37061">
        <ele>197.6</ele>
        <time>2022-07-16T08:15:31Z</time>
      </trkpt>
      <trkpt lat="46.52371" lon="5.37092">
        <ele>197.4</ele>
        <time>2022-07-16T08:15:37Z</time>
      </trkpt>
      <trkpt lat="46.52342" lon="5.37123">
        <ele>198.2</ele>
        <time>2022-07-16T08:15:44Z</time>
      </trkpt>
      <trkpt lat="46.52338" lon="5.37127">
        <ele>198.8</ele>
        <time>2022-07-16T08:15:45Z</time>
      </trkpt>
      <trkpt lat="46.52326" lon="5.37139">
        <ele>199.6</ele>
        <time>2022-07-16T08:15:48Z</time>
      </trkpt>
      <trkpt lat="46.52318" lon="5.37148">
        <ele>199.8</ele>
        <time>2022-07-16T08:15:50Z</time>
      </trkpt>
      <trkpt lat="46.52292" lon="5.37176">
        <ele>200.8</ele>
        <time>2022-07-16T08:15:57Z</time>
      </trkpt>
      <trkpt lat="46.52271" lon="5.37199">
        <ele>202.4</ele>
        <time>2022-07-16T08:16:03Z</time>
      </trkpt>
      <trkpt lat="46.52253" lon="5.37218">
        <ele>203.2</ele>
        <time>2022-07-16T08:16:08Z</time>
      </trkpt>
      <trkpt lat="46.52245" lon="5.37226">
        <ele>203.4</ele>
        <time>2022-07-16T08:16:10Z</time>
      </trkpt>
      <trkpt lat="46.52222" lon="5.37246">
        <ele>204.6</ele>
        <time>2022-07-16T08:16:16Z</time>
      </trkpt>
      <trkpt lat="46.52214" lon="5.37252">
        <ele>205.4</ele>
        <time>2022-07-16T08:16:18Z</time>
      </trkpt>
      <trkpt lat="46.5221" lon="5.37256">
        <ele>205.6</ele>
        <time>2022-07-16T08:16:19Z</time>
      </trkpt>
      <trkpt lat="46.52186" lon="5.37274">
        <ele>206.6</ele>
        <time>2022-07-16T08:16:25Z</time>
      </trkpt>
      <trkpt lat="46.52181" lon="5.37277">
        <ele>206.8</ele>
        <time>2022-07-16T08:16:26Z</time>
      </trkpt>
      <trkpt lat="46.52173" lon="5.37283">
        <ele>207.2</ele>
        <time>2022-07-16T08:16:28Z</time>
      </trkpt>
      <trkpt lat="46.52166" lon="5.37288">
        <ele>207.8</ele>
        <time>2022-07-16T08:16:30Z</time>
      </trkpt>
      <trkpt lat="46.52153" lon="5.37297">
        <ele>208.2</ele>
        <time>2022-07-16T08:16:33Z</time>
      </trkpt>
      <trkpt lat="46.52142" lon="5.37305">
        <ele>208.8</ele>
        <time>2022-07-16T08:16:36Z</time>
      </trkpt>
      <trkpt lat="46.52138" lon="5.37308">
        <ele>209</ele>
        <time>2022-07-16T08:16:37Z</time>
      </trkpt>
      <trkpt lat="46.52127" lon="5.37316">
        <ele>210</ele>
        <time>2022-07-16T08:16:40Z</time>
      </trkpt>
      <trkpt lat="46.52108" lon="5.37329">
        <ele>211.2</ele>
        <time>2022-07-16T08:16:45Z</time>
      </trkpt>
      <trkpt lat="46.52102" lon="5.37334">
        <ele>211.8</ele>
        <time>2022-07-16T08:16:47Z</time>
      </trkpt>
      <trkpt lat="46.52095" lon="5.3734">
        <ele>212.2</ele>
        <time>2022-07-16T08:16:49Z</time>
      </trkpt>
      <trkpt lat="46.52086" lon="5.37349">
        <ele>212.8</ele>
        <time>2022-07-16T08:16:52Z</time>
      </trkpt>
      <trkpt lat="46.5208" lon="5.37364">
        <ele>213.8</ele>
        <time>2022-07-16T08:16:55Z</time>
      </trkpt>
      <trkpt lat="46.52078" lon="5.3737">
        <ele>214.2</ele>
        <time>2022-07-16T08:16:56Z</time>
      </trkpt>
      <trkpt lat="46.5207" lon="5.3741">
        <ele>215</ele>
        <time>2022-07-16T08:17:02Z</time>
      </trkpt>
      <trkpt lat="46.52058" lon="5.37464">
        <ele>215.4</ele>
        <time>2022-07-16T08:17:09Z</time>
      </trkpt>
      <trkpt lat="46.52048" lon="5.37507">
        <ele>215.2</ele>
        <time>2022-07-16T08:17:14Z</time>
      </trkpt>
      <trkpt lat="46.52033" lon="5.37572">
        <ele>215.2</ele>
        <time>2022-07-16T08:17:21Z</time>
      </trkpt>
      <trkpt lat="46.52025" lon="5.37608">
        <ele>215.4</ele>
        <time>2022-07-16T08:17:25Z</time>
      </trkpt>
      <trkpt lat="46.52017" lon="5.37623">
        <ele>215.4</ele>
        <time>2022-07-16T08:17:27Z</time>
      </trkpt>
      <trkpt lat="46.52005" lon="5.37628">
        <ele>215.6</ele>
        <time>2022-07-16T08:17:29Z</time>
      </trkpt>
      <trkpt lat="46.51998" lon="5.37628">
        <ele>215.6</ele>
        <time>2022-07-16T08:17:30Z</time>
      </trkpt>
      <trkpt lat="46.51943" lon="5.37638">
        <ele>215.8</ele>
        <time>2022-07-16T08:17:38Z</time>
      </trkpt>
      <trkpt lat="46.51936" lon="5.37639">
        <ele>215.8</ele>
        <time>2022-07-16T08:17:39Z</time>
      </trkpt>
      <trkpt lat="46.51875" lon="5.37646">
        <ele>215.8</ele>
        <time>2022-07-16T08:17:47Z</time>
      </trkpt>
      <trkpt lat="46.51868" lon="5.37646">
        <ele>216</ele>
        <time>2022-07-16T08:17:48Z</time>
      </trkpt>
      <trkpt lat="46.51817" lon="5.37649">
        <ele>216.6</ele>
        <time>2022-07-16T08:17:55Z</time>
      </trkpt>
      <trkpt lat="46.51775" lon="5.37647">
        <ele>216</ele>
        <time>2022-07-16T08:18:00Z</time>
      </trkpt>
      <trkpt lat="46.5172" lon="5.37631">
        <ele>215</ele>
        <time>2022-07-16T08:18:06Z</time>
      </trkpt>
      <trkpt lat="46.51711" lon="5.37629">
        <ele>214.6</ele>
        <time>2022-07-16T08:18:07Z</time>
      </trkpt>
      <trkpt lat="46.51693" lon="5.37631">
        <ele>213.8</ele>
        <time>2022-07-16T08:18:09Z</time>
      </trkpt>
      <trkpt lat="46.51668" lon="5.37649">
        <ele>212.8</ele>
        <time>2022-07-16T08:18:12Z</time>
      </trkpt>
      <trkpt lat="46.5166" lon="5.37654">
        <ele>212.6</ele>
        <time>2022-07-16T08:18:13Z</time>
      </trkpt>
      <trkpt lat="46.51611" lon="5.37675">
        <ele>212.4</ele>
        <time>2022-07-16T08:18:19Z</time>
      </trkpt>
      <trkpt lat="46.51573" lon="5.37681">
        <ele>212.6</ele>
        <time>2022-07-16T08:18:24Z</time>
      </trkpt>
      <trkpt lat="46.51532" lon="5.3769">
        <ele>213.6</ele>
        <time>2022-07-16T08:18:30Z</time>
      </trkpt>
      <trkpt lat="46.51519" lon="5.37692">
        <ele>213.8</ele>
        <time>2022-07-16T08:18:32Z</time>
      </trkpt>
      <trkpt lat="46.51494" lon="5.37698">
        <ele>214.4</ele>
        <time>2022-07-16T08:18:36Z</time>
      </trkpt>
      <trkpt lat="46.51481" lon="5.37701">
        <ele>214.8</ele>
        <time>2022-07-16T08:18:38Z</time>
      </trkpt>
      <trkpt lat="46.5145" lon="5.37708">
        <ele>216</ele>
        <time>2022-07-16T08:18:43Z</time>
      </trkpt>
      <trkpt lat="46.51432" lon="5.37713">
        <ele>216.4</ele>
        <time>2022-07-16T08:18:46Z</time>
      </trkpt>
      <trkpt lat="46.51391" lon="5.37727">
        <ele>217.4</ele>
        <time>2022-07-16T08:18:53Z</time>
      </trkpt>
      <trkpt lat="46.51372" lon="5.37736">
        <ele>217.8</ele>
        <time>2022-07-16T08:18:56Z</time>
      </trkpt>
      <trkpt lat="46.51343" lon="5.37751">
        <ele>218.4</ele>
        <time>2022-07-16T08:19:01Z</time>
      </trkpt>
      <trkpt lat="46.51321" lon="5.37762">
        <ele>219.2</ele>
        <time>2022-07-16T08:19:05Z</time>
      </trkpt>
      <trkpt lat="46.51305" lon="5.3777">
        <ele>219.6</ele>
        <time>2022-07-16T08:19:08Z</time>
      </trkpt>
      <trkpt lat="46.51272" lon="5.37786">
        <ele>220.4</ele>
        <time>2022-07-16T08:19:14Z</time>
      </trkpt>
      <trkpt lat="46.51256" lon="5.37794">
        <ele>220.8</ele>
        <time>2022-07-16T08:19:17Z</time>
      </trkpt>
      <trkpt lat="46.51244" lon="5.37799">
        <ele>221.2</ele>
        <time>2022-07-16T08:19:19Z</time>
      </trkpt>
      <trkpt lat="46.51226" lon="5.37802">
        <ele>221.6</ele>
        <time>2022-07-16T08:19:22Z</time>
      </trkpt>
      <trkpt lat="46.51214" lon="5.37804">
        <ele>221.8</ele>
        <time>2022-07-16T08:19:24Z</time>
      </trkpt>
      <trkpt lat="46.5119" lon="5.37808">
        <ele>222.2</ele>
        <time>2022-07-16T08:19:28Z</time>
      </trkpt>
      <trkpt lat="46.51169" lon="5.37816">
        <ele>222.6</ele>
        <time>2022-07-16T08:19:32Z</time>
      </trkpt>
      <trkpt lat="46.51164" lon="5.37819">
        <ele>223</ele>
        <time>2022-07-16T08:19:33Z</time>
      </trkpt>
      <trkpt lat="46.51128" lon="5.37845">
        <ele>224</ele>
        <time>2022-07-16T08:19:40Z</time>
      </trkpt>
      <trkpt lat="46.51087" lon="5.37865">
        <ele>224.8</ele>
        <time>2022-07-16T08:19:48Z</time>
      </trkpt>
      <trkpt lat="46.51081" lon="5.37867">
        <ele>225</ele>
        <time>2022-07-16T08:19:49Z</time>
      </trkpt>
      <trkpt lat="46.5107" lon="5.37869">
        <ele>225.4</ele>
        <time>2022-07-16T08:19:51Z</time>
      </trkpt>
      <trkpt lat="46.51053" lon="5.37871">
        <ele>226.2</ele>
        <time>2022-07-16T08:19:54Z</time>
      </trkpt>
      <trkpt lat="46.51043" lon="5.37872">
        <ele>226.4</ele>
        <time>2022-07-16T08:19:56Z</time>
      </trkpt>
      <trkpt lat="46.51017" lon="5.37875">
        <ele>227.2</ele>
        <time>2022-07-16T08:20:01Z</time>
      </trkpt>
      <trkpt lat="46.50984" lon="5.37881">
        <ele>228.4</ele>
        <time>2022-07-16T08:20:07Z</time>
      </trkpt>
      <trkpt lat="46.50927" lon="5.37897">
        <ele>229.2</ele>
        <time>2022-07-16T08:20:17Z</time>
      </trkpt>
      <trkpt lat="46.50914" lon="5.37901">
        <ele>229.4</ele>
        <time>2022-07-16T08:20:19Z</time>
      </trkpt>
      <trkpt lat="46.50894" lon="5.37903">
        <ele>229.4</ele>
        <time>2022-07-16T08:20:22Z</time>
      </trkpt>
      <trkpt lat="46.50847" lon="5.37899">
        <ele>229.4</ele>
        <time>2022-07-16T08:20:29Z</time>
      </trkpt>
      <trkpt lat="46.50827" lon="5.37896">
        <ele>229</ele>
        <time>2022-07-16T08:20:32Z</time>
      </trkpt>
      <trkpt lat="46.50814" lon="5.37889">
        <ele>229.2</ele>
        <time>2022-07-16T08:20:34Z</time>
      </trkpt>
      <trkpt lat="46.50802" lon="5.37878">
        <ele>229.2</ele>
        <time>2022-07-16T08:20:36Z</time>
      </trkpt>
      <trkpt lat="46.50793" lon="5.37866">
        <ele>229</ele>
        <time>2022-07-16T08:20:38Z</time>
      </trkpt>
      <trkpt lat="46.50761" lon="5.37813">
        <ele>228.8</ele>
        <time>2022-07-16T08:20:45Z</time>
      </trkpt>
      <trkpt lat="46.5075" lon="5.37773">
        <ele>228.6</ele>
        <time>2022-07-16T08:20:49Z</time>
      </trkpt>
      <trkpt lat="46.50749" lon="5.37762">
        <ele>228.4</ele>
        <time>2022-07-16T08:20:50Z</time>
      </trkpt>
      <trkpt lat="46.50743" lon="5.37696">
        <ele>227.2</ele>
        <time>2022-07-16T08:20:56Z</time>
      </trkpt>
      <trkpt lat="46.50743" lon="5.37684">
        <ele>227.2</ele>
        <time>2022-07-16T08:20:57Z</time>
      </trkpt>
      <trkpt lat="46.50739" lon="5.37634">
        <ele>226.2</ele>
        <time>2022-07-16T08:21:01Z</time>
      </trkpt>
      <trkpt lat="46.50736" lon="5.37621">
        <ele>226</ele>
        <time>2022-07-16T08:21:02Z</time>
      </trkpt>
      <trkpt lat="46.50732" lon="5.37609">
        <ele>225.6</ele>
        <time>2022-07-16T08:21:03Z</time>
      </trkpt>
      <trkpt lat="46.50719" lon="5.37588">
        <ele>225</ele>
        <time>2022-07-16T08:21:05Z</time>
      </trkpt>
      <trkpt lat="46.50703" lon="5.37568">
        <ele>224</ele>
        <time>2022-07-16T08:21:08Z</time>
      </trkpt>
      <trkpt lat="46.50699" lon="5.37565">
        <ele>223.8</ele>
        <time>2022-07-16T08:21:09Z</time>
      </trkpt>
      <trkpt lat="46.5069" lon="5.37564">
        <ele>223</ele>
        <time>2022-07-16T08:21:11Z</time>
      </trkpt>
      <trkpt lat="46.50686" lon="5.37568">
        <ele>222.6</ele>
        <time>2022-07-16T08:21:12Z</time>
      </trkpt>
      <trkpt lat="46.50677" lon="5.37579">
        <ele>222.6</ele>
        <time>2022-07-16T08:21:14Z</time>
      </trkpt>
      <trkpt lat="46.50664" lon="5.37599">
        <ele>222.4</ele>
        <time>2022-07-16T08:21:17Z</time>
      </trkpt>
      <trkpt lat="46.50655" lon="5.37614">
        <ele>222.4</ele>
        <time>2022-07-16T08:21:19Z</time>
      </trkpt>
      <trkpt lat="46.50616" lon="5.37673">
        <ele>222.6</ele>
        <time>2022-07-16T08:21:27Z</time>
      </trkpt>
      <trkpt lat="46.50585" lon="5.3772">
        <ele>223.6</ele>
        <time>2022-07-16T08:21:34Z</time>
      </trkpt>
      <trkpt lat="46.50582" lon="5.37726">
        <ele>223.8</ele>
        <time>2022-07-16T08:21:35Z</time>
      </trkpt>
      <trkpt lat="46.50559" lon="5.37759">
        <ele>224.8</ele>
        <time>2022-07-16T08:21:41Z</time>
      </trkpt>
      <trkpt lat="46.50555" lon="5.37764">
        <ele>225.2</ele>
        <time>2022-07-16T08:21:42Z</time>
      </trkpt>
      <trkpt lat="46.50548" lon="5.37775">
        <ele>225.8</ele>
        <time>2022-07-16T08:21:44Z</time>
      </trkpt>
      <trkpt lat="46.50532" lon="5.378">
        <ele>227</ele>
        <time>2022-07-16T08:21:49Z</time>
      </trkpt>
      <trkpt lat="46.50524" lon="5.3781">
        <ele>227.2</ele>
        <time>2022-07-16T08:21:51Z</time>
      </trkpt>
      <trkpt lat="46.50514" lon="5.37826">
        <ele>228.2</ele>
        <time>2022-07-16T08:21:54Z</time>
      </trkpt>
      <trkpt lat="46.50498" lon="5.37852">
        <ele>229.4</ele>
        <time>2022-07-16T08:21:59Z</time>
      </trkpt>
      <trkpt lat="46.50481" lon="5.37876">
        <ele>230.4</ele>
        <time>2022-07-16T08:22:04Z</time>
      </trkpt>
      <trkpt lat="46.50464" lon="5.37901">
        <ele>231.6</ele>
        <time>2022-07-16T08:22:09Z</time>
      </trkpt>
      <trkpt lat="46.50461" lon="5.37906">
        <ele>231.8</ele>
        <time>2022-07-16T08:22:10Z</time>
      </trkpt>
      <trkpt lat="46.50451" lon="5.37922">
        <ele>232</ele>
        <time>2022-07-16T08:22:13Z</time>
      </trkpt>
      <trkpt lat="46.50442" lon="5.37937">
        <ele>232.4</ele>
        <time>2022-07-16T08:22:16Z</time>
      </trkpt>
      <trkpt lat="46.50435" lon="5.37947">
        <ele>232.8</ele>
        <time>2022-07-16T08:22:18Z</time>
      </trkpt>
      <trkpt lat="46.50422" lon="5.37968">
        <ele>233.6</ele>
        <time>2022-07-16T08:22:22Z</time>
      </trkpt>
      <trkpt lat="46.50419" lon="5.37973">
        <ele>233.8</ele>
        <time>2022-07-16T08:22:23Z</time>
      </trkpt>
      <trkpt lat="46.50416" lon="5.37978">
        <ele>234</ele>
        <time>2022-07-16T08:22:24Z</time>
      </trkpt>
      <trkpt lat="46.50401" lon="5.37998">
        <ele>234.8</ele>
        <time>2022-07-16T08:22:28Z</time>
      </trkpt>
      <trkpt lat="46.50398" lon="5.38003">
        <ele>235</ele>
        <time>2022-07-16T08:22:29Z</time>
      </trkpt>
      <trkpt lat="46.50388" lon="5.38018">
        <ele>236</ele>
        <time>2022-07-16T08:22:32Z</time>
      </trkpt>
      <trkpt lat="46.5038" lon="5.38027">
        <ele>236.6</ele>
        <time>2022-07-16T08:22:34Z</time>
      </trkpt>
      <trkpt lat="46.50375" lon="5.38029">
        <ele>236.8</ele>
        <time>2022-07-16T08:22:35Z</time>
      </trkpt>
      <trkpt lat="46.50371" lon="5.38028">
        <ele>237.2</ele>
        <time>2022-07-16T08:22:36Z</time>
      </trkpt>
      <trkpt lat="46.50367" lon="5.38023">
        <ele>237.2</ele>
        <time>2022-07-16T08:22:37Z</time>
      </trkpt>
      <trkpt lat="46.50363" lon="5.38011">
        <ele>237.6</ele>
        <time>2022-07-16T08:22:39Z</time>
      </trkpt>
      <trkpt lat="46.50363" lon="5.38004">
        <ele>237.6</ele>
        <time>2022-07-16T08:22:40Z</time>
      </trkpt>
      <trkpt lat="46.50363" lon="5.37983">
        <ele>238.2</ele>
        <time>2022-07-16T08:22:43Z</time>
      </trkpt>
      <trkpt lat="46.50363" lon="5.37948">
        <ele>239.2</ele>
        <time>2022-07-16T08:22:48Z</time>
      </trkpt>
      <trkpt lat="46.50362" lon="5.3794">
        <ele>239.4</ele>
        <time>2022-07-16T08:22:49Z</time>
      </trkpt>
      <trkpt lat="46.50358" lon="5.37925">
        <ele>239.6</ele>
        <time>2022-07-16T08:22:51Z</time>
      </trkpt>
      <trkpt lat="46.50353" lon="5.37909">
        <ele>239.8</ele>
        <time>2022-07-16T08:22:53Z</time>
      </trkpt>
      <trkpt lat="46.5035" lon="5.37901">
        <ele>239.8</ele>
        <time>2022-07-16T08:22:54Z</time>
      </trkpt>
      <trkpt lat="46.50341" lon="5.37887">
        <ele>239.6</ele>
        <time>2022-07-16T08:22:56Z</time>
      </trkpt>
      <trkpt lat="46.50335" lon="5.37881">
        <ele>239.6</ele>
        <time>2022-07-16T08:22:57Z</time>
      </trkpt>
      <trkpt lat="46.50286" lon="5.37832">
        <ele>239.4</ele>
        <time>2022-07-16T08:23:06Z</time>
      </trkpt>
      <trkpt lat="46.50244" lon="5.37792">
        <ele>239.6</ele>
        <time>2022-07-16T08:23:13Z</time>
      </trkpt>
      <trkpt lat="46.50203" lon="5.37762">
        <ele>239.2</ele>
        <time>2022-07-16T08:23:19Z</time>
      </trkpt>
      <trkpt lat="46.50188" lon="5.37755">
        <ele>238.8</ele>
        <time>2022-07-16T08:23:21Z</time>
      </trkpt>
      <trkpt lat="46.50173" lon="5.3775">
        <ele>238.2</ele>
        <time>2022-07-16T08:23:23Z</time>
      </trkpt>
      <trkpt lat="46.50167" lon="5.37746">
        <ele>238.2</ele>
        <time>2022-07-16T08:23:24Z</time>
      </trkpt>
      <trkpt lat="46.50164" lon="5.37736">
        <ele>238</ele>
        <time>2022-07-16T08:23:25Z</time>
      </trkpt>
      <trkpt lat="46.5016" lon="5.37726">
        <ele>238</ele>
        <time>2022-07-16T08:23:26Z</time>
      </trkpt>
      <trkpt lat="46.50153" lon="5.37702">
        <ele>237.8</ele>
        <time>2022-07-16T08:23:28Z</time>
      </trkpt>
      <trkpt lat="46.5015" lon="5.3769">
        <ele>237.8</ele>
        <time>2022-07-16T08:23:29Z</time>
      </trkpt>
      <trkpt lat="46.50148" lon="5.37678">
        <ele>237.4</ele>
        <time>2022-07-16T08:23:30Z</time>
      </trkpt>
      <trkpt lat="46.50143" lon="5.37653">
        <ele>236.4</ele>
        <time>2022-07-16T08:23:32Z</time>
      </trkpt>
      <trkpt lat="46.5014" lon="5.37639">
        <ele>236.2</ele>
        <time>2022-07-16T08:23:33Z</time>
      </trkpt>
      <trkpt lat="46.50138" lon="5.37612">
        <ele>235.2</ele>
        <time>2022-07-16T08:23:35Z</time>
      </trkpt>
      <trkpt lat="46.50138" lon="5.37598">
        <ele>234.4</ele>
        <time>2022-07-16T08:23:36Z</time>
      </trkpt>
      <trkpt lat="46.50137" lon="5.37585">
        <ele>233.8</ele>
        <time>2022-07-16T08:23:37Z</time>
      </trkpt>
      <trkpt lat="46.50132" lon="5.37536">
        <ele>233.4</ele>
        <time>2022-07-16T08:23:41Z</time>
      </trkpt>
      <trkpt lat="46.50129" lon="5.37525">
        <ele>233.4</ele>
        <time>2022-07-16T08:23:42Z</time>
      </trkpt>
      <trkpt lat="46.50125" lon="5.37514">
        <ele>233.4</ele>
        <time>2022-07-16T08:23:43Z</time>
      </trkpt>
      <trkpt lat="46.5011" lon="5.37484">
        <ele>233.4</ele>
        <time>2022-07-16T08:23:46Z</time>
      </trkpt>
      <trkpt lat="46.50084" lon="5.37434">
        <ele>233.4</ele>
        <time>2022-07-16T08:23:51Z</time>
      </trkpt>
      <trkpt lat="46.50077" lon="5.37411">
        <ele>233.4</ele>
        <time>2022-07-16T08:23:53Z</time>
      </trkpt>
      <trkpt lat="46.50063" lon="5.37338">
        <ele>233</ele>
        <time>2022-07-16T08:23:59Z</time>
      </trkpt>
      <trkpt lat="46.50061" lon="5.37326">
        <ele>232.6</ele>
        <time>2022-07-16T08:24:00Z</time>
      </trkpt>
      <trkpt lat="46.50047" lon="5.37247">
        <ele>231.6</ele>
        <time>2022-07-16T08:24:06Z</time>
      </trkpt>
      <trkpt lat="46.50044" lon="5.37234">
        <ele>231</ele>
        <time>2022-07-16T08:24:07Z</time>
      </trkpt>
      <trkpt lat="46.50029" lon="5.37155">
        <ele>230.2</ele>
        <time>2022-07-16T08:24:13Z</time>
      </trkpt>
      <trkpt lat="46.50027" lon="5.37142">
        <ele>230</ele>
        <time>2022-07-16T08:24:14Z</time>
      </trkpt>
      <trkpt lat="46.50022" lon="5.37115">
        <ele>229</ele>
        <time>2022-07-16T08:24:16Z</time>
      </trkpt>
      <trkpt lat="46.5002" lon="5.37101">
        <ele>228.8</ele>
        <time>2022-07-16T08:24:17Z</time>
      </trkpt>
      <trkpt lat="46.50009" lon="5.37047">
        <ele>227.4</ele>
        <time>2022-07-16T08:24:21Z</time>
      </trkpt>
      <trkpt lat="46.49994" lon="5.36965">
        <ele>226.4</ele>
        <time>2022-07-16T08:24:27Z</time>
      </trkpt>
      <trkpt lat="46.49991" lon="5.36951">
        <ele>226.2</ele>
        <time>2022-07-16T08:24:28Z</time>
      </trkpt>
      <trkpt lat="46.49975" lon="5.36868">
        <ele>225</ele>
        <time>2022-07-16T08:24:34Z</time>
      </trkpt>
      <trkpt lat="46.4997" lon="5.3684">
        <ele>224.6</ele>
        <time>2022-07-16T08:24:36Z</time>
      </trkpt>
      <trkpt lat="46.49965" lon="5.36812">
        <ele>223.8</ele>
        <time>2022-07-16T08:24:38Z</time>
      </trkpt>
      <trkpt lat="46.49958" lon="5.36771">
        <ele>222.6</ele>
        <time>2022-07-16T08:24:41Z</time>
      </trkpt>
      <trkpt lat="46.49952" lon="5.36744">
        <ele>222</ele>
        <time>2022-07-16T08:24:43Z</time>
      </trkpt>
      <trkpt lat="46.49947" lon="5.36718">
        <ele>221.4</ele>
        <time>2022-07-16T08:24:45Z</time>
      </trkpt>
      <trkpt lat="46.49938" lon="5.36668">
        <ele>220</ele>
        <time>2022-07-16T08:24:49Z</time>
      </trkpt>
      <trkpt lat="46.49934" lon="5.36647">
        <ele>219.6</ele>
        <time>2022-07-16T08:24:51Z</time>
      </trkpt>
      <trkpt lat="46.49929" lon="5.36633">
        <ele>219.4</ele>
        <time>2022-07-16T08:24:53Z</time>
      </trkpt>
      <trkpt lat="46.49924" lon="5.36624">
        <ele>219.4</ele>
        <time>2022-07-16T08:24:55Z</time>
      </trkpt>
      <trkpt lat="46.49921" lon="5.36618">
        <ele>219.2</ele>
        <time>2022-07-16T08:24:56Z</time>
      </trkpt>
      <trkpt lat="46.49916" lon="5.36602">
        <ele>219.4</ele>
        <time>2022-07-16T08:24:58Z</time>
      </trkpt>
      <trkpt lat="46.49909" lon="5.36584">
        <ele>219</ele>
        <time>2022-07-16T08:25:00Z</time>
      </trkpt>
      <trkpt lat="46.49904" lon="5.36575">
        <ele>219</ele>
        <time>2022-07-16T08:25:01Z</time>
      </trkpt>
      <trkpt lat="46.49887" lon="5.36547">
        <ele>218.8</ele>
        <time>2022-07-16T08:25:04Z</time>
      </trkpt>
      <trkpt lat="46.49868" lon="5.36518">
        <ele>218.4</ele>
        <time>2022-07-16T08:25:07Z</time>
      </trkpt>
      <trkpt lat="46.49848" lon="5.36488">
        <ele>217.8</ele>
        <time>2022-07-16T08:25:10Z</time>
      </trkpt>
      <trkpt lat="46.49823" lon="5.36445">
        <ele>216.6</ele>
        <time>2022-07-16T08:25:14Z</time>
      </trkpt>
      <trkpt lat="46.49812" lon="5.36421">
        <ele>216.2</ele>
        <time>2022-07-16T08:25:16Z</time>
      </trkpt>
      <trkpt lat="46.49802" lon="5.36397">
        <ele>215.6</ele>
        <time>2022-07-16T08:25:18Z</time>
      </trkpt>
      <trkpt lat="46.49772" lon="5.36325">
        <ele>214.8</ele>
        <time>2022-07-16T08:25:24Z</time>
      </trkpt>
      <trkpt lat="46.49767" lon="5.36313">
        <ele>214.4</ele>
        <time>2022-07-16T08:25:25Z</time>
      </trkpt>
      <trkpt lat="46.49751" lon="5.36276">
        <ele>213.2</ele>
        <time>2022-07-16T08:25:28Z</time>
      </trkpt>
      <trkpt lat="46.4973" lon="5.36226">
        <ele>211.8</ele>
        <time>2022-07-16T08:25:33Z</time>
      </trkpt>
      <trkpt lat="46.49724" lon="5.36215">
        <ele>211.4</ele>
        <time>2022-07-16T08:25:34Z</time>
      </trkpt>
      <trkpt lat="46.49706" lon="5.36182">
        <ele>210.4</ele>
        <time>2022-07-16T08:25:37Z</time>
      </trkpt>
      <trkpt lat="46.49681" lon="5.36141">
        <ele>209.8</ele>
        <time>2022-07-16T08:25:41Z</time>
      </trkpt>
      <trkpt lat="46.49663" lon="5.3611">
        <ele>209.6</ele>
        <time>2022-07-16T08:25:44Z</time>
      </trkpt>
      <trkpt lat="46.49655" lon="5.36086">
        <ele>209.4</ele>
        <time>2022-07-16T08:25:46Z</time>
      </trkpt>
      <trkpt lat="46.49652" lon="5.36074">
        <ele>209.4</ele>
        <time>2022-07-16T08:25:47Z</time>
      </trkpt>
      <trkpt lat="46.49647" lon="5.36036">
        <ele>209</ele>
        <time>2022-07-16T08:25:50Z</time>
      </trkpt>
      <trkpt lat="46.49643" lon="5.35952">
        <ele>208.6</ele>
        <time>2022-07-16T08:25:57Z</time>
      </trkpt>
      <trkpt lat="46.49638" lon="5.35871">
        <ele>209.2</ele>
        <time>2022-07-16T08:26:04Z</time>
      </trkpt>
      <trkpt lat="46.4964" lon="5.35848">
        <ele>209.4</ele>
        <time>2022-07-16T08:26:06Z</time>
      </trkpt>
      <trkpt lat="46.49644" lon="5.35821">
        <ele>209.6</ele>
        <time>2022-07-16T08:26:09Z</time>
      </trkpt>
      <trkpt lat="46.49646" lon="5.35813">
        <ele>209.8</ele>
        <time>2022-07-16T08:26:10Z</time>
      </trkpt>
      <trkpt lat="46.49658" lon="5.35783">
        <ele>210.6</ele>
        <time>2022-07-16T08:26:14Z</time>
      </trkpt>
      <trkpt lat="46.49664" lon="5.35768">
        <ele>211.4</ele>
        <time>2022-07-16T08:26:16Z</time>
      </trkpt>
      <trkpt lat="46.49671" lon="5.35755">
        <ele>211.8</ele>
        <time>2022-07-16T08:26:18Z</time>
      </trkpt>
      <trkpt lat="46.4968" lon="5.35734">
        <ele>212.8</ele>
        <time>2022-07-16T08:26:21Z</time>
      </trkpt>
      <trkpt lat="46.49688" lon="5.35714">
        <ele>213.4</ele>
        <time>2022-07-16T08:26:24Z</time>
      </trkpt>
      <trkpt lat="46.49691" lon="5.357">
        <ele>214</ele>
        <time>2022-07-16T08:26:26Z</time>
      </trkpt>
      <trkpt lat="46.497" lon="5.35666">
        <ele>215</ele>
        <time>2022-07-16T08:26:31Z</time>
      </trkpt>
      <trkpt lat="46.49701" lon="5.35659">
        <ele>215.4</ele>
        <time>2022-07-16T08:26:32Z</time>
      </trkpt>
      <trkpt lat="46.49703" lon="5.35647">
        <ele>215.8</ele>
        <time>2022-07-16T08:26:35Z</time>
      </trkpt>
      <trkpt lat="46.49703" lon="5.35644">
        <ele>216</ele>
        <time>2022-07-16T08:26:36Z</time>
      </trkpt>
      <trkpt lat="46.49704" lon="5.35631">
        <ele>216.4</ele>
        <time>2022-07-16T08:26:40Z</time>
      </trkpt>
      <trkpt lat="46.497" lon="5.3563">
        <ele>216.6</ele>
        <time>2022-07-16T08:26:42Z</time>
      </trkpt>
      <trkpt lat="46.49689" lon="5.35641">
        <ele>216.8</ele>
        <time>2022-07-16T08:26:45Z</time>
      </trkpt>
      <trkpt lat="46.49685" lon="5.35642">
        <ele>216.8</ele>
        <time>2022-07-16T08:26:46Z</time>
      </trkpt>
      <trkpt lat="46.4968" lon="5.35641">
        <ele>216.8</ele>
        <time>2022-07-16T08:26:47Z</time>
      </trkpt>
      <trkpt lat="46.49663" lon="5.35635">
        <ele>216.8</ele>
        <time>2022-07-16T08:26:50Z</time>
      </trkpt>
      <trkpt lat="46.49624" lon="5.35623">
        <ele>217</ele>
        <time>2022-07-16T08:26:57Z</time>
      </trkpt>
      <trkpt lat="46.49618" lon="5.35621">
        <ele>217.2</ele>
        <time>2022-07-16T08:26:58Z</time>
      </trkpt>
      <trkpt lat="46.49583" lon="5.3561">
        <ele>218</ele>
        <time>2022-07-16T08:27:04Z</time>
      </trkpt>
      <trkpt lat="46.49555" lon="5.356">
        <ele>218.2</ele>
        <time>2022-07-16T08:27:09Z</time>
      </trkpt>
      <trkpt lat="46.49532" lon="5.35591">
        <ele>218.4</ele>
        <time>2022-07-16T08:27:13Z</time>
      </trkpt>
      <trkpt lat="46.49504" lon="5.35579">
        <ele>219.4</ele>
        <time>2022-07-16T08:27:18Z</time>
      </trkpt>
      <trkpt lat="46.49492" lon="5.35574">
        <ele>219.6</ele>
        <time>2022-07-16T08:27:20Z</time>
      </trkpt>
      <trkpt lat="46.49455" lon="5.35557">
        <ele>220.2</ele>
        <time>2022-07-16T08:27:26Z</time>
      </trkpt>
      <trkpt lat="46.4945" lon="5.35556">
        <ele>220.2</ele>
        <time>2022-07-16T08:27:27Z</time>
      </trkpt>
      <trkpt lat="46.49413" lon="5.3554">
        <ele>220.2</ele>
        <time>2022-07-16T08:27:33Z</time>
      </trkpt>
      <trkpt lat="46.49393" lon="5.35534">
        <ele>220.6</ele>
        <time>2022-07-16T08:27:36Z</time>
      </trkpt>
      <trkpt lat="46.49348" lon="5.3553">
        <ele>221</ele>
        <time>2022-07-16T08:27:43Z</time>
      </trkpt>
      <trkpt lat="46.49322" lon="5.3553">
        <ele>221.2</ele>
        <time>2022-07-16T08:27:47Z</time>
      </trkpt>
      <trkpt lat="46.49317" lon="5.3553">
        <ele>221.4</ele>
        <time>2022-07-16T08:27:48Z</time>
      </trkpt>
      <trkpt lat="46.4931" lon="5.3553">
        <ele>221.6</ele>
        <time>2022-07-16T08:27:49Z</time>
      </trkpt>
      <trkpt lat="46.49304" lon="5.35529">
        <ele>221.6</ele>
        <time>2022-07-16T08:27:50Z</time>
      </trkpt>
      <trkpt lat="46.49279" lon="5.35531">
        <ele>222.4</ele>
        <time>2022-07-16T08:27:54Z</time>
      </trkpt>
      <trkpt lat="46.49272" lon="5.35531">
        <ele>222.6</ele>
        <time>2022-07-16T08:27:55Z</time>
      </trkpt>
      <trkpt lat="46.49259" lon="5.35533">
        <ele>222.8</ele>
        <time>2022-07-16T08:27:57Z</time>
      </trkpt>
      <trkpt lat="46.49233" lon="5.35537">
        <ele>223</ele>
        <time>2022-07-16T08:28:01Z</time>
      </trkpt>
      <trkpt lat="46.49191" lon="5.35539">
        <ele>223.2</ele>
        <time>2022-07-16T08:28:07Z</time>
      </trkpt>
      <trkpt lat="46.49168" lon="5.35541">
        <ele>223.2</ele>
        <time>2022-07-16T08:28:10Z</time>
      </trkpt>
      <trkpt lat="46.49152" lon="5.35542">
        <ele>222.8</ele>
        <time>2022-07-16T08:28:12Z</time>
      </trkpt>
      <trkpt lat="46.49091" lon="5.35545">
        <ele>222</ele>
        <time>2022-07-16T08:28:19Z</time>
      </trkpt>
      <trkpt lat="46.49058" lon="5.35547">
        <ele>221.4</ele>
        <time>2022-07-16T08:28:23Z</time>
      </trkpt>
      <trkpt lat="46.49041" lon="5.35548">
        <ele>221</ele>
        <time>2022-07-16T08:28:25Z</time>
      </trkpt>
      <trkpt lat="46.49014" lon="5.3555">
        <ele>220.2</ele>
        <time>2022-07-16T08:28:28Z</time>
      </trkpt>
      <trkpt lat="46.48987" lon="5.35551">
        <ele>219.6</ele>
        <time>2022-07-16T08:28:31Z</time>
      </trkpt>
      <trkpt lat="46.48979" lon="5.35552">
        <ele>219.2</ele>
        <time>2022-07-16T08:28:32Z</time>
      </trkpt>
      <trkpt lat="46.48938" lon="5.35554">
        <ele>218.6</ele>
        <time>2022-07-16T08:28:37Z</time>
      </trkpt>
      <trkpt lat="46.48896" lon="5.35554">
        <ele>219.2</ele>
        <time>2022-07-16T08:28:43Z</time>
      </trkpt>
      <trkpt lat="46.48869" lon="5.35557">
        <ele>220.2</ele>
        <time>2022-07-16T08:28:47Z</time>
      </trkpt>
      <trkpt lat="46.48857" lon="5.35557">
        <ele>220.8</ele>
        <time>2022-07-16T08:28:49Z</time>
      </trkpt>
      <trkpt lat="46.48851" lon="5.35557">
        <ele>221</ele>
        <time>2022-07-16T08:28:50Z</time>
      </trkpt>
      <trkpt lat="46.48847" lon="5.35559">
        <ele>221.4</ele>
        <time>2022-07-16T08:28:51Z</time>
      </trkpt>
      <trkpt lat="46.48842" lon="5.35562">
        <ele>221.4</ele>
        <time>2022-07-16T08:28:52Z</time>
      </trkpt>
      <trkpt lat="46.48838" lon="5.35565">
        <ele>221.6</ele>
        <time>2022-07-16T08:28:53Z</time>
      </trkpt>
      <trkpt lat="46.48833" lon="5.3557">
        <ele>221.8</ele>
        <time>2022-07-16T08:28:54Z</time>
      </trkpt>
      <trkpt lat="46.48824" lon="5.35584">
        <ele>222</ele>
        <time>2022-07-16T08:28:56Z</time>
      </trkpt>
      <trkpt lat="46.48821" lon="5.35592">
        <ele>222</ele>
        <time>2022-07-16T08:28:57Z</time>
      </trkpt>
      <trkpt lat="46.48801" lon="5.35638">
        <ele>222.2</ele>
        <time>2022-07-16T08:29:02Z</time>
      </trkpt>
      <trkpt lat="46.48774" lon="5.35704">
        <ele>222.2</ele>
        <time>2022-07-16T08:29:09Z</time>
      </trkpt>
      <trkpt lat="46.48747" lon="5.35768">
        <ele>222.2</ele>
        <time>2022-07-16T08:29:16Z</time>
      </trkpt>
      <trkpt lat="46.48718" lon="5.35836">
        <ele>222</ele>
        <time>2022-07-16T08:29:24Z</time>
      </trkpt>
      <trkpt lat="46.48704" lon="5.35869">
        <ele>222.4</ele>
        <time>2022-07-16T08:29:28Z</time>
      </trkpt>
      <trkpt lat="46.48698" lon="5.35883">
        <ele>222.8</ele>
        <time>2022-07-16T08:29:30Z</time>
      </trkpt>
      <trkpt lat="46.48688" lon="5.35908">
        <ele>223.4</ele>
        <time>2022-07-16T08:29:33Z</time>
      </trkpt>
      <trkpt lat="46.48686" lon="5.35917">
        <ele>223.6</ele>
        <time>2022-07-16T08:29:34Z</time>
      </trkpt>
      <trkpt lat="46.48678" lon="5.35971">
        <ele>224.6</ele>
        <time>2022-07-16T08:29:40Z</time>
      </trkpt>
      <trkpt lat="46.48677" lon="5.35979">
        <ele>224.6</ele>
        <time>2022-07-16T08:29:41Z</time>
      </trkpt>
      <trkpt lat="46.48663" lon="5.36055">
        <ele>225</ele>
        <time>2022-07-16T08:29:49Z</time>
      </trkpt>
      <trkpt lat="46.48648" lon="5.36122">
        <ele>223.8</ele>
        <time>2022-07-16T08:29:55Z</time>
      </trkpt>
      <trkpt lat="46.48645" lon="5.36143">
        <ele>223.2</ele>
        <time>2022-07-16T08:29:57Z</time>
      </trkpt>
      <trkpt lat="46.48642" lon="5.36174">
        <ele>222.8</ele>
        <time>2022-07-16T08:30:00Z</time>
      </trkpt>
      <trkpt lat="46.48638" lon="5.36222">
        <ele>222.8</ele>
        <time>2022-07-16T08:30:05Z</time>
      </trkpt>
      <trkpt lat="46.48628" lon="5.36293">
        <ele>223.8</ele>
        <time>2022-07-16T08:30:13Z</time>
      </trkpt>
      <trkpt lat="46.48626" lon="5.36301">
        <ele>224</ele>
        <time>2022-07-16T08:30:14Z</time>
      </trkpt>
      <trkpt lat="46.48618" lon="5.36314">
        <ele>224.2</ele>
        <time>2022-07-16T08:30:16Z</time>
      </trkpt>
      <trkpt lat="46.48608" lon="5.36322">
        <ele>224.6</ele>
        <time>2022-07-16T08:30:18Z</time>
      </trkpt>
      <trkpt lat="46.48603" lon="5.36324">
        <ele>225</ele>
        <time>2022-07-16T08:30:19Z</time>
      </trkpt>
      <trkpt lat="46.48586" lon="5.36327">
        <ele>226</ele>
        <time>2022-07-16T08:30:22Z</time>
      </trkpt>
      <trkpt lat="46.48556" lon="5.36329">
        <ele>227</ele>
        <time>2022-07-16T08:30:27Z</time>
      </trkpt>
      <trkpt lat="46.48538" lon="5.36331">
        <ele>228.2</ele>
        <time>2022-07-16T08:30:30Z</time>
      </trkpt>
      <trkpt lat="46.48508" lon="5.36336">
        <ele>229.4</ele>
        <time>2022-07-16T08:30:35Z</time>
      </trkpt>
      <trkpt lat="46.48495" lon="5.36339">
        <ele>229.8</ele>
        <time>2022-07-16T08:30:37Z</time>
      </trkpt>
      <trkpt lat="46.48463" lon="5.36343">
        <ele>230.4</ele>
        <time>2022-07-16T08:30:42Z</time>
      </trkpt>
      <trkpt lat="46.48437" lon="5.36348">
        <ele>230.4</ele>
        <time>2022-07-16T08:30:46Z</time>
      </trkpt>
      <trkpt lat="46.48417" lon="5.36355">
        <ele>230.8</ele>
        <time>2022-07-16T08:30:49Z</time>
      </trkpt>
      <trkpt lat="46.48405" lon="5.36363">
        <ele>230.8</ele>
        <time>2022-07-16T08:30:51Z</time>
      </trkpt>
      <trkpt lat="46.48371" lon="5.36395">
        <ele>231.2</ele>
        <time>2022-07-16T08:30:57Z</time>
      </trkpt>
      <trkpt lat="46.4835" lon="5.36418">
        <ele>231.4</ele>
        <time>2022-07-16T08:31:01Z</time>
      </trkpt>
      <trkpt lat="46.48311" lon="5.36461">
        <ele>232.4</ele>
        <time>2022-07-16T08:31:09Z</time>
      </trkpt>
      <trkpt lat="46.48307" lon="5.36467">
        <ele>232.6</ele>
        <time>2022-07-16T08:31:10Z</time>
      </trkpt>
      <trkpt lat="46.4828" lon="5.36497">
        <ele>233.6</ele>
        <time>2022-07-16T08:31:16Z</time>
      </trkpt>
      <trkpt lat="46.48267" lon="5.36512">
        <ele>234.2</ele>
        <time>2022-07-16T08:31:19Z</time>
      </trkpt>
      <trkpt lat="46.48253" lon="5.36526">
        <ele>234.8</ele>
        <time>2022-07-16T08:31:22Z</time>
      </trkpt>
      <trkpt lat="46.48228" lon="5.36553">
        <ele>235</ele>
        <time>2022-07-16T08:31:28Z</time>
      </trkpt>
      <trkpt lat="46.48223" lon="5.36557">
        <ele>235.2</ele>
        <time>2022-07-16T08:31:29Z</time>
      </trkpt>
      <trkpt lat="46.48218" lon="5.36559">
        <ele>235.4</ele>
        <time>2022-07-16T08:31:30Z</time>
      </trkpt>
      <trkpt lat="46.48207" lon="5.36559">
        <ele>235.6</ele>
        <time>2022-07-16T08:31:32Z</time>
      </trkpt>
      <trkpt lat="46.48202" lon="5.36559">
        <ele>235.8</ele>
        <time>2022-07-16T08:31:33Z</time>
      </trkpt>
      <trkpt lat="46.48197" lon="5.36562">
        <ele>236.2</ele>
        <time>2022-07-16T08:31:34Z</time>
      </trkpt>
      <trkpt lat="46.48193" lon="5.36566">
        <ele>236.2</ele>
        <time>2022-07-16T08:31:35Z</time>
      </trkpt>
      <trkpt lat="46.48191" lon="5.36573">
        <ele>236.6</ele>
        <time>2022-07-16T08:31:36Z</time>
      </trkpt>
      <trkpt lat="46.48191" lon="5.36589">
        <ele>236.8</ele>
        <time>2022-07-16T08:31:38Z</time>
      </trkpt>
      <trkpt lat="46.48194" lon="5.36595">
        <ele>236.8</ele>
        <time>2022-07-16T08:31:39Z</time>
      </trkpt>
      <trkpt lat="46.48199" lon="5.36599">
        <ele>237</ele>
        <time>2022-07-16T08:31:40Z</time>
      </trkpt>
      <trkpt lat="46.48204" lon="5.36601">
        <ele>237</ele>
        <time>2022-07-16T08:31:41Z</time>
      </trkpt>
      <trkpt lat="46.4821" lon="5.366">
        <ele>237</ele>
        <time>2022-07-16T08:31:42Z</time>
      </trkpt>
      <trkpt lat="46.4822" lon="5.3659">
        <ele>237</ele>
        <time>2022-07-16T08:31:44Z</time>
      </trkpt>
      <trkpt lat="46.4822" lon="5.36574">
        <ele>237</ele>
        <time>2022-07-16T08:31:46Z</time>
      </trkpt>
      <trkpt lat="46.48212" lon="5.36562">
        <ele>237</ele>
        <time>2022-07-16T08:31:48Z</time>
      </trkpt>
      <trkpt lat="46.48201" lon="5.3656">
        <ele>237</ele>
        <time>2022-07-16T08:31:50Z</time>
      </trkpt>
      <trkpt lat="46.48197" lon="5.36564">
        <ele>237</ele>
        <time>2022-07-16T08:31:51Z</time>
      </trkpt>
      <trkpt lat="46.48194" lon="5.36569">
        <ele>237</ele>
        <time>2022-07-16T08:31:52Z</time>
      </trkpt>
      <trkpt lat="46.48193" lon="5.36584">
        <ele>237.2</ele>
        <time>2022-07-16T08:31:54Z</time>
      </trkpt>
      <trkpt lat="46.48199" lon="5.36596">
        <ele>237</ele>
        <time>2022-07-16T08:31:56Z</time>
      </trkpt>
      <trkpt lat="46.48204" lon="5.36599">
        <ele>237</ele>
        <time>2022-07-16T08:31:57Z</time>
      </trkpt>
      <trkpt lat="46.48209" lon="5.36598">
        <ele>237</ele>
        <time>2022-07-16T08:31:58Z</time>
      </trkpt>
      <trkpt lat="46.48218" lon="5.3659">
        <ele>237</ele>
        <time>2022-07-16T08:32:00Z</time>
      </trkpt>
      <trkpt lat="46.48219" lon="5.36573">
        <ele>237.2</ele>
        <time>2022-07-16T08:32:02Z</time>
      </trkpt>
      <trkpt lat="46.48211" lon="5.36561">
        <ele>237.2</ele>
        <time>2022-07-16T08:32:04Z</time>
      </trkpt>
      <trkpt lat="46.48199" lon="5.36562">
        <ele>237.2</ele>
        <time>2022-07-16T08:32:06Z</time>
      </trkpt>
      <trkpt lat="46.48192" lon="5.36572">
        <ele>237.4</ele>
        <time>2022-07-16T08:32:08Z</time>
      </trkpt>
      <trkpt lat="46.48189" lon="5.3658">
        <ele>237.4</ele>
        <time>2022-07-16T08:32:09Z</time>
      </trkpt>
      <trkpt lat="46.48184" lon="5.36596">
        <ele>237.4</ele>
        <time>2022-07-16T08:32:11Z</time>
      </trkpt>
      <trkpt lat="46.48176" lon="5.3661">
        <ele>237.4</ele>
        <time>2022-07-16T08:32:13Z</time>
      </trkpt>
      <trkpt lat="46.48146" lon="5.36642">
        <ele>237.6</ele>
        <time>2022-07-16T08:32:19Z</time>
      </trkpt>
      <trkpt lat="46.48137" lon="5.36655">
        <ele>237.6</ele>
        <time>2022-07-16T08:32:21Z</time>
      </trkpt>
      <trkpt lat="46.48127" lon="5.36665">
        <ele>237.8</ele>
        <time>2022-07-16T08:32:23Z</time>
      </trkpt>
      <trkpt lat="46.48118" lon="5.36675">
        <ele>237.8</ele>
        <time>2022-07-16T08:32:25Z</time>
      </trkpt>
      <trkpt lat="46.4811" lon="5.36684">
        <ele>238</ele>
        <time>2022-07-16T08:32:27Z</time>
      </trkpt>
      <trkpt lat="46.48107" lon="5.36688">
        <ele>238</ele>
        <time>2022-07-16T08:32:28Z</time>
      </trkpt>
      <trkpt lat="46.48105" lon="5.36699">
        <ele>238.4</ele>
        <time>2022-07-16T08:32:30Z</time>
      </trkpt>
      <trkpt lat="46.48107" lon="5.36705">
        <ele>238.4</ele>
        <time>2022-07-16T08:32:31Z</time>
      </trkpt>
      <trkpt lat="46.4811" lon="5.36709">
        <ele>238.4</ele>
        <time>2022-07-16T08:32:32Z</time>
      </trkpt>
      <trkpt lat="46.48122" lon="5.3672">
        <ele>239</ele>
        <time>2022-07-16T08:32:35Z</time>
      </trkpt>
      <trkpt lat="46.48126" lon="5.36724">
        <ele>239</ele>
        <time>2022-07-16T08:32:36Z</time>
      </trkpt>
      <trkpt lat="46.4816" lon="5.36749">
        <ele>240.2</ele>
        <time>2022-07-16T08:32:44Z</time>
      </trkpt>
      <trkpt lat="46.48164" lon="5.36752">
        <ele>240.6</ele>
        <time>2022-07-16T08:32:45Z</time>
      </trkpt>
      <trkpt lat="46.48176" lon="5.36761">
        <ele>241.2</ele>
        <time>2022-07-16T08:32:48Z</time>
      </trkpt>
      <trkpt lat="46.4819" lon="5.36773">
        <ele>242.6</ele>
        <time>2022-07-16T08:32:52Z</time>
      </trkpt>
      <trkpt lat="46.48197" lon="5.36778">
        <ele>243.2</ele>
        <time>2022-07-16T08:32:54Z</time>
      </trkpt>
      <trkpt lat="46.482" lon="5.36781">
        <ele>243.4</ele>
        <time>2022-07-16T08:32:55Z</time>
      </trkpt>
      <trkpt lat="46.48214" lon="5.36792">
        <ele>244.6</ele>
        <time>2022-07-16T08:32:59Z</time>
      </trkpt>
      <trkpt lat="46.48227" lon="5.36804">
        <ele>245.8</ele>
        <time>2022-07-16T08:33:03Z</time>
      </trkpt>
      <trkpt lat="46.48231" lon="5.36807">
        <ele>246</ele>
        <time>2022-07-16T08:33:04Z</time>
      </trkpt>
      <trkpt lat="46.48245" lon="5.36818">
        <ele>246.8</ele>
        <time>2022-07-16T08:33:08Z</time>
      </trkpt>
      <trkpt lat="46.48261" lon="5.36834">
        <ele>248.2</ele>
        <time>2022-07-16T08:33:13Z</time>
      </trkpt>
    </trkseg>
  </trk>
</gpx>